<?xml version='1.0' encoding='UTF-8'?><gpx version="1.1" creator="JPX - https://github.com/jenetics/jpx" xmlns="http://www.topografix.com/GPX/1/1"><trk><trkseg><trkpt lat="43.19196120427475" lon="0.9745050979668803"><ele>312.0</ele><time>2026-03-29T09:54:15Z</time></trkpt><trkpt lat="43.1919142514004" lon="0.97457734993802"><ele>312.0</ele><time>2026-03-29T09:54:17Z</time></trkpt><trkpt lat="43.19186676484075" lon="0.974637184285025"><ele>312.0</ele><time>2026-03-29T09:54:19Z</time></trkpt><trkpt lat="43.19186460374926" lon="0.9747513046602371"><ele>312.0</ele><time>2026-03-29T09:54:21Z</time></trkpt><trkpt lat="43.19182889802608" lon="0.9748316883525093"><ele>312.0</ele><time>2026-03-29T09:54:36Z</time></trkpt><trkpt lat="43.19185849610416" lon="0.9749171089931293"><ele>312.0</ele><time>2026-03-29T09:55:56Z</time></trkpt><trkpt lat="43.19189126281349" lon="0.9750305847506509"><ele>312.0</ele><time>2026-03-29T09:55:57Z</time></trkpt><trkpt lat="43.19193065059891" lon="0.9751660294161829"><ele>311.8333333333333</ele><time>2026-03-29T09:55:58Z</time></trkpt><trkpt lat="43.191959520286936" lon="0.9752441647828229"><ele>311.6666666666667</ele><time>2026-03-29T09:55:59Z</time></trkpt><trkpt lat="43.19193800292191" lon="0.9753311213124085"><ele>311.5</ele><time>2026-03-29T09:56:00Z</time></trkpt><trkpt lat="43.191958192271805" lon="0.9754138997827054"><ele>311.33333333333337</ele><time>2026-03-29T09:56:01Z</time></trkpt><trkpt lat="43.192003413143915" lon="0.9755390353386565"><ele>311.1666666666667</ele><time>2026-03-29T09:56:03Z</time></trkpt><trkpt lat="43.192021953929554" lon="0.9756373805315097"><ele>311.0</ele><time>2026-03-29T09:56:04Z</time></trkpt><trkpt lat="43.19205561033455" lon="0.9757851436890609"><ele>310.40000000000003</ele><time>2026-03-29T09:56:06Z</time></trkpt><trkpt lat="43.1920969750974" lon="0.9758901930816932"><ele>309.8</ele><time>2026-03-29T09:56:07Z</time></trkpt><trkpt lat="43.19215553041422" lon="0.9759852213578206"><ele>309.20000000000005</ele><time>2026-03-29T09:56:08Z</time></trkpt><trkpt lat="43.19220568908103" lon="0.9761186714470915"><ele>308.6</ele><time>2026-03-29T09:56:09Z</time></trkpt><trkpt lat="43.19226333849534" lon="0.9762178660044925"><ele>308.0</ele><time>2026-03-29T09:56:10Z</time></trkpt><trkpt lat="43.19232184925175" lon="0.9763167094818552"><ele>310.25</ele><time>2026-03-29T09:56:11Z</time></trkpt><trkpt lat="43.192389495098524" lon="0.9764302813095759"><ele>312.5</ele><time>2026-03-29T09:56:12Z</time></trkpt><trkpt lat="43.19247198503306" lon="0.9765687751812848"><ele>314.75</ele><time>2026-03-29T09:56:13Z</time></trkpt><trkpt lat="43.192567992189566" lon="0.9767298948889613"><ele>317.0</ele><time>2026-03-29T09:56:14Z</time></trkpt><trkpt lat="43.192653343500304" lon="0.9768693925604327"><ele>317.0</ele><time>2026-03-29T09:56:15Z</time></trkpt><trkpt lat="43.19274423332229" lon="0.9770171930824024"><ele>317.0</ele><time>2026-03-29T09:56:16Z</time></trkpt><trkpt lat="43.19281854391726" lon="0.9771367879334755"><ele>317.0</ele><time>2026-03-29T09:56:17Z</time></trkpt><trkpt lat="43.19289378027286" lon="0.9772578726391133"><ele>317.0</ele><time>2026-03-29T09:56:18Z</time></trkpt><trkpt lat="43.192959275650864" lon="0.9773632803635842"><ele>317.0</ele><time>2026-03-29T09:56:19Z</time></trkpt><trkpt lat="43.19300983067482" lon="0.977444572105426"><ele>317.0</ele><time>2026-03-29T09:56:20Z</time></trkpt><trkpt lat="43.19305332305073" lon="0.9775141827683584"><ele>317.0</ele><time>2026-03-29T09:56:21Z</time></trkpt><trkpt lat="43.19310226302546" lon="0.9775925124271456"><ele>317.0</ele><time>2026-03-29T09:56:23Z</time></trkpt><trkpt lat="43.1930084819297" lon="0.9774450976299889"><ele>317.0</ele><time>2026-03-29T09:56:41Z</time></trkpt><trkpt lat="43.192925869641115" lon="0.9773004871117392"><ele>317.0</ele><time>2026-03-29T09:56:42Z</time></trkpt><trkpt lat="43.19286230564087" lon="0.9771369018017203"><ele>317.0</ele><time>2026-03-29T09:56:43Z</time></trkpt><trkpt lat="43.192761496353974" lon="0.9769746602046063"><ele>317.0</ele><time>2026-03-29T09:56:44Z</time></trkpt><trkpt lat="43.192666872514934" lon="0.9768521101690165"><ele>317.0</ele><time>2026-03-29T09:56:45Z</time></trkpt><trkpt lat="43.19260279816904" lon="0.9767158289431531"><ele>317.8</ele><time>2026-03-29T09:56:46Z</time></trkpt><trkpt lat="43.19253513003426" lon="0.9766026940467596"><ele>318.6</ele><time>2026-03-29T09:56:47Z</time></trkpt><trkpt lat="43.19246994019555" lon="0.9764932456558256"><ele>319.40000000000003</ele><time>2026-03-29T09:56:48Z</time></trkpt><trkpt lat="43.19241678739605" lon="0.9764040064307627"><ele>320.2</ele><time>2026-03-29T09:56:49Z</time></trkpt><trkpt lat="43.19232490924687" lon="0.9762497505096848"><ele>321.0</ele><time>2026-03-29T09:56:50Z</time></trkpt><trkpt lat="43.19223097285361" lon="0.9760889964792075"><ele>319.0</ele><time>2026-03-29T09:56:52Z</time></trkpt><trkpt lat="43.19215864641072" lon="0.975942730964697"><ele>317.0</ele><time>2026-03-29T09:56:53Z</time></trkpt><trkpt lat="43.19209182883484" lon="0.975767457339064"><ele>315.0</ele><time>2026-03-29T09:56:55Z</time></trkpt><trkpt lat="43.19206455239772" lon="0.9756852464585689"><ele>313.0</ele><time>2026-03-29T09:56:56Z</time></trkpt><trkpt lat="43.1920406948268" lon="0.9755969135919715"><ele>311.0</ele><time>2026-03-29T09:56:57Z</time></trkpt><trkpt lat="43.19200935628166" lon="0.9755002736622433"><ele>311.0</ele><time>2026-03-29T09:57:00Z</time></trkpt><trkpt lat="43.19197398742532" lon="0.9753706282611336"><ele>311.0</ele><time>2026-03-29T09:57:02Z</time></trkpt><trkpt lat="43.1919309455469" lon="0.9752003063743545"><ele>311.0</ele><time>2026-03-29T09:57:04Z</time></trkpt><trkpt lat="43.19191315567322" lon="0.9751140791310047"><ele>311.0</ele><time>2026-03-29T09:57:05Z</time></trkpt><trkpt lat="43.191893855297046" lon="0.9750174807993048"><ele>311.0</ele><time>2026-03-29T09:57:06Z</time></trkpt><trkpt lat="43.19186998314006" lon="0.9749079326035257"><ele>311.2</ele><time>2026-03-29T09:57:07Z</time></trkpt><trkpt lat="43.19183584795609" lon="0.9747677801371837"><ele>311.40000000000003</ele><time>2026-03-29T09:57:09Z</time></trkpt><trkpt lat="43.1918182304498" lon="0.9746761737241011"><ele>311.6</ele><time>2026-03-29T09:57:11Z</time></trkpt><trkpt lat="43.1917938912429" lon="0.9744674391795926"><ele>311.8</ele><time>2026-03-29T09:57:13Z</time></trkpt><trkpt lat="43.19176727213611" lon="0.9743181301674476"><ele>312.0</ele><time>2026-03-29T09:57:14Z</time></trkpt><trkpt lat="43.191739635904966" lon="0.974183020369396"><ele>312.5</ele><time>2026-03-29T09:57:16Z</time></trkpt><trkpt lat="43.19168860779655" lon="0.9739815930605945"><ele>313.0</ele><time>2026-03-29T09:57:30Z</time></trkpt><trkpt lat="43.19166277119676" lon="0.9738555705143794"><ele>313.5</ele><time>2026-03-29T09:57:31Z</time></trkpt><trkpt lat="43.191633239760414" lon="0.9737139621054097"><ele>314.0</ele><time>2026-03-29T09:57:32Z</time></trkpt><trkpt lat="43.19160641069021" lon="0.9735682468448105"><ele>314.0</ele><time>2026-03-29T09:57:33Z</time></trkpt><trkpt lat="43.19158300591554" lon="0.9734030785334792"><ele>314.0</ele><time>2026-03-29T09:57:35Z</time></trkpt><trkpt lat="43.19156499316377" lon="0.9732561982021448"><ele>314.0</ele><time>2026-03-29T09:57:37Z</time></trkpt><trkpt lat="43.19154618589376" lon="0.9731257641399964"><ele>314.0</ele><time>2026-03-29T09:57:39Z</time></trkpt><trkpt lat="43.19152963113801" lon="0.9730078064799264"><ele>314.0</ele><time>2026-03-29T09:57:42Z</time></trkpt><trkpt lat="43.19149156618572" lon="0.9728963681311393"><ele>313.6666666666667</ele><time>2026-03-29T09:57:44Z</time></trkpt><trkpt lat="43.191456543496116" lon="0.9727996706123578"><ele>313.33333333333337</ele><time>2026-03-29T09:57:47Z</time></trkpt><trkpt lat="43.19141168508783" lon="0.9727281216451125"><ele>313.0</ele><time>2026-03-29T09:57:53Z</time></trkpt><trkpt lat="43.19138652371164" lon="0.9726392332548212"><ele>312.6666666666667</ele><time>2026-03-29T09:57:58Z</time></trkpt><trkpt lat="43.19127807826" lon="0.9725678799425521"><ele>312.3333333333333</ele><time>2026-03-29T09:58:00Z</time></trkpt><trkpt lat="43.19134567344657" lon="0.9725883058451458"><ele>312.0</ele><time>2026-03-29T09:58:08Z</time></trkpt><trkpt lat="43.191411142195996" lon="0.9726629787925961"><ele>312.0</ele><time>2026-03-29T09:58:11Z</time></trkpt><trkpt lat="43.19139776760305" lon="0.9727955831445617"><ele>312.0</ele><time>2026-03-29T09:58:15Z</time></trkpt><trkpt lat="43.191361120627654" lon="0.9728735201153054"><ele>312.0</ele><time>2026-03-29T09:58:16Z</time></trkpt><trkpt lat="43.191299406412384" lon="0.9729607583290542"><ele>312.0</ele><time>2026-03-29T09:58:17Z</time></trkpt><trkpt lat="43.19121103326743" lon="0.9729686853231908"><ele>312.0</ele><time>2026-03-29T09:58:18Z</time></trkpt><trkpt lat="43.19115363041135" lon="0.9731029091456609"><ele>312.0</ele><time>2026-03-29T09:58:20Z</time></trkpt><trkpt lat="43.19106108907459" lon="0.9732687130759673"><ele>312.0</ele><time>2026-03-29T09:58:22Z</time></trkpt><trkpt lat="43.19098089105095" lon="0.9734258386211121"><ele>312.0</ele><time>2026-03-29T09:58:23Z</time></trkpt><trkpt lat="43.190878905587674" lon="0.9736204441653615"><ele>311.8</ele><time>2026-03-29T09:58:24Z</time></trkpt><trkpt lat="43.19079826621317" lon="0.9737742650770798"><ele>311.6</ele><time>2026-03-29T09:58:25Z</time></trkpt><trkpt lat="43.190728051850556" lon="0.9739082001128896"><ele>311.40000000000003</ele><time>2026-03-29T09:58:26Z</time></trkpt><trkpt lat="43.190690885841036" lon="0.9740111972200127"><ele>311.2</ele><time>2026-03-29T09:58:27Z</time></trkpt><trkpt lat="43.19063814183749" lon="0.974092826199435"><ele>311.0</ele><time>2026-03-29T09:58:28Z</time></trkpt><trkpt lat="43.190570814875855" lon="0.9742467898466757"><ele>308.83333333333337</ele><time>2026-03-29T09:58:30Z</time></trkpt><trkpt lat="43.19053215240594" lon="0.9743171424566208"><ele>306.6666666666667</ele><time>2026-03-29T09:58:31Z</time></trkpt><trkpt lat="43.19045364556366" lon="0.9744581908744955"><ele>304.5</ele><time>2026-03-29T09:58:33Z</time></trkpt><trkpt lat="43.1904102120929" lon="0.9745221510832723"><ele>302.3333333333333</ele><time>2026-03-29T09:58:34Z</time></trkpt><trkpt lat="43.190384337612144" lon="0.9746081731967451"><ele>300.16666666666663</ele><time>2026-03-29T09:58:35Z</time></trkpt><trkpt lat="43.190344884543975" lon="0.9746776213552403"><ele>298.0</ele><time>2026-03-29T09:58:36Z</time></trkpt><trkpt lat="43.19027739084199" lon="0.9748103344360443"><ele>298.0</ele><time>2026-03-29T09:58:38Z</time></trkpt><trkpt lat="43.190221202072166" lon="0.9749193679107669"><ele>298.0</ele><time>2026-03-29T09:58:40Z</time></trkpt><trkpt lat="43.19017437756889" lon="0.9750129351601409"><ele>298.0</ele><time>2026-03-29T09:58:43Z</time></trkpt><trkpt lat="43.190232795009855" lon="0.9749532821584251"><ele>298.0</ele><time>2026-03-29T09:58:52Z</time></trkpt><trkpt lat="43.190307239593416" lon="0.9747806148271947"><ele>298.0</ele><time>2026-03-29T09:58:54Z</time></trkpt><trkpt lat="43.19035945063369" lon="0.9746830436244742"><ele>298.0</ele><time>2026-03-29T09:58:55Z</time></trkpt><trkpt lat="43.19041848218998" lon="0.9745544321503178"><ele>298.0</ele><time>2026-03-29T09:58:56Z</time></trkpt><trkpt lat="43.19046503140128" lon="0.974474416050147"><ele>298.0</ele><time>2026-03-29T09:58:57Z</time></trkpt><trkpt lat="43.190522315608376" lon="0.9743479018516941"><ele>298.0</ele><time>2026-03-29T09:59:00Z</time></trkpt><trkpt lat="43.19055734003516" lon="0.9742760863627472"><ele>298.0</ele><time>2026-03-29T09:59:01Z</time></trkpt><trkpt lat="43.190621288212704" lon="0.9741907631032045"><ele>298.0</ele><time>2026-03-29T09:59:02Z</time></trkpt><trkpt lat="43.190691878093546" lon="0.9740553505758525"><ele>302.3333333333333</ele><time>2026-03-29T09:59:03Z</time></trkpt><trkpt lat="43.19078109554057" lon="0.9738851668696283"><ele>306.6666666666667</ele><time>2026-03-29T09:59:04Z</time></trkpt><trkpt lat="43.19087606855266" lon="0.973704004308777"><ele>311.0</ele><time>2026-03-29T09:59:05Z</time></trkpt><trkpt lat="43.19095662904954" lon="0.9735503338770002"><ele>311.0</ele><time>2026-03-29T09:59:06Z</time></trkpt><trkpt lat="43.191006213779026" lon="0.9734329510938952"><ele>311.0</ele><time>2026-03-29T09:59:07Z</time></trkpt><trkpt lat="43.19104512119577" lon="0.9733511357468606"><ele>311.0</ele><time>2026-03-29T09:59:08Z</time></trkpt><trkpt lat="43.19110671408766" lon="0.9732588780279482"><ele>311.0</ele><time>2026-03-29T09:59:10Z</time></trkpt><trkpt lat="43.191144141911764" lon="0.9731855486740373"><ele>311.0</ele><time>2026-03-29T09:59:11Z</time></trkpt><trkpt lat="43.19118414583272" lon="0.9730984260442945"><ele>311.0</ele><time>2026-03-29T09:59:12Z</time></trkpt><trkpt lat="43.19123338082335" lon="0.9729878494815201"><ele>311.1666666666667</ele><time>2026-03-29T09:59:13Z</time></trkpt><trkpt lat="43.19128489964338" lon="0.9729101051359399"><ele>311.33333333333337</ele><time>2026-03-29T09:59:14Z</time></trkpt><trkpt lat="43.19135345562988" lon="0.9728636199532463"><ele>311.5</ele><time>2026-03-29T09:59:15Z</time></trkpt><trkpt lat="43.191414610403335" lon="0.9728346345894469"><ele>311.6666666666667</ele><time>2026-03-29T09:59:16Z</time></trkpt><trkpt lat="43.191491273342756" lon="0.972784597993211"><ele>311.8333333333333</ele><time>2026-03-29T09:59:18Z</time></trkpt><trkpt lat="43.19149449032731" lon="0.9729413681682852"><ele>312.0</ele><time>2026-03-29T09:59:20Z</time></trkpt><trkpt lat="43.19152126928297" lon="0.9731178325355602"><ele>312.4</ele><time>2026-03-29T09:59:22Z</time></trkpt><trkpt lat="43.19154110231038" lon="0.9732666734544796"><ele>312.79999999999995</ele><time>2026-03-29T09:59:23Z</time></trkpt><trkpt lat="43.19156053077053" lon="0.9734165146282395"><ele>313.2</ele><time>2026-03-29T09:59:24Z</time></trkpt><trkpt lat="43.191572646859676" lon="0.9735220236963428"><ele>313.59999999999997</ele><time>2026-03-29T09:59:25Z</time></trkpt><trkpt lat="43.19158916857306" lon="0.9736232820371546"><ele>314.0</ele><time>2026-03-29T09:59:26Z</time></trkpt><trkpt lat="43.191608370832114" lon="0.9737350262457997"><ele>313.99999999999994</ele><time>2026-03-29T09:59:27Z</time></trkpt><trkpt lat="43.191637850887105" lon="0.973854554448664"><ele>314.0</ele><time>2026-03-29T09:59:28Z</time></trkpt><trkpt lat="43.19165575758044" lon="0.9739478179523953"><ele>314.0</ele><time>2026-03-29T09:59:29Z</time></trkpt><trkpt lat="43.191680834706254" lon="0.9740457255978707"><ele>314.0</ele><time>2026-03-29T09:59:30Z</time></trkpt><trkpt lat="43.19170363692107" lon="0.974142857434761"><ele>314.0</ele><time>2026-03-29T09:59:31Z</time></trkpt><trkpt lat="43.19171995353988" lon="0.9742290236699549"><ele>313.99999999999994</ele><time>2026-03-29T09:59:32Z</time></trkpt><trkpt lat="43.19173780166899" lon="0.9743228965428632"><ele>314.0</ele><time>2026-03-29T09:59:33Z</time></trkpt><trkpt lat="43.191757964137814" lon="0.9744414877305048"><ele>313.71428571428567</ele><time>2026-03-29T09:59:34Z</time></trkpt><trkpt lat="43.19177912216595" lon="0.9745491855792628"><ele>313.42857142857144</ele><time>2026-03-29T09:59:36Z</time></trkpt><trkpt lat="43.19176343827405" lon="0.974643147314104"><ele>313.1428571428571</ele><time>2026-03-29T10:03:23Z</time></trkpt><trkpt lat="43.191818668239925" lon="0.9746891653502007"><ele>312.85714285714283</ele><time>2026-03-29T10:03:51Z</time></trkpt><trkpt lat="43.191765423673026" lon="0.974635576177804"><ele>312.57142857142856</ele><time>2026-03-29T10:12:27Z</time></trkpt><trkpt lat="43.19182963572553" lon="0.9746531846563814"><ele>312.2857142857143</ele><time>2026-03-29T10:14:08Z</time></trkpt><trkpt lat="43.19181055551854" lon="0.9745637126180577"><ele>312.0</ele><time>2026-03-29T10:14:11Z</time></trkpt><trkpt lat="43.19174930618819" lon="0.9745191855165379"><ele>312.0</ele><time>2026-03-29T10:14:14Z</time></trkpt><trkpt lat="43.19175795653507" lon="0.9746066685501701"><ele>312.0</ele><time>2026-03-29T10:14:32Z</time></trkpt><trkpt lat="43.191787513614386" lon="0.9747438337776236"><ele>312.0</ele><time>2026-03-29T10:14:54Z</time></trkpt><trkpt lat="43.19183269309857" lon="0.9748766178881565"><ele>312.0</ele><time>2026-03-29T10:14:55Z</time></trkpt><trkpt lat="43.191901790162404" lon="0.9750920231830777"><ele>312.0</ele><time>2026-03-29T10:14:56Z</time></trkpt><trkpt lat="43.19195573035365" lon="0.9752560064689242"><ele>311.8333333333333</ele><time>2026-03-29T10:14:57Z</time></trkpt><trkpt lat="43.19195326356651" lon="0.9753936915433659"><ele>311.6666666666667</ele><time>2026-03-29T10:14:58Z</time></trkpt><trkpt lat="43.19199008558356" lon="0.9755056209749602"><ele>311.5</ele><time>2026-03-29T10:15:00Z</time></trkpt><trkpt lat="43.19201024987293" lon="0.9756065246731114"><ele>311.33333333333337</ele><time>2026-03-29T10:15:02Z</time></trkpt><trkpt lat="43.19203152506681" lon="0.9757032120751886"><ele>311.1666666666667</ele><time>2026-03-29T10:15:03Z</time></trkpt><trkpt lat="43.19206213178065" lon="0.975799387438831"><ele>311.0</ele><time>2026-03-29T10:15:04Z</time></trkpt><trkpt lat="43.192122392758904" lon="0.9759173596124823"><ele>310.25</ele><time>2026-03-29T10:15:05Z</time></trkpt><trkpt lat="43.192175634269766" lon="0.9760630210831739"><ele>309.5</ele><time>2026-03-29T10:15:06Z</time></trkpt><trkpt lat="43.19225814106395" lon="0.976208923021469"><ele>308.75</ele><time>2026-03-29T10:15:07Z</time></trkpt><trkpt lat="43.19235090616648" lon="0.9763412669967754"><ele>308.0</ele><time>2026-03-29T10:15:08Z</time></trkpt><trkpt lat="43.192434524705796" lon="0.9764956328924284"><ele>310.25</ele><time>2026-03-29T10:15:09Z</time></trkpt><trkpt lat="43.19250764509127" lon="0.976623264500765"><ele>312.5</ele><time>2026-03-29T10:15:10Z</time></trkpt><trkpt lat="43.19257881274461" lon="0.9767301930265719"><ele>314.75</ele><time>2026-03-29T10:15:11Z</time></trkpt><trkpt lat="43.19266183783229" lon="0.9768606598456815"><ele>317.0</ele><time>2026-03-29T10:15:12Z</time></trkpt><trkpt lat="43.19274872223808" lon="0.9770014000487552"><ele>317.0</ele><time>2026-03-29T10:15:13Z</time></trkpt><trkpt lat="43.19283428502753" lon="0.9771123037417865"><ele>317.0</ele><time>2026-03-29T10:15:14Z</time></trkpt><trkpt lat="43.19293531749168" lon="0.9772615643480637"><ele>317.0</ele><time>2026-03-29T10:15:15Z</time></trkpt><trkpt lat="43.19302061546495" lon="0.9773775048615047"><ele>317.0</ele><time>2026-03-29T10:15:16Z</time></trkpt><trkpt lat="43.19310893735456" lon="0.9775430942419934"><ele>317.4</ele><time>2026-03-29T10:15:17Z</time></trkpt><trkpt lat="43.19318129146004" lon="0.9776631117604746"><ele>317.79999999999995</ele><time>2026-03-29T10:15:18Z</time></trkpt><trkpt lat="43.193258919782004" lon="0.9777682278456243"><ele>318.2</ele><time>2026-03-29T10:15:19Z</time></trkpt><trkpt lat="43.19333419074128" lon="0.9778831780044528"><ele>318.59999999999997</ele><time>2026-03-29T10:15:20Z</time></trkpt><trkpt lat="43.19341705090621" lon="0.9779852805825544"><ele>319.0</ele><time>2026-03-29T10:15:21Z</time></trkpt><trkpt lat="43.193505948124255" lon="0.9780745830080557"><ele>319.0</ele><time>2026-03-29T10:15:22Z</time></trkpt><trkpt lat="43.19358925770888" lon="0.9781662192185758"><ele>319.0</ele><time>2026-03-29T10:15:23Z</time></trkpt><trkpt lat="43.19366345506944" lon="0.9782592241247812"><ele>319.0</ele><time>2026-03-29T10:15:24Z</time></trkpt><trkpt lat="43.19373051361909" lon="0.9783298766799473"><ele>319.0</ele><time>2026-03-29T10:15:25Z</time></trkpt><trkpt lat="43.193790405111116" lon="0.9784072975966472"><ele>319.0</ele><time>2026-03-29T10:15:26Z</time></trkpt><trkpt lat="43.19386660766527" lon="0.978512794816602"><ele>318.0</ele><time>2026-03-29T10:15:27Z</time></trkpt><trkpt lat="43.193950741490845" lon="0.9786339135354681"><ele>317.0</ele><time>2026-03-29T10:15:28Z</time></trkpt><trkpt lat="43.19402521173759" lon="0.9787697822383167"><ele>316.0</ele><time>2026-03-29T10:15:29Z</time></trkpt><trkpt lat="43.194101037679566" lon="0.9789591044570382"><ele>315.0</ele><time>2026-03-29T10:15:30Z</time></trkpt><trkpt lat="43.19416424941464" lon="0.979157090027026"><ele>317.6666666666667</ele><time>2026-03-29T10:15:31Z</time></trkpt><trkpt lat="43.19423748513706" lon="0.9793978664939469"><ele>320.33333333333337</ele><time>2026-03-29T10:15:32Z</time></trkpt><trkpt lat="43.19432277639684" lon="0.9796445573772534"><ele>323.0</ele><time>2026-03-29T10:15:33Z</time></trkpt><trkpt lat="43.19441533525032" lon="0.9798908417237628"><ele>321.0</ele><time>2026-03-29T10:15:34Z</time></trkpt><trkpt lat="43.19450268163226" lon="0.9801124827093174"><ele>319.0</ele><time>2026-03-29T10:15:35Z</time></trkpt><trkpt lat="43.19457302134967" lon="0.9803278760189299"><ele>317.0</ele><time>2026-03-29T10:15:36Z</time></trkpt><trkpt lat="43.194643018783125" lon="0.9805124699972845"><ele>317.0</ele><time>2026-03-29T10:15:37Z</time></trkpt><trkpt lat="43.19471322286126" lon="0.9806887018954775"><ele>317.0</ele><time>2026-03-29T10:15:38Z</time></trkpt><trkpt lat="43.194776218384995" lon="0.9808656912599044"><ele>317.0</ele><time>2026-03-29T10:15:39Z</time></trkpt><trkpt lat="43.194847901875136" lon="0.98103939944962"><ele>317.0</ele><time>2026-03-29T10:15:40Z</time></trkpt><trkpt lat="43.194912945299606" lon="0.9811973600244088"><ele>316.5</ele><time>2026-03-29T10:15:41Z</time></trkpt><trkpt lat="43.194974674244044" lon="0.9813508079540885"><ele>316.0</ele><time>2026-03-29T10:15:42Z</time></trkpt><trkpt lat="43.19502661553069" lon="0.9814918860536377"><ele>315.5</ele><time>2026-03-29T10:15:43Z</time></trkpt><trkpt lat="43.1950859053765" lon="0.981652696711202"><ele>315.0</ele><time>2026-03-29T10:15:44Z</time></trkpt><trkpt lat="43.195129115114725" lon="0.9817764793847247"><ele>314.6666666666667</ele><time>2026-03-29T10:15:45Z</time></trkpt><trkpt lat="43.195167697758684" lon="0.9818989998432254"><ele>314.3333333333333</ele><time>2026-03-29T10:15:46Z</time></trkpt><trkpt lat="43.19520868855009" lon="0.9819657493949578"><ele>314.0</ele><time>2026-03-29T10:15:47Z</time></trkpt><trkpt lat="43.19523871598023" lon="0.9820616963779831"><ele>313.66666666666663</ele><time>2026-03-29T10:15:48Z</time></trkpt><trkpt lat="43.195261864289265" lon="0.982159807697937"><ele>313.3333333333333</ele><time>2026-03-29T10:15:50Z</time></trkpt><trkpt lat="43.195293591409744" lon="0.9822373228346397"><ele>313.0</ele><time>2026-03-29T10:15:53Z</time></trkpt><trkpt lat="43.1953397591345" lon="0.982373413595036"><ele>313.0</ele><time>2026-03-29T10:15:57Z</time></trkpt><trkpt lat="43.1955725556934" lon="0.9821199478650839"><ele>313.0</ele><time>2026-03-29T10:16:02Z</time></trkpt><trkpt lat="43.19562245896707" lon="0.9819839123150065"><ele>313.0</ele><time>2026-03-29T10:16:04Z</time></trkpt><trkpt lat="43.19569663200255" lon="0.9819353775878114"><ele>314.8333333333333</ele><time>2026-03-29T10:16:05Z</time></trkpt><trkpt lat="43.19576320731731" lon="0.9819060226981466"><ele>316.66666666666663</ele><time>2026-03-29T10:16:06Z</time></trkpt><trkpt lat="43.19582451727066" lon="0.981854395672387"><ele>318.5</ele><time>2026-03-29T10:16:07Z</time></trkpt><trkpt lat="43.195900409329724" lon="0.9817866913661303"><ele>320.3333333333333</ele><time>2026-03-29T10:16:08Z</time></trkpt><trkpt lat="43.195970462127484" lon="0.9817149944160894"><ele>322.1666666666667</ele><time>2026-03-29T10:16:09Z</time></trkpt><trkpt lat="43.19606200237618" lon="0.9816282750612378"><ele>324.0</ele><time>2026-03-29T10:16:10Z</time></trkpt><trkpt lat="43.19611309431547" lon="0.9815353623923895"><ele>324.6</ele><time>2026-03-29T10:16:11Z</time></trkpt><trkpt lat="43.19617957350485" lon="0.9814409973340881"><ele>325.2</ele><time>2026-03-29T10:16:12Z</time></trkpt><trkpt lat="43.19622695428611" lon="0.9813680277456629"><ele>325.8</ele><time>2026-03-29T10:16:13Z</time></trkpt><trkpt lat="43.19628693349831" lon="0.9813014114704419"><ele>326.40000000000003</ele><time>2026-03-29T10:16:14Z</time></trkpt><trkpt lat="43.19640295019373" lon="0.9812628922381772"><ele>327.0</ele><time>2026-03-29T10:16:15Z</time></trkpt><trkpt lat="43.196485695135536" lon="0.9811913792821437"><ele>329.0</ele><time>2026-03-29T10:16:27Z</time></trkpt><trkpt lat="43.196565743195954" lon="0.9811338000865037"><ele>331.0</ele><time>2026-03-29T10:16:30Z</time></trkpt><trkpt lat="43.19662082294901" lon="0.9810855171945699"><ele>333.0</ele><time>2026-03-29T10:17:05Z</time></trkpt><trkpt lat="43.19667810893703" lon="0.9810224063972051"><ele>335.0</ele><time>2026-03-29T10:17:08Z</time></trkpt><trkpt lat="43.19676244950438" lon="0.9809529104111919"><ele>337.0</ele><time>2026-03-29T10:17:10Z</time></trkpt><trkpt lat="43.196839861143935" lon="0.980898130220802"><ele>339.0</ele><time>2026-03-29T10:17:12Z</time></trkpt><trkpt lat="43.19694327814131" lon="0.9808229550101963"><ele>339.0</ele><time>2026-03-29T10:17:14Z</time></trkpt><trkpt lat="43.197009815929064" lon="0.9807878225368681"><ele>339.0</ele><time>2026-03-29T10:17:15Z</time></trkpt><trkpt lat="43.197086929730546" lon="0.9807630464684276"><ele>339.0</ele><time>2026-03-29T10:17:17Z</time></trkpt><trkpt lat="43.197173092347" lon="0.9807611395975079"><ele>339.0</ele><time>2026-03-29T10:17:19Z</time></trkpt><trkpt lat="43.19724938929795" lon="0.9807873856235647"><ele>339.0</ele><time>2026-03-29T10:17:21Z</time></trkpt><trkpt lat="43.197301952467605" lon="0.9808440818416634"><ele>339.0</ele><time>2026-03-29T10:17:23Z</time></trkpt><trkpt lat="43.19736978632186" lon="0.9809605216409323"><ele>341.4</ele><time>2026-03-29T10:17:25Z</time></trkpt><trkpt lat="43.19740936233683" lon="0.9810615126481275"><ele>343.79999999999995</ele><time>2026-03-29T10:17:26Z</time></trkpt><trkpt lat="43.1974427805285" lon="0.9811512462096277"><ele>346.20000000000005</ele><time>2026-03-29T10:17:27Z</time></trkpt><trkpt lat="43.19750061506796" lon="0.9812694102980254"><ele>348.6</ele><time>2026-03-29T10:17:29Z</time></trkpt><trkpt lat="43.19760275389377" lon="0.981367430589715"><ele>351.0</ele><time>2026-03-29T10:17:31Z</time></trkpt><trkpt lat="43.1976639185369" lon="0.9814436822240805"><ele>351.0</ele><time>2026-03-29T10:17:32Z</time></trkpt><trkpt lat="43.19769539347915" lon="0.9815522638723884"><ele>351.0</ele><time>2026-03-29T10:17:34Z</time></trkpt><trkpt lat="43.197713010567824" lon="0.9816762636693604"><ele>351.0</ele><time>2026-03-29T10:17:35Z</time></trkpt><trkpt lat="43.19773058542485" lon="0.9818042734542353"><ele>351.0</ele><time>2026-03-29T10:17:36Z</time></trkpt><trkpt lat="43.19773625236035" lon="0.9819025616308713"><ele>351.0</ele><time>2026-03-29T10:17:37Z</time></trkpt><trkpt lat="43.19775051091549" lon="0.9820108463015635"><ele>351.0</ele><time>2026-03-29T10:17:38Z</time></trkpt><trkpt lat="43.19776245051715" lon="0.9821007460602346"><ele>351.1666666666667</ele><time>2026-03-29T10:17:39Z</time></trkpt><trkpt lat="43.19777457762582" lon="0.9821889787511421"><ele>351.3333333333333</ele><time>2026-03-29T10:17:40Z</time></trkpt><trkpt lat="43.19779936310469" lon="0.982319380375825"><ele>351.5</ele><time>2026-03-29T10:17:41Z</time></trkpt><trkpt lat="43.19781274456791" lon="0.9824305115746452"><ele>351.66666666666663</ele><time>2026-03-29T10:17:42Z</time></trkpt><trkpt lat="43.19782897774964" lon="0.9825258183880812"><ele>351.8333333333333</ele><time>2026-03-29T10:17:43Z</time></trkpt><trkpt lat="43.19785005930505" lon="0.9826451077974683"><ele>352.0</ele><time>2026-03-29T10:17:44Z</time></trkpt><trkpt lat="43.197877177668126" lon="0.9827445860316394"><ele>352.0</ele><time>2026-03-29T10:17:45Z</time></trkpt><trkpt lat="43.197900469927454" lon="0.9828516025390349"><ele>352.0</ele><time>2026-03-29T10:17:46Z</time></trkpt><trkpt lat="43.19792894069036" lon="0.9829363702424643"><ele>352.0</ele><time>2026-03-29T10:17:47Z</time></trkpt><trkpt lat="43.19796243843334" lon="0.9830137464265579"><ele>352.0</ele><time>2026-03-29T10:17:48Z</time></trkpt><trkpt lat="43.1980099518252" lon="0.9830940047250992"><ele>352.0</ele><time>2026-03-29T10:17:49Z</time></trkpt><trkpt lat="43.19807051706116" lon="0.983129352155637"><ele>352.0</ele><time>2026-03-29T10:17:51Z</time></trkpt><trkpt lat="43.19813740745778" lon="0.9831178271377031"><ele>352.0</ele><time>2026-03-29T10:17:55Z</time></trkpt><trkpt lat="43.19822749352096" lon="0.983086791861553"><ele>353.5</ele><time>2026-03-29T10:17:59Z</time></trkpt><trkpt lat="43.19828835266487" lon="0.9830185836962155"><ele>355.0</ele><time>2026-03-29T10:18:02Z</time></trkpt><trkpt lat="43.19837540645448" lon="0.9829271011715563"><ele>356.5</ele><time>2026-03-29T10:18:03Z</time></trkpt><trkpt lat="43.19845253173421" lon="0.9828779226140921"><ele>358.0</ele><time>2026-03-29T10:18:04Z</time></trkpt><trkpt lat="43.19852376928065" lon="0.9828186500266594"><ele>359.5</ele><time>2026-03-29T10:18:05Z</time></trkpt><trkpt lat="43.19859096894021" lon="0.9827771398618885"><ele>361.0</ele><time>2026-03-29T10:18:06Z</time></trkpt><trkpt lat="43.19867617629292" lon="0.9827050443231155"><ele>361.0</ele><time>2026-03-29T10:18:07Z</time></trkpt><trkpt lat="43.198763284724464" lon="0.9826288471754928"><ele>361.0</ele><time>2026-03-29T10:18:08Z</time></trkpt><trkpt lat="43.198892864793294" lon="0.9825205316614999"><ele>361.0</ele><time>2026-03-29T10:18:09Z</time></trkpt><trkpt lat="43.19897330202858" lon="0.9824436095002347"><ele>361.0</ele><time>2026-03-29T10:18:10Z</time></trkpt><trkpt lat="43.19907026335394" lon="0.9823685696398587"><ele>361.8</ele><time>2026-03-29T10:18:11Z</time></trkpt><trkpt lat="43.199126139697526" lon="0.9823254075122263"><ele>362.6</ele><time>2026-03-29T10:18:12Z</time></trkpt><trkpt lat="43.1992160260884" lon="0.9822559740534785"><ele>363.4</ele><time>2026-03-29T10:18:13Z</time></trkpt><trkpt lat="43.19930108329353" lon="0.982190270941032"><ele>364.2</ele><time>2026-03-29T10:18:14Z</time></trkpt><trkpt lat="43.19943522160605" lon="0.9820956344135531"><ele>365.0</ele><time>2026-03-29T10:18:16Z</time></trkpt><trkpt lat="43.199500224905044" lon="0.9820505736843067"><ele>365.0</ele><time>2026-03-29T10:18:17Z</time></trkpt><trkpt lat="43.19955630019556" lon="0.9820072578786061"><ele>365.0</ele><time>2026-03-29T10:18:18Z</time></trkpt><trkpt lat="43.19967006010643" lon="0.981919178870366"><ele>365.0</ele><time>2026-03-29T10:18:20Z</time></trkpt><trkpt lat="43.19975192093386" lon="0.9818420178578606"><ele>365.0</ele><time>2026-03-29T10:18:21Z</time></trkpt><trkpt lat="43.199842642218854" lon="0.9817719395556925"><ele>365.0</ele><time>2026-03-29T10:18:22Z</time></trkpt><trkpt lat="43.19989322443114" lon="0.9816978821923187"><ele>366.0</ele><time>2026-03-29T10:18:23Z</time></trkpt><trkpt lat="43.199951819462306" lon="0.9816175042340628"><ele>367.0</ele><time>2026-03-29T10:18:24Z</time></trkpt><trkpt lat="43.20004222489678" lon="0.9814934905214635"><ele>368.0</ele><time>2026-03-29T10:18:26Z</time></trkpt><trkpt lat="43.200093767722194" lon="0.9814347031870567"><ele>369.0</ele><time>2026-03-29T10:18:27Z</time></trkpt><trkpt lat="43.2001571449363" lon="0.9813579088608039"><ele>370.0</ele><time>2026-03-29T10:18:28Z</time></trkpt><trkpt lat="43.200227697896544" lon="0.9812724196684608"><ele>370.0</ele><time>2026-03-29T10:18:29Z</time></trkpt><trkpt lat="43.20029992217714" lon="0.9811858482370142"><ele>370.0</ele><time>2026-03-29T10:18:30Z</time></trkpt><trkpt lat="43.20035301929478" lon="0.9811323697184875"><ele>370.0</ele><time>2026-03-29T10:18:31Z</time></trkpt><trkpt lat="43.200390295324006" lon="0.9810552949367278"><ele>370.0</ele><time>2026-03-29T10:18:32Z</time></trkpt><trkpt lat="43.20044438367431" lon="0.9809448589660875"><ele>370.0</ele><time>2026-03-29T10:18:33Z</time></trkpt><trkpt lat="43.20049208131754" lon="0.980833483641728"><ele>370.0</ele><time>2026-03-29T10:18:34Z</time></trkpt><trkpt lat="43.20057197738617" lon="0.9806963329718051"><ele>370.0</ele><time>2026-03-29T10:18:35Z</time></trkpt><trkpt lat="43.2006597602225" lon="0.9805678860844577"><ele>370.0</ele><time>2026-03-29T10:18:36Z</time></trkpt><trkpt lat="43.20072986837263" lon="0.9804772936853379"><ele>370.0</ele><time>2026-03-29T10:18:37Z</time></trkpt><trkpt lat="43.200807105934565" lon="0.9803455789885699"><ele>370.0</ele><time>2026-03-29T10:18:38Z</time></trkpt><trkpt lat="43.200879030888885" lon="0.9802484505643099"><ele>370.0</ele><time>2026-03-29T10:18:39Z</time></trkpt><trkpt lat="43.20097001849802" lon="0.9801018193158586"><ele>371.0</ele><time>2026-03-29T10:18:41Z</time></trkpt><trkpt lat="43.201114960778575" lon="0.9799756143824139"><ele>372.0</ele><time>2026-03-29T10:18:42Z</time></trkpt><trkpt lat="43.20122081692477" lon="0.9798750503138265"><ele>373.0</ele><time>2026-03-29T10:18:43Z</time></trkpt><trkpt lat="43.20128273429222" lon="0.9798133468654916"><ele>374.0</ele><time>2026-03-29T10:18:44Z</time></trkpt><trkpt lat="43.20137038284459" lon="0.9797291378326097"><ele>374.0</ele><time>2026-03-29T10:18:46Z</time></trkpt><trkpt lat="43.20141458804394" lon="0.979615742140987"><ele>374.0</ele><time>2026-03-29T10:18:48Z</time></trkpt><trkpt lat="43.20142554555026" lon="0.9794594621551603"><ele>374.0</ele><time>2026-03-29T10:18:50Z</time></trkpt><trkpt lat="43.20145244787518" lon="0.9793577659469506"><ele>374.0</ele><time>2026-03-29T10:18:52Z</time></trkpt><trkpt lat="43.20145712506278" lon="0.9792145802086498"><ele>374.0</ele><time>2026-03-29T10:18:54Z</time></trkpt><trkpt lat="43.20142585293776" lon="0.9790909028718274"><ele>373.5</ele><time>2026-03-29T10:18:56Z</time></trkpt><trkpt lat="43.201404586820914" lon="0.9789953882668425"><ele>373.0</ele><time>2026-03-29T10:18:58Z</time></trkpt><trkpt lat="43.201418245872304" lon="0.9788574962415892"><ele>372.5</ele><time>2026-03-29T10:19:02Z</time></trkpt><trkpt lat="43.20146976131448" lon="0.9787979842457563"><ele>372.0</ele><time>2026-03-29T10:19:03Z</time></trkpt><trkpt lat="43.20153043687266" lon="0.9786543908995177"><ele>371.5</ele><time>2026-03-29T10:19:05Z</time></trkpt><trkpt lat="43.20154440620368" lon="0.9785546864498148"><ele>371.0</ele><time>2026-03-29T10:19:07Z</time></trkpt><trkpt lat="43.20160008982649" lon="0.9784800952318702"><ele>372.5</ele><time>2026-03-29T10:19:09Z</time></trkpt><trkpt lat="43.201647626969944" lon="0.9784052127354981"><ele>374.0</ele><time>2026-03-29T10:19:11Z</time></trkpt><trkpt lat="43.20172333387141" lon="0.9783423370582058"><ele>375.5</ele><time>2026-03-29T10:19:13Z</time></trkpt><trkpt lat="43.20181994217022" lon="0.9782847320917474"><ele>377.0</ele><time>2026-03-29T10:19:15Z</time></trkpt><trkpt lat="43.20190007393038" lon="0.9782237848580971"><ele>378.5</ele><time>2026-03-29T10:19:17Z</time></trkpt><trkpt lat="43.20196226540549" lon="0.978148684324466"><ele>380.0</ele><time>2026-03-29T10:19:19Z</time></trkpt><trkpt lat="43.20201772894114" lon="0.978063781886502"><ele>380.33333333333337</ele><time>2026-03-29T10:19:21Z</time></trkpt><trkpt lat="43.20205633897791" lon="0.9779712146568154"><ele>380.6666666666667</ele><time>2026-03-29T10:19:23Z</time></trkpt><trkpt lat="43.20213096856628" lon="0.9779052371863963"><ele>381.0</ele><time>2026-03-29T10:19:25Z</time></trkpt><trkpt lat="43.202167768372334" lon="0.9778167171378156"><ele>381.3333333333333</ele><time>2026-03-29T10:19:27Z</time></trkpt><trkpt lat="43.20218808411515" lon="0.9777252654577205"><ele>381.66666666666663</ele><time>2026-03-29T10:19:29Z</time></trkpt><trkpt lat="43.20219149933616" lon="0.9776178861001695"><ele>382.0</ele><time>2026-03-29T10:19:31Z</time></trkpt><trkpt lat="43.20219091572907" lon="0.9774621690381652"><ele>382.0</ele><time>2026-03-29T10:19:33Z</time></trkpt><trkpt lat="43.20221724888546" lon="0.9773351857961391"><ele>382.0</ele><time>2026-03-29T10:19:35Z</time></trkpt><trkpt lat="43.20222724100695" lon="0.9772431116338975"><ele>382.0</ele><time>2026-03-29T10:19:37Z</time></trkpt><trkpt lat="43.202270228793" lon="0.9771420952730875"><ele>382.0</ele><time>2026-03-29T10:19:39Z</time></trkpt><trkpt lat="43.202521223616166" lon="0.9766431480993037"><ele>381.0</ele><time>2026-03-29T10:19:41Z</time></trkpt><trkpt lat="43.202603027445065" lon="0.9765423342579949"><ele>380.0</ele><time>2026-03-29T10:19:43Z</time></trkpt><trkpt lat="43.20268813361626" lon="0.9764637214798312"><ele>379.0</ele><time>2026-03-29T10:19:45Z</time></trkpt><trkpt lat="43.20274075138397" lon="0.9764103947225535"><ele>378.0</ele><time>2026-03-29T10:19:46Z</time></trkpt><trkpt lat="43.20281314524791" lon="0.9763272371936568"><ele>377.0</ele><time>2026-03-29T10:19:48Z</time></trkpt><trkpt lat="43.20289023832003" lon="0.9761747718302439"><ele>377.0</ele><time>2026-03-29T10:19:50Z</time></trkpt><trkpt lat="43.20293388363584" lon="0.9760779902482051"><ele>377.0</ele><time>2026-03-29T10:19:52Z</time></trkpt><trkpt lat="43.202972060964996" lon="0.9759784102213357"><ele>377.0</ele><time>2026-03-29T10:19:54Z</time></trkpt><trkpt lat="43.20301001147724" lon="0.9758948323920417"><ele>377.0</ele><time>2026-03-29T10:19:55Z</time></trkpt><trkpt lat="43.20307504717169" lon="0.9757791685862538"><ele>377.0</ele><time>2026-03-29T10:19:57Z</time></trkpt><trkpt lat="43.20313451562474" lon="0.9756994485841629"><ele>377.0</ele><time>2026-03-29T10:19:59Z</time></trkpt><trkpt lat="43.203110612077495" lon="0.9756149486298501"><ele>377.0</ele><time>2026-03-29T10:20:01Z</time></trkpt><trkpt lat="43.203085745755956" lon="0.9757550862458232"><ele>377.0</ele><time>2026-03-29T10:22:46Z</time></trkpt><trkpt lat="43.20300809383278" lon="0.9758886948932888"><ele>377.0</ele><time>2026-03-29T10:22:47Z</time></trkpt><trkpt lat="43.20292214854548" lon="0.9759972460492367"><ele>377.0</ele><time>2026-03-29T10:22:48Z</time></trkpt><trkpt lat="43.20285863767855" lon="0.9761127827900755"><ele>377.0</ele><time>2026-03-29T10:22:49Z</time></trkpt><trkpt lat="43.20280425178203" lon="0.976227632572731"><ele>377.0</ele><time>2026-03-29T10:22:50Z</time></trkpt><trkpt lat="43.202749317111234" lon="0.9763504839019673"><ele>377.0</ele><time>2026-03-29T10:22:51Z</time></trkpt><trkpt lat="43.202709027653476" lon="0.9764582068176063"><ele>377.0</ele><time>2026-03-29T10:22:52Z</time></trkpt><trkpt lat="43.20265433984054" lon="0.9765340543038191"><ele>377.0</ele><time>2026-03-29T10:22:53Z</time></trkpt><trkpt lat="43.20260300830753" lon="0.9765884244844897"><ele>377.0</ele><time>2026-03-29T10:22:54Z</time></trkpt><trkpt lat="43.20254370256125" lon="0.9766480438337574"><ele>376.40000000000003</ele><time>2026-03-29T10:22:56Z</time></trkpt><trkpt lat="43.202477944876854" lon="0.976694645293399"><ele>375.8</ele><time>2026-03-29T10:22:57Z</time></trkpt><trkpt lat="43.20239048662452" lon="0.9768928283100043"><ele>375.2</ele><time>2026-03-29T10:22:59Z</time></trkpt><trkpt lat="43.20234601935999" lon="0.9769676797754518"><ele>374.6</ele><time>2026-03-29T10:23:00Z</time></trkpt><trkpt lat="43.20230180305422" lon="0.9770972658396163"><ele>374.0</ele><time>2026-03-29T10:23:02Z</time></trkpt><trkpt lat="43.20227693404145" lon="0.9772861874657032"><ele>375.33333333333337</ele><time>2026-03-29T10:23:04Z</time></trkpt><trkpt lat="43.2022687485315" lon="0.9773905541716188"><ele>376.6666666666667</ele><time>2026-03-29T10:23:05Z</time></trkpt><trkpt lat="43.20225578446111" lon="0.9775368384544227"><ele>378.0</ele><time>2026-03-29T10:23:07Z</time></trkpt><trkpt lat="43.20225950829993" lon="0.9776398044868732"><ele>379.3333333333333</ele><time>2026-03-29T10:23:08Z</time></trkpt><trkpt lat="43.20226235924355" lon="0.9777501093682075"><ele>380.66666666666663</ele><time>2026-03-29T10:23:10Z</time></trkpt><trkpt lat="43.20226046080346" lon="0.9778590118697141"><ele>382.0</ele><time>2026-03-29T10:23:12Z</time></trkpt><trkpt lat="43.20221145551161" lon="0.9779251239154992"><ele>382.0</ele><time>2026-03-29T10:23:13Z</time></trkpt><trkpt lat="43.2021638459692" lon="0.9780041132088146"><ele>382.0</ele><time>2026-03-29T10:23:14Z</time></trkpt><trkpt lat="43.20210945332812" lon="0.9781089396560385"><ele>382.0</ele><time>2026-03-29T10:23:17Z</time></trkpt><trkpt lat="43.201947657991475" lon="0.9781214175042588"><ele>382.0</ele><time>2026-03-29T10:23:18Z</time></trkpt><trkpt lat="43.20172209919318" lon="0.9783651523260523"><ele>381.66666666666663</ele><time>2026-03-29T10:23:19Z</time></trkpt><trkpt lat="43.20166211873122" lon="0.9783993663567955"><ele>381.3333333333333</ele><time>2026-03-29T10:23:20Z</time></trkpt><trkpt lat="43.20158388365976" lon="0.9785108767797865"><ele>381.0</ele><time>2026-03-29T10:23:22Z</time></trkpt><trkpt lat="43.2015334687769" lon="0.9786184271475612"><ele>380.6666666666667</ele><time>2026-03-29T10:23:25Z</time></trkpt><trkpt lat="43.20150012075172" lon="0.9787093962033804"><ele>380.33333333333337</ele><time>2026-03-29T10:23:29Z</time></trkpt><trkpt lat="43.20156712593134" lon="0.9786264834685838"><ele>380.0</ele><time>2026-03-29T10:24:30Z</time></trkpt><trkpt lat="43.20163419488347" lon="0.9785013462865801"><ele>380.0</ele><time>2026-03-29T10:24:34Z</time></trkpt><trkpt lat="43.20167226706347" lon="0.9784225732466809"><ele>380.0</ele><time>2026-03-29T10:24:35Z</time></trkpt><trkpt lat="43.20182252456637" lon="0.9783257580231851"><ele>380.0</ele><time>2026-03-29T10:24:37Z</time></trkpt><trkpt lat="43.2019353312673" lon="0.9782127399775064"><ele>380.0</ele><time>2026-03-29T10:24:38Z</time></trkpt><trkpt lat="43.20204393718649" lon="0.9781460597158141"><ele>380.4</ele><time>2026-03-29T10:24:39Z</time></trkpt><trkpt lat="43.20210579788845" lon="0.9780735178012924"><ele>380.8</ele><time>2026-03-29T10:24:41Z</time></trkpt><trkpt lat="43.20215261877112" lon="0.9779955410883509"><ele>381.20000000000005</ele><time>2026-03-29T10:24:43Z</time></trkpt><trkpt lat="43.20218567171402" lon="0.9779169079013418"><ele>381.6</ele><time>2026-03-29T10:24:44Z</time></trkpt><trkpt lat="43.20222112694098" lon="0.977756763723491"><ele>382.0</ele><time>2026-03-29T10:24:46Z</time></trkpt><trkpt lat="43.20222294077523" lon="0.97758427563942"><ele>382.0</ele><time>2026-03-29T10:24:47Z</time></trkpt><trkpt lat="43.20221916382999" lon="0.9774843720399244"><ele>382.0</ele><time>2026-03-29T10:24:48Z</time></trkpt><trkpt lat="43.20223387099682" lon="0.9773626457153657"><ele>382.0</ele><time>2026-03-29T10:24:49Z</time></trkpt><trkpt lat="43.20225330145451" lon="0.9772708872876366"><ele>382.0</ele><time>2026-03-29T10:24:50Z</time></trkpt><trkpt lat="43.202245536185856" lon="0.9771678940149026"><ele>382.0</ele><time>2026-03-29T10:24:51Z</time></trkpt><trkpt lat="43.202268825490755" lon="0.9770769082286417"><ele>382.0</ele><time>2026-03-29T10:24:52Z</time></trkpt><trkpt lat="43.2023148717423" lon="0.9770023313312614"><ele>381.16666666666663</ele><time>2026-03-29T10:24:53Z</time></trkpt><trkpt lat="43.20236057857737" lon="0.976915331131919"><ele>380.3333333333333</ele><time>2026-03-29T10:24:54Z</time></trkpt><trkpt lat="43.20242149856632" lon="0.9768144738453715"><ele>379.5</ele><time>2026-03-29T10:24:55Z</time></trkpt><trkpt lat="43.20249816282575" lon="0.9766803864738269"><ele>378.6666666666667</ele><time>2026-03-29T10:24:57Z</time></trkpt><trkpt lat="43.20255852427095" lon="0.9766237556496588"><ele>377.83333333333337</ele><time>2026-03-29T10:24:58Z</time></trkpt><trkpt lat="43.20261222261718" lon="0.9765785393196869"><ele>377.0</ele><time>2026-03-29T10:24:59Z</time></trkpt><trkpt lat="43.20266857305173" lon="0.9764684395556472"><ele>377.0</ele><time>2026-03-29T10:25:01Z</time></trkpt><trkpt lat="43.20271981114362" lon="0.9763970916446587"><ele>377.0</ele><time>2026-03-29T10:25:02Z</time></trkpt><trkpt lat="43.2027786411951" lon="0.9763282347595097"><ele>377.0</ele><time>2026-03-29T10:25:03Z</time></trkpt><trkpt lat="43.20284194809922" lon="0.9762080412948358"><ele>377.0</ele><time>2026-03-29T10:25:05Z</time></trkpt><trkpt lat="43.2028996183079" lon="0.9760594082515408"><ele>377.0</ele><time>2026-03-29T10:25:07Z</time></trkpt><trkpt lat="43.20296555679782" lon="0.9759361019597813"><ele>378.0</ele><time>2026-03-29T10:25:08Z</time></trkpt><trkpt lat="43.20305017282325" lon="0.9758026477922176"><ele>379.0</ele><time>2026-03-29T10:25:09Z</time></trkpt><trkpt lat="43.20312366201532" lon="0.9756954311557045"><ele>380.0</ele><time>2026-03-29T10:25:10Z</time></trkpt><trkpt lat="43.20307588761892" lon="0.9756217426331881"><ele>381.0</ele><time>2026-03-29T10:25:18Z</time></trkpt><trkpt lat="43.20301612590225" lon="0.9755688931962619"><ele>382.0</ele><time>2026-03-29T10:26:17Z</time></trkpt><trkpt lat="43.202890790533836" lon="0.975585339451525"><ele>382.0</ele><time>2026-03-29T10:26:19Z</time></trkpt><trkpt lat="43.20274985569608" lon="0.9755767977881706"><ele>382.0</ele><time>2026-03-29T10:26:20Z</time></trkpt><trkpt lat="43.20262794609867" lon="0.975578308859439"><ele>382.0</ele><time>2026-03-29T10:26:21Z</time></trkpt><trkpt lat="43.202515162070235" lon="0.975597466074548"><ele>382.0</ele><time>2026-03-29T10:26:22Z</time></trkpt><trkpt lat="43.20239946347893" lon="0.975640213094396"><ele>384.0</ele><time>2026-03-29T10:26:23Z</time></trkpt><trkpt lat="43.2023078502883" lon="0.9757024868133735"><ele>386.0</ele><time>2026-03-29T10:26:24Z</time></trkpt><trkpt lat="43.202219725743426" lon="0.9757234980724143"><ele>388.0</ele><time>2026-03-29T10:26:27Z</time></trkpt><trkpt lat="43.20210057406612" lon="0.9757433292120024"><ele>390.0</ele><time>2026-03-29T10:26:29Z</time></trkpt><trkpt lat="43.20204121618373" lon="0.9757752882567691"><ele>392.00000000000006</ele><time>2026-03-29T10:26:30Z</time></trkpt><trkpt lat="43.2019784311234" lon="0.9757958453121263"><ele>394.0</ele><time>2026-03-29T10:26:31Z</time></trkpt><trkpt lat="43.20188768686032" lon="0.9758242324714101"><ele>394.1666666666667</ele><time>2026-03-29T10:26:33Z</time></trkpt><trkpt lat="43.201831260499524" lon="0.9758632868917334"><ele>394.33333333333337</ele><time>2026-03-29T10:26:34Z</time></trkpt><trkpt lat="43.20174489837322" lon="0.9759208238429135"><ele>394.5</ele><time>2026-03-29T10:26:35Z</time></trkpt><trkpt lat="43.201686290964524" lon="0.9759715009840517"><ele>394.66666666666663</ele><time>2026-03-29T10:26:36Z</time></trkpt><trkpt lat="43.2015883303948" lon="0.9760676144675824"><ele>394.8333333333333</ele><time>2026-03-29T10:26:38Z</time></trkpt><trkpt lat="43.20150327940103" lon="0.9761193801507424"><ele>395.0</ele><time>2026-03-29T10:26:41Z</time></trkpt><trkpt lat="43.20143988855224" lon="0.9761664651806925"><ele>395.0</ele><time>2026-03-29T10:26:43Z</time></trkpt><trkpt lat="43.20137534674297" lon="0.9761938283805771"><ele>395.0</ele><time>2026-03-29T10:26:44Z</time></trkpt><trkpt lat="43.20130341104046" lon="0.9762983837952804"><ele>395.0</ele><time>2026-03-29T10:26:47Z</time></trkpt><trkpt lat="43.20086868672137" lon="0.9763946478331782"><ele>394.99999999999994</ele><time>2026-03-29T10:26:50Z</time></trkpt><trkpt lat="43.20078009619992" lon="0.9763910903604728"><ele>395.0</ele><time>2026-03-29T10:26:51Z</time></trkpt><trkpt lat="43.20070691376695" lon="0.9763914222859791"><ele>395.0</ele><time>2026-03-29T10:26:52Z</time></trkpt><trkpt lat="43.20060665083776" lon="0.9763842521797627"><ele>395.0</ele><time>2026-03-29T10:26:54Z</time></trkpt><trkpt lat="43.200518341862924" lon="0.9763971766734876"><ele>394.99999999999994</ele><time>2026-03-29T10:26:57Z</time></trkpt><trkpt lat="43.20048433743937" lon="0.9764921112766932"><ele>395.0</ele><time>2026-03-29T10:27:00Z</time></trkpt><trkpt lat="43.20040396516587" lon="0.9765449939583981"><ele>394.66666666666663</ele><time>2026-03-29T10:27:02Z</time></trkpt><trkpt lat="43.20028675137306" lon="0.9766090284459554"><ele>394.3333333333333</ele><time>2026-03-29T10:27:04Z</time></trkpt><trkpt lat="43.20022701051198" lon="0.9766558984427642"><ele>394.0</ele><time>2026-03-29T10:27:05Z</time></trkpt><trkpt lat="43.20016675705351" lon="0.9766905892786805"><ele>393.66666666666663</ele><time>2026-03-29T10:27:06Z</time></trkpt><trkpt lat="43.20008397073205" lon="0.9766615075416698"><ele>393.3333333333333</ele><time>2026-03-29T10:27:07Z</time></trkpt><trkpt lat="43.20000363364102" lon="0.9766549226587512"><ele>393.0</ele><time>2026-03-29T10:27:09Z</time></trkpt><trkpt lat="43.199890247362646" lon="0.9766494711029874"><ele>393.6666666666667</ele><time>2026-03-29T10:27:11Z</time></trkpt><trkpt lat="43.19975397085175" lon="0.9766111338570319"><ele>394.33333333333337</ele><time>2026-03-29T10:27:13Z</time></trkpt><trkpt lat="43.19969552952781" lon="0.9765789492992791"><ele>395.0</ele><time>2026-03-29T10:27:14Z</time></trkpt><trkpt lat="43.199668299872975" lon="0.976667693648588"><ele>395.6666666666667</ele><time>2026-03-29T10:27:17Z</time></trkpt><trkpt lat="43.19960492183476" lon="0.9766949688294082"><ele>396.33333333333337</ele><time>2026-03-29T10:27:18Z</time></trkpt><trkpt lat="43.19952095152297" lon="0.9766318067095926"><ele>397.0</ele><time>2026-03-29T10:27:20Z</time></trkpt><trkpt lat="43.19943673777861" lon="0.9766174012771736"><ele>397.0</ele><time>2026-03-29T10:27:24Z</time></trkpt><trkpt lat="43.19932285473956" lon="0.9766002850029212"><ele>397.0</ele><time>2026-03-29T10:27:26Z</time></trkpt><trkpt lat="43.19926099674897" lon="0.9765782266391355"><ele>397.0</ele><time>2026-03-29T10:27:28Z</time></trkpt><trkpt lat="43.199204523305056" lon="0.9765285097504066"><ele>397.0</ele><time>2026-03-29T10:27:30Z</time></trkpt><trkpt lat="43.19915892550196" lon="0.9764542104004807"><ele>397.0</ele><time>2026-03-29T10:27:32Z</time></trkpt><trkpt lat="43.19910191481308" lon="0.9762785695540925"><ele>397.0</ele><time>2026-03-29T10:27:34Z</time></trkpt><trkpt lat="43.19905177215593" lon="0.9760923241996707"><ele>397.0</ele><time>2026-03-29T10:27:36Z</time></trkpt><trkpt lat="43.19901095146874" lon="0.9759965103115857"><ele>397.0</ele><time>2026-03-29T10:27:38Z</time></trkpt><trkpt lat="43.19904827548386" lon="0.9758303590212694"><ele>397.0</ele><time>2026-03-29T10:27:40Z</time></trkpt><trkpt lat="43.199081340373745" lon="0.9756924536764886"><ele>399.1666666666667</ele><time>2026-03-29T10:27:42Z</time></trkpt><trkpt lat="43.199119440606076" lon="0.9755970395751964"><ele>401.33333333333337</ele><time>2026-03-29T10:27:43Z</time></trkpt><trkpt lat="43.19912408955139" lon="0.9755055083429115"><ele>403.5</ele><time>2026-03-29T10:27:44Z</time></trkpt><trkpt lat="43.19911703959395" lon="0.9753635489876097"><ele>405.66666666666663</ele><time>2026-03-29T10:27:47Z</time></trkpt><trkpt lat="43.199072890377415" lon="0.9752963139059986"><ele>407.8333333333333</ele><time>2026-03-29T10:27:49Z</time></trkpt><trkpt lat="43.19908387738446" lon="0.975163223624095"><ele>410.0</ele><time>2026-03-29T10:27:50Z</time></trkpt><trkpt lat="43.199074053737384" lon="0.9750670941129433"><ele>416.0</ele><time>2026-03-29T10:27:53Z</time></trkpt><trkpt lat="43.19903321930739" lon="0.9749233930042278"><ele>422.0</ele><time>2026-03-29T10:27:55Z</time></trkpt><trkpt lat="43.198912151091065" lon="0.974138983415289"><ele>422.0</ele><time>2026-03-29T10:27:58Z</time></trkpt><trkpt lat="43.19887772824882" lon="0.9740360645229169"><ele>422.0</ele><time>2026-03-29T10:27:59Z</time></trkpt><trkpt lat="43.19882422284707" lon="0.9739848802011933"><ele>422.0</ele><time>2026-03-29T10:28:00Z</time></trkpt><trkpt lat="43.198751812553034" lon="0.9738503863886095"><ele>422.0</ele><time>2026-03-29T10:28:02Z</time></trkpt><trkpt lat="43.198715618799106" lon="0.9737282544039954"><ele>422.0</ele><time>2026-03-29T10:28:03Z</time></trkpt><trkpt lat="43.198650135562545" lon="0.9736056983925372"><ele>422.0</ele><time>2026-03-29T10:28:04Z</time></trkpt><trkpt lat="43.19858983248577" lon="0.9735249187990157"><ele>422.0</ele><time>2026-03-29T10:28:05Z</time></trkpt><trkpt lat="43.19852639089598" lon="0.9733963399460172"><ele>422.0</ele><time>2026-03-29T10:28:06Z</time></trkpt><trkpt lat="43.198478025060666" lon="0.9732977112393388"><ele>422.0</ele><time>2026-03-29T10:28:07Z</time></trkpt><trkpt lat="43.19841430263932" lon="0.9731616129111913"><ele>422.0</ele><time>2026-03-29T10:28:08Z</time></trkpt><trkpt lat="43.19835381749933" lon="0.9730457977733332"><ele>421.25</ele><time>2026-03-29T10:28:09Z</time></trkpt><trkpt lat="43.19828786458927" lon="0.9728873032027834"><ele>420.5</ele><time>2026-03-29T10:28:11Z</time></trkpt><trkpt lat="43.19824219186598" lon="0.9727905790087982"><ele>419.75</ele><time>2026-03-29T10:28:12Z</time></trkpt><trkpt lat="43.1981665064233" lon="0.9726585434122876"><ele>419.0</ele><time>2026-03-29T10:28:13Z</time></trkpt><trkpt lat="43.19810959276729" lon="0.9724907003964939"><ele>421.6</ele><time>2026-03-29T10:28:14Z</time></trkpt><trkpt lat="43.19804427203561" lon="0.9723689976487113"><ele>424.2</ele><time>2026-03-29T10:28:15Z</time></trkpt><trkpt lat="43.198022697356045" lon="0.9722389283382954"><ele>426.80000000000007</ele><time>2026-03-29T10:28:16Z</time></trkpt><trkpt lat="43.19797753086676" lon="0.9720470616895666"><ele>429.40000000000003</ele><time>2026-03-29T10:28:18Z</time></trkpt><trkpt lat="43.197972659474175" lon="0.9719529620125363"><ele>432.0</ele><time>2026-03-29T10:28:19Z</time></trkpt><trkpt lat="43.197928254145154" lon="0.9718508403716922"><ele>432.0</ele><time>2026-03-29T10:28:20Z</time></trkpt><trkpt lat="43.19787161763578" lon="0.9719950974788047"><ele>432.0</ele><time>2026-03-29T10:28:21Z</time></trkpt><trkpt lat="43.19778189924077" lon="0.9718511069442756"><ele>432.0</ele><time>2026-03-29T10:28:22Z</time></trkpt><trkpt lat="43.19769636189717" lon="0.9717098622595599"><ele>432.0</ele><time>2026-03-29T10:28:23Z</time></trkpt><trkpt lat="43.197612863415536" lon="0.9716430946841462"><ele>433.5</ele><time>2026-03-29T10:28:24Z</time></trkpt><trkpt lat="43.19751980729892" lon="0.9715739899625085"><ele>435.0</ele><time>2026-03-29T10:28:25Z</time></trkpt><trkpt lat="43.197441593395745" lon="0.971511947949229"><ele>436.5</ele><time>2026-03-29T10:28:26Z</time></trkpt><trkpt lat="43.19737478158159" lon="0.9714831245783075"><ele>438.0</ele><time>2026-03-29T10:28:27Z</time></trkpt><trkpt lat="43.19730137589638" lon="0.9714623611811233"><ele>439.5</ele><time>2026-03-29T10:28:28Z</time></trkpt><trkpt lat="43.1972317677874" lon="0.9714703218864463"><ele>441.0</ele><time>2026-03-29T10:28:29Z</time></trkpt><trkpt lat="43.197142916037" lon="0.9714483753876237"><ele>441.0</ele><time>2026-03-29T10:28:31Z</time></trkpt><trkpt lat="43.197061709555676" lon="0.9714456783788518"><ele>441.0</ele><time>2026-03-29T10:28:32Z</time></trkpt><trkpt lat="43.196964045439316" lon="0.9714554678291443"><ele>441.0</ele><time>2026-03-29T10:28:33Z</time></trkpt><trkpt lat="43.19690146358115" lon="0.9714680910356474"><ele>441.0</ele><time>2026-03-29T10:28:34Z</time></trkpt><trkpt lat="43.19682098011462" lon="0.9714509526031379"><ele>441.0</ele><time>2026-03-29T10:28:36Z</time></trkpt><trkpt lat="43.19680357431667" lon="0.9713625257005976"><ele>441.0</ele><time>2026-03-29T10:28:39Z</time></trkpt><trkpt lat="43.19675668707949" lon="0.9712804005280322"><ele>441.0</ele><time>2026-03-29T10:28:41Z</time></trkpt><trkpt lat="43.196682134771166" lon="0.9711701703244815"><ele>441.0</ele><time>2026-03-29T10:28:44Z</time></trkpt><trkpt lat="43.19664957533596" lon="0.9710936274707904"><ele>441.0</ele><time>2026-03-29T10:28:45Z</time></trkpt><trkpt lat="43.19666646796859" lon="0.9709348770700778"><ele>441.0</ele><time>2026-03-29T10:31:13Z</time></trkpt><trkpt lat="43.19668088105848" lon="0.9708303859628559"><ele>441.0</ele><time>2026-03-29T10:32:35Z</time></trkpt><trkpt lat="43.19673281833033" lon="0.970756457912143"><ele>441.0</ele><time>2026-03-29T10:32:37Z</time></trkpt><trkpt lat="43.19674462974962" lon="0.970646469227351"><ele>442.5</ele><time>2026-03-29T10:32:38Z</time></trkpt><trkpt lat="43.196766516937465" lon="0.9705489649219305"><ele>444.0</ele><time>2026-03-29T10:32:39Z</time></trkpt><trkpt lat="43.19679905937817" lon="0.9704713877386074"><ele>445.5</ele><time>2026-03-29T10:32:40Z</time></trkpt><trkpt lat="43.19685457962236" lon="0.9703797857808516"><ele>447.0</ele><time>2026-03-29T10:32:41Z</time></trkpt><trkpt lat="43.196928833370144" lon="0.9702943756312434"><ele>448.5</ele><time>2026-03-29T10:32:42Z</time></trkpt><trkpt lat="43.19698780410992" lon="0.9702048377696799"><ele>450.0</ele><time>2026-03-29T10:32:43Z</time></trkpt><trkpt lat="43.197078702826516" lon="0.9700868986230523"><ele>450.2</ele><time>2026-03-29T10:32:44Z</time></trkpt><trkpt lat="43.19714045501585" lon="0.9699825453400519"><ele>450.4</ele><time>2026-03-29T10:32:45Z</time></trkpt><trkpt lat="43.19718492076369" lon="0.9698583582922198"><ele>450.6</ele><time>2026-03-29T10:32:46Z</time></trkpt><trkpt lat="43.19723231270257" lon="0.9697166928964803"><ele>450.8</ele><time>2026-03-29T10:32:47Z</time></trkpt><trkpt lat="43.197285419349974" lon="0.9695756839738869"><ele>451.0</ele><time>2026-03-29T10:32:48Z</time></trkpt><trkpt lat="43.19732625385035" lon="0.9694150608038449"><ele>453.75</ele><time>2026-03-29T10:32:49Z</time></trkpt><trkpt lat="43.197391505560965" lon="0.9692510543772942"><ele>456.5</ele><time>2026-03-29T10:32:50Z</time></trkpt><trkpt lat="43.197454049074736" lon="0.969052993406506"><ele>459.25</ele><time>2026-03-29T10:32:51Z</time></trkpt><trkpt lat="43.19751980761474" lon="0.9689247357518225"><ele>462.0</ele><time>2026-03-29T10:32:52Z</time></trkpt><trkpt lat="43.19757741407645" lon="0.968797930639542"><ele>462.0</ele><time>2026-03-29T10:32:53Z</time></trkpt><trkpt lat="43.197637240601466" lon="0.9686787144009089"><ele>462.00000000000006</ele><time>2026-03-29T10:32:54Z</time></trkpt><trkpt lat="43.19768779994375" lon="0.9685651947493407"><ele>462.00000000000006</ele><time>2026-03-29T10:32:55Z</time></trkpt><trkpt lat="43.19774357246377" lon="0.9684547203248096"><ele>462.0</ele><time>2026-03-29T10:32:57Z</time></trkpt><trkpt lat="43.19779170861263" lon="0.9683804020629324"><ele>462.0</ele><time>2026-03-29T10:32:58Z</time></trkpt><trkpt lat="43.1978819497466" lon="0.9683055342712538"><ele>461.6666666666667</ele><time>2026-03-29T10:32:59Z</time></trkpt><trkpt lat="43.197954048526555" lon="0.9682136985074923"><ele>461.33333333333337</ele><time>2026-03-29T10:33:01Z</time></trkpt><trkpt lat="43.19801869796346" lon="0.9681835919449551"><ele>461.0</ele><time>2026-03-29T10:33:02Z</time></trkpt><trkpt lat="43.198097037370324" lon="0.9681383218552553"><ele>460.6666666666667</ele><time>2026-03-29T10:33:03Z</time></trkpt><trkpt lat="43.198163716266315" lon="0.9680706340755185"><ele>460.33333333333337</ele><time>2026-03-29T10:33:04Z</time></trkpt><trkpt lat="43.198200359874015" lon="0.9679995603126283"><ele>460.0</ele><time>2026-03-29T10:33:05Z</time></trkpt><trkpt lat="43.19824096784653" lon="0.9678958905061666"><ele>464.25</ele><time>2026-03-29T10:33:06Z</time></trkpt><trkpt lat="43.19829802998941" lon="0.9677694824011904"><ele>468.5</ele><time>2026-03-29T10:33:07Z</time></trkpt><trkpt lat="43.19837036702423" lon="0.9676323799823568"><ele>472.75</ele><time>2026-03-29T10:33:08Z</time></trkpt><trkpt lat="43.19843909856678" lon="0.967498409713147"><ele>477.0</ele><time>2026-03-29T10:33:09Z</time></trkpt><trkpt lat="43.198508225448634" lon="0.967357644425878"><ele>477.0</ele><time>2026-03-29T10:33:10Z</time></trkpt><trkpt lat="43.19855985303381" lon="0.9672463747056934"><ele>477.0</ele><time>2026-03-29T10:33:11Z</time></trkpt><trkpt lat="43.19861701437284" lon="0.9670780678042956"><ele>477.0</ele><time>2026-03-29T10:33:12Z</time></trkpt><trkpt lat="43.19867609013017" lon="0.9669049547900133"><ele>477.0</ele><time>2026-03-29T10:33:13Z</time></trkpt><trkpt lat="43.198724887646875" lon="0.9667782861756404"><ele>475.6666666666667</ele><time>2026-03-29T10:33:14Z</time></trkpt><trkpt lat="43.198793213650454" lon="0.9666855756245578"><ele>474.33333333333337</ele><time>2026-03-29T10:33:16Z</time></trkpt><trkpt lat="43.19886122368408" lon="0.9666289051792473"><ele>473.0</ele><time>2026-03-29T10:33:18Z</time></trkpt><trkpt lat="43.1988206308332" lon="0.9665393506127118"><ele>471.6666666666667</ele><time>2026-03-29T10:33:20Z</time></trkpt><trkpt lat="43.198882262322776" lon="0.9664234618867303"><ele>470.33333333333337</ele><time>2026-03-29T10:33:23Z</time></trkpt><trkpt lat="43.198890993555324" lon="0.9663338522916081"><ele>469.0</ele><time>2026-03-29T10:33:25Z</time></trkpt><trkpt lat="43.19893747939076" lon="0.9662303371760886"><ele>469.0</ele><time>2026-03-29T10:33:28Z</time></trkpt><trkpt lat="43.19893934031861" lon="0.9661330003020157"><ele>469.0</ele><time>2026-03-29T10:33:31Z</time></trkpt><trkpt lat="43.19908155590677" lon="0.9654783644752835"><ele>469.00000000000006</ele><time>2026-03-29T10:33:32Z</time></trkpt><trkpt lat="43.19906319910125" lon="0.9653733108067656"><ele>469.0</ele><time>2026-03-29T10:33:33Z</time></trkpt><trkpt lat="43.19903712125929" lon="0.9652858691199546"><ele>469.0</ele><time>2026-03-29T10:33:34Z</time></trkpt><trkpt lat="43.1990046589005" lon="0.965150361804216"><ele>469.0</ele><time>2026-03-29T10:33:36Z</time></trkpt><trkpt lat="43.19899910773549" lon="0.965047182612888"><ele>469.00000000000006</ele><time>2026-03-29T10:33:37Z</time></trkpt><trkpt lat="43.19896574271253" lon="0.9649587464797449"><ele>469.0</ele><time>2026-03-29T10:33:38Z</time></trkpt><trkpt lat="43.19892420886993" lon="0.9648655118293219"><ele>471.33333333333337</ele><time>2026-03-29T10:33:40Z</time></trkpt><trkpt lat="43.19886999788242" lon="0.9647235787951335"><ele>473.6666666666667</ele><time>2026-03-29T10:33:42Z</time></trkpt><trkpt lat="43.19884067241562" lon="0.9646107010391026"><ele>476.0</ele><time>2026-03-29T10:33:43Z</time></trkpt><trkpt lat="43.19882632242316" lon="0.9645233913446075"><ele>478.33333333333337</ele><time>2026-03-29T10:33:44Z</time></trkpt><trkpt lat="43.19881182876324" lon="0.964412125616973"><ele>480.6666666666667</ele><time>2026-03-29T10:33:45Z</time></trkpt><trkpt lat="43.198788031476866" lon="0.9643035668839683"><ele>483.0</ele><time>2026-03-29T10:33:46Z</time></trkpt><trkpt lat="43.19872997248394" lon="0.9641586313931124"><ele>484.1666666666667</ele><time>2026-03-29T10:33:48Z</time></trkpt><trkpt lat="43.19867954740016" lon="0.9640696046308628"><ele>485.33333333333337</ele><time>2026-03-29T10:33:49Z</time></trkpt><trkpt lat="43.198636518191506" lon="0.9640052650364465"><ele>486.5</ele><time>2026-03-29T10:33:50Z</time></trkpt><trkpt lat="43.198563459974146" lon="0.9638986674549328"><ele>487.6666666666667</ele><time>2026-03-29T10:33:51Z</time></trkpt><trkpt lat="43.198512568573236" lon="0.9637945771723252"><ele>488.83333333333337</ele><time>2026-03-29T10:33:52Z</time></trkpt><trkpt lat="43.198470819065264" lon="0.963702906596562"><ele>490.0</ele><time>2026-03-29T10:33:53Z</time></trkpt><trkpt lat="43.198401212096066" lon="0.9635757066540677"><ele>490.00000000000006</ele><time>2026-03-29T10:33:55Z</time></trkpt><trkpt lat="43.198402100731364" lon="0.963459914522609"><ele>490.0</ele><time>2026-03-29T10:33:57Z</time></trkpt><trkpt lat="43.19846070706964" lon="0.963392601715854"><ele>490.0</ele><time>2026-03-29T10:33:59Z</time></trkpt><trkpt lat="43.198582656454356" lon="0.9632931417404096"><ele>490.0</ele><time>2026-03-29T10:34:01Z</time></trkpt><trkpt lat="43.19864107090415" lon="0.9632597477565665"><ele>490.00000000000006</ele><time>2026-03-29T10:34:02Z</time></trkpt><trkpt lat="43.19871289572247" lon="0.9632490767841028"><ele>490.0</ele><time>2026-03-29T10:34:03Z</time></trkpt><trkpt lat="43.198726192967435" lon="0.9633466208506114"><ele>490.00000000000006</ele><time>2026-03-29T10:34:05Z</time></trkpt><trkpt lat="43.19881549978312" lon="0.9633827553161205"><ele>490.0</ele><time>2026-03-29T10:34:07Z</time></trkpt><trkpt lat="43.19888308389502" lon="0.9634300275495485"><ele>490.0</ele><time>2026-03-29T10:34:08Z</time></trkpt><trkpt lat="43.19893122066472" lon="0.9634908419917002"><ele>490.0</ele><time>2026-03-29T10:34:09Z</time></trkpt><trkpt lat="43.1989924793353" lon="0.9635866349361246"><ele>490.00000000000006</ele><time>2026-03-29T10:34:11Z</time></trkpt><trkpt lat="43.19902454279128" lon="0.9634951582559217"><ele>490.0</ele><time>2026-03-29T10:34:14Z</time></trkpt><trkpt lat="43.19898224928198" lon="0.963421764266598"><ele>491.8</ele><time>2026-03-29T10:34:17Z</time></trkpt><trkpt lat="43.199067438193964" lon="0.9634027098840737"><ele>493.6</ele><time>2026-03-29T10:38:52Z</time></trkpt><trkpt lat="43.19914015375938" lon="0.9633844558870782"><ele>495.4</ele><time>2026-03-29T10:38:55Z</time></trkpt><trkpt lat="43.199216451392246" lon="0.9634683027026038"><ele>497.2</ele><time>2026-03-29T10:39:42Z</time></trkpt><trkpt lat="43.199348313793166" lon="0.9635030438074119"><ele>499.0</ele><time>2026-03-29T10:39:44Z</time></trkpt><trkpt lat="43.1994501863262" lon="0.963577944786624"><ele>499.0</ele><time>2026-03-29T10:39:46Z</time></trkpt><trkpt lat="43.1994954102316" lon="0.9634773745035384"><ele>499.0</ele><time>2026-03-29T10:39:50Z</time></trkpt><trkpt lat="43.19953796450509" lon="0.9633229347749498"><ele>499.0</ele><time>2026-03-29T10:39:52Z</time></trkpt><trkpt lat="43.19956822514341" lon="0.9632335422115142"><ele>499.0</ele><time>2026-03-29T10:39:53Z</time></trkpt><trkpt lat="43.199610313697946" lon="0.9630722991829296"><ele>499.0</ele><time>2026-03-29T10:39:55Z</time></trkpt><trkpt lat="43.199674051391014" lon="0.962970595881293"><ele>499.50000000000006</ele><time>2026-03-29T10:39:57Z</time></trkpt><trkpt lat="43.1997283966814" lon="0.9629012128880332"><ele>500.0</ele><time>2026-03-29T10:40:01Z</time></trkpt><trkpt lat="43.199794113624954" lon="0.9628368111471024"><ele>500.5</ele><time>2026-03-29T10:40:02Z</time></trkpt><trkpt lat="43.199873159667064" lon="0.9627577924801096"><ele>501.0</ele><time>2026-03-29T10:40:03Z</time></trkpt><trkpt lat="43.199957940281294" lon="0.9626667251236666"><ele>501.50000000000006</ele><time>2026-03-29T10:40:04Z</time></trkpt><trkpt lat="43.20002558616291" lon="0.9625971739497163"><ele>502.0</ele><time>2026-03-29T10:40:05Z</time></trkpt><trkpt lat="43.200089676159955" lon="0.9625473838097283"><ele>504.00000000000006</ele><time>2026-03-29T10:40:06Z</time></trkpt><trkpt lat="43.200163088220165" lon="0.9624247863920756"><ele>506.0</ele><time>2026-03-29T10:40:08Z</time></trkpt><trkpt lat="43.20018809067387" lon="0.9622919593457853"><ele>508.0</ele><time>2026-03-29T10:40:10Z</time></trkpt><trkpt lat="43.200213251189204" lon="0.9621898552763349"><ele>510.0</ele><time>2026-03-29T10:40:12Z</time></trkpt><trkpt lat="43.20025370963334" lon="0.9620964767576528"><ele>512.0</ele><time>2026-03-29T10:40:15Z</time></trkpt><trkpt lat="43.200296721782934" lon="0.9620285490627097"><ele>514.0</ele><time>2026-03-29T10:40:17Z</time></trkpt><trkpt lat="43.20031033015552" lon="0.9619401101446287"><ele>514.0</ele><time>2026-03-29T10:40:19Z</time></trkpt><trkpt lat="43.20034909536124" lon="0.9618188631069009"><ele>514.0</ele><time>2026-03-29T10:40:22Z</time></trkpt><trkpt lat="43.20047493172593" lon="0.9614135372690721"><ele>514.0</ele><time>2026-03-29T10:40:23Z</time></trkpt><trkpt lat="43.20049512006941" lon="0.9613196290539623"><ele>513.8</ele><time>2026-03-29T10:40:24Z</time></trkpt><trkpt lat="43.2006005350797" lon="0.9612315147736086"><ele>513.5999999999999</ele><time>2026-03-29T10:40:25Z</time></trkpt><trkpt lat="43.20068045108639" lon="0.9610709351732081"><ele>513.4</ele><time>2026-03-29T10:40:26Z</time></trkpt><trkpt lat="43.20074091238497" lon="0.9609979669820332"><ele>513.1999999999999</ele><time>2026-03-29T10:40:27Z</time></trkpt><trkpt lat="43.20077516514459" lon="0.9608879559399487"><ele>513.0</ele><time>2026-03-29T10:40:28Z</time></trkpt><trkpt lat="43.200852331781036" lon="0.9607824581081709"><ele>515.1999999999999</ele><time>2026-03-29T10:40:30Z</time></trkpt><trkpt lat="43.20096361676024" lon="0.9607730203990122"><ele>517.4</ele><time>2026-03-29T10:40:31Z</time></trkpt><trkpt lat="43.201076233777734" lon="0.9607040662389397"><ele>519.5999999999999</ele><time>2026-03-29T10:40:32Z</time></trkpt><trkpt lat="43.20112739757666" lon="0.9606447976493195"><ele>521.8</ele><time>2026-03-29T10:40:33Z</time></trkpt><trkpt lat="43.20121035718648" lon="0.9606012276997993"><ele>524.0</ele><time>2026-03-29T10:40:34Z</time></trkpt><trkpt lat="43.20127573470369" lon="0.9604634749124739"><ele>524.0</ele><time>2026-03-29T10:40:35Z</time></trkpt><trkpt lat="43.201279078258885" lon="0.9602542864168085"><ele>524.0</ele><time>2026-03-29T10:40:36Z</time></trkpt><trkpt lat="43.20133290033671" lon="0.9601208172613815"><ele>524.0</ele><time>2026-03-29T10:40:37Z</time></trkpt><trkpt lat="43.201348941612835" lon="0.9599708530944481"><ele>524.0</ele><time>2026-03-29T10:40:38Z</time></trkpt><trkpt lat="43.20139340872725" lon="0.9599025557391287"><ele>524.0</ele><time>2026-03-29T10:40:39Z</time></trkpt><trkpt lat="43.20146516646587" lon="0.9597859529389453"><ele>523.8</ele><time>2026-03-29T10:40:40Z</time></trkpt><trkpt lat="43.20150553628483" lon="0.959698345642816"><ele>523.5999999999999</ele><time>2026-03-29T10:40:41Z</time></trkpt><trkpt lat="43.2014084489094" lon="0.9597178141891916"><ele>523.4</ele><time>2026-03-29T10:40:42Z</time></trkpt><trkpt lat="43.20145876183344" lon="0.9596313724130647"><ele>523.1999999999999</ele><time>2026-03-29T10:40:43Z</time></trkpt><trkpt lat="43.20154761501876" lon="0.9595001040855887"><ele>523.0</ele><time>2026-03-29T10:40:45Z</time></trkpt><trkpt lat="43.20159978850633" lon="0.9593303797519436"><ele>523.1999999999999</ele><time>2026-03-29T10:40:48Z</time></trkpt><trkpt lat="43.20164052055617" lon="0.9592080333465001"><ele>523.4</ele><time>2026-03-29T10:40:51Z</time></trkpt><trkpt lat="43.20165806817917" lon="0.9590701295332765"><ele>523.5999999999999</ele><time>2026-03-29T10:40:52Z</time></trkpt><trkpt lat="43.20169108624282" lon="0.9589290099600631"><ele>523.8</ele><time>2026-03-29T10:40:53Z</time></trkpt><trkpt lat="43.2017172126892" lon="0.9588361956152863"><ele>524.0</ele><time>2026-03-29T10:40:54Z</time></trkpt><trkpt lat="43.20173375762182" lon="0.9587380738203574"><ele>524.0</ele><time>2026-03-29T10:40:55Z</time></trkpt><trkpt lat="43.201730308362485" lon="0.9586319516574243"><ele>524.0</ele><time>2026-03-29T10:40:56Z</time></trkpt><trkpt lat="43.20172935329531" lon="0.9584518342659343"><ele>524.0</ele><time>2026-03-29T10:40:58Z</time></trkpt><trkpt lat="43.20174370246584" lon="0.9583513575601327"><ele>524.0</ele><time>2026-03-29T10:40:59Z</time></trkpt><trkpt lat="43.20175257659193" lon="0.9581737215299173"><ele>524.0</ele><time>2026-03-29T10:41:01Z</time></trkpt><trkpt lat="43.2017527558608" lon="0.9580828152138198"><ele>522.8333333333333</ele><time>2026-03-29T10:41:02Z</time></trkpt><trkpt lat="43.20173687573782" lon="0.9579146068922414"><ele>521.6666666666666</ele><time>2026-03-29T10:41:04Z</time></trkpt><trkpt lat="43.20173761100691" lon="0.9577497087956132"><ele>520.5</ele><time>2026-03-29T10:41:06Z</time></trkpt><trkpt lat="43.20174000300745" lon="0.9576596488210289"><ele>519.3333333333334</ele><time>2026-03-29T10:41:08Z</time></trkpt><trkpt lat="43.20173958487883" lon="0.957571408600919"><ele>518.1666666666667</ele><time>2026-03-29T10:41:11Z</time></trkpt><trkpt lat="43.201743578548815" lon="0.9574849788551433"><ele>517.0</ele><time>2026-03-29T10:41:13Z</time></trkpt><trkpt lat="43.20174896726822" lon="0.957378837982642"><ele>515.8000000000001</ele><time>2026-03-29T10:41:14Z</time></trkpt><trkpt lat="43.20175485651778" lon="0.9572588816093167"><ele>514.6</ele><time>2026-03-29T10:41:15Z</time></trkpt><trkpt lat="43.20176337335531" lon="0.9571564078066642"><ele>513.4000000000001</ele><time>2026-03-29T10:41:16Z</time></trkpt><trkpt lat="43.20177945463103" lon="0.9570521124876857"><ele>512.2</ele><time>2026-03-29T10:41:17Z</time></trkpt><trkpt lat="43.20180906308319" lon="0.9568796783461792"><ele>511.0</ele><time>2026-03-29T10:41:19Z</time></trkpt><trkpt lat="43.201827758124566" lon="0.9567252792301807"><ele>508.6</ele><time>2026-03-29T10:41:21Z</time></trkpt><trkpt lat="43.20185174089682" lon="0.9565854165705541"><ele>506.20000000000005</ele><time>2026-03-29T10:41:23Z</time></trkpt><trkpt lat="43.20187476089991" lon="0.9564729339339622"><ele>503.79999999999995</ele><time>2026-03-29T10:41:25Z</time></trkpt><trkpt lat="43.20186895933466" lon="0.9563781799410607"><ele>501.4</ele><time>2026-03-29T10:41:28Z</time></trkpt><trkpt lat="43.2018939117042" lon="0.9562525604430862"><ele>499.0</ele><time>2026-03-29T10:41:32Z</time></trkpt><trkpt lat="43.20193300541883" lon="0.9561312658136765"><ele>499.00000000000006</ele><time>2026-03-29T10:41:35Z</time></trkpt><trkpt lat="43.20196064677283" lon="0.9560273875056851"><ele>499.0</ele><time>2026-03-29T10:41:38Z</time></trkpt><trkpt lat="43.20198927035587" lon="0.9559298950123"><ele>499.0</ele><time>2026-03-29T10:41:45Z</time></trkpt><trkpt lat="43.202034621108105" lon="0.9558449630829503"><ele>499.0</ele><time>2026-03-29T10:41:54Z</time></trkpt><trkpt lat="43.202082465945885" lon="0.9557603634452922"><ele>499.00000000000006</ele><time>2026-03-29T10:41:57Z</time></trkpt><trkpt lat="43.20212997326609" lon="0.9556476893010919"><ele>499.0</ele><time>2026-03-29T10:41:59Z</time></trkpt><trkpt lat="43.20217963507091" lon="0.9555339094641618"><ele>497.00000000000006</ele><time>2026-03-29T10:42:01Z</time></trkpt><trkpt lat="43.20221652337648" lon="0.9554564968253008"><ele>495.0</ele><time>2026-03-29T10:42:03Z</time></trkpt><trkpt lat="43.202183852364364" lon="0.955323724572194"><ele>493.0</ele><time>2026-03-29T10:42:05Z</time></trkpt><trkpt lat="43.202116697159866" lon="0.9552050622416343"><ele>491.0</ele><time>2026-03-29T10:42:07Z</time></trkpt><trkpt lat="43.2020484984315" lon="0.9551369600666254"><ele>489.00000000000006</ele><time>2026-03-29T10:42:09Z</time></trkpt><trkpt lat="43.20202404366468" lon="0.9550444674630449"><ele>487.0</ele><time>2026-03-29T10:42:11Z</time></trkpt><trkpt lat="43.20193389194129" lon="0.9549344115148289"><ele>485.33333333333337</ele><time>2026-03-29T10:42:14Z</time></trkpt><trkpt lat="43.20184835363212" lon="0.9548517548108214"><ele>483.6666666666667</ele><time>2026-03-29T10:42:17Z</time></trkpt><trkpt lat="43.20180358527203" lon="0.9547765554455148"><ele>482.0</ele><time>2026-03-29T10:42:20Z</time></trkpt><trkpt lat="43.2017573201027" lon="0.9546885506596752"><ele>480.33333333333337</ele><time>2026-03-29T10:42:23Z</time></trkpt><trkpt lat="43.20183023254317" lon="0.9547524773401577"><ele>478.6666666666667</ele><time>2026-03-29T10:45:51Z</time></trkpt><trkpt lat="43.20186485667585" lon="0.9548340226756512"><ele>477.0</ele><time>2026-03-29T10:45:52Z</time></trkpt><trkpt lat="43.20190220283537" lon="0.9549098412867872"><ele>477.0</ele><time>2026-03-29T10:45:54Z</time></trkpt><trkpt lat="43.201964427982695" lon="0.9549498473090148"><ele>477.00000000000006</ele><time>2026-03-29T10:45:56Z</time></trkpt><trkpt lat="43.2020451372487" lon="0.9550507408429906"><ele>477.00000000000006</ele><time>2026-03-29T10:45:58Z</time></trkpt><trkpt lat="43.202087912539724" lon="0.9551388683057265"><ele>477.0</ele><time>2026-03-29T10:46:01Z</time></trkpt><trkpt lat="43.20218226418204" lon="0.9552800381889204"><ele>477.0</ele><time>2026-03-29T10:46:03Z</time></trkpt><trkpt lat="43.20222873192617" lon="0.9553580682447327"><ele>478.6666666666667</ele><time>2026-03-29T10:46:05Z</time></trkpt><trkpt lat="43.20225403521726" lon="0.9554373732148137"><ele>480.33333333333337</ele><time>2026-03-29T10:46:10Z</time></trkpt><trkpt lat="43.202265232169616" lon="0.9555736501233092"><ele>482.0</ele><time>2026-03-29T10:46:24Z</time></trkpt><trkpt lat="43.20226784980757" lon="0.9554838766458018"><ele>483.6666666666667</ele><time>2026-03-29T10:46:43Z</time></trkpt><trkpt lat="43.20225985090971" lon="0.9553959157319147"><ele>485.33333333333337</ele><time>2026-03-29T10:46:46Z</time></trkpt><trkpt lat="43.202196974075946" lon="0.9553090115786055"><ele>487.0</ele><time>2026-03-29T10:46:52Z</time></trkpt><trkpt lat="43.202137756502175" lon="0.9552299486046629"><ele>487.00000000000006</ele><time>2026-03-29T10:46:54Z</time></trkpt><trkpt lat="43.20208883842151" lon="0.9551622567088751"><ele>487.0</ele><time>2026-03-29T10:46:56Z</time></trkpt><trkpt lat="43.20206429345326" lon="0.955079760265394"><ele>487.0</ele><time>2026-03-29T10:46:58Z</time></trkpt><trkpt lat="43.20199347951842" lon="0.9550216956011822"><ele>487.0</ele><time>2026-03-29T10:47:01Z</time></trkpt><trkpt lat="43.20191798535648" lon="0.9549564358738922"><ele>487.00000000000006</ele><time>2026-03-29T10:47:03Z</time></trkpt><trkpt lat="43.201854021170185" lon="0.9548699241649492"><ele>487.0</ele><time>2026-03-29T10:47:04Z</time></trkpt><trkpt lat="43.20181723052679" lon="0.9547773519071849"><ele>485.57142857142856</ele><time>2026-03-29T10:47:06Z</time></trkpt><trkpt lat="43.2017843061704" lon="0.9546830714243295"><ele>484.1428571428571</ele><time>2026-03-29T10:47:08Z</time></trkpt><trkpt lat="43.20173452437999" lon="0.9546161150141357"><ele>482.71428571428567</ele><time>2026-03-29T10:47:10Z</time></trkpt><trkpt lat="43.20166384045623" lon="0.9546172615888032"><ele>481.2857142857143</ele><time>2026-03-29T10:47:44Z</time></trkpt><trkpt lat="43.20159310782925" lon="0.9546945452521982"><ele>479.8571428571428</ele><time>2026-03-29T10:47:48Z</time></trkpt><trkpt lat="43.201530862960524" lon="0.9547532425126651"><ele>478.4285714285714</ele><time>2026-03-29T10:47:49Z</time></trkpt><trkpt lat="43.201470090785406" lon="0.9547888718216062"><ele>477.0</ele><time>2026-03-29T10:47:50Z</time></trkpt><trkpt lat="43.20139885008617" lon="0.954831694209373"><ele>477.0</ele><time>2026-03-29T10:47:51Z</time></trkpt><trkpt lat="43.201333832497596" lon="0.9548708606575087"><ele>477.00000000000006</ele><time>2026-03-29T10:47:52Z</time></trkpt><trkpt lat="43.20126717547315" lon="0.9549087605582482"><ele>477.00000000000006</ele><time>2026-03-29T10:47:54Z</time></trkpt><trkpt lat="43.20137592133047" lon="0.9548331990810858"><ele>477.0</ele><time>2026-03-29T10:48:05Z</time></trkpt><trkpt lat="43.201483155479075" lon="0.9547813542800705"><ele>477.0</ele><time>2026-03-29T10:48:06Z</time></trkpt><trkpt lat="43.20158188616385" lon="0.9547137489961955"><ele>477.0</ele><time>2026-03-29T10:48:07Z</time></trkpt><trkpt lat="43.20164793062244" lon="0.9546789736850495"><ele>477.0</ele><time>2026-03-29T10:48:08Z</time></trkpt><trkpt lat="43.20159990961808" lon="0.9547445465652805"><ele>477.0</ele><time>2026-03-29T10:48:15Z</time></trkpt><trkpt lat="43.2015165259647" lon="0.9547943561077453"><ele>477.0</ele><time>2026-03-29T10:48:22Z</time></trkpt><trkpt lat="43.201433272788535" lon="0.954792565722107"><ele>477.0</ele><time>2026-03-29T10:48:23Z</time></trkpt><trkpt lat="43.20134346928928" lon="0.9548485615077862"><ele>477.0</ele><time>2026-03-29T10:48:24Z</time></trkpt><trkpt lat="43.201220340791465" lon="0.9549278460782687"><ele>477.1666666666667</ele><time>2026-03-29T10:48:25Z</time></trkpt><trkpt lat="43.201134884344874" lon="0.9549896192773182"><ele>477.33333333333337</ele><time>2026-03-29T10:48:26Z</time></trkpt><trkpt lat="43.20106183018023" lon="0.9550469782062044"><ele>477.5</ele><time>2026-03-29T10:48:27Z</time></trkpt><trkpt lat="43.20099380526917" lon="0.955110963967662"><ele>477.6666666666667</ele><time>2026-03-29T10:48:28Z</time></trkpt><trkpt lat="43.20092699156993" lon="0.9551716781573453"><ele>477.83333333333337</ele><time>2026-03-29T10:48:29Z</time></trkpt><trkpt lat="43.200862676957826" lon="0.9552389730124667"><ele>478.0</ele><time>2026-03-29T10:48:29.999Z</time></trkpt><trkpt lat="43.20078275399535" lon="0.955303074199011"><ele>478.0</ele><time>2026-03-29T10:48:30.999Z</time></trkpt><trkpt lat="43.20067165266095" lon="0.9554109583789469"><ele>478.0</ele><time>2026-03-29T10:48:31.999Z</time></trkpt><trkpt lat="43.200573314477474" lon="0.9555165685073085"><ele>478.0</ele><time>2026-03-29T10:48:32.999Z</time></trkpt><trkpt lat="43.2004801883595" lon="0.9556235012108593"><ele>478.0</ele><time>2026-03-29T10:48:33.999Z</time></trkpt><trkpt lat="43.200372013644866" lon="0.9557425408851046"><ele>478.0</ele><time>2026-03-29T10:48:34.999Z</time></trkpt><trkpt lat="43.20026368461517" lon="0.9558413918102846"><ele>477.99999999999994</ele><time>2026-03-29T10:48:35.999Z</time></trkpt><trkpt lat="43.200154444725555" lon="0.9559111415902859"><ele>477.99999999999994</ele><time>2026-03-29T10:48:37Z</time></trkpt><trkpt lat="43.200072079085594" lon="0.9559651170187674"><ele>478.0</ele><time>2026-03-29T10:48:38Z</time></trkpt><trkpt lat="43.200005589003965" lon="0.9560392387935087"><ele>478.0</ele><time>2026-03-29T10:48:39Z</time></trkpt><trkpt lat="43.19994796640002" lon="0.9561040923688132"><ele>478.0</ele><time>2026-03-29T10:48:40Z</time></trkpt><trkpt lat="43.19986101490353" lon="0.9561909410256604"><ele>478.0</ele><time>2026-03-29T10:48:41Z</time></trkpt><trkpt lat="43.19975685213135" lon="0.9562891994851374"><ele>478.0</ele><time>2026-03-29T10:48:42Z</time></trkpt><trkpt lat="43.19966312313438" lon="0.9564684156796994"><ele>478.0</ele><time>2026-03-29T10:48:43Z</time></trkpt><trkpt lat="43.19955921636381" lon="0.9565816352009346"><ele>477.33333333333337</ele><time>2026-03-29T10:48:44Z</time></trkpt><trkpt lat="43.199427257923595" lon="0.9567295302417879"><ele>476.66666666666663</ele><time>2026-03-29T10:48:45Z</time></trkpt><trkpt lat="43.19925614911526" lon="0.9569511187151291"><ele>476.0</ele><time>2026-03-29T10:48:46Z</time></trkpt><trkpt lat="43.19908293263246" lon="0.9571542266259033"><ele>475.0</ele><time>2026-03-29T10:48:47Z</time></trkpt><trkpt lat="43.198963249428175" lon="0.9573202696888558"><ele>474.0</ele><time>2026-03-29T10:48:48Z</time></trkpt><trkpt lat="43.198863695591406" lon="0.9574509500255312"><ele>473.0</ele><time>2026-03-29T10:48:49Z</time></trkpt><trkpt lat="43.198765849258635" lon="0.9575604073502139"><ele>472.0</ele><time>2026-03-29T10:48:50Z</time></trkpt><trkpt lat="43.198659508260356" lon="0.9576776859259536"><ele>472.0</ele><time>2026-03-29T10:48:51Z</time></trkpt><trkpt lat="43.19857722127953" lon="0.9577890497636028"><ele>472.00000000000006</ele><time>2026-03-29T10:48:52Z</time></trkpt><trkpt lat="43.198494774484985" lon="0.9578784748112505"><ele>472.00000000000006</ele><time>2026-03-29T10:48:53Z</time></trkpt><trkpt lat="43.198440453520995" lon="0.9579347002551553"><ele>472.0</ele><time>2026-03-29T10:48:54Z</time></trkpt><trkpt lat="43.198359818731724" lon="0.958006447675166"><ele>472.0</ele><time>2026-03-29T10:48:56Z</time></trkpt><trkpt lat="43.19828560131966" lon="0.9580275574121896"><ele>472.00000000000006</ele><time>2026-03-29T10:48:58Z</time></trkpt><trkpt lat="43.19822521560198" lon="0.9580890133577097"><ele>472.0</ele><time>2026-03-29T10:51:50Z</time></trkpt><trkpt lat="43.19829820087312" lon="0.9580833647177075"><ele>472.0</ele><time>2026-03-29T10:51:54Z</time></trkpt><trkpt lat="43.198301669267565" lon="0.9579914666167447"><ele>472.0</ele><time>2026-03-29T10:51:57Z</time></trkpt><trkpt lat="43.19840412368309" lon="0.9580099626922273"><ele>472.00000000000006</ele><time>2026-03-29T10:52:53Z</time></trkpt><trkpt lat="43.19851483479248" lon="0.9580115918397129"><ele>472.0</ele><time>2026-03-29T10:52:55Z</time></trkpt><trkpt lat="43.19859734958533" lon="0.9580160074918447"><ele>472.00000000000006</ele><time>2026-03-29T10:52:56Z</time></trkpt><trkpt lat="43.19867926163209" lon="0.9580316071898087"><ele>472.0</ele><time>2026-03-29T10:52:58Z</time></trkpt><trkpt lat="43.1986314100865" lon="0.957973199528153"><ele>472.0</ele><time>2026-03-29T10:53:20Z</time></trkpt><trkpt lat="43.19855172537519" lon="0.9578649142843307"><ele>472.0</ele><time>2026-03-29T10:57:01Z</time></trkpt><trkpt lat="43.19848057587074" lon="0.9578447032338782"><ele>472.00000000000006</ele><time>2026-03-29T10:57:04Z</time></trkpt><trkpt lat="43.19842284612449" lon="0.957929274203922"><ele>472.0</ele><time>2026-03-29T10:57:06Z</time></trkpt><trkpt lat="43.198344555487594" lon="0.9580079667714434"><ele>472.0</ele><time>2026-03-29T10:57:10Z</time></trkpt><trkpt lat="43.198275512490866" lon="0.9580071636264794"><ele>472.00000000000006</ele><time>2026-03-29T10:59:12Z</time></trkpt><trkpt lat="43.19818737176175" lon="0.9580534374114257"><ele>472.00000000000006</ele><time>2026-03-29T10:59:21Z</time></trkpt><trkpt lat="43.198060843758896" lon="0.9581314719120878"><ele>472.0</ele><time>2026-03-29T10:59:23Z</time></trkpt><trkpt lat="43.197988820173755" lon="0.9581520951087982"><ele>472.0</ele><time>2026-03-29T10:59:24Z</time></trkpt><trkpt lat="43.19789917449621" lon="0.9581772356583992"><ele>469.33333333333337</ele><time>2026-03-29T10:59:25Z</time></trkpt><trkpt lat="43.19779449706693" lon="0.9582018256841194"><ele>466.6666666666667</ele><time>2026-03-29T10:59:26Z</time></trkpt><trkpt lat="43.19771656890355" lon="0.958248468601451"><ele>464.0</ele><time>2026-03-29T10:59:27Z</time></trkpt><trkpt lat="43.1976612342334" lon="0.9583073478333244"><ele>461.33333333333337</ele><time>2026-03-29T10:59:28Z</time></trkpt><trkpt lat="43.19763187120391" lon="0.9583883189460494"><ele>458.6666666666667</ele><time>2026-03-29T10:59:29Z</time></trkpt><trkpt lat="43.19760144179622" lon="0.9584995090564128"><ele>456.0</ele><time>2026-03-29T10:59:30Z</time></trkpt><trkpt lat="43.19758049646198" lon="0.9586173496203023"><ele>456.0</ele><time>2026-03-29T10:59:31Z</time></trkpt><trkpt lat="43.19757968377805" lon="0.9587367439430613"><ele>456.0</ele><time>2026-03-29T10:59:32Z</time></trkpt><trkpt lat="43.19758379703903" lon="0.9588639621045081"><ele>456.0</ele><time>2026-03-29T10:59:33Z</time></trkpt><trkpt lat="43.197581559551686" lon="0.9590031561450884"><ele>456.0</ele><time>2026-03-29T10:59:34Z</time></trkpt><trkpt lat="43.19758246605813" lon="0.9591171493994777"><ele>456.0</ele><time>2026-03-29T10:59:35Z</time></trkpt><trkpt lat="43.1975637685849" lon="0.959242636568681"><ele>457.0</ele><time>2026-03-29T10:59:36Z</time></trkpt><trkpt lat="43.19755126341129" lon="0.9593322003042837"><ele>458.0</ele><time>2026-03-29T10:59:37Z</time></trkpt><trkpt lat="43.197493242085024" lon="0.9594543967956086"><ele>459.0</ele><time>2026-03-29T10:59:38Z</time></trkpt><trkpt lat="43.19742598864495" lon="0.9595496586115211"><ele>460.0</ele><time>2026-03-29T10:59:39Z</time></trkpt><trkpt lat="43.197309316709564" lon="0.9596353702120229"><ele>461.0</ele><time>2026-03-29T10:59:40Z</time></trkpt><trkpt lat="43.1971547246951" lon="0.9597390521510025"><ele>460.4</ele><time>2026-03-29T10:59:41Z</time></trkpt><trkpt lat="43.19701872828824" lon="0.9598212250256288"><ele>459.8</ele><time>2026-03-29T10:59:42Z</time></trkpt><trkpt lat="43.19690995656933" lon="0.9598717243940662"><ele>459.19999999999993</ele><time>2026-03-29T10:59:43Z</time></trkpt><trkpt lat="43.19685236380222" lon="0.959917345058627"><ele>458.59999999999997</ele><time>2026-03-29T10:59:44Z</time></trkpt><trkpt lat="43.196793895702726" lon="0.9599724810733851"><ele>458.0</ele><time>2026-03-29T10:59:48Z</time></trkpt><trkpt lat="43.19672673098725" lon="0.9600411288045861"><ele>452.5</ele><time>2026-03-29T10:59:50Z</time></trkpt><trkpt lat="43.19634405326765" lon="0.960109295545665"><ele>447.0</ele><time>2026-03-29T10:59:54Z</time></trkpt><trkpt lat="43.19617423788644" lon="0.9601334065432405"><ele>447.0</ele><time>2026-03-29T10:59:55Z</time></trkpt><trkpt lat="43.196048457080096" lon="0.9601726505222081"><ele>447.00000000000006</ele><time>2026-03-29T10:59:56Z</time></trkpt><trkpt lat="43.19594635201501" lon="0.9602216731031505"><ele>447.00000000000006</ele><time>2026-03-29T10:59:57Z</time></trkpt><trkpt lat="43.195859156714526" lon="0.9602901064270243"><ele>447.0</ele><time>2026-03-29T10:59:58Z</time></trkpt><trkpt lat="43.19580080579006" lon="0.9603724651038714"><ele>447.0</ele><time>2026-03-29T10:59:59Z</time></trkpt><trkpt lat="43.19575600002873" lon="0.9604694055592485"><ele>447.0</ele><time>2026-03-29T11:00:00Z</time></trkpt><trkpt lat="43.195722962823695" lon="0.9605785202546419"><ele>447.0</ele><time>2026-03-29T11:00:01Z</time></trkpt><trkpt lat="43.195712438227915" lon="0.9606843535303147"><ele>447.0</ele><time>2026-03-29T11:00:02Z</time></trkpt><trkpt lat="43.19570519745265" lon="0.9607796496423271"><ele>447.0</ele><time>2026-03-29T11:00:03Z</time></trkpt><trkpt lat="43.19570993034262" lon="0.9608843673906898"><ele>447.0</ele><time>2026-03-29T11:00:04Z</time></trkpt><trkpt lat="43.19573053160424" lon="0.9609981124281164"><ele>447.0</ele><time>2026-03-29T11:00:05Z</time></trkpt><trkpt lat="43.195758185280944" lon="0.9611091332861014"><ele>446.8</ele><time>2026-03-29T11:00:06Z</time></trkpt><trkpt lat="43.19578833749314" lon="0.9612136012081454"><ele>446.6</ele><time>2026-03-29T11:00:07Z</time></trkpt><trkpt lat="43.19585969137277" lon="0.9614327508641418"><ele>446.40000000000003</ele><time>2026-03-29T11:00:09Z</time></trkpt><trkpt lat="43.195903086142586" lon="0.9615455170282426"><ele>446.20000000000005</ele><time>2026-03-29T11:00:10Z</time></trkpt><trkpt lat="43.19592938480064" lon="0.9616517892776654"><ele>446.0</ele><time>2026-03-29T11:00:11Z</time></trkpt><trkpt lat="43.195940580799395" lon="0.96176118018195"><ele>445.99999999999994</ele><time>2026-03-29T11:00:13Z</time></trkpt><trkpt lat="43.195856050599545" lon="0.9617834147778318"><ele>446.0</ele><time>2026-03-29T11:00:15Z</time></trkpt><trkpt lat="43.195792844489" lon="0.9617233633381573"><ele>446.0</ele><time>2026-03-29T11:00:16Z</time></trkpt><trkpt lat="43.19573927925363" lon="0.9616320190715122"><ele>446.0</ele><time>2026-03-29T11:00:17Z</time></trkpt><trkpt lat="43.195697244629095" lon="0.9615042668851653"><ele>445.99999999999994</ele><time>2026-03-29T11:00:18Z</time></trkpt><trkpt lat="43.1956602637653" lon="0.9613987441096863"><ele>446.0</ele><time>2026-03-29T11:00:19Z</time></trkpt><trkpt lat="43.19559877671253" lon="0.9612585224293194"><ele>441.5</ele><time>2026-03-29T11:00:20Z</time></trkpt><trkpt lat="43.19554162681761" lon="0.9610810774645813"><ele>437.0</ele><time>2026-03-29T11:00:21Z</time></trkpt><trkpt lat="43.19548363950747" lon="0.9609192929731438"><ele>432.5</ele><time>2026-03-29T11:00:22Z</time></trkpt><trkpt lat="43.19545236603765" lon="0.9607724494755654"><ele>428.0</ele><time>2026-03-29T11:00:23Z</time></trkpt><trkpt lat="43.19543865287341" lon="0.9606432489178265"><ele>427.99999999999994</ele><time>2026-03-29T11:00:24Z</time></trkpt><trkpt lat="43.1954462631439" lon="0.960521360507967"><ele>428.0</ele><time>2026-03-29T11:00:25Z</time></trkpt><trkpt lat="43.19545230005325" lon="0.9604018412878274"><ele>428.0</ele><time>2026-03-29T11:00:26Z</time></trkpt><trkpt lat="43.195470109878755" lon="0.960295001070933"><ele>428.0</ele><time>2026-03-29T11:00:27.001Z</time></trkpt><trkpt lat="43.19549854039448" lon="0.9601940938762102"><ele>427.99999999999994</ele><time>2026-03-29T11:00:28.001Z</time></trkpt><trkpt lat="43.19553539476075" lon="0.9600611799014238"><ele>428.0</ele><time>2026-03-29T11:00:29.001Z</time></trkpt><trkpt lat="43.19558405528233" lon="0.9599351824814806"><ele>427.49999999999994</ele><time>2026-03-29T11:00:30.001Z</time></trkpt><trkpt lat="43.19564353308469" lon="0.9598290600129638"><ele>427.0</ele><time>2026-03-29T11:00:31.001Z</time></trkpt><trkpt lat="43.19569739618152" lon="0.959752599406171"><ele>426.5</ele><time>2026-03-29T11:00:32.001Z</time></trkpt><trkpt lat="43.19576171765996" lon="0.9596744450921461"><ele>426.0</ele><time>2026-03-29T11:00:33.001Z</time></trkpt><trkpt lat="43.19583397820103" lon="0.9596030615007791"><ele>425.49999999999994</ele><time>2026-03-29T11:00:34.001Z</time></trkpt><trkpt lat="43.19589648277031" lon="0.9595689234376095"><ele>425.0</ele><time>2026-03-29T11:00:35.001Z</time></trkpt><trkpt lat="43.19599627096755" lon="0.9595099797475221"><ele>425.8</ele><time>2026-03-29T11:00:36.001Z</time></trkpt><trkpt lat="43.19607886371387" lon="0.9594463959072645"><ele>426.6</ele><time>2026-03-29T11:00:37.001Z</time></trkpt><trkpt lat="43.19615510800175" lon="0.9593905202996679"><ele>427.4</ele><time>2026-03-29T11:00:38.001Z</time></trkpt><trkpt lat="43.19624005357265" lon="0.9593256193785866"><ele>428.2</ele><time>2026-03-29T11:00:39.001Z</time></trkpt><trkpt lat="43.19631796365322" lon="0.9592442204642093"><ele>429.0</ele><time>2026-03-29T11:00:40.001Z</time></trkpt><trkpt lat="43.19637314290063" lon="0.9591660086996481"><ele>429.0</ele><time>2026-03-29T11:00:41.001Z</time></trkpt><trkpt lat="43.19645775483561" lon="0.9591117052512655"><ele>429.0</ele><time>2026-03-29T11:00:42.001Z</time></trkpt><trkpt lat="43.19647893434831" lon="0.958981482255063"><ele>429.0</ele><time>2026-03-29T11:00:44.001Z</time></trkpt><trkpt lat="43.1964225675698" lon="0.958846376209792"><ele>429.0</ele><time>2026-03-29T11:00:46.001Z</time></trkpt><trkpt lat="43.19636433964259" lon="0.9587917903870108"><ele>429.0</ele><time>2026-03-29T11:00:47.001Z</time></trkpt><trkpt lat="43.19629319994991" lon="0.9587724617517939"><ele>429.0</ele><time>2026-03-29T11:00:48.001Z</time></trkpt><trkpt lat="43.196193650550455" lon="0.9587512443227395"><ele>429.0</ele><time>2026-03-29T11:00:49.001Z</time></trkpt><trkpt lat="43.19607156444345" lon="0.9587591915187366"><ele>429.0</ele><time>2026-03-29T11:00:50.001Z</time></trkpt><trkpt lat="43.19594727843779" lon="0.9587449719260921"><ele>429.0</ele><time>2026-03-29T11:00:51.001Z</time></trkpt><trkpt lat="43.1958257264776" lon="0.9587136123886741"><ele>429.0</ele><time>2026-03-29T11:00:52.001Z</time></trkpt><trkpt lat="43.19574900766398" lon="0.9587058725966348"><ele>429.0</ele><time>2026-03-29T11:00:53.001Z</time></trkpt><trkpt lat="43.19568344437048" lon="0.9587251804306581"><ele>426.8333333333333</ele><time>2026-03-29T11:00:54.001Z</time></trkpt><trkpt lat="43.19562112894096" lon="0.9587507538641616"><ele>424.66666666666663</ele><time>2026-03-29T11:00:55.001Z</time></trkpt><trkpt lat="43.195552315057064" lon="0.9587704147243281"><ele>422.5</ele><time>2026-03-29T11:00:56.001Z</time></trkpt><trkpt lat="43.1954683671112" lon="0.958799506456078"><ele>420.3333333333333</ele><time>2026-03-29T11:00:57.001Z</time></trkpt><trkpt lat="43.195383711254195" lon="0.9588488934045982"><ele>418.16666666666663</ele><time>2026-03-29T11:00:58.001Z</time></trkpt><trkpt lat="43.19528943156406" lon="0.9589346370988172"><ele>416.0</ele><time>2026-03-29T11:00:59.001Z</time></trkpt><trkpt lat="43.19520272291232" lon="0.9589804892181293"><ele>416.0</ele><time>2026-03-29T11:01:00.001Z</time></trkpt><trkpt lat="43.195103037054906" lon="0.9590266004170812"><ele>416.0</ele><time>2026-03-29T11:01:01.001Z</time></trkpt><trkpt lat="43.195019272811926" lon="0.9591125108174215"><ele>416.0</ele><time>2026-03-29T11:01:02.001Z</time></trkpt><trkpt lat="43.19494146707932" lon="0.959209902194191"><ele>416.0</ele><time>2026-03-29T11:01:03.001Z</time></trkpt><trkpt lat="43.19487401156812" lon="0.9593257447395894"><ele>416.0</ele><time>2026-03-29T11:01:04.001Z</time></trkpt><trkpt lat="43.19481156434264" lon="0.9594533273808535"><ele>413.5</ele><time>2026-03-29T11:01:05.001Z</time></trkpt><trkpt lat="43.19475213957616" lon="0.9595950508507903"><ele>411.0</ele><time>2026-03-29T11:01:06Z</time></trkpt><trkpt lat="43.19468295723244" lon="0.9597713755481038"><ele>408.5</ele><time>2026-03-29T11:01:07Z</time></trkpt><trkpt lat="43.19462269962689" lon="0.9599930292538036"><ele>406.0</ele><time>2026-03-29T11:01:08Z</time></trkpt><trkpt lat="43.194555293140056" lon="0.9602379988319975"><ele>406.0</ele><time>2026-03-29T11:01:09Z</time></trkpt><trkpt lat="43.19449623197067" lon="0.9604245128120674"><ele>406.0</ele><time>2026-03-29T11:01:10Z</time></trkpt><trkpt lat="43.19447598016271" lon="0.9605419850642513"><ele>406.0</ele><time>2026-03-29T11:01:11Z</time></trkpt><trkpt lat="43.19445042658759" lon="0.9606756047019237"><ele>406.0</ele><time>2026-03-29T11:01:12Z</time></trkpt><trkpt lat="43.1944041653018" lon="0.9608260825261794"><ele>406.4</ele><time>2026-03-29T11:01:13Z</time></trkpt><trkpt lat="43.19437103913424" lon="0.9609583191727604"><ele>406.8</ele><time>2026-03-29T11:01:14Z</time></trkpt><trkpt lat="43.19434640685387" lon="0.9610863503742066"><ele>407.2</ele><time>2026-03-29T11:01:15Z</time></trkpt><trkpt lat="43.19432244068551" lon="0.9612289889550254"><ele>407.59999999999997</ele><time>2026-03-29T11:01:16Z</time></trkpt><trkpt lat="43.19428827775471" lon="0.9613881135015253"><ele>408.0</ele><time>2026-03-29T11:01:17Z</time></trkpt><trkpt lat="43.19425451167508" lon="0.9615256078495003"><ele>408.0</ele><time>2026-03-29T11:01:18Z</time></trkpt><trkpt lat="43.194224017896" lon="0.9616343439497294"><ele>408.0</ele><time>2026-03-29T11:01:19Z</time></trkpt><trkpt lat="43.194177718083644" lon="0.9617526903285976"><ele>408.0</ele><time>2026-03-29T11:01:20Z</time></trkpt><trkpt lat="43.19412863357792" lon="0.9619077916268032"><ele>408.0</ele><time>2026-03-29T11:01:21Z</time></trkpt><trkpt lat="43.19407222951032" lon="0.9620668307143787"><ele>408.0</ele><time>2026-03-29T11:01:22Z</time></trkpt><trkpt lat="43.19400450586081" lon="0.9622336825017606"><ele>403.33333333333337</ele><time>2026-03-29T11:01:23Z</time></trkpt><trkpt lat="43.19392531030201" lon="0.9624101391776078"><ele>398.6666666666667</ele><time>2026-03-29T11:01:24Z</time></trkpt><trkpt lat="43.19383807536167" lon="0.9626018452426736"><ele>394.0</ele><time>2026-03-29T11:01:25Z</time></trkpt><trkpt lat="43.19376702798313" lon="0.9627799741343973"><ele>394.0</ele><time>2026-03-29T11:01:26Z</time></trkpt><trkpt lat="43.193712518960496" lon="0.9629689785255102"><ele>394.0</ele><time>2026-03-29T11:01:27Z</time></trkpt><trkpt lat="43.193649995397365" lon="0.9631793316470771"><ele>394.0</ele><time>2026-03-29T11:01:28Z</time></trkpt><trkpt lat="43.19358952082925" lon="0.9634011112612352"><ele>393.79999999999995</ele><time>2026-03-29T11:01:29Z</time></trkpt><trkpt lat="43.19354816848341" lon="0.9635825218384161"><ele>393.59999999999997</ele><time>2026-03-29T11:01:30Z</time></trkpt><trkpt lat="43.19351882686496" lon="0.9637250522167612"><ele>393.4</ele><time>2026-03-29T11:01:31Z</time></trkpt><trkpt lat="43.1934978787678" lon="0.9638411427064436"><ele>393.2</ele><time>2026-03-29T11:01:32Z</time></trkpt><trkpt lat="43.19347919610877" lon="0.9639634458764847"><ele>393.0</ele><time>2026-03-29T11:01:33Z</time></trkpt><trkpt lat="43.19346142275869" lon="0.9641248096617078"><ele>392.2</ele><time>2026-03-29T11:01:34Z</time></trkpt><trkpt lat="43.19345389968743" lon="0.9642749161261185"><ele>391.4</ele><time>2026-03-29T11:01:35Z</time></trkpt><trkpt lat="43.193455516524985" lon="0.964426056027678"><ele>390.59999999999997</ele><time>2026-03-29T11:01:36Z</time></trkpt><trkpt lat="43.19345921808167" lon="0.9645775061599484"><ele>389.79999999999995</ele><time>2026-03-29T11:01:37Z</time></trkpt><trkpt lat="43.19346392316552" lon="0.9646999043473349"><ele>389.0</ele><time>2026-03-29T11:01:38Z</time></trkpt><trkpt lat="43.19346513746819" lon="0.9648603820113996"><ele>389.0</ele><time>2026-03-29T11:01:39Z</time></trkpt><trkpt lat="43.193461977132316" lon="0.9649926325615086"><ele>389.0</ele><time>2026-03-29T11:01:40Z</time></trkpt><trkpt lat="43.19344679200183" lon="0.9651615825781809"><ele>389.0</ele><time>2026-03-29T11:01:41Z</time></trkpt><trkpt lat="43.19343525895587" lon="0.9653044452201591"><ele>389.0</ele><time>2026-03-29T11:01:42Z</time></trkpt><trkpt lat="43.193415281129965" lon="0.9654281448610003"><ele>389.0</ele><time>2026-03-29T11:01:43Z</time></trkpt><trkpt lat="43.193377727484496" lon="0.9655222007194024"><ele>388.0</ele><time>2026-03-29T11:01:45Z</time></trkpt><trkpt lat="43.19330796717852" lon="0.965482059524377"><ele>387.0</ele><time>2026-03-29T11:01:47Z</time></trkpt><trkpt lat="43.19323921050439" lon="0.9653737524351728"><ele>386.0</ele><time>2026-03-29T11:01:49Z</time></trkpt><trkpt lat="43.19317692312506" lon="0.9651459449509471"><ele>385.0</ele><time>2026-03-29T11:01:51Z</time></trkpt><trkpt lat="43.19312378899868" lon="0.9649219358136036"><ele>380.0</ele><time>2026-03-29T11:01:52Z</time></trkpt><trkpt lat="43.19307584424873" lon="0.9647030200948378"><ele>375.0</ele><time>2026-03-29T11:01:53Z</time></trkpt><trkpt lat="43.19303825450828" lon="0.964462693431981"><ele>370.0</ele><time>2026-03-29T11:01:54Z</time></trkpt><trkpt lat="43.19301611113249" lon="0.9643092130785395"><ele>369.8333333333333</ele><time>2026-03-29T11:01:55Z</time></trkpt><trkpt lat="43.19299426403741" lon="0.9641577864799227"><ele>369.66666666666663</ele><time>2026-03-29T11:01:56Z</time></trkpt><trkpt lat="43.192975862099" lon="0.9640246919288413"><ele>369.5</ele><time>2026-03-29T11:01:57Z</time></trkpt><trkpt lat="43.1929499419935" lon="0.9638986722833929"><ele>369.3333333333333</ele><time>2026-03-29T11:01:58Z</time></trkpt><trkpt lat="43.19293321275458" lon="0.9637936823221303"><ele>369.1666666666667</ele><time>2026-03-29T11:01:59Z</time></trkpt><trkpt lat="43.192907090340086" lon="0.9637134272803891"><ele>369.0</ele><time>2026-03-29T11:02:00Z</time></trkpt><trkpt lat="43.192863719247846" lon="0.9636233462101581"><ele>369.0</ele><time>2026-03-29T11:02:02Z</time></trkpt><trkpt lat="43.19280225992099" lon="0.9635592986178477"><ele>369.0</ele><time>2026-03-29T11:02:05Z</time></trkpt><trkpt lat="43.19273823829519" lon="0.9636554340537757"><ele>369.0</ele><time>2026-03-29T11:02:08Z</time></trkpt><trkpt lat="43.19270542963945" lon="0.9637608683108374"><ele>369.0</ele><time>2026-03-29T11:02:09Z</time></trkpt><trkpt lat="43.19268225861051" lon="0.9638673480849622"><ele>369.0</ele><time>2026-03-29T11:02:10Z</time></trkpt><trkpt lat="43.1926588543445" lon="0.9639982930818615"><ele>369.0</ele><time>2026-03-29T11:02:11Z</time></trkpt><trkpt lat="43.19263633655907" lon="0.9641368838684816"><ele>369.2</ele><time>2026-03-29T11:02:12Z</time></trkpt><trkpt lat="43.192615976662985" lon="0.964282431402317"><ele>369.4</ele><time>2026-03-29T11:02:13Z</time></trkpt><trkpt lat="43.192597824022705" lon="0.964425356264173"><ele>369.6</ele><time>2026-03-29T11:02:14Z</time></trkpt><trkpt lat="43.192582004466054" lon="0.9645745104521957"><ele>369.8</ele><time>2026-03-29T11:02:15Z</time></trkpt><trkpt lat="43.192562926076825" lon="0.9647308082155475"><ele>370.0</ele><time>2026-03-29T11:02:16Z</time></trkpt><trkpt lat="43.19253617480487" lon="0.964892512713773"><ele>369.8</ele><time>2026-03-29T11:02:17Z</time></trkpt><trkpt lat="43.19250601824995" lon="0.9650582892435258"><ele>369.6</ele><time>2026-03-29T11:02:18Z</time></trkpt><trkpt lat="43.1924788033083" lon="0.9651912496580685"><ele>369.4</ele><time>2026-03-29T11:02:19Z</time></trkpt><trkpt lat="43.19244799189974" lon="0.9653208748343558"><ele>369.2</ele><time>2026-03-29T11:02:20Z</time></trkpt><trkpt lat="43.19241318813073" lon="0.9654566847269856"><ele>369.0</ele><time>2026-03-29T11:02:21Z</time></trkpt><trkpt lat="43.19237910659783" lon="0.9655861190879893"><ele>369.0</ele><time>2026-03-29T11:02:22Z</time></trkpt><trkpt lat="43.1923406713942" lon="0.965689570159312"><ele>369.0</ele><time>2026-03-29T11:02:23Z</time></trkpt><trkpt lat="43.192315045420315" lon="0.9657811528590574"><ele>369.0</ele><time>2026-03-29T11:02:24Z</time></trkpt><trkpt lat="43.19227488224964" lon="0.9659492306189214"><ele>369.0</ele><time>2026-03-29T11:02:26Z</time></trkpt><trkpt lat="43.19224343789615" lon="0.9660678620465752"><ele>369.0</ele><time>2026-03-29T11:02:27Z</time></trkpt><trkpt lat="43.192202382742266" lon="0.9661793652040868"><ele>364.79999999999995</ele><time>2026-03-29T11:02:28Z</time></trkpt><trkpt lat="43.192175201077866" lon="0.9662740948633538"><ele>360.59999999999997</ele><time>2026-03-29T11:02:29Z</time></trkpt><trkpt lat="43.19214658802546" lon="0.966399157351423"><ele>356.4</ele><time>2026-03-29T11:02:31.001Z</time></trkpt><trkpt lat="43.192101611569505" lon="0.9665498672472116"><ele>352.2</ele><time>2026-03-29T11:02:33.001Z</time></trkpt><trkpt lat="43.192055134647596" lon="0.9666711219881322"><ele>348.0</ele><time>2026-03-29T11:02:34.001Z</time></trkpt><trkpt lat="43.192018746593554" lon="0.9667912309889521"><ele>347.8333333333333</ele><time>2026-03-29T11:02:35.001Z</time></trkpt><trkpt lat="43.19198840868725" lon="0.9669017069698755"><ele>347.6666666666667</ele><time>2026-03-29T11:02:36.001Z</time></trkpt><trkpt lat="43.19196228451713" lon="0.9669971527632544"><ele>347.5</ele><time>2026-03-29T11:02:37.001Z</time></trkpt><trkpt lat="43.19193921724414" lon="0.9670964503710489"><ele>347.33333333333337</ele><time>2026-03-29T11:02:38.001Z</time></trkpt><trkpt lat="43.19191261447946" lon="0.9672012930286835"><ele>347.1666666666667</ele><time>2026-03-29T11:02:39.001Z</time></trkpt><trkpt lat="43.191888835379174" lon="0.9673035705426856"><ele>347.0</ele><time>2026-03-29T11:02:40.001Z</time></trkpt><trkpt lat="43.19186792516456" lon="0.9674100452458002"><ele>346.40000000000003</ele><time>2026-03-29T11:02:41.001Z</time></trkpt><trkpt lat="43.191840175484685" lon="0.9675347305959302"><ele>345.8</ele><time>2026-03-29T11:02:42.001Z</time></trkpt><trkpt lat="43.19181807231528" lon="0.9676670313844227"><ele>345.2</ele><time>2026-03-29T11:02:43.001Z</time></trkpt><trkpt lat="43.191802985610124" lon="0.9678072702680498"><ele>344.6</ele><time>2026-03-29T11:02:44.001Z</time></trkpt><trkpt lat="43.19179473757387" lon="0.9679228397407806"><ele>344.0</ele><time>2026-03-29T11:02:45.001Z</time></trkpt><trkpt lat="43.19178199338248" lon="0.968047530853"><ele>344.0</ele><time>2026-03-29T11:02:46.001Z</time></trkpt><trkpt lat="43.19176668365345" lon="0.9681550341347451"><ele>344.0</ele><time>2026-03-29T11:02:47.001Z</time></trkpt><trkpt lat="43.191752933569944" lon="0.9682492773733751"><ele>344.0</ele><time>2026-03-29T11:02:48.001Z</time></trkpt><trkpt lat="43.19173468773041" lon="0.9683532049694675"><ele>344.0</ele><time>2026-03-29T11:02:49.001Z</time></trkpt><trkpt lat="43.191717688064145" lon="0.9684550808864156"><ele>344.0</ele><time>2026-03-29T11:02:50.001Z</time></trkpt><trkpt lat="43.19170558015647" lon="0.9685474682764876"><ele>344.0</ele><time>2026-03-29T11:02:51.001Z</time></trkpt><trkpt lat="43.191690567285335" lon="0.9686529131725843"><ele>343.33333333333337</ele><time>2026-03-29T11:02:53.001Z</time></trkpt><trkpt lat="43.1916906246071" lon="0.9687767355094064"><ele>342.6666666666667</ele><time>2026-03-29T11:02:58.001Z</time></trkpt><trkpt lat="43.19169270981078" lon="0.9688968371816248"><ele>342.0</ele><time>2026-03-29T11:03:02.001Z</time></trkpt><trkpt lat="43.19169232901142" lon="0.9690100380512437"><ele>341.3333333333333</ele><time>2026-03-29T11:03:05.001Z</time></trkpt><trkpt lat="43.191684683656085" lon="0.9691266975384359"><ele>340.66666666666663</ele><time>2026-03-29T11:03:08.001Z</time></trkpt><trkpt lat="43.19166744439796" lon="0.9692138516654792"><ele>340.0</ele><time>2026-03-29T11:03:11.001Z</time></trkpt><trkpt lat="43.191641873055424" lon="0.9692984283993311"><ele>338.66666666666663</ele><time>2026-03-29T11:03:13Z</time></trkpt><trkpt lat="43.191592817432465" lon="0.9693646583879794"><ele>337.3333333333333</ele><time>2026-03-29T11:03:22Z</time></trkpt><trkpt lat="43.19155078685415" lon="0.9694296061534706"><ele>336.0</ele><time>2026-03-29T11:03:50Z</time></trkpt><trkpt lat="43.191469024377895" lon="0.9693687955790272"><ele>334.6666666666667</ele><time>2026-03-29T11:03:58Z</time></trkpt><trkpt lat="43.191397087838055" lon="0.9694201902178485"><ele>333.33333333333337</ele><time>2026-03-29T11:04:00Z</time></trkpt><trkpt lat="43.191343525692055" lon="0.9695103882253323"><ele>332.0</ele><time>2026-03-29T11:04:02Z</time></trkpt><trkpt lat="43.19130030568511" lon="0.969573451307367"><ele>330.33333333333337</ele><time>2026-03-29T11:04:04Z</time></trkpt><trkpt lat="43.19123728395502" lon="0.969620045783525"><ele>328.6666666666667</ele><time>2026-03-29T11:04:43.001Z</time></trkpt><trkpt lat="43.19117961570029" lon="0.9695638203284949"><ele>327.0</ele><time>2026-03-29T11:07:12.001Z</time></trkpt><trkpt lat="43.1912116894166" lon="0.9696450080529448"><ele>325.3333333333333</ele><time>2026-03-29T11:08:34Z</time></trkpt><trkpt lat="43.19116095489135" lon="0.9697019831114236"><ele>323.66666666666663</ele><time>2026-03-29T11:09:51Z</time></trkpt><trkpt lat="43.19106483699655" lon="0.9697633882330949"><ele>322.0</ele><time>2026-03-29T11:09:53Z</time></trkpt><trkpt lat="43.1910042418408" lon="0.9698151438841459"><ele>322.0</ele><time>2026-03-29T11:09:54Z</time></trkpt><trkpt lat="43.190916188829384" lon="0.9698956053321972"><ele>322.0</ele><time>2026-03-29T11:09:56Z</time></trkpt><trkpt lat="43.19082555353462" lon="0.9699443932981998"><ele>322.0</ele><time>2026-03-29T11:09:58Z</time></trkpt><trkpt lat="43.19073050339198" lon="0.9699414281397808"><ele>322.0</ele><time>2026-03-29T11:10:01Z</time></trkpt><trkpt lat="43.190638613051426" lon="0.9698899742463912"><ele>322.0</ele><time>2026-03-29T11:10:03Z</time></trkpt><trkpt lat="43.19058386069458" lon="0.9698288761731776"><ele>320.5</ele><time>2026-03-29T11:10:04Z</time></trkpt><trkpt lat="43.19054550715921" lon="0.9697035091034442"><ele>319.0</ele><time>2026-03-29T11:10:06Z</time></trkpt><trkpt lat="43.19053097207889" lon="0.9695601521836537"><ele>317.5</ele><time>2026-03-29T11:10:07Z</time></trkpt><trkpt lat="43.190532603518335" lon="0.9693541445320597"><ele>316.0</ele><time>2026-03-29T11:10:08Z</time></trkpt><trkpt lat="43.19053490548306" lon="0.9690775812352902"><ele>316.0</ele><time>2026-03-29T11:10:09Z</time></trkpt><trkpt lat="43.190547112866284" lon="0.9687840025477995"><ele>316.0</ele><time>2026-03-29T11:10:10Z</time></trkpt><trkpt lat="43.19055788074093" lon="0.9684554243297478"><ele>317.5</ele><time>2026-03-29T11:10:11Z</time></trkpt><trkpt lat="43.19057140532769" lon="0.9681037522267627"><ele>319.0</ele><time>2026-03-29T11:10:12Z</time></trkpt><trkpt lat="43.19059037117955" lon="0.9677445134786875"><ele>320.0</ele><time>2026-03-29T11:10:13Z</time></trkpt><trkpt lat="43.19060514616058" lon="0.9673779031567845"><ele>321.0</ele><time>2026-03-29T11:10:14Z</time></trkpt><trkpt lat="43.190620509198524" lon="0.9669910321379346"><ele>322.0</ele><time>2026-03-29T11:10:15Z</time></trkpt><trkpt lat="43.19063123328302" lon="0.9666014574357983"><ele>323.0</ele><time>2026-03-29T11:10:16Z</time></trkpt><trkpt lat="43.190637339975076" lon="0.9662691205614584"><ele>323.0</ele><time>2026-03-29T11:10:17Z</time></trkpt><trkpt lat="43.19065374664431" lon="0.9660058824765811"><ele>323.0</ele><time>2026-03-29T11:10:18Z</time></trkpt><trkpt lat="43.190657934123145" lon="0.9658395736096429"><ele>323.0</ele><time>2026-03-29T11:10:19Z</time></trkpt><trkpt lat="43.190658775923204" lon="0.9656841082826276"><ele>323.0</ele><time>2026-03-29T11:10:20Z</time></trkpt><trkpt lat="43.190656325776324" lon="0.9655491751431069"><ele>323.5</ele><time>2026-03-29T11:10:21Z</time></trkpt><trkpt lat="43.19064463783033" lon="0.9654306404708498"><ele>324.0</ele><time>2026-03-29T11:10:22Z</time></trkpt><trkpt lat="43.19062974171472" lon="0.9653256167052102"><ele>324.5</ele><time>2026-03-29T11:10:23Z</time></trkpt><trkpt lat="43.19060510347682" lon="0.9652328304878731"><ele>325.0</ele><time>2026-03-29T11:10:24Z</time></trkpt><trkpt lat="43.190557517179414" lon="0.9651577964370326"><ele>325.5</ele><time>2026-03-29T11:10:25Z</time></trkpt><trkpt lat="43.19049536049162" lon="0.9650824559319707"><ele>326.0</ele><time>2026-03-29T11:10:26Z</time></trkpt><trkpt lat="43.19040989514297" lon="0.965032622816421"><ele>326.0</ele><time>2026-03-29T11:10:27Z</time></trkpt><trkpt lat="43.190333811599594" lon="0.9650090412636505"><ele>326.0</ele><time>2026-03-29T11:10:28Z</time></trkpt><trkpt lat="43.19025287258858" lon="0.965014500990394"><ele>326.0</ele><time>2026-03-29T11:10:29Z</time></trkpt><trkpt lat="43.19016961163788" lon="0.9650481159455153"><ele>326.0</ele><time>2026-03-29T11:10:30Z</time></trkpt><trkpt lat="43.19011128794018" lon="0.9651041149524566"><ele>326.0</ele><time>2026-03-29T11:10:31Z</time></trkpt><trkpt lat="43.19005756761547" lon="0.9650563988604253"><ele>326.0</ele><time>2026-03-29T11:10:34Z</time></trkpt><trkpt lat="43.1900788595847" lon="0.9649720264363871"><ele>326.0</ele><time>2026-03-29T11:12:21Z</time></trkpt><trkpt lat="43.190050642524916" lon="0.9648256419903528"><ele>326.0</ele><time>2026-03-29T11:12:24Z</time></trkpt><trkpt lat="43.19006364461605" lon="0.9647215336160406"><ele>326.0</ele><time>2026-03-29T11:12:25Z</time></trkpt><trkpt lat="43.19007289215317" lon="0.964610849834459"><ele>326.0</ele><time>2026-03-29T11:12:26Z</time></trkpt><trkpt lat="43.1900729387086" lon="0.9644654652842097"><ele>326.0</ele><time>2026-03-29T11:12:27Z</time></trkpt><trkpt lat="43.19008456439098" lon="0.9642386327947262"><ele>326.0</ele><time>2026-03-29T11:12:28Z</time></trkpt><trkpt lat="43.190082927210796" lon="0.9640208372319425"><ele>326.0</ele><time>2026-03-29T11:12:29Z</time></trkpt><trkpt lat="43.19008619878105" lon="0.9638544573636945"><ele>326.0</ele><time>2026-03-29T11:12:30Z</time></trkpt><trkpt lat="43.19008200270021" lon="0.963719618615244"><ele>326.0</ele><time>2026-03-29T11:12:31Z</time></trkpt><trkpt lat="43.190075501486184" lon="0.9636031613038747"><ele>326.0</ele><time>2026-03-29T11:12:32Z</time></trkpt><trkpt lat="43.19006130608651" lon="0.9635102102021568"><ele>326.0</ele><time>2026-03-29T11:12:33Z</time></trkpt><trkpt lat="43.19005569701432" lon="0.9633394128694176"><ele>326.20000000000005</ele><time>2026-03-29T11:12:35Z</time></trkpt><trkpt lat="43.19004495425341" lon="0.9632259126845761"><ele>326.40000000000003</ele><time>2026-03-29T11:12:36Z</time></trkpt><trkpt lat="43.19003024354217" lon="0.9631032799738755"><ele>326.6</ele><time>2026-03-29T11:12:37Z</time></trkpt><trkpt lat="43.190013756518354" lon="0.9629355394294729"><ele>326.8</ele><time>2026-03-29T11:12:38Z</time></trkpt><trkpt lat="43.1899928621271" lon="0.9627711871192646"><ele>327.0</ele><time>2026-03-29T11:12:39Z</time></trkpt><trkpt lat="43.189965213054165" lon="0.9625461294427103"><ele>327.3333333333333</ele><time>2026-03-29T11:12:40Z</time></trkpt><trkpt lat="43.18993925058281" lon="0.9622964987227075"><ele>327.66666666666663</ele><time>2026-03-29T11:12:41Z</time></trkpt><trkpt lat="43.189915766408625" lon="0.9620747441081825"><ele>328.0</ele><time>2026-03-29T11:12:42Z</time></trkpt><trkpt lat="43.189884775957466" lon="0.9618177059451436"><ele>328.66666666666663</ele><time>2026-03-29T11:12:43Z</time></trkpt><trkpt lat="43.18984968795967" lon="0.9615320648947777"><ele>329.3333333333333</ele><time>2026-03-29T11:12:44Z</time></trkpt><trkpt lat="43.18982317621061" lon="0.9612817545335803"><ele>330.0</ele><time>2026-03-29T11:12:45Z</time></trkpt><trkpt lat="43.189795511995996" lon="0.9610813600828387"><ele>330.0</ele><time>2026-03-29T11:12:46Z</time></trkpt><trkpt lat="43.18977080269319" lon="0.960923546688108"><ele>330.0</ele><time>2026-03-29T11:12:47Z</time></trkpt><trkpt lat="43.18975119729522" lon="0.9607643429977865"><ele>330.0</ele><time>2026-03-29T11:12:48Z</time></trkpt><trkpt lat="43.189745581053806" lon="0.960633071048662"><ele>330.0</ele><time>2026-03-29T11:12:49Z</time></trkpt><trkpt lat="43.18972362555407" lon="0.9605147296715242"><ele>330.0</ele><time>2026-03-29T11:12:50Z</time></trkpt><trkpt lat="43.189712535442375" lon="0.9603956336254731"><ele>331.0</ele><time>2026-03-29T11:12:51Z</time></trkpt><trkpt lat="43.1896932355372" lon="0.9602470241315464"><ele>332.0</ele><time>2026-03-29T11:12:52Z</time></trkpt><trkpt lat="43.189709497772064" lon="0.9600245955682766"><ele>333.0</ele><time>2026-03-29T11:12:53Z</time></trkpt><trkpt lat="43.1897267014544" lon="0.9597618982160947"><ele>333.0</ele><time>2026-03-29T11:12:54Z</time></trkpt><trkpt lat="43.18975179775529" lon="0.9595506508949198"><ele>333.0</ele><time>2026-03-29T11:12:55Z</time></trkpt><trkpt lat="43.18978019010217" lon="0.9593938230871718"><ele>333.0</ele><time>2026-03-29T11:12:56Z</time></trkpt><trkpt lat="43.18980676362811" lon="0.9592293164986607"><ele>333.0</ele><time>2026-03-29T11:12:57Z</time></trkpt><trkpt lat="43.18982412870736" lon="0.9590900899297587"><ele>333.59999999999997</ele><time>2026-03-29T11:12:58Z</time></trkpt><trkpt lat="43.1898516428939" lon="0.9589568155054357"><ele>334.2</ele><time>2026-03-29T11:13:00Z</time></trkpt><trkpt lat="43.18986624477397" lon="0.9588561641646898"><ele>334.8</ele><time>2026-03-29T11:13:03Z</time></trkpt><trkpt lat="43.189930534492674" lon="0.9587478430617059"><ele>335.4</ele><time>2026-03-29T11:13:06Z</time></trkpt><trkpt lat="43.18998988000672" lon="0.9586022158718178"><ele>336.0</ele><time>2026-03-29T11:13:07Z</time></trkpt><trkpt lat="43.190075636575955" lon="0.9584223884595956"><ele>339.0</ele><time>2026-03-29T11:13:08Z</time></trkpt><trkpt lat="43.19016283578143" lon="0.9582320475928928"><ele>342.0</ele><time>2026-03-29T11:13:09Z</time></trkpt><trkpt lat="43.190224144593394" lon="0.9580887919514851"><ele>345.0</ele><time>2026-03-29T11:13:10Z</time></trkpt><trkpt lat="43.19027332906772" lon="0.95797203342194"><ele>348.0</ele><time>2026-03-29T11:13:11Z</time></trkpt><trkpt lat="43.19031430953664" lon="0.9578586694603377"><ele>348.0</ele><time>2026-03-29T11:13:12Z</time></trkpt><trkpt lat="43.190373169559244" lon="0.9577325442200246"><ele>348.0</ele><time>2026-03-29T11:13:13Z</time></trkpt><trkpt lat="43.1904546924206" lon="0.9575768106209425"><ele>348.0</ele><time>2026-03-29T11:13:14Z</time></trkpt><trkpt lat="43.1905237965201" lon="0.9574343563212359"><ele>348.0</ele><time>2026-03-29T11:13:15Z</time></trkpt><trkpt lat="43.19057725360494" lon="0.9573163407634427"><ele>348.8333333333333</ele><time>2026-03-29T11:13:16Z</time></trkpt><trkpt lat="43.190621906508035" lon="0.9572046722827346"><ele>349.6666666666667</ele><time>2026-03-29T11:13:17Z</time></trkpt><trkpt lat="43.190658102625754" lon="0.957113775870111"><ele>350.5</ele><time>2026-03-29T11:13:18Z</time></trkpt><trkpt lat="43.19069895501874" lon="0.9570277790415249"><ele>351.33333333333337</ele><time>2026-03-29T11:13:19Z</time></trkpt><trkpt lat="43.19076367484834" lon="0.9568980190733332"><ele>352.1666666666667</ele><time>2026-03-29T11:13:21Z</time></trkpt><trkpt lat="43.19080847342284" lon="0.9568146410439637"><ele>353.0</ele><time>2026-03-29T11:13:23Z</time></trkpt><trkpt lat="43.19075009011455" lon="0.9569680693440435"><ele>353.0</ele><time>2026-03-29T11:13:30Z</time></trkpt><trkpt lat="43.19068935322897" lon="0.957089899725134"><ele>353.0</ele><time>2026-03-29T11:13:31Z</time></trkpt><trkpt lat="43.190603450985236" lon="0.9572463839613828"><ele>353.0</ele><time>2026-03-29T11:13:32Z</time></trkpt><trkpt lat="43.19050159023535" lon="0.9574516193453048"><ele>353.0</ele><time>2026-03-29T11:13:33Z</time></trkpt><trkpt lat="43.190389921515084" lon="0.9576676401308338"><ele>351.75</ele><time>2026-03-29T11:13:34Z</time></trkpt><trkpt lat="43.190302654144894" lon="0.9578592227979209"><ele>350.5</ele><time>2026-03-29T11:13:35Z</time></trkpt><trkpt lat="43.19022966801009" lon="0.9580190288760381"><ele>349.25</ele><time>2026-03-29T11:13:36Z</time></trkpt><trkpt lat="43.19016501659342" lon="0.958166867346038"><ele>348.0</ele><time>2026-03-29T11:13:37Z</time></trkpt><trkpt lat="43.19011153532742" lon="0.9583053213064273"><ele>346.0</ele><time>2026-03-29T11:13:38Z</time></trkpt><trkpt lat="43.19005785144933" lon="0.9584352825473359"><ele>344.0</ele><time>2026-03-29T11:13:39Z</time></trkpt><trkpt lat="43.190011345252614" lon="0.9585460485418595"><ele>342.0</ele><time>2026-03-29T11:13:40Z</time></trkpt><trkpt lat="43.189960432493855" lon="0.9586463394132293"><ele>340.0</ele><time>2026-03-29T11:13:41Z</time></trkpt><trkpt lat="43.18992103767516" lon="0.9587354005322538"><ele>338.0</ele><time>2026-03-29T11:13:42Z</time></trkpt><trkpt lat="43.18989061907125" lon="0.958821581944213"><ele>336.0</ele><time>2026-03-29T11:13:43Z</time></trkpt><trkpt lat="43.189867927567526" lon="0.958922491493051"><ele>335.4</ele><time>2026-03-29T11:13:44Z</time></trkpt><trkpt lat="43.18983870565763" lon="0.9590589060853024"><ele>334.8</ele><time>2026-03-29T11:13:45Z</time></trkpt><trkpt lat="43.1898095455253" lon="0.9591876863855712"><ele>334.2</ele><time>2026-03-29T11:13:46Z</time></trkpt><trkpt lat="43.18979137213271" lon="0.959339180793857"><ele>333.59999999999997</ele><time>2026-03-29T11:13:47Z</time></trkpt><trkpt lat="43.189763383285" lon="0.9595022636898056"><ele>333.0</ele><time>2026-03-29T11:13:48Z</time></trkpt><trkpt lat="43.18975140166535" lon="0.9596513276597612"><ele>333.0</ele><time>2026-03-29T11:13:49Z</time></trkpt><trkpt lat="43.18974299312413" lon="0.9597968568988146"><ele>333.0</ele><time>2026-03-29T11:13:50Z</time></trkpt><trkpt lat="43.189727041940024" lon="0.9599433636702867"><ele>333.0</ele><time>2026-03-29T11:13:51Z</time></trkpt><trkpt lat="43.18971483221478" lon="0.9600735389950282"><ele>333.0</ele><time>2026-03-29T11:13:52Z</time></trkpt><trkpt lat="43.189703649565914" lon="0.9601868367854633"><ele>333.0</ele><time>2026-03-29T11:13:53Z</time></trkpt><trkpt lat="43.18969358956212" lon="0.9602808183028936"><ele>333.0</ele><time>2026-03-29T11:13:54Z</time></trkpt><trkpt lat="43.18968099401424" lon="0.9603657383491199"><ele>333.0</ele><time>2026-03-29T11:13:55Z</time></trkpt><trkpt lat="43.18966836087121" lon="0.9604950881979286"><ele>333.0</ele><time>2026-03-29T11:13:57Z</time></trkpt><trkpt lat="43.189689392177776" lon="0.960627676091418"><ele>333.0</ele><time>2026-03-29T11:14:05Z</time></trkpt><trkpt lat="43.18971195366849" lon="0.9607852508654404"><ele>333.0</ele><time>2026-03-29T11:14:06Z</time></trkpt><trkpt lat="43.189728042654494" lon="0.9610174106751078"><ele>332.0</ele><time>2026-03-29T11:14:07Z</time></trkpt><trkpt lat="43.189757439573754" lon="0.9612944389348854"><ele>331.0</ele><time>2026-03-29T11:14:08Z</time></trkpt><trkpt lat="43.1897937033895" lon="0.9616047706480886"><ele>330.0</ele><time>2026-03-29T11:14:09Z</time></trkpt><trkpt lat="43.18982895272645" lon="0.9619120407418488"><ele>329.3333333333333</ele><time>2026-03-29T11:14:10Z</time></trkpt><trkpt lat="43.189859442065874" lon="0.9622235209180844"><ele>328.66666666666663</ele><time>2026-03-29T11:14:11Z</time></trkpt><trkpt lat="43.18989023010832" lon="0.9624991361794637"><ele>328.0</ele><time>2026-03-29T11:14:12Z</time></trkpt><trkpt lat="43.18992396960165" lon="0.9627397938845913"><ele>327.66666666666663</ele><time>2026-03-29T11:14:13Z</time></trkpt><trkpt lat="43.18995054349994" lon="0.9629840798755591"><ele>327.3333333333333</ele><time>2026-03-29T11:14:14Z</time></trkpt><trkpt lat="43.189980434114986" lon="0.9632310426192489"><ele>327.0</ele><time>2026-03-29T11:14:15Z</time></trkpt><trkpt lat="43.190015679792815" lon="0.9634720099108163"><ele>326.6666666666667</ele><time>2026-03-29T11:14:16Z</time></trkpt><trkpt lat="43.190043503459364" lon="0.9637274330230454"><ele>326.33333333333337</ele><time>2026-03-29T11:14:17Z</time></trkpt><trkpt lat="43.19006693055561" lon="0.9639973406559155"><ele>326.0</ele><time>2026-03-29T11:14:18Z</time></trkpt><trkpt lat="43.19007028455096" lon="0.9642351387092672"><ele>326.0</ele><time>2026-03-29T11:14:19Z</time></trkpt><trkpt lat="43.190078198944" lon="0.9644285465258221"><ele>326.0</ele><time>2026-03-29T11:14:20Z</time></trkpt><trkpt lat="43.190079550712504" lon="0.9646098707004248"><ele>326.0</ele><time>2026-03-29T11:14:21Z</time></trkpt><trkpt lat="43.19007727476754" lon="0.9647582257643564"><ele>326.0</ele><time>2026-03-29T11:14:22Z</time></trkpt><trkpt lat="43.1900681834266" lon="0.9648662301128892"><ele>326.0</ele><time>2026-03-29T11:14:23Z</time></trkpt><trkpt lat="43.190043903649325" lon="0.9649574077948999"><ele>326.0</ele><time>2026-03-29T11:14:59Z</time></trkpt><trkpt lat="43.19004117831711" lon="0.9650444353818195"><ele>326.0</ele><time>2026-03-29T11:15:01Z</time></trkpt><trkpt lat="43.190103394187865" lon="0.9649845058627794"><ele>326.0</ele><time>2026-03-29T11:15:22Z</time></trkpt><trkpt lat="43.1900404364071" lon="0.9650776300213423"><ele>326.0</ele><time>2026-03-29T11:27:49Z</time></trkpt><trkpt lat="43.190011264752584" lon="0.9651728677660257"><ele>326.0</ele><time>2026-03-29T11:27:50Z</time></trkpt><trkpt lat="43.1899798677891" lon="0.9653127053356052"><ele>326.0</ele><time>2026-03-29T11:27:51Z</time></trkpt><trkpt lat="43.18995433458771" lon="0.9655039711571208"><ele>326.0</ele><time>2026-03-29T11:27:52Z</time></trkpt><trkpt lat="43.18992215521091" lon="0.965765409390554"><ele>326.0</ele><time>2026-03-29T11:27:53Z</time></trkpt><trkpt lat="43.18989576999646" lon="0.9660042704712221"><ele>326.0</ele><time>2026-03-29T11:27:54Z</time></trkpt><trkpt lat="43.18988058512383" lon="0.9661716376716111"><ele>326.0</ele><time>2026-03-29T11:27:55Z</time></trkpt><trkpt lat="43.18986667470649" lon="0.9662649342884819"><ele>326.0</ele><time>2026-03-29T11:27:56Z</time></trkpt><trkpt lat="43.189808888516865" lon="0.9663288456120221"><ele>326.0</ele><time>2026-03-29T11:27:59Z</time></trkpt><trkpt lat="43.18988763730309" lon="0.9664021859919377"><ele>326.0</ele><time>2026-03-29T11:28:02Z</time></trkpt><trkpt lat="43.189950308242935" lon="0.9663342532186813"><ele>326.0</ele><time>2026-03-29T11:28:05Z</time></trkpt><trkpt lat="43.1899425118698" lon="0.9661719722611518"><ele>326.0</ele><time>2026-03-29T11:28:41Z</time></trkpt><trkpt lat="43.18995035039186" lon="0.9660436749976424"><ele>326.0</ele><time>2026-03-29T11:28:42Z</time></trkpt><trkpt lat="43.18997807845527" lon="0.9658542783651087"><ele>326.0</ele><time>2026-03-29T11:28:43Z</time></trkpt><trkpt lat="43.19000129043575" lon="0.9656211776487089"><ele>326.0</ele><time>2026-03-29T11:28:44Z</time></trkpt><trkpt lat="43.19002893920215" lon="0.9653576123682336"><ele>326.0</ele><time>2026-03-29T11:28:45Z</time></trkpt><trkpt lat="43.190046412549734" lon="0.9650996881935764"><ele>326.0</ele><time>2026-03-29T11:28:46Z</time></trkpt><trkpt lat="43.19006054001481" lon="0.9648865945764823"><ele>326.0</ele><time>2026-03-29T11:28:47Z</time></trkpt><trkpt lat="43.19008110921513" lon="0.9646596288345611"><ele>326.0</ele><time>2026-03-29T11:28:48Z</time></trkpt><trkpt lat="43.19009195941347" lon="0.9643642288451288"><ele>326.0</ele><time>2026-03-29T11:28:49Z</time></trkpt><trkpt lat="43.190098865923986" lon="0.9640400061728424"><ele>326.0</ele><time>2026-03-29T11:28:50Z</time></trkpt><trkpt lat="43.19008809922829" lon="0.9636935084673841"><ele>326.0</ele><time>2026-03-29T11:28:51Z</time></trkpt><trkpt lat="43.19006908552393" lon="0.9633789375484638"><ele>326.33333333333337</ele><time>2026-03-29T11:28:52Z</time></trkpt><trkpt lat="43.190041229022555" lon="0.963087193039937"><ele>326.6666666666667</ele><time>2026-03-29T11:28:53Z</time></trkpt><trkpt lat="43.19000398192337" lon="0.9627763386227776"><ele>327.0</ele><time>2026-03-29T11:28:54Z</time></trkpt><trkpt lat="43.18995951722942" lon="0.9624341836226112"><ele>327.5</ele><time>2026-03-29T11:28:55Z</time></trkpt><trkpt lat="43.189912949531326" lon="0.9620716803704198"><ele>328.0</ele><time>2026-03-29T11:28:56Z</time></trkpt><trkpt lat="43.189863619865015" lon="0.9616888750936842"><ele>329.0</ele><time>2026-03-29T11:28:57Z</time></trkpt><trkpt lat="43.18982339265169" lon="0.9613445824453855"><ele>330.0</ele><time>2026-03-29T11:28:58Z</time></trkpt><trkpt lat="43.18979014129403" lon="0.9610343129781294"><ele>331.0</ele><time>2026-03-29T11:28:59Z</time></trkpt><trkpt lat="43.189765900315486" lon="0.9607331746366288"><ele>332.0</ele><time>2026-03-29T11:29:00Z</time></trkpt><trkpt lat="43.18974373780471" lon="0.9604845393419307"><ele>333.0</ele><time>2026-03-29T11:29:01Z</time></trkpt><trkpt lat="43.18972158711725" lon="0.9602784696613559"><ele>333.0</ele><time>2026-03-29T11:29:02Z</time></trkpt><trkpt lat="43.18972069455708" lon="0.9600679150471593"><ele>333.0</ele><time>2026-03-29T11:29:03Z</time></trkpt><trkpt lat="43.18972220823341" lon="0.9598887869232762"><ele>333.0</ele><time>2026-03-29T11:29:04Z</time></trkpt><trkpt lat="43.189746439013796" lon="0.959748629023594"><ele>333.0</ele><time>2026-03-29T11:29:05Z</time></trkpt><trkpt lat="43.189761609573935" lon="0.959648133947886"><ele>333.0</ele><time>2026-03-29T11:29:06Z</time></trkpt><trkpt lat="43.18974811551741" lon="0.959551409966814"><ele>333.0</ele><time>2026-03-29T11:29:10Z</time></trkpt><trkpt lat="43.18968761162297" lon="0.9596323743539004"><ele>333.0</ele><time>2026-03-29T11:29:13Z</time></trkpt><trkpt lat="43.189667782865925" lon="0.9597318154366989"><ele>333.0</ele><time>2026-03-29T11:29:16Z</time></trkpt><trkpt lat="43.18967165893259" lon="0.9598674960855361"><ele>333.0</ele><time>2026-03-29T11:29:39Z</time></trkpt><trkpt lat="43.1896736705668" lon="0.9599953275662297"><ele>333.0</ele><time>2026-03-29T11:29:40Z</time></trkpt><trkpt lat="43.18969331282821" lon="0.9601566491186538"><ele>333.0</ele><time>2026-03-29T11:29:41Z</time></trkpt><trkpt lat="43.18971955319742" lon="0.9603121421583563"><ele>333.0</ele><time>2026-03-29T11:29:42Z</time></trkpt><trkpt lat="43.1897508577834" lon="0.960539986964901"><ele>333.0</ele><time>2026-03-29T11:29:43Z</time></trkpt><trkpt lat="43.18978216339543" lon="0.9608268225174856"><ele>333.5</ele><time>2026-03-29T11:29:44Z</time></trkpt><trkpt lat="43.1898215022752" lon="0.9611430916052714"><ele>334.0</ele><time>2026-03-29T11:29:45Z</time></trkpt><trkpt lat="43.18985361795631" lon="0.9614727099830546"><ele>331.0</ele><time>2026-03-29T11:29:46Z</time></trkpt><trkpt lat="43.18988235249054" lon="0.9618446853634656"><ele>328.0</ele><time>2026-03-29T11:29:47Z</time></trkpt><trkpt lat="43.18991482441385" lon="0.9622528084715651"><ele>327.5</ele><time>2026-03-29T11:29:48Z</time></trkpt><trkpt lat="43.1899596426803" lon="0.9626619591179908"><ele>327.0</ele><time>2026-03-29T11:29:49Z</time></trkpt><trkpt lat="43.190000688462774" lon="0.9630903798599454"><ele>326.5</ele><time>2026-03-29T11:29:50Z</time></trkpt><trkpt lat="43.19003722012815" lon="0.9635037690930531"><ele>326.0</ele><time>2026-03-29T11:29:51Z</time></trkpt><trkpt lat="43.19006499483404" lon="0.9638811160765012"><ele>326.0</ele><time>2026-03-29T11:29:52Z</time></trkpt><trkpt lat="43.19007628211237" lon="0.9642265355309791"><ele>326.0</ele><time>2026-03-29T11:29:53Z</time></trkpt><trkpt lat="43.190082640613824" lon="0.9645317713269514"><ele>326.0</ele><time>2026-03-29T11:29:54Z</time></trkpt><trkpt lat="43.190078912801724" lon="0.9648020535746791"><ele>326.0</ele><time>2026-03-29T11:29:55Z</time></trkpt><trkpt lat="43.19005493615746" lon="0.9650355468457157"><ele>326.0</ele><time>2026-03-29T11:29:56Z</time></trkpt><trkpt lat="43.19003808206534" lon="0.9652411499833425"><ele>326.0</ele><time>2026-03-29T11:29:57Z</time></trkpt><trkpt lat="43.190008967242015" lon="0.9654697924408764"><ele>326.0</ele><time>2026-03-29T11:29:58Z</time></trkpt><trkpt lat="43.18997362129466" lon="0.9657262650717324"><ele>326.0</ele><time>2026-03-29T11:29:59Z</time></trkpt><trkpt lat="43.18993618621234" lon="0.9659482588981151"><ele>325.4</ele><time>2026-03-29T11:30:00Z</time></trkpt><trkpt lat="43.18991124578917" lon="0.9661360685382276"><ele>324.8</ele><time>2026-03-29T11:30:01Z</time></trkpt><trkpt lat="43.18988494677643" lon="0.9663020603558764"><ele>324.2</ele><time>2026-03-29T11:30:02Z</time></trkpt><trkpt lat="43.189875759580495" lon="0.9664281276184192"><ele>323.59999999999997</ele><time>2026-03-29T11:30:03Z</time></trkpt><trkpt lat="43.18986843616971" lon="0.9665277418691011"><ele>323.0</ele><time>2026-03-29T11:30:04Z</time></trkpt><trkpt lat="43.189861997632406" lon="0.9666424905741113"><ele>323.0</ele><time>2026-03-29T11:30:06Z</time></trkpt><trkpt lat="43.18992306237315" lon="0.9666164168187814"><ele>323.0</ele><time>2026-03-29T11:30:11Z</time></trkpt><trkpt lat="43.189878998866114" lon="0.966715461316549"><ele>323.0</ele><time>2026-03-29T11:30:18Z</time></trkpt><trkpt lat="43.18992352280757" lon="0.9666286426109937"><ele>323.0</ele><time>2026-03-29T11:30:24Z</time></trkpt><trkpt lat="43.18990087963661" lon="0.9664787200444455"><ele>323.0</ele><time>2026-03-29T11:30:25Z</time></trkpt><trkpt lat="43.189895277261826" lon="0.9662652421928618"><ele>323.0</ele><time>2026-03-29T11:30:26Z</time></trkpt><trkpt lat="43.189897699583305" lon="0.966019084490636"><ele>323.0</ele><time>2026-03-29T11:30:27Z</time></trkpt><trkpt lat="43.18991514239371" lon="0.96573409393405"><ele>323.0</ele><time>2026-03-29T11:30:28Z</time></trkpt><trkpt lat="43.18994748395891" lon="0.9654800418516036"><ele>323.59999999999997</ele><time>2026-03-29T11:30:29Z</time></trkpt><trkpt lat="43.18998632770024" lon="0.9652323138472382"><ele>324.2</ele><time>2026-03-29T11:30:30Z</time></trkpt><trkpt lat="43.19000336690801" lon="0.9650758725454786"><ele>324.8</ele><time>2026-03-29T11:30:31Z</time></trkpt><trkpt lat="43.19001617509437" lon="0.9649716496298174"><ele>325.4</ele><time>2026-03-29T11:30:32Z</time></trkpt><trkpt lat="43.1900403843627" lon="0.9648824598368524"><ele>326.0</ele><time>2026-03-29T11:30:33Z</time></trkpt><trkpt lat="43.19009525458298" lon="0.9647884609717954"><ele>326.0</ele><time>2026-03-29T11:30:35Z</time></trkpt><trkpt lat="43.190066182279544" lon="0.9648847199823724"><ele>326.0</ele><time>2026-03-29T11:31:19Z</time></trkpt><trkpt lat="43.19002587531888" lon="0.9649683844064519"><ele>326.0</ele><time>2026-03-29T11:31:22Z</time></trkpt><trkpt lat="43.19006890928653" lon="0.9650338119805235"><ele>326.0</ele><time>2026-03-29T11:31:47Z</time></trkpt><trkpt lat="43.19001187415812" lon="0.9649853493221409"><ele>326.0</ele><time>2026-03-29T11:31:50Z</time></trkpt><trkpt lat="43.190016035020875" lon="0.9648328542361324"><ele>326.0</ele><time>2026-03-29T11:31:52Z</time></trkpt><trkpt lat="43.19002520710951" lon="0.9647357632918735"><ele>326.0</ele><time>2026-03-29T11:31:53Z</time></trkpt><trkpt lat="43.19003697348403" lon="0.9645626242759623"><ele>326.0</ele><time>2026-03-29T11:31:54Z</time></trkpt><trkpt lat="43.19004070595484" lon="0.9643727918111342"><ele>326.0</ele><time>2026-03-29T11:31:55Z</time></trkpt><trkpt lat="43.19003976561058" lon="0.9641172117174495"><ele>326.0</ele><time>2026-03-29T11:31:56Z</time></trkpt><trkpt lat="43.190030910105655" lon="0.9638342781267907"><ele>326.0</ele><time>2026-03-29T11:31:57Z</time></trkpt><trkpt lat="43.19001202649031" lon="0.9635509818593273"><ele>326.0</ele><time>2026-03-29T11:31:58Z</time></trkpt><trkpt lat="43.189989763900996" lon="0.9633225919653864"><ele>326.25</ele><time>2026-03-29T11:31:59Z</time></trkpt><trkpt lat="43.18996730532555" lon="0.9631177565162996"><ele>326.5</ele><time>2026-03-29T11:32:00Z</time></trkpt><trkpt lat="43.1899477614954" lon="0.9629271926754817"><ele>326.75</ele><time>2026-03-29T11:32:01Z</time></trkpt><trkpt lat="43.18992515137939" lon="0.9627740489119169"><ele>327.0</ele><time>2026-03-29T11:32:02Z</time></trkpt><trkpt lat="43.18990371360064" lon="0.9626310371019312"><ele>327.25</ele><time>2026-03-29T11:32:03Z</time></trkpt><trkpt lat="43.18988845705923" lon="0.9624676849770678"><ele>327.5</ele><time>2026-03-29T11:32:04Z</time></trkpt><trkpt lat="43.189872424290456" lon="0.9622660651310353"><ele>327.75</ele><time>2026-03-29T11:32:05Z</time></trkpt><trkpt lat="43.18985279379422" lon="0.9620286909738368"><ele>328.0</ele><time>2026-03-29T11:32:06Z</time></trkpt><trkpt lat="43.189830741505524" lon="0.9617617481597713"><ele>328.66666666666663</ele><time>2026-03-29T11:32:07Z</time></trkpt><trkpt lat="43.1898046676629" lon="0.9614777926053141"><ele>329.3333333333333</ele><time>2026-03-29T11:32:08Z</time></trkpt><trkpt lat="43.18977982183089" lon="0.9612250132652076"><ele>330.0</ele><time>2026-03-29T11:32:09Z</time></trkpt><trkpt lat="43.18976062497117" lon="0.9610198281194974"><ele>330.6</ele><time>2026-03-29T11:32:10Z</time></trkpt><trkpt lat="43.18974477563338" lon="0.9608402916880504"><ele>331.2</ele><time>2026-03-29T11:32:11Z</time></trkpt><trkpt lat="43.18973544666664" lon="0.960716117593341"><ele>331.79999999999995</ele><time>2026-03-29T11:32:12Z</time></trkpt><trkpt lat="43.189725191552235" lon="0.9606071856662938"><ele>332.4</ele><time>2026-03-29T11:32:13Z</time></trkpt><trkpt lat="43.189745490965045" lon="0.9604513023600915"><ele>333.0</ele><time>2026-03-29T11:32:15Z</time></trkpt><trkpt lat="43.18983939104538" lon="0.9603169195546892"><ele>333.0</ele><time>2026-03-29T11:32:17Z</time></trkpt><trkpt lat="43.18993729100514" lon="0.9602214187600565"><ele>333.0</ele><time>2026-03-29T11:32:18Z</time></trkpt><trkpt lat="43.19007211395522" lon="0.9601158399797471"><ele>333.0</ele><time>2026-03-29T11:32:19Z</time></trkpt><trkpt lat="43.19016830323171" lon="0.9600392202545297"><ele>333.0</ele><time>2026-03-29T11:32:20Z</time></trkpt><trkpt lat="43.19022921518451" lon="0.9599928518758241"><ele>333.0</ele><time>2026-03-29T11:32:21Z</time></trkpt><trkpt lat="43.19029174734324" lon="0.9599096422340951"><ele>333.0</ele><time>2026-03-29T11:32:23Z</time></trkpt><trkpt lat="43.19030671453228" lon="0.9598079707239198"><ele>333.0</ele><time>2026-03-29T11:32:26Z</time></trkpt><trkpt lat="43.19036498145056" lon="0.9596847406665164"><ele>333.0</ele><time>2026-03-29T11:32:30Z</time></trkpt><trkpt lat="43.19044211024217" lon="0.9595782727941581"><ele>333.0</ele><time>2026-03-29T11:32:32Z</time></trkpt><trkpt lat="43.19046863201001" lon="0.9593944242140726"><ele>333.0</ele><time>2026-03-29T11:32:46.001Z</time></trkpt><trkpt lat="43.19052276920185" lon="0.9592769329383241"><ele>333.0</ele><time>2026-03-29T11:32:47.001Z</time></trkpt><trkpt lat="43.19056852137683" lon="0.9591590100902128"><ele>333.0</ele><time>2026-03-29T11:32:48.001Z</time></trkpt><trkpt lat="43.190656621848696" lon="0.9590093241159701"><ele>333.0</ele><time>2026-03-29T11:32:49.001Z</time></trkpt><trkpt lat="43.19072540277428" lon="0.958885459068175"><ele>334.79999999999995</ele><time>2026-03-29T11:32:50.001Z</time></trkpt><trkpt lat="43.190767390854965" lon="0.9587839949054683"><ele>336.6</ele><time>2026-03-29T11:32:51.001Z</time></trkpt><trkpt lat="43.19083555523179" lon="0.9587187243913504"><ele>338.4</ele><time>2026-03-29T11:32:53Z</time></trkpt><trkpt lat="43.190884636668436" lon="0.9586444159555891"><ele>340.20000000000005</ele><time>2026-03-29T11:32:55Z</time></trkpt><trkpt lat="43.1909715653178" lon="0.9585828411991427"><ele>342.0</ele><time>2026-03-29T11:32:56Z</time></trkpt><trkpt lat="43.19109620259115" lon="0.958510800355963"><ele>342.0</ele><time>2026-03-29T11:32:57Z</time></trkpt><trkpt lat="43.19118791622622" lon="0.9584446966229433"><ele>342.0</ele><time>2026-03-29T11:32:58Z</time></trkpt><trkpt lat="43.1912800365808" lon="0.9584047420634499"><ele>342.0</ele><time>2026-03-29T11:32:59Z</time></trkpt><trkpt lat="43.19135780188231" lon="0.9584000416198685"><ele>342.0</ele><time>2026-03-29T11:33:00Z</time></trkpt><trkpt lat="43.19146153046743" lon="0.9584190621457199"><ele>342.0</ele><time>2026-03-29T11:33:01Z</time></trkpt><trkpt lat="43.191585736473336" lon="0.9584430259864551"><ele>343.0</ele><time>2026-03-29T11:33:02Z</time></trkpt><trkpt lat="43.19168268279091" lon="0.9584504770844324"><ele>344.0</ele><time>2026-03-29T11:33:03Z</time></trkpt><trkpt lat="43.19175381909527" lon="0.9584509985442851"><ele>345.0</ele><time>2026-03-29T11:33:04Z</time></trkpt><trkpt lat="43.19185091407332" lon="0.9584510925062951"><ele>346.0</ele><time>2026-03-29T11:33:05Z</time></trkpt><trkpt lat="43.191955487987116" lon="0.958461099074975"><ele>347.0</ele><time>2026-03-29T11:33:06Z</time></trkpt><trkpt lat="43.19207218499497" lon="0.9584690584369018"><ele>347.0</ele><time>2026-03-29T11:33:07Z</time></trkpt><trkpt lat="43.19216442082713" lon="0.9584564717006543"><ele>347.0</ele><time>2026-03-29T11:33:08Z</time></trkpt><trkpt lat="43.192262727868844" lon="0.958423426689576"><ele>347.0</ele><time>2026-03-29T11:33:09Z</time></trkpt><trkpt lat="43.192362432609976" lon="0.9584035317405571"><ele>347.0</ele><time>2026-03-29T11:33:10Z</time></trkpt><trkpt lat="43.19244243786491" lon="0.9584020167277141"><ele>347.0</ele><time>2026-03-29T11:33:11Z</time></trkpt><trkpt lat="43.19254430336106" lon="0.9584182478491817"><ele>348.40000000000003</ele><time>2026-03-29T11:33:13Z</time></trkpt><trkpt lat="43.19260940886648" lon="0.9584194391600619"><ele>349.8</ele><time>2026-03-29T11:33:14Z</time></trkpt><trkpt lat="43.19270313623183" lon="0.9584823481416926"><ele>351.2</ele><time>2026-03-29T11:33:16Z</time></trkpt><trkpt lat="43.19275227032964" lon="0.9586115159546218"><ele>352.6</ele><time>2026-03-29T11:33:18Z</time></trkpt><trkpt lat="43.19277299060417" lon="0.9587550710743057"><ele>354.0</ele><time>2026-03-29T11:33:19Z</time></trkpt><trkpt lat="43.19279485097675" lon="0.9589218328847586"><ele>354.0</ele><time>2026-03-29T11:33:20Z</time></trkpt><trkpt lat="43.1928379496427" lon="0.9590712788609601"><ele>354.0</ele><time>2026-03-29T11:33:21Z</time></trkpt><trkpt lat="43.19289104703557" lon="0.9592493325109099"><ele>354.0</ele><time>2026-03-29T11:33:22Z</time></trkpt><trkpt lat="43.192923260765006" lon="0.959400990573454"><ele>354.0</ele><time>2026-03-29T11:33:23Z</time></trkpt><trkpt lat="43.1929333478626" lon="0.95951562940449"><ele>354.4</ele><time>2026-03-29T11:33:24Z</time></trkpt><trkpt lat="43.19293724931392" lon="0.9596512744247486"><ele>354.79999999999995</ele><time>2026-03-29T11:33:26Z</time></trkpt><trkpt lat="43.1929556891697" lon="0.9597751269947108"><ele>355.20000000000005</ele><time>2026-03-29T11:33:28Z</time></trkpt><trkpt lat="43.19296087061468" lon="0.9599785562626548"><ele>355.6</ele><time>2026-03-29T11:33:30Z</time></trkpt><trkpt lat="43.192957421969055" lon="0.9600872286342526"><ele>356.0</ele><time>2026-03-29T11:33:31Z</time></trkpt><trkpt lat="43.19295552243222" lon="0.9602195408521286"><ele>356.75</ele><time>2026-03-29T11:33:32Z</time></trkpt><trkpt lat="43.19295479550417" lon="0.9603691430785394"><ele>357.5</ele><time>2026-03-29T11:33:33Z</time></trkpt><trkpt lat="43.192954712550716" lon="0.9605001633652909"><ele>358.25</ele><time>2026-03-29T11:33:34Z</time></trkpt><trkpt lat="43.19295356527986" lon="0.9606489262704145"><ele>359.0</ele><time>2026-03-29T11:33:35Z</time></trkpt><trkpt lat="43.192957682187874" lon="0.9608428988864917"><ele>359.6</ele><time>2026-03-29T11:33:36Z</time></trkpt><trkpt lat="43.192958109271274" lon="0.9609994420958338"><ele>360.2</ele><time>2026-03-29T11:33:37Z</time></trkpt><trkpt lat="43.19296009966797" lon="0.961145150370627"><ele>360.8</ele><time>2026-03-29T11:33:38Z</time></trkpt><trkpt lat="43.19295983059956" lon="0.9612777683069287"><ele>361.40000000000003</ele><time>2026-03-29T11:33:39Z</time></trkpt><trkpt lat="43.19295449654356" lon="0.9614036793977719"><ele>362.0</ele><time>2026-03-29T11:33:40Z</time></trkpt><trkpt lat="43.19294368144857" lon="0.961545813452323"><ele>362.0</ele><time>2026-03-29T11:33:41Z</time></trkpt><trkpt lat="43.192929126612995" lon="0.9616766225787305"><ele>362.0</ele><time>2026-03-29T11:33:42Z</time></trkpt><trkpt lat="43.19291355538316" lon="0.961813101128042"><ele>362.0</ele><time>2026-03-29T11:33:43Z</time></trkpt><trkpt lat="43.192900816829756" lon="0.9619270121230387"><ele>362.0</ele><time>2026-03-29T11:33:44Z</time></trkpt><trkpt lat="43.19289207967264" lon="0.9620282462960221"><ele>362.0</ele><time>2026-03-29T11:33:45Z</time></trkpt><trkpt lat="43.1928832952279" lon="0.9621382311284411"><ele>362.0</ele><time>2026-03-29T11:33:46Z</time></trkpt><trkpt lat="43.19287358022576" lon="0.9622691603483755"><ele>362.8</ele><time>2026-03-29T11:33:47Z</time></trkpt><trkpt lat="43.19286334960285" lon="0.9624204948283537"><ele>363.6</ele><time>2026-03-29T11:33:48Z</time></trkpt><trkpt lat="43.19285556435088" lon="0.9625665813207815"><ele>364.40000000000003</ele><time>2026-03-29T11:33:49Z</time></trkpt><trkpt lat="43.19285193139625" lon="0.9626793036853836"><ele>365.20000000000005</ele><time>2026-03-29T11:33:50Z</time></trkpt><trkpt lat="43.192852670394096" lon="0.9628012009525295"><ele>366.0</ele><time>2026-03-29T11:33:51Z</time></trkpt><trkpt lat="43.19285724650945" lon="0.9629252198644601"><ele>366.1666666666667</ele><time>2026-03-29T11:33:52Z</time></trkpt><trkpt lat="43.192864145540675" lon="0.9630340548250974"><ele>366.3333333333333</ele><time>2026-03-29T11:33:53Z</time></trkpt><trkpt lat="43.19286717208324" lon="0.9631409102775332"><ele>366.5</ele><time>2026-03-29T11:33:54Z</time></trkpt><trkpt lat="43.19286876211556" lon="0.9632783434701302"><ele>366.66666666666663</ele><time>2026-03-29T11:33:55Z</time></trkpt><trkpt lat="43.19285051251045" lon="0.9633928832888617"><ele>366.8333333333333</ele><time>2026-03-29T11:33:56Z</time></trkpt><trkpt lat="43.19282380968341" lon="0.963513758729329"><ele>367.0</ele><time>2026-03-29T11:33:58Z</time></trkpt><trkpt lat="43.1929002781766" lon="0.9636947982054019"><ele>367.5</ele><time>2026-03-29T11:34:00Z</time></trkpt><trkpt lat="43.19293083285535" lon="0.963782867436047"><ele>368.0</ele><time>2026-03-29T11:34:01Z</time></trkpt><trkpt lat="43.19296847750824" lon="0.9639457277123402"><ele>368.5</ele><time>2026-03-29T11:34:03Z</time></trkpt><trkpt lat="43.19299014888164" lon="0.9641292633269403"><ele>369.0</ele><time>2026-03-29T11:34:04Z</time></trkpt><trkpt lat="43.19302522440824" lon="0.9643115461893571"><ele>369.0</ele><time>2026-03-29T11:34:05Z</time></trkpt><trkpt lat="43.19305144791397" lon="0.9644905530065082"><ele>369.0</ele><time>2026-03-29T11:34:06Z</time></trkpt><trkpt lat="43.193082804150755" lon="0.9646888616809536"><ele>369.0</ele><time>2026-03-29T11:34:07Z</time></trkpt><trkpt lat="43.19311639905064" lon="0.9648842929229421"><ele>369.0</ele><time>2026-03-29T11:34:08Z</time></trkpt><trkpt lat="43.1931490952321" lon="0.965041416426142"><ele>372.2</ele><time>2026-03-29T11:34:09Z</time></trkpt><trkpt lat="43.193177594862675" lon="0.9651663865368235"><ele>375.4</ele><time>2026-03-29T11:34:10Z</time></trkpt><trkpt lat="43.19320898524805" lon="0.9652784479974186"><ele>378.6</ele><time>2026-03-29T11:34:11Z</time></trkpt><trkpt lat="43.19324499713864" lon="0.9653632123596271"><ele>381.8</ele><time>2026-03-29T11:34:12Z</time></trkpt><trkpt lat="43.19333633246167" lon="0.9654832606905783"><ele>385.0</ele><time>2026-03-29T11:34:14Z</time></trkpt><trkpt lat="43.19340425302753" lon="0.9655178241889126"><ele>385.0</ele><time>2026-03-29T11:34:15Z</time></trkpt><trkpt lat="43.19345189596535" lon="0.9656387078534349"><ele>385.0</ele><time>2026-03-29T11:34:16Z</time></trkpt><trkpt lat="43.19351903211397" lon="0.9657802274438531"><ele>385.0</ele><time>2026-03-29T11:34:17Z</time></trkpt><trkpt lat="43.193573059119366" lon="0.9658990972607733"><ele>385.0</ele><time>2026-03-29T11:34:18Z</time></trkpt><trkpt lat="43.19360769870538" lon="0.9659771059016038"><ele>385.0</ele><time>2026-03-29T11:34:19Z</time></trkpt><trkpt lat="43.193661304939" lon="0.9660970218869144"><ele>384.00000000000006</ele><time>2026-03-29T11:34:21Z</time></trkpt><trkpt lat="43.19372137671618" lon="0.9662374386153332"><ele>383.0</ele><time>2026-03-29T11:34:23Z</time></trkpt><trkpt lat="43.19375830942348" lon="0.9663316826549372"><ele>382.0</ele><time>2026-03-29T11:34:24Z</time></trkpt><trkpt lat="43.19379062936926" lon="0.9664158864009479"><ele>381.0</ele><time>2026-03-29T11:34:25Z</time></trkpt><trkpt lat="43.193811996002275" lon="0.9665014905671558"><ele>380.0</ele><time>2026-03-29T11:34:26Z</time></trkpt><trkpt lat="43.19382953152449" lon="0.9663872170492566"><ele>379.0</ele><time>2026-03-29T11:34:34Z</time></trkpt><trkpt lat="43.19400947247721" lon="0.9658611937634225"><ele>385.75</ele><time>2026-03-29T11:34:36Z</time></trkpt><trkpt lat="43.19403859878748" lon="0.9656334953945351"><ele>392.5</ele><time>2026-03-29T11:34:37Z</time></trkpt><trkpt lat="43.19406479706782" lon="0.9654559017452297"><ele>399.25</ele><time>2026-03-29T11:34:38Z</time></trkpt><trkpt lat="43.194091862017764" lon="0.9652808961696563"><ele>406.0</ele><time>2026-03-29T11:34:39Z</time></trkpt><trkpt lat="43.19410867912554" lon="0.965186388360469"><ele>406.0</ele><time>2026-03-29T11:34:40Z</time></trkpt><trkpt lat="43.1941577971065" lon="0.965050904772873"><ele>406.0</ele><time>2026-03-29T11:34:41Z</time></trkpt><trkpt lat="43.194215956773945" lon="0.9649735899954005"><ele>406.0</ele><time>2026-03-29T11:34:42.001Z</time></trkpt><trkpt lat="43.19427263736972" lon="0.9649113902754262"><ele>406.0</ele><time>2026-03-29T11:34:44.001Z</time></trkpt><trkpt lat="43.19432738072684" lon="0.9650704434621737"><ele>406.0</ele><time>2026-03-29T11:34:47.001Z</time></trkpt><trkpt lat="43.194390116756566" lon="0.9652989785844667"><ele>406.0</ele><time>2026-03-29T11:34:49.001Z</time></trkpt><trkpt lat="43.19442119308659" lon="0.9654153446880683"><ele>406.0</ele><time>2026-03-29T11:34:50.001Z</time></trkpt><trkpt lat="43.194456230633456" lon="0.9655595186320973"><ele>406.0</ele><time>2026-03-29T11:34:51.001Z</time></trkpt><trkpt lat="43.194486523042464" lon="0.9656954501891013"><ele>406.0</ele><time>2026-03-29T11:34:52.001Z</time></trkpt><trkpt lat="43.19451583091246" lon="0.9658276149882659"><ele>406.0</ele><time>2026-03-29T11:34:53.001Z</time></trkpt><trkpt lat="43.19453853475164" lon="0.9659222856162526"><ele>405.50000000000006</ele><time>2026-03-29T11:34:54.001Z</time></trkpt><trkpt lat="43.19457032032255" lon="0.9660419847171442"><ele>405.0</ele><time>2026-03-29T11:34:55Z</time></trkpt><trkpt lat="43.1945969561334" lon="0.9661464422814071"><ele>404.5</ele><time>2026-03-29T11:34:56Z</time></trkpt><trkpt lat="43.1946395519945" lon="0.9662647968142647"><ele>404.0</ele><time>2026-03-29T11:34:57Z</time></trkpt><trkpt lat="43.19468256320824" lon="0.9663566088123658"><ele>403.50000000000006</ele><time>2026-03-29T11:34:58Z</time></trkpt><trkpt lat="43.19472445178194" lon="0.9664381072189171"><ele>403.0</ele><time>2026-03-29T11:34:59Z</time></trkpt><trkpt lat="43.194768338076514" lon="0.9665170140975174"><ele>403.0</ele><time>2026-03-29T11:35:00Z</time></trkpt><trkpt lat="43.19482329746035" lon="0.966607031400785"><ele>403.0</ele><time>2026-03-29T11:35:01Z</time></trkpt><trkpt lat="43.194879536412294" lon="0.9666831556957547"><ele>403.0</ele><time>2026-03-29T11:35:02Z</time></trkpt><trkpt lat="43.19493375637922" lon="0.96677097288148"><ele>403.0</ele><time>2026-03-29T11:35:04Z</time></trkpt><trkpt lat="43.194978161164414" lon="0.96683687624161"><ele>403.0</ele><time>2026-03-29T11:35:06Z</time></trkpt><trkpt lat="43.19503446179394" lon="0.9668759128898502"><ele>403.0</ele><time>2026-03-29T11:35:10Z</time></trkpt><trkpt lat="43.19505142395612" lon="0.9667912356937397"><ele>403.0</ele><time>2026-03-29T11:35:13Z</time></trkpt><trkpt lat="43.195096918067044" lon="0.9667245602780824"><ele>419.0</ele><time>2026-03-29T11:35:15Z</time></trkpt><trkpt lat="43.1956319661035" lon="0.9664351878795762"><ele>418.99999999999994</ele><time>2026-03-29T11:35:16Z</time></trkpt><trkpt lat="43.195697667690354" lon="0.9663660071392648"><ele>419.0</ele><time>2026-03-29T11:35:19Z</time></trkpt><trkpt lat="43.19564151744275" lon="0.9663085149851628"><ele>419.0</ele><time>2026-03-29T11:35:20Z</time></trkpt><trkpt lat="43.19557629458072" lon="0.9662955081428273"><ele>419.0</ele><time>2026-03-29T11:35:21Z</time></trkpt><trkpt lat="43.195472379853314" lon="0.9662883488137993"><ele>418.99999999999994</ele><time>2026-03-29T11:35:23Z</time></trkpt><trkpt lat="43.1954630036387" lon="0.9661851659744843"><ele>419.0</ele><time>2026-03-29T11:35:27Z</time></trkpt><trkpt lat="43.19550263563767" lon="0.9661055919696019"><ele>418.99999999999994</ele><time>2026-03-29T11:35:28Z</time></trkpt><trkpt lat="43.195629755120876" lon="0.9660619563727588"><ele>419.0</ele><time>2026-03-29T11:35:30Z</time></trkpt><trkpt lat="43.195699170647536" lon="0.9661090974941884"><ele>419.0</ele><time>2026-03-29T11:35:31Z</time></trkpt><trkpt lat="43.19577096441024" lon="0.9661709261015984"><ele>419.0</ele><time>2026-03-29T11:35:32Z</time></trkpt><trkpt lat="43.19583424628408" lon="0.9662205335741559"><ele>418.99999999999994</ele><time>2026-03-29T11:35:33Z</time></trkpt><trkpt lat="43.19590231183516" lon="0.9662597557731216"><ele>419.0</ele><time>2026-03-29T11:35:35Z</time></trkpt><trkpt lat="43.19597070750989" lon="0.9662239658730645"><ele>421.0</ele><time>2026-03-29T11:35:40Z</time></trkpt><trkpt lat="43.196041612903386" lon="0.9661702930513537"><ele>423.0</ele><time>2026-03-29T11:35:42Z</time></trkpt><trkpt lat="43.1960983862747" lon="0.9661261050619098"><ele>425.0</ele><time>2026-03-29T11:35:43Z</time></trkpt><trkpt lat="43.196228936260496" lon="0.9660191193587598"><ele>427.0</ele><time>2026-03-29T11:35:45Z</time></trkpt><trkpt lat="43.19631720611109" lon="0.9659357546949797"><ele>429.0</ele><time>2026-03-29T11:35:46Z</time></trkpt><trkpt lat="43.19639522125217" lon="0.9658750526752805"><ele>431.0</ele><time>2026-03-29T11:35:47Z</time></trkpt><trkpt lat="43.196469939917364" lon="0.9657966203117987"><ele>433.0</ele><time>2026-03-29T11:35:48Z</time></trkpt><trkpt lat="43.19652562306369" lon="0.9657219617385769"><ele>435.0</ele><time>2026-03-29T11:35:49Z</time></trkpt><trkpt lat="43.196579580287974" lon="0.9656647080992495"><ele>437.0</ele><time>2026-03-29T11:35:50Z</time></trkpt><trkpt lat="43.196665750866664" lon="0.9655888469332273"><ele>439.0</ele><time>2026-03-29T11:35:52Z</time></trkpt><trkpt lat="43.19674918838102" lon="0.9656129180334696"><ele>441.0</ele><time>2026-03-29T11:35:54Z</time></trkpt><trkpt lat="43.19684426392018" lon="0.965629858650039"><ele>442.6</ele><time>2026-03-29T11:35:58Z</time></trkpt><trkpt lat="43.19691088122127" lon="0.9656921905224449"><ele>444.20000000000005</ele><time>2026-03-29T11:35:59Z</time></trkpt><trkpt lat="43.19686001312619" lon="0.9656347195069931"><ele>445.79999999999995</ele><time>2026-03-29T11:36:07Z</time></trkpt><trkpt lat="43.19674949380558" lon="0.9656129006351238"><ele>447.4</ele><time>2026-03-29T11:36:09Z</time></trkpt><trkpt lat="43.19663039141574" lon="0.9656325638298947"><ele>449.0</ele><time>2026-03-29T11:36:11Z</time></trkpt><trkpt lat="43.19655728196863" lon="0.9656470082689673"><ele>447.66666666666663</ele><time>2026-03-29T11:36:12Z</time></trkpt><trkpt lat="43.1964927298398" lon="0.9656518319200496"><ele>446.3333333333333</ele><time>2026-03-29T11:36:13Z</time></trkpt><trkpt lat="43.19641496804171" lon="0.9656576891887004"><ele>445.0</ele><time>2026-03-29T11:36:14Z</time></trkpt><trkpt lat="43.19635048033017" lon="0.9656611175530202"><ele>443.66666666666663</ele><time>2026-03-29T11:36:15Z</time></trkpt><trkpt lat="43.19625442587459" lon="0.9656546987731849"><ele>442.3333333333333</ele><time>2026-03-29T11:36:17Z</time></trkpt><trkpt lat="43.196177992830556" lon="0.9655869022297378"><ele>441.0</ele><time>2026-03-29T11:36:19Z</time></trkpt><trkpt lat="43.19610961779544" lon="0.9655169809203348"><ele>441.0</ele><time>2026-03-29T11:36:21Z</time></trkpt><trkpt lat="43.19605130174941" lon="0.9654580683690317"><ele>441.0</ele><time>2026-03-29T11:36:23Z</time></trkpt><trkpt lat="43.1959931017412" lon="0.9653060951424381"><ele>441.0</ele><time>2026-03-29T11:36:25Z</time></trkpt><trkpt lat="43.19598166305029" lon="0.9651644656483606"><ele>441.0</ele><time>2026-03-29T11:36:27Z</time></trkpt><trkpt lat="43.19598258129999" lon="0.9650659374100498"><ele>441.0</ele><time>2026-03-29T11:36:28Z</time></trkpt><trkpt lat="43.195996867081845" lon="0.9649625648923078"><ele>441.75</ele><time>2026-03-29T11:36:29Z</time></trkpt><trkpt lat="43.196027510455835" lon="0.9648011008966445"><ele>442.5</ele><time>2026-03-29T11:36:30Z</time></trkpt><trkpt lat="43.19607404073516" lon="0.9646461252805094"><ele>443.25</ele><time>2026-03-29T11:36:31Z</time></trkpt><trkpt lat="43.19610945843988" lon="0.9644846705955926"><ele>444.0</ele><time>2026-03-29T11:36:32Z</time></trkpt><trkpt lat="43.19611414652443" lon="0.9643446484236121"><ele>444.0</ele><time>2026-03-29T11:36:33Z</time></trkpt><trkpt lat="43.196108999401744" lon="0.9642290251196027"><ele>444.0</ele><time>2026-03-29T11:36:34Z</time></trkpt><trkpt lat="43.19610289972183" lon="0.9641002300400172"><ele>444.0</ele><time>2026-03-29T11:36:35Z</time></trkpt><trkpt lat="43.1961028997208" lon="0.9640132804406093"><ele>444.0</ele><time>2026-03-29T11:36:36Z</time></trkpt><trkpt lat="43.19610653715507" lon="0.9638863558085291"><ele>444.0</ele><time>2026-03-29T11:36:37Z</time></trkpt><trkpt lat="43.196120452496146" lon="0.9637414809965957"><ele>444.0</ele><time>2026-03-29T11:36:38Z</time></trkpt><trkpt lat="43.19612600111707" lon="0.9636176515734673"><ele>443.0</ele><time>2026-03-29T11:36:39Z</time></trkpt><trkpt lat="43.19612029798286" lon="0.9633731612992961"><ele>442.0</ele><time>2026-03-29T11:36:41Z</time></trkpt><trkpt lat="43.196104703498655" lon="0.963218116893198"><ele>441.0</ele><time>2026-03-29T11:36:42Z</time></trkpt><trkpt lat="43.19608075497188" lon="0.9630976575931943"><ele>440.0</ele><time>2026-03-29T11:36:43Z</time></trkpt><trkpt lat="43.19606774026341" lon="0.9629965275191329"><ele>439.8333333333333</ele><time>2026-03-29T11:36:44Z</time></trkpt><trkpt lat="43.19605401839797" lon="0.962901645688384"><ele>439.66666666666663</ele><time>2026-03-29T11:36:45Z</time></trkpt><trkpt lat="43.19602870626628" lon="0.962775637181707"><ele>439.5</ele><time>2026-03-29T11:36:47Z</time></trkpt><trkpt lat="43.19602098909564" lon="0.9626770584951576"><ele>439.33333333333337</ele><time>2026-03-29T11:36:50Z</time></trkpt><trkpt lat="43.19608358156961" lon="0.9625844946401048"><ele>439.1666666666667</ele><time>2026-03-29T11:36:58Z</time></trkpt><trkpt lat="43.19614298075624" lon="0.9625207666601209"><ele>439.0</ele><time>2026-03-29T11:37:00Z</time></trkpt><trkpt lat="43.1962138417927" lon="0.9624710403642474"><ele>439.0</ele><time>2026-03-29T11:37:05Z</time></trkpt><trkpt lat="43.196250493603806" lon="0.962594784281669"><ele>439.0</ele><time>2026-03-29T11:37:08Z</time></trkpt><trkpt lat="43.196281149748984" lon="0.9628116383396176"><ele>439.0</ele><time>2026-03-29T11:37:10Z</time></trkpt><trkpt lat="43.196307554315126" lon="0.9629485976001817"><ele>439.0</ele><time>2026-03-29T11:37:11Z</time></trkpt><trkpt lat="43.19630789430479" lon="0.9630446157773543"><ele>439.0</ele><time>2026-03-29T11:37:12Z</time></trkpt><trkpt lat="43.196318031288385" lon="0.9631601253524107"><ele>439.0</ele><time>2026-03-29T11:37:13Z</time></trkpt><trkpt lat="43.196331645706536" lon="0.9633307016388112"><ele>439.0</ele><time>2026-03-29T11:37:14Z</time></trkpt><trkpt lat="43.196334512641876" lon="0.9635171850057942"><ele>439.0</ele><time>2026-03-29T11:37:15Z</time></trkpt><trkpt lat="43.19634222174485" lon="0.9636913738953439"><ele>439.0</ele><time>2026-03-29T11:37:16Z</time></trkpt><trkpt lat="43.196348220586664" lon="0.9638414468799495"><ele>439.25</ele><time>2026-03-29T11:37:17Z</time></trkpt><trkpt lat="43.19636704209256" lon="0.9640098267843078"><ele>439.5</ele><time>2026-03-29T11:37:18Z</time></trkpt><trkpt lat="43.19639765457602" lon="0.9642166569892628"><ele>439.75</ele><time>2026-03-29T11:37:19Z</time></trkpt><trkpt lat="43.19642724029875" lon="0.9644071725235868"><ele>440.0</ele><time>2026-03-29T11:37:20Z</time></trkpt><trkpt lat="43.196457413085554" lon="0.9645544625506408"><ele>440.66666666666663</ele><time>2026-03-29T11:37:21Z</time></trkpt><trkpt lat="43.196480532044504" lon="0.9646853925800066"><ele>441.3333333333333</ele><time>2026-03-29T11:37:22Z</time></trkpt><trkpt lat="43.196489574948984" lon="0.9648023300385545"><ele>442.0</ele><time>2026-03-29T11:37:23Z</time></trkpt><trkpt lat="43.19649893523486" lon="0.964910910109706"><ele>442.66666666666663</ele><time>2026-03-29T11:37:24Z</time></trkpt><trkpt lat="43.19651434507186" lon="0.9649990184189436"><ele>443.3333333333333</ele><time>2026-03-29T11:37:25Z</time></trkpt><trkpt lat="43.196566431389144" lon="0.9650823130643531"><ele>444.0</ele><time>2026-03-29T11:37:28Z</time></trkpt><trkpt lat="43.19666633977166" lon="0.965151878981734"><ele>444.8333333333333</ele><time>2026-03-29T11:37:30Z</time></trkpt><trkpt lat="43.19677789081866" lon="0.9651813739515136"><ele>445.66666666666663</ele><time>2026-03-29T11:37:32Z</time></trkpt><trkpt lat="43.19684892948846" lon="0.9652006436390751"><ele>446.5</ele><time>2026-03-29T11:37:33Z</time></trkpt><trkpt lat="43.19694278667171" lon="0.9652183640323301"><ele>447.3333333333333</ele><time>2026-03-29T11:37:34Z</time></trkpt><trkpt lat="43.19702329286125" lon="0.9652063570447872"><ele>448.16666666666663</ele><time>2026-03-29T11:37:35Z</time></trkpt><trkpt lat="43.19710996133933" lon="0.9651889245595716"><ele>449.0</ele><time>2026-03-29T11:37:36Z</time></trkpt><trkpt lat="43.19720777422862" lon="0.9651918201822414"><ele>449.0</ele><time>2026-03-29T11:37:37Z</time></trkpt><trkpt lat="43.19728684714566" lon="0.9652010054600404"><ele>449.0</ele><time>2026-03-29T11:37:38Z</time></trkpt><trkpt lat="43.197362794263135" lon="0.965229448767114"><ele>449.0</ele><time>2026-03-29T11:37:39Z</time></trkpt><trkpt lat="43.197442797343754" lon="0.9651874091196164"><ele>449.0</ele><time>2026-03-29T11:37:41Z</time></trkpt><trkpt lat="43.197544414510375" lon="0.9651156017748828"><ele>449.0</ele><time>2026-03-29T11:37:43Z</time></trkpt><trkpt lat="43.19763532105638" lon="0.9650513630343578"><ele>453.4</ele><time>2026-03-29T11:37:44Z</time></trkpt><trkpt lat="43.19773887441154" lon="0.9649781874514787"><ele>457.79999999999995</ele><time>2026-03-29T11:37:45Z</time></trkpt><trkpt lat="43.19784433051187" lon="0.9649112022260747"><ele>462.20000000000005</ele><time>2026-03-29T11:37:46Z</time></trkpt><trkpt lat="43.19793768499757" lon="0.9648544069524162"><ele>466.6</ele><time>2026-03-29T11:37:47Z</time></trkpt><trkpt lat="43.19804435946993" lon="0.9648029740379577"><ele>471.0</ele><time>2026-03-29T11:37:48Z</time></trkpt><trkpt lat="43.19811734420902" lon="0.9647496620303583"><ele>473.0</ele><time>2026-03-29T11:37:49Z</time></trkpt><trkpt lat="43.19817422458717" lon="0.964695431396119"><ele>475.0</ele><time>2026-03-29T11:37:50Z</time></trkpt><trkpt lat="43.19825956050394" lon="0.964614070856696"><ele>477.0</ele><time>2026-03-29T11:37:51Z</time></trkpt><trkpt lat="43.198339076809354" lon="0.9645382588324972"><ele>479.0</ele><time>2026-03-29T11:37:52Z</time></trkpt><trkpt lat="43.19841481048237" lon="0.9644870160198407"><ele>481.0</ele><time>2026-03-29T11:37:53Z</time></trkpt><trkpt lat="43.19847722625759" lon="0.9644620631066397"><ele>483.0</ele><time>2026-03-29T11:37:54Z</time></trkpt><trkpt lat="43.19864152966749" lon="0.9644546445099471"><ele>483.0</ele><time>2026-03-29T11:37:56Z</time></trkpt><trkpt lat="43.19871055344671" lon="0.9644707683452601"><ele>482.99999999999994</ele><time>2026-03-29T11:37:57Z</time></trkpt><trkpt lat="43.198787230930904" lon="0.9645441094555123"><ele>482.99999999999994</ele><time>2026-03-29T11:37:59Z</time></trkpt><trkpt lat="43.19887025328479" lon="0.9646985273179217"><ele>483.0</ele><time>2026-03-29T11:38:01Z</time></trkpt><trkpt lat="43.1989004130592" lon="0.9647997651995748"><ele>483.0</ele><time>2026-03-29T11:38:02Z</time></trkpt><trkpt lat="43.198951448088074" lon="0.9649509337700266"><ele>482.3333333333333</ele><time>2026-03-29T11:38:04Z</time></trkpt><trkpt lat="43.198982121635" lon="0.9650383869057472"><ele>481.66666666666663</ele><time>2026-03-29T11:38:06Z</time></trkpt><trkpt lat="43.19900941933515" lon="0.9651416053334632"><ele>481.0</ele><time>2026-03-29T11:38:08Z</time></trkpt><trkpt lat="43.19903391351976" lon="0.9652660736709493"><ele>480.3333333333333</ele><time>2026-03-29T11:38:11Z</time></trkpt><trkpt lat="43.199049049387995" lon="0.9653507843573702"><ele>479.66666666666663</ele><time>2026-03-29T11:38:13Z</time></trkpt><trkpt lat="43.19906845043524" lon="0.9654674489009789"><ele>479.0</ele><time>2026-03-29T11:38:16Z</time></trkpt><trkpt lat="43.19908929898234" lon="0.9655651077132377"><ele>480.0</ele><time>2026-03-29T11:38:19Z</time></trkpt><trkpt lat="43.19908368984595" lon="0.9659074437516338"><ele>481.0</ele><time>2026-03-29T11:38:21Z</time></trkpt><trkpt lat="43.19903230190838" lon="0.9661325857660911"><ele>482.0</ele><time>2026-03-29T11:38:22Z</time></trkpt><trkpt lat="43.198998381473295" lon="0.9662515232530299"><ele>481.16666666666663</ele><time>2026-03-29T11:38:23Z</time></trkpt><trkpt lat="43.19893688292407" lon="0.9663582056201262"><ele>480.3333333333333</ele><time>2026-03-29T11:38:24Z</time></trkpt><trkpt lat="43.19888608897969" lon="0.9664415674383842"><ele>479.5</ele><time>2026-03-29T11:38:25Z</time></trkpt><trkpt lat="43.19883545587904" lon="0.9665672713284101"><ele>478.66666666666663</ele><time>2026-03-29T11:38:27Z</time></trkpt><trkpt lat="43.19880894848686" lon="0.9666520457456249"><ele>477.8333333333333</ele><time>2026-03-29T11:38:29Z</time></trkpt><trkpt lat="43.19877079369286" lon="0.9667505979055471"><ele>477.0</ele><time>2026-03-29T11:38:32Z</time></trkpt><trkpt lat="43.19872716231908" lon="0.9668533904994959"><ele>477.0</ele><time>2026-03-29T11:38:34Z</time></trkpt><trkpt lat="43.19867259955272" lon="0.9669826679253349"><ele>477.0</ele><time>2026-03-29T11:38:35Z</time></trkpt><trkpt lat="43.19857008421249" lon="0.967025597322203"><ele>477.0</ele><time>2026-03-29T11:38:36Z</time></trkpt><trkpt lat="43.19850381033338" lon="0.9670668188050684"><ele>477.0</ele><time>2026-03-29T11:38:37Z</time></trkpt><trkpt lat="43.19843556856815" lon="0.9671092642755108"><ele>477.0</ele><time>2026-03-29T11:38:38Z</time></trkpt><trkpt lat="43.198370933705796" lon="0.967159882574479"><ele>477.0</ele><time>2026-03-29T11:38:39Z</time></trkpt><trkpt lat="43.19829969675692" lon="0.9672223743262403"><ele>477.0</ele><time>2026-03-29T11:38:40Z</time></trkpt><trkpt lat="43.19823260162081" lon="0.9672812327016818"><ele>477.0</ele><time>2026-03-29T11:38:41Z</time></trkpt><trkpt lat="43.19814942872696" lon="0.9673541951081861"><ele>477.0</ele><time>2026-03-29T11:38:42Z</time></trkpt><trkpt lat="43.198078623423314" lon="0.967422607701198"><ele>477.0</ele><time>2026-03-29T11:38:43Z</time></trkpt><trkpt lat="43.1980010452936" lon="0.967498938943739"><ele>477.0</ele><time>2026-03-29T11:38:44Z</time></trkpt><trkpt lat="43.19792989726094" lon="0.9675689434613356"><ele>477.0</ele><time>2026-03-29T11:38:45Z</time></trkpt><trkpt lat="43.197855218469044" lon="0.9676424219651353"><ele>474.1666666666667</ele><time>2026-03-29T11:38:46Z</time></trkpt><trkpt lat="43.197794606218096" lon="0.9677020744856459"><ele>471.33333333333337</ele><time>2026-03-29T11:38:47Z</time></trkpt><trkpt lat="43.19772814286253" lon="0.9677687540313049"><ele>468.5</ele><time>2026-03-29T11:38:49Z</time></trkpt><trkpt lat="43.19767501278497" lon="0.9678220568867208"><ele>465.6666666666667</ele><time>2026-03-29T11:38:50Z</time></trkpt><trkpt lat="43.19761377831575" lon="0.9678834905882461"><ele>462.83333333333337</ele><time>2026-03-29T11:38:51Z</time></trkpt><trkpt lat="43.19752618273312" lon="0.9679701881559227"><ele>460.0</ele><time>2026-03-29T11:38:52Z</time></trkpt><trkpt lat="43.19746252179352" lon="0.9680326609502228"><ele>460.00000000000006</ele><time>2026-03-29T11:38:53Z</time></trkpt><trkpt lat="43.19739354855315" lon="0.9681003469015264"><ele>460.0</ele><time>2026-03-29T11:38:54Z</time></trkpt><trkpt lat="43.19733133236414" lon="0.968161401926291"><ele>460.0</ele><time>2026-03-29T11:38:55Z</time></trkpt><trkpt lat="43.19726831144405" lon="0.9682165525001151"><ele>460.0</ele><time>2026-03-29T11:38:56Z</time></trkpt><trkpt lat="43.19716856452237" lon="0.9683024199708974"><ele>460.00000000000006</ele><time>2026-03-29T11:38:58Z</time></trkpt><trkpt lat="43.19711036359746" lon="0.9683464733189239"><ele>460.0</ele><time>2026-03-29T11:38:59Z</time></trkpt><trkpt lat="43.19703348624116" lon="0.968413879064056"><ele>456.5</ele><time>2026-03-29T11:39:00Z</time></trkpt><trkpt lat="43.1969295334271" lon="0.9685081546885167"><ele>453.0</ele><time>2026-03-29T11:39:02Z</time></trkpt><trkpt lat="43.19682437407519" lon="0.9685971664448173"><ele>449.5</ele><time>2026-03-29T11:39:04Z</time></trkpt><trkpt lat="43.196709638609185" lon="0.9686651652175531"><ele>446.0</ele><time>2026-03-29T11:39:06Z</time></trkpt><trkpt lat="43.19657413726542" lon="0.9687497889410102"><ele>446.0</ele><time>2026-03-29T11:39:08Z</time></trkpt><trkpt lat="43.19650861384264" lon="0.968785283225026"><ele>446.0</ele><time>2026-03-29T11:39:09Z</time></trkpt><trkpt lat="43.19641208403096" lon="0.9688411956957826"><ele>446.0</ele><time>2026-03-29T11:39:10Z</time></trkpt><trkpt lat="43.196336620798874" lon="0.9688802978773146"><ele>446.0</ele><time>2026-03-29T11:39:11Z</time></trkpt><trkpt lat="43.19623501553126" lon="0.9689399956628668"><ele>446.0</ele><time>2026-03-29T11:39:13Z</time></trkpt><trkpt lat="43.19612364739954" lon="0.9690065473804164"><ele>444.4</ele><time>2026-03-29T11:39:14Z</time></trkpt><trkpt lat="43.196030905090275" lon="0.9690792521923992"><ele>442.8</ele><time>2026-03-29T11:39:15Z</time></trkpt><trkpt lat="43.19593570268996" lon="0.9691486267035822"><ele>441.19999999999993</ele><time>2026-03-29T11:39:16Z</time></trkpt><trkpt lat="43.19583602021067" lon="0.9692212658738153"><ele>439.59999999999997</ele><time>2026-03-29T11:39:17Z</time></trkpt><trkpt lat="43.19573325600312" lon="0.9692887173476468"><ele>438.0</ele><time>2026-03-29T11:39:18Z</time></trkpt><trkpt lat="43.19562342906708" lon="0.9693599295826799"><ele>435.0</ele><time>2026-03-29T11:39:19Z</time></trkpt><trkpt lat="43.19554251411451" lon="0.9694311355835823"><ele>432.0</ele><time>2026-03-29T11:39:20Z</time></trkpt><trkpt lat="43.195485863309955" lon="0.9694829214386291"><ele>429.0</ele><time>2026-03-29T11:39:21Z</time></trkpt><trkpt lat="43.19543226986281" lon="0.9695745602894652"><ele>426.0</ele><time>2026-03-29T11:39:23Z</time></trkpt><trkpt lat="43.19539545464295" lon="0.9696901798758607"><ele>423.0</ele><time>2026-03-29T11:39:25Z</time></trkpt><trkpt lat="43.195357325" lon="0.9698216814316097"><ele>420.0</ele><time>2026-03-29T11:39:26Z</time></trkpt><trkpt lat="43.19531836961136" lon="0.9699660860259591"><ele>420.0</ele><time>2026-03-29T11:39:27Z</time></trkpt><trkpt lat="43.195288371908646" lon="0.9701066267503283"><ele>420.0</ele><time>2026-03-29T11:39:28Z</time></trkpt><trkpt lat="43.1952584239372" lon="0.9702114284235724"><ele>420.0</ele><time>2026-03-29T11:39:29Z</time></trkpt><trkpt lat="43.195224758543326" lon="0.9703070206120205"><ele>420.0</ele><time>2026-03-29T11:39:30Z</time></trkpt><trkpt lat="43.19519026620689" lon="0.9704324807466753"><ele>420.0</ele><time>2026-03-29T11:39:31Z</time></trkpt><trkpt lat="43.19515860543244" lon="0.9705586415792056"><ele>420.0</ele><time>2026-03-29T11:39:32Z</time></trkpt><trkpt lat="43.19512619031223" lon="0.9706878082650862"><ele>420.0</ele><time>2026-03-29T11:39:33Z</time></trkpt><trkpt lat="43.19509885814203" lon="0.9707991705434919"><ele>420.0</ele><time>2026-03-29T11:39:34Z</time></trkpt><trkpt lat="43.195061173933944" lon="0.9709556873929501"><ele>420.0</ele><time>2026-03-29T11:39:36Z</time></trkpt><trkpt lat="43.19502991453427" lon="0.9710779766969635"><ele>420.0</ele><time>2026-03-29T11:39:38Z</time></trkpt><trkpt lat="43.19499263002208" lon="0.9712115230325491"><ele>419.4</ele><time>2026-03-29T11:39:40Z</time></trkpt><trkpt lat="43.19495180103009" lon="0.9713922705617809"><ele>418.8</ele><time>2026-03-29T11:39:42Z</time></trkpt><trkpt lat="43.19492248200268" lon="0.9714957574810058"><ele>418.20000000000005</ele><time>2026-03-29T11:39:43Z</time></trkpt><trkpt lat="43.19489905124737" lon="0.9715880817427902"><ele>417.6</ele><time>2026-03-29T11:39:44Z</time></trkpt><trkpt lat="43.19486978979305" lon="0.9717053946863922"><ele>417.0</ele><time>2026-03-29T11:39:45Z</time></trkpt><trkpt lat="43.19484676113581" lon="0.9718081186026566"><ele>412.6666666666667</ele><time>2026-03-29T11:39:46Z</time></trkpt><trkpt lat="43.19482767917707" lon="0.9718928218622084"><ele>408.33333333333337</ele><time>2026-03-29T11:39:47Z</time></trkpt><trkpt lat="43.19480133708521" lon="0.9720097522776646"><ele>404.0</ele><time>2026-03-29T11:39:48Z</time></trkpt><trkpt lat="43.194781871261924" lon="0.9720921169202268"><ele>399.6666666666667</ele><time>2026-03-29T11:39:49Z</time></trkpt><trkpt lat="43.19474480388035" lon="0.9722122781073381"><ele>395.33333333333337</ele><time>2026-03-29T11:39:51Z</time></trkpt><trkpt lat="43.19470919649303" lon="0.9723727799954169"><ele>391.0</ele><time>2026-03-29T11:39:53Z</time></trkpt><trkpt lat="43.194677861243115" lon="0.972503734810414"><ele>389.6666666666667</ele><time>2026-03-29T11:39:55Z</time></trkpt><trkpt lat="43.19464934909875" lon="0.9725936522460565"><ele>388.33333333333337</ele><time>2026-03-29T11:39:56Z</time></trkpt><trkpt lat="43.19462399360994" lon="0.9726873162316073"><ele>387.0</ele><time>2026-03-29T11:39:58Z</time></trkpt><trkpt lat="43.19459362430119" lon="0.972812918071277"><ele>385.6666666666667</ele><time>2026-03-29T11:40:00Z</time></trkpt><trkpt lat="43.1945630303938" lon="0.9729537475201356"><ele>384.33333333333337</ele><time>2026-03-29T11:40:03Z</time></trkpt><trkpt lat="43.194543478647745" lon="0.9730508127074059"><ele>383.0</ele><time>2026-03-29T11:40:05Z</time></trkpt><trkpt lat="43.194460320399926" lon="0.9733684509595628"><ele>382.0</ele><time>2026-03-29T11:40:07Z</time></trkpt><trkpt lat="43.19443795293345" lon="0.9734785746853449"><ele>381.0</ele><time>2026-03-29T11:40:09Z</time></trkpt><trkpt lat="43.194414225124476" lon="0.9735802451076337"><ele>380.0</ele><time>2026-03-29T11:40:11Z</time></trkpt><trkpt lat="43.19436812170048" lon="0.9737577103015874"><ele>379.0</ele><time>2026-03-29T11:40:13Z</time></trkpt><trkpt lat="43.194347076367215" lon="0.9738465628913783"><ele>378.0</ele><time>2026-03-29T11:40:14Z</time></trkpt><trkpt lat="43.19432664354189" lon="0.9739328294789723"><ele>377.0</ele><time>2026-03-29T11:40:15Z</time></trkpt><trkpt lat="43.19430029606003" lon="0.9740686349204081"><ele>376.40000000000003</ele><time>2026-03-29T11:40:17Z</time></trkpt><trkpt lat="43.194254808491955" lon="0.974229986751956"><ele>375.8</ele><time>2026-03-29T11:40:19Z</time></trkpt><trkpt lat="43.19423109379863" lon="0.9743208143068794"><ele>375.2</ele><time>2026-03-29T11:40:20Z</time></trkpt><trkpt lat="43.19420160509741" lon="0.9744337564186818"><ele>374.6</ele><time>2026-03-29T11:40:22Z</time></trkpt><trkpt lat="43.19416937946447" lon="0.9745216150300123"><ele>374.0</ele><time>2026-03-29T11:40:26Z</time></trkpt><trkpt lat="43.19409297508224" lon="0.974598427325778"><ele>367.75</ele><time>2026-03-29T11:40:28Z</time></trkpt><trkpt lat="43.19399133266818" lon="0.9746675222460285"><ele>361.5</ele><time>2026-03-29T11:40:30Z</time></trkpt><trkpt lat="43.19386665265533" lon="0.9747075914515348"><ele>355.25</ele><time>2026-03-29T11:40:32Z</time></trkpt><trkpt lat="43.19373982135237" lon="0.9747189419974533"><ele>349.0</ele><time>2026-03-29T11:40:34Z</time></trkpt><trkpt lat="43.19360818237969" lon="0.9747322429356052"><ele>349.0</ele><time>2026-03-29T11:40:35Z</time></trkpt><trkpt lat="43.19349916557866" lon="0.9747638894920064"><ele>349.0</ele><time>2026-03-29T11:40:36Z</time></trkpt><trkpt lat="43.193432070914135" lon="0.9747957633284472"><ele>349.0</ele><time>2026-03-29T11:40:37Z</time></trkpt><trkpt lat="43.19336514018528" lon="0.974825019822615"><ele>349.0</ele><time>2026-03-29T11:40:38Z</time></trkpt><trkpt lat="43.19326075843288" lon="0.9748504320381159"><ele>349.0</ele><time>2026-03-29T11:40:40Z</time></trkpt><trkpt lat="43.1931793113952" lon="0.974850493481979"><ele>349.0</ele><time>2026-03-29T11:40:42Z</time></trkpt><trkpt lat="43.19307435259773" lon="0.9749106657795437"><ele>345.5</ele><time>2026-03-29T11:40:44Z</time></trkpt><trkpt lat="43.192981727661135" lon="0.9749258331148701"><ele>342.0</ele><time>2026-03-29T11:40:46Z</time></trkpt><trkpt lat="43.19290118648549" lon="0.9749122514748032"><ele>338.5</ele><time>2026-03-29T11:40:48Z</time></trkpt><trkpt lat="43.19281541090408" lon="0.9749350907041712"><ele>335.0</ele><time>2026-03-29T11:40:53Z</time></trkpt><trkpt lat="43.19274136242656" lon="0.9749619480903561"><ele>331.5</ele><time>2026-03-29T11:40:55Z</time></trkpt><trkpt lat="43.19266619386184" lon="0.9749485303263552"><ele>328.0</ele><time>2026-03-29T11:40:59Z</time></trkpt><trkpt lat="43.19256186094887" lon="0.9749361268306816"><ele>328.0</ele><time>2026-03-29T11:41:02Z</time></trkpt><trkpt lat="43.19247876419392" lon="0.9749502364850953"><ele>328.0</ele><time>2026-03-29T11:41:05Z</time></trkpt><trkpt lat="43.19242128509542" lon="0.9749996160032903"><ele>328.0</ele><time>2026-03-29T11:41:08Z</time></trkpt><trkpt lat="43.19234937585807" lon="0.974960191007266"><ele>328.0</ele><time>2026-03-29T11:41:10Z</time></trkpt><trkpt lat="43.19230286173823" lon="0.9748970103037216"><ele>328.0</ele><time>2026-03-29T11:41:12Z</time></trkpt><trkpt lat="43.192283466537724" lon="0.9748081634474263"><ele>328.0</ele><time>2026-03-29T11:41:14Z</time></trkpt><trkpt lat="43.192286039717935" lon="0.974687053188772"><ele>321.0</ele><time>2026-03-29T11:41:17Z</time></trkpt><trkpt lat="43.192003940623906" lon="0.9742091544321103"><ele>314.0</ele><time>2026-03-29T11:41:18Z</time></trkpt><trkpt lat="43.191959134101495" lon="0.9741110203565544"><ele>314.0</ele><time>2026-03-29T11:41:20Z</time></trkpt><trkpt lat="43.19193660938796" lon="0.9740226214796929"><ele>314.0</ele><time>2026-03-29T11:41:23Z</time></trkpt><trkpt lat="43.191863776085576" lon="0.9740321525482492"><ele>314.0</ele><time>2026-03-29T11:41:26Z</time></trkpt></trkseg><trkseg><trkpt lat="43.191812932700515" lon="0.9739247484931641"><ele>314.0</ele><time>2026-03-29T13:26:48Z</time></trkpt><trkpt lat="43.191725969242654" lon="0.9739512576674362"><ele>314.0</ele><time>2026-03-29T13:26:51Z</time></trkpt><trkpt lat="43.19164390481545" lon="0.9739283096112076"><ele>314.0</ele><time>2026-03-29T13:26:53Z</time></trkpt><trkpt lat="43.191632556695374" lon="0.9738427938827753"><ele>314.0</ele><time>2026-03-29T13:26:54Z</time></trkpt><trkpt lat="43.19160052523417" lon="0.9735830672615284"><ele>314.0</ele><time>2026-03-29T13:26:56Z</time></trkpt><trkpt lat="43.19158882065004" lon="0.9734496242757417"><ele>314.5</ele><time>2026-03-29T13:26:57Z</time></trkpt><trkpt lat="43.19157978957296" lon="0.9732437198684748"><ele>315.0</ele><time>2026-03-29T13:26:58Z</time></trkpt><trkpt lat="43.19155786267514" lon="0.9730522803447792"><ele>315.5</ele><time>2026-03-29T13:26:59Z</time></trkpt><trkpt lat="43.19151441051316" lon="0.9728908712581967"><ele>316.0</ele><time>2026-03-29T13:27:00Z</time></trkpt><trkpt lat="43.19149210091494" lon="0.972794647572065"><ele>315.6</ele><time>2026-03-29T13:27:01Z</time></trkpt><trkpt lat="43.19145290102909" lon="0.9726808887505634"><ele>315.20000000000005</ele><time>2026-03-29T13:27:02Z</time></trkpt><trkpt lat="43.19138791469468" lon="0.9726123935370906"><ele>314.79999999999995</ele><time>2026-03-29T13:27:04Z</time></trkpt><trkpt lat="43.19133154596343" lon="0.9725413157053986"><ele>314.4</ele><time>2026-03-29T13:27:10Z</time></trkpt><trkpt lat="43.19120909915398" lon="0.9725256687987517"><ele>314.0</ele><time>2026-03-29T13:27:12Z</time></trkpt><trkpt lat="43.19113030179993" lon="0.9725112774680646"><ele>314.0</ele><time>2026-03-29T13:27:14Z</time></trkpt><trkpt lat="43.19105246884941" lon="0.9724918374080176"><ele>314.0</ele><time>2026-03-29T13:27:20Z</time></trkpt><trkpt lat="43.19098390033718" lon="0.9724498583513648"><ele>314.0</ele><time>2026-03-29T13:27:22Z</time></trkpt><trkpt lat="43.190876327078676" lon="0.9723908124511653"><ele>314.0</ele><time>2026-03-29T13:27:24Z</time></trkpt><trkpt lat="43.19080885278953" lon="0.9723751488799438"><ele>314.0</ele><time>2026-03-29T13:27:25Z</time></trkpt><trkpt lat="43.190715891320515" lon="0.9723797857359114"><ele>314.0</ele><time>2026-03-29T13:27:27Z</time></trkpt><trkpt lat="43.19061946082559" lon="0.9723368076769336"><ele>314.2</ele><time>2026-03-29T13:27:29Z</time></trkpt><trkpt lat="43.19053084216401" lon="0.972325575744593"><ele>314.4</ele><time>2026-03-29T13:27:31Z</time></trkpt><trkpt lat="43.19039576745595" lon="0.9722819548057716"><ele>314.6</ele><time>2026-03-29T13:27:33Z</time></trkpt><trkpt lat="43.19027554866674" lon="0.9723108578516311"><ele>314.8</ele><time>2026-03-29T13:27:34Z</time></trkpt><trkpt lat="43.19020999967986" lon="0.9723203957376317"><ele>315.0</ele><time>2026-03-29T13:27:35Z</time></trkpt><trkpt lat="43.1901282737993" lon="0.9723092917987436"><ele>315.0</ele><time>2026-03-29T13:27:36Z</time></trkpt><trkpt lat="43.19006362450488" lon="0.9722710469896783"><ele>315.0</ele><time>2026-03-29T13:27:37Z</time></trkpt><trkpt lat="43.190011945585965" lon="0.9721527467625322"><ele>315.0</ele><time>2026-03-29T13:27:38Z</time></trkpt><trkpt lat="43.189963185177696" lon="0.972049115671862"><ele>315.0</ele><time>2026-03-29T13:27:39Z</time></trkpt><trkpt lat="43.189932146920135" lon="0.9719500542682988"><ele>315.0</ele><time>2026-03-29T13:27:41Z</time></trkpt><trkpt lat="43.189919936674535" lon="0.9718171528990084"><ele>315.0</ele><time>2026-03-29T13:27:43Z</time></trkpt><trkpt lat="43.18990203962846" lon="0.9717333070248905"><ele>315.1666666666667</ele><time>2026-03-29T13:27:44Z</time></trkpt><trkpt lat="43.1898639861212" lon="0.971579932439082"><ele>315.3333333333333</ele><time>2026-03-29T13:27:46Z</time></trkpt><trkpt lat="43.18984200740612" lon="0.9714881814785902"><ele>315.5</ele><time>2026-03-29T13:27:47Z</time></trkpt><trkpt lat="43.18981576040959" lon="0.971401328610428"><ele>315.66666666666663</ele><time>2026-03-29T13:27:48Z</time></trkpt><trkpt lat="43.18980087328206" lon="0.9713167817902771"><ele>315.8333333333333</ele><time>2026-03-29T13:27:49Z</time></trkpt><trkpt lat="43.189778751442" lon="0.9712061450619425"><ele>316.0</ele><time>2026-03-29T13:27:50Z</time></trkpt><trkpt lat="43.189729410728866" lon="0.9710513661908706"><ele>315.3333333333333</ele><time>2026-03-29T13:27:52Z</time></trkpt><trkpt lat="43.18967417720435" lon="0.9709471146527601"><ele>314.66666666666663</ele><time>2026-03-29T13:27:54Z</time></trkpt><trkpt lat="43.189594439872124" lon="0.9709118425679891"><ele>314.0</ele><time>2026-03-29T13:27:56Z</time></trkpt><trkpt lat="43.18958390930918" lon="0.970823730064955"><ele>313.3333333333333</ele><time>2026-03-29T13:28:01Z</time></trkpt><trkpt lat="43.189525929386015" lon="0.970762807161102"><ele>312.6666666666667</ele><time>2026-03-29T13:28:06Z</time></trkpt><trkpt lat="43.18946466815935" lon="0.9706782055523142"><ele>312.0</ele><time>2026-03-29T13:28:10Z</time></trkpt><trkpt lat="43.189424514726944" lon="0.9706078797658675"><ele>311.8333333333333</ele><time>2026-03-29T13:28:13Z</time></trkpt><trkpt lat="43.18938866108765" lon="0.9705204015562914"><ele>311.6666666666667</ele><time>2026-03-29T13:28:16Z</time></trkpt><trkpt lat="43.18936053490764" lon="0.9704353808524933"><ele>311.5</ele><time>2026-03-29T13:28:20Z</time></trkpt><trkpt lat="43.189298231570184" lon="0.9703507978396836"><ele>311.33333333333337</ele><time>2026-03-29T13:28:25Z</time></trkpt><trkpt lat="43.189257026753936" lon="0.9702235033157768"><ele>311.1666666666667</ele><time>2026-03-29T13:28:27Z</time></trkpt><trkpt lat="43.18921654928414" lon="0.970123609593879"><ele>311.0</ele><time>2026-03-29T13:28:29Z</time></trkpt><trkpt lat="43.18918223187547" lon="0.9700394249117719"><ele>311.33333333333337</ele><time>2026-03-29T13:29:13Z</time></trkpt><trkpt lat="43.189140731195124" lon="0.9699072155968241"><ele>311.6666666666667</ele><time>2026-03-29T13:29:16Z</time></trkpt><trkpt lat="43.18908026170017" lon="0.9698244317122423"><ele>312.0</ele><time>2026-03-29T13:29:18Z</time></trkpt><trkpt lat="43.188980871061744" lon="0.9698119042309855"><ele>312.3333333333333</ele><time>2026-03-29T13:29:20Z</time></trkpt><trkpt lat="43.1889187136435" lon="0.9698437105969929"><ele>312.66666666666663</ele><time>2026-03-29T13:29:24Z</time></trkpt><trkpt lat="43.18899412378005" lon="0.9698412052781414"><ele>313.0</ele><time>2026-03-29T13:32:03Z</time></trkpt><trkpt lat="43.18905856927404" lon="0.9698798538926526"><ele>313.0</ele><time>2026-03-29T13:32:09Z</time></trkpt><trkpt lat="43.18909946037296" lon="0.9699544702601476"><ele>313.0</ele><time>2026-03-29T13:32:16Z</time></trkpt><trkpt lat="43.18915320006255" lon="0.9700323941230348"><ele>313.0</ele><time>2026-03-29T13:32:20Z</time></trkpt><trkpt lat="43.189180946420684" lon="0.9701161595482157"><ele>313.0</ele><time>2026-03-29T13:32:26Z</time></trkpt><trkpt lat="43.18920996667318" lon="0.9701939226106595"><ele>313.0</ele><time>2026-03-29T13:32:31Z</time></trkpt><trkpt lat="43.18924132156159" lon="0.9702691937204807"><ele>313.0</ele><time>2026-03-29T13:32:38Z</time></trkpt><trkpt lat="43.18926588006661" lon="0.9703577177621602"><ele>313.0</ele><time>2026-03-29T13:32:44Z</time></trkpt><trkpt lat="43.189314446111226" lon="0.9704205884862256"><ele>313.0</ele><time>2026-03-29T13:33:32Z</time></trkpt><trkpt lat="43.18929254076631" lon="0.9703347224793833"><ele>313.0</ele><time>2026-03-29T13:33:56Z</time></trkpt><trkpt lat="43.189246476679656" lon="0.9702491959214622"><ele>313.0</ele><time>2026-03-29T13:34:03Z</time></trkpt><trkpt lat="43.18922134126768" lon="0.9701649390554599"><ele>313.0</ele><time>2026-03-29T13:34:08Z</time></trkpt><trkpt lat="43.189185525753935" lon="0.9700775058335402"><ele>313.0</ele><time>2026-03-29T13:34:11Z</time></trkpt><trkpt lat="43.189152445402605" lon="0.9699758116692359"><ele>313.0</ele><time>2026-03-29T13:34:14Z</time></trkpt><trkpt lat="43.189108867754975" lon="0.9698960476961043"><ele>313.0</ele><time>2026-03-29T13:34:18Z</time></trkpt><trkpt lat="43.18905015301382" lon="0.9698303231146433"><ele>312.42857142857144</ele><time>2026-03-29T13:34:23Z</time></trkpt><trkpt lat="43.188991009084525" lon="0.9697898479047634"><ele>311.8571428571429</ele><time>2026-03-29T13:34:28Z</time></trkpt><trkpt lat="43.18892780060088" lon="0.9698247325464411"><ele>311.28571428571433</ele><time>2026-03-29T13:34:32Z</time></trkpt><trkpt lat="43.18886405687388" lon="0.9698382614735557"><ele>310.7142857142857</ele><time>2026-03-29T13:34:39Z</time></trkpt><trkpt lat="43.18881958614665" lon="0.969928705007826"><ele>310.14285714285717</ele><time>2026-03-29T13:34:53Z</time></trkpt><trkpt lat="43.18875840345127" lon="0.970019329087304"><ele>309.5714285714286</ele><time>2026-03-29T13:34:55Z</time></trkpt><trkpt lat="43.188716071848994" lon="0.9700888075445266"><ele>309.0</ele><time>2026-03-29T13:34:56Z</time></trkpt><trkpt lat="43.188656467218216" lon="0.9701968596942526"><ele>309.0</ele><time>2026-03-29T13:34:58Z</time></trkpt><trkpt lat="43.18862811155551" lon="0.9702750055103149"><ele>309.0</ele><time>2026-03-29T13:35:00Z</time></trkpt><trkpt lat="43.1885699630767" lon="0.9703324490302061"><ele>309.0</ele><time>2026-03-29T13:35:24Z</time></trkpt><trkpt lat="43.18850106728768" lon="0.9703049350595043"><ele>309.0</ele><time>2026-03-29T13:35:30Z</time></trkpt><trkpt lat="43.18844018712668" lon="0.9701930891116234"><ele>309.0</ele><time>2026-03-29T13:35:33Z</time></trkpt><trkpt lat="43.18838267514055" lon="0.9700846407526749"><ele>309.0</ele><time>2026-03-29T13:35:35Z</time></trkpt><trkpt lat="43.188336494292074" lon="0.970021871778918"><ele>308.8333333333333</ele><time>2026-03-29T13:35:37Z</time></trkpt><trkpt lat="43.18824944822278" lon="0.9700690019113675"><ele>308.6666666666667</ele><time>2026-03-29T13:35:39Z</time></trkpt><trkpt lat="43.18817802606608" lon="0.9700945621097836"><ele>308.5</ele><time>2026-03-29T13:35:44Z</time></trkpt><trkpt lat="43.188112374855606" lon="0.9701212512134832"><ele>308.33333333333337</ele><time>2026-03-29T13:35:46Z</time></trkpt><trkpt lat="43.18803825440521" lon="0.9701496292356068"><ele>308.1666666666667</ele><time>2026-03-29T13:36:27Z</time></trkpt><trkpt lat="43.18796715847941" lon="0.9701839224186687"><ele>308.0</ele><time>2026-03-29T13:36:30Z</time></trkpt><trkpt lat="43.18789374225873" lon="0.9702160427925233"><ele>307.83333333333337</ele><time>2026-03-29T13:36:32Z</time></trkpt><trkpt lat="43.187821469828954" lon="0.9702443011700458"><ele>307.6666666666667</ele><time>2026-03-29T13:36:34Z</time></trkpt><trkpt lat="43.18775660170019" lon="0.9702685434649516"><ele>307.5</ele><time>2026-03-29T13:36:36Z</time></trkpt><trkpt lat="43.18766214722626" lon="0.9702999695137329"><ele>307.3333333333333</ele><time>2026-03-29T13:36:38Z</time></trkpt><trkpt lat="43.18760210586806" lon="0.9703398168818174"><ele>307.16666666666663</ele><time>2026-03-29T13:36:40Z</time></trkpt><trkpt lat="43.187497535507525" lon="0.9703708035154829"><ele>307.0</ele><time>2026-03-29T13:36:43Z</time></trkpt><trkpt lat="43.18738437940913" lon="0.9704282077648396"><ele>307.3333333333333</ele><time>2026-03-29T13:36:45Z</time></trkpt><trkpt lat="43.187315994846756" lon="0.9704593487831181"><ele>307.66666666666663</ele><time>2026-03-29T13:36:47Z</time></trkpt><trkpt lat="43.187260579027495" lon="0.9705065665176257"><ele>308.0</ele><time>2026-03-29T13:36:49Z</time></trkpt><trkpt lat="43.18720239788327" lon="0.970569313040899"><ele>308.3333333333333</ele><time>2026-03-29T13:36:55Z</time></trkpt><trkpt lat="43.18712381695916" lon="0.9705501858264737"><ele>308.6666666666667</ele><time>2026-03-29T13:36:59Z</time></trkpt><trkpt lat="43.187017097918" lon="0.9706029808717324"><ele>309.0</ele><time>2026-03-29T13:37:01Z</time></trkpt><trkpt lat="43.18694428899135" lon="0.9706460006331235"><ele>309.0</ele><time>2026-03-29T13:37:02Z</time></trkpt><trkpt lat="43.186826682973695" lon="0.9707457803941453"><ele>309.0</ele><time>2026-03-29T13:37:04Z</time></trkpt><trkpt lat="43.18669858381786" lon="0.9707859565498195"><ele>309.0</ele><time>2026-03-29T13:37:06Z</time></trkpt><trkpt lat="43.1866064285788" lon="0.9707932100724256"><ele>309.0</ele><time>2026-03-29T13:37:07Z</time></trkpt><trkpt lat="43.18647793943134" lon="0.970820952631918"><ele>309.5</ele><time>2026-03-29T13:37:09Z</time></trkpt><trkpt lat="43.1863962198994" lon="0.9707659467802205"><ele>310.0</ele><time>2026-03-29T13:37:11Z</time></trkpt><trkpt lat="43.18636654847513" lon="0.97067127454545"><ele>310.5</ele><time>2026-03-29T13:37:13Z</time></trkpt><trkpt lat="43.186361602301986" lon="0.9705286098336994"><ele>311.0</ele><time>2026-03-29T13:37:14Z</time></trkpt><trkpt lat="43.18638239036245" lon="0.9704422661708545"><ele>311.5</ele><time>2026-03-29T13:37:15Z</time></trkpt><trkpt lat="43.18637570893274" lon="0.9703336824867987"><ele>312.0</ele><time>2026-03-29T13:37:16Z</time></trkpt><trkpt lat="43.186370996287934" lon="0.970242199242099"><ele>312.0</ele><time>2026-03-29T13:37:17Z</time></trkpt><trkpt lat="43.18633868586585" lon="0.9701053584636828"><ele>312.0</ele><time>2026-03-29T13:37:19Z</time></trkpt><trkpt lat="43.1862763482949" lon="0.9700860963697537"><ele>312.0</ele><time>2026-03-29T13:37:21Z</time></trkpt><trkpt lat="43.18618613173485" lon="0.970031297823784"><ele>312.0</ele><time>2026-03-29T13:37:23Z</time></trkpt><trkpt lat="43.186096398723244" lon="0.9699937499643632"><ele>312.0</ele><time>2026-03-29T13:37:24Z</time></trkpt><trkpt lat="43.18600107823484" lon="0.9699348465984396"><ele>311.6</ele><time>2026-03-29T13:37:25Z</time></trkpt><trkpt lat="43.18591051196886" lon="0.9698741500936413"><ele>311.2</ele><time>2026-03-29T13:37:26Z</time></trkpt><trkpt lat="43.185836880557396" lon="0.9697966133229264"><ele>310.8</ele><time>2026-03-29T13:37:27Z</time></trkpt><trkpt lat="43.1857518129692" lon="0.9697095702741305"><ele>310.4</ele><time>2026-03-29T13:37:28Z</time></trkpt><trkpt lat="43.18564055306804" lon="0.96966867483761"><ele>310.0</ele><time>2026-03-29T13:37:29Z</time></trkpt><trkpt lat="43.18550332262025" lon="0.9695989029434782"><ele>309.66666666666663</ele><time>2026-03-29T13:37:30Z</time></trkpt><trkpt lat="43.18540347967131" lon="0.9695385238801602"><ele>309.3333333333333</ele><time>2026-03-29T13:37:31Z</time></trkpt><trkpt lat="43.18530491358927" lon="0.9694743292519735"><ele>309.0</ele><time>2026-03-29T13:37:32Z</time></trkpt><trkpt lat="43.18523000487094" lon="0.9694144473777206"><ele>308.6666666666667</ele><time>2026-03-29T13:37:33Z</time></trkpt><trkpt lat="43.185169279874174" lon="0.9693761539841989"><ele>308.33333333333337</ele><time>2026-03-29T13:37:34Z</time></trkpt><trkpt lat="43.18510759491645" lon="0.9693297396563354"><ele>308.0</ele><time>2026-03-29T13:37:35Z</time></trkpt><trkpt lat="43.185063530362896" lon="0.969252676115704"><ele>308.2</ele><time>2026-03-29T13:37:36Z</time></trkpt><trkpt lat="43.18500535354054" lon="0.9691612299836541"><ele>308.4</ele><time>2026-03-29T13:37:38Z</time></trkpt><trkpt lat="43.1849514774332" lon="0.9690628693651123"><ele>308.59999999999997</ele><time>2026-03-29T13:37:40Z</time></trkpt><trkpt lat="43.18489632967743" lon="0.9689587242276281"><ele>308.8</ele><time>2026-03-29T13:37:45Z</time></trkpt><trkpt lat="43.18483498602964" lon="0.96899991738056"><ele>309.0</ele><time>2026-03-29T13:38:42Z</time></trkpt><trkpt lat="43.18468146420657" lon="0.9690276761399819"><ele>307.8</ele><time>2026-03-29T13:39:05Z</time></trkpt><trkpt lat="43.1846072976751" lon="0.9689913329227333"><ele>306.59999999999997</ele><time>2026-03-29T13:39:06Z</time></trkpt><trkpt lat="43.184532743789774" lon="0.9689450940715436"><ele>305.4</ele><time>2026-03-29T13:39:07Z</time></trkpt><trkpt lat="43.18444234000942" lon="0.9688639622526922"><ele>304.2</ele><time>2026-03-29T13:39:08Z</time></trkpt><trkpt lat="43.18434337771063" lon="0.9687716024216535"><ele>303.0</ele><time>2026-03-29T13:39:09Z</time></trkpt><trkpt lat="43.184238144528706" lon="0.968705995833654"><ele>303.0</ele><time>2026-03-29T13:39:10Z</time></trkpt><trkpt lat="43.1841559824426" lon="0.9686202687486998"><ele>303.0</ele><time>2026-03-29T13:39:11Z</time></trkpt><trkpt lat="43.18408437595678" lon="0.9685409838512102"><ele>303.0</ele><time>2026-03-29T13:39:12Z</time></trkpt><trkpt lat="43.18401945312888" lon="0.9684362426327695"><ele>303.0</ele><time>2026-03-29T13:39:13Z</time></trkpt><trkpt lat="43.18396831154313" lon="0.9683299323045648"><ele>303.0</ele><time>2026-03-29T13:39:14Z</time></trkpt><trkpt lat="43.18394613580527" lon="0.9682313325514282"><ele>304.0</ele><time>2026-03-29T13:39:15Z</time></trkpt><trkpt lat="43.183957550421546" lon="0.968120243299154"><ele>305.0</ele><time>2026-03-29T13:39:16Z</time></trkpt><trkpt lat="43.18400702552403" lon="0.9679769423118768"><ele>306.0</ele><time>2026-03-29T13:39:17Z</time></trkpt><trkpt lat="43.18402255395548" lon="0.9678166365501263"><ele>307.0</ele><time>2026-03-29T13:39:18Z</time></trkpt><trkpt lat="43.1840420101261" lon="0.967603178394436"><ele>306.0</ele><time>2026-03-29T13:39:19Z</time></trkpt><trkpt lat="43.18405693766969" lon="0.9674407553887852"><ele>305.0</ele><time>2026-03-29T13:39:20Z</time></trkpt><trkpt lat="43.18407972492256" lon="0.9672706983527647"><ele>304.0</ele><time>2026-03-29T13:39:21Z</time></trkpt><trkpt lat="43.18410466646393" lon="0.967111820135764"><ele>303.0</ele><time>2026-03-29T13:39:22Z</time></trkpt><trkpt lat="43.18410681388115" lon="0.9669581618858056"><ele>303.0</ele><time>2026-03-29T13:39:23Z</time></trkpt><trkpt lat="43.18413066399831" lon="0.9668282697872682"><ele>303.0</ele><time>2026-03-29T13:39:24Z</time></trkpt><trkpt lat="43.18414327509083" lon="0.9667050393362455"><ele>303.0</ele><time>2026-03-29T13:39:25Z</time></trkpt><trkpt lat="43.18413430976676" lon="0.9665879421262894"><ele>303.0</ele><time>2026-03-29T13:39:27Z</time></trkpt><trkpt lat="43.18411344104687" lon="0.9664823765209841"><ele>303.0</ele><time>2026-03-29T13:39:29Z</time></trkpt><trkpt lat="43.18408584140462" lon="0.9663482141533858"><ele>303.0</ele><time>2026-03-29T13:39:31Z</time></trkpt><trkpt lat="43.18406189521522" lon="0.9662629360204513"><ele>303.0</ele><time>2026-03-29T13:39:32Z</time></trkpt><trkpt lat="43.18403339286905" lon="0.9661614322918884"><ele>303.0</ele><time>2026-03-29T13:39:33Z</time></trkpt><trkpt lat="43.183961815126764" lon="0.9661668566603735"><ele>303.0</ele><time>2026-03-29T13:39:34Z</time></trkpt><trkpt lat="43.18417791185025" lon="0.965919770265712"><ele>302.8333333333333</ele><time>2026-03-29T13:39:35Z</time></trkpt><trkpt lat="43.18419578469146" lon="0.9658206552882608"><ele>302.6666666666667</ele><time>2026-03-29T13:39:36Z</time></trkpt><trkpt lat="43.18422928775351" lon="0.9656865951083189"><ele>302.5</ele><time>2026-03-29T13:39:38Z</time></trkpt><trkpt lat="43.184252703291776" lon="0.9655915466546117"><ele>302.33333333333337</ele><time>2026-03-29T13:39:39Z</time></trkpt><trkpt lat="43.18430389497259" lon="0.9654867101826851"><ele>302.1666666666667</ele><time>2026-03-29T13:39:40Z</time></trkpt><trkpt lat="43.184349230794425" lon="0.9653608681833257"><ele>302.0</ele><time>2026-03-29T13:39:41Z</time></trkpt><trkpt lat="43.184385944997594" lon="0.9652761721227313"><ele>302.0</ele><time>2026-03-29T13:39:42Z</time></trkpt><trkpt lat="43.184412601059805" lon="0.965187997516192"><ele>302.0</ele><time>2026-03-29T13:39:43Z</time></trkpt><trkpt lat="43.184430353724785" lon="0.9650919019105775"><ele>302.0</ele><time>2026-03-29T13:39:44Z</time></trkpt><trkpt lat="43.18447262922533" lon="0.9649915988420066"><ele>302.0</ele><time>2026-03-29T13:39:45Z</time></trkpt><trkpt lat="43.18450230934035" lon="0.9648947766060254"><ele>302.0</ele><time>2026-03-29T13:39:46Z</time></trkpt><trkpt lat="43.18454716186887" lon="0.9647860747389747"><ele>302.0</ele><time>2026-03-29T13:39:48Z</time></trkpt><trkpt lat="43.18455641586785" lon="0.9646570347317475"><ele>302.0</ele><time>2026-03-29T13:39:50Z</time></trkpt><trkpt lat="43.18459571756185" lon="0.9645718672618865"><ele>302.0</ele><time>2026-03-29T13:39:56Z</time></trkpt><trkpt lat="43.18464215730594" lon="0.9644461645449237"><ele>302.0</ele><time>2026-03-29T13:39:58Z</time></trkpt><trkpt lat="43.18465081035488" lon="0.9643177060143432"><ele>302.0</ele><time>2026-03-29T13:39:59Z</time></trkpt><trkpt lat="43.1847911300165" lon="0.964227657205793"><ele>302.0</ele><time>2026-03-29T13:40:00Z</time></trkpt><trkpt lat="43.1848975991321" lon="0.964178790790648"><ele>302.8</ele><time>2026-03-29T13:40:01Z</time></trkpt><trkpt lat="43.184952285988615" lon="0.9641028470977798"><ele>303.6</ele><time>2026-03-29T13:40:05Z</time></trkpt><trkpt lat="43.185004379780224" lon="0.9640280742810797"><ele>304.40000000000003</ele><time>2026-03-29T13:40:14Z</time></trkpt><trkpt lat="43.185146270712174" lon="0.9639314913201242"><ele>305.2</ele><time>2026-03-29T13:40:16Z</time></trkpt><trkpt lat="43.18524028143671" lon="0.963870763065501"><ele>306.0</ele><time>2026-03-29T13:40:18Z</time></trkpt><trkpt lat="43.185322281029634" lon="0.9638314666986165"><ele>306.0</ele><time>2026-03-29T13:40:20Z</time></trkpt><trkpt lat="43.18540596329022" lon="0.9637565137493355"><ele>306.0</ele><time>2026-03-29T13:40:22Z</time></trkpt><trkpt lat="43.18547366277993" lon="0.9637234338114214"><ele>306.0</ele><time>2026-03-29T13:40:24Z</time></trkpt><trkpt lat="43.18541628283616" lon="0.9636752935700804"><ele>306.0</ele><time>2026-03-29T13:40:26Z</time></trkpt><trkpt lat="43.18542462452545" lon="0.9635852217425431"><ele>306.0</ele><time>2026-03-29T13:40:28Z</time></trkpt><trkpt lat="43.18545751687815" lon="0.9635030925599045"><ele>306.0</ele><time>2026-03-29T13:40:30Z</time></trkpt><trkpt lat="43.18548369642807" lon="0.9634051443254551"><ele>305.8</ele><time>2026-03-29T13:40:33Z</time></trkpt><trkpt lat="43.185463930925394" lon="0.9632748218547831"><ele>305.6</ele><time>2026-03-29T13:40:34Z</time></trkpt><trkpt lat="43.18548878999861" lon="0.9631636734932195"><ele>305.4</ele><time>2026-03-29T13:40:37Z</time></trkpt><trkpt lat="43.185418905628204" lon="0.9630543387405988"><ele>305.2</ele><time>2026-03-29T13:40:40Z</time></trkpt><trkpt lat="43.1854347049849" lon="0.9629142407816015"><ele>305.0</ele><time>2026-03-29T13:40:42Z</time></trkpt><trkpt lat="43.185435645330614" lon="0.962819062595363"><ele>305.0</ele><time>2026-03-29T13:40:43Z</time></trkpt><trkpt lat="43.18542584454171" lon="0.9627315672577472"><ele>305.0</ele><time>2026-03-29T13:40:45Z</time></trkpt><trkpt lat="43.18542894414714" lon="0.9626297575393689"><ele>305.0</ele><time>2026-03-29T13:40:47Z</time></trkpt><trkpt lat="43.185449300807356" lon="0.9624975635574536"><ele>305.0</ele><time>2026-03-29T13:40:49Z</time></trkpt><trkpt lat="43.18546498132835" lon="0.9624108542742857"><ele>305.0</ele><time>2026-03-29T13:40:50Z</time></trkpt><trkpt lat="43.18547657618181" lon="0.962308112572674"><ele>305.0</ele><time>2026-03-29T13:40:52Z</time></trkpt><trkpt lat="43.18554080969405" lon="0.9621555338301486"><ele>306.5</ele><time>2026-03-29T13:40:54Z</time></trkpt><trkpt lat="43.18555852870045" lon="0.9620533327174222"><ele>308.0</ele><time>2026-03-29T13:40:55Z</time></trkpt><trkpt lat="43.185579841877434" lon="0.9619043808402645"><ele>309.5</ele><time>2026-03-29T13:40:57Z</time></trkpt><trkpt lat="43.18560762223155" lon="0.9618044098690919"><ele>311.0</ele><time>2026-03-29T13:40:59Z</time></trkpt><trkpt lat="43.18560121679108" lon="0.9617121427890304"><ele>312.5</ele><time>2026-03-29T13:41:06Z</time></trkpt><trkpt lat="43.18567140869529" lon="0.9616089757819762"><ele>314.0</ele><time>2026-03-29T13:41:08Z</time></trkpt><trkpt lat="43.18572745693221" lon="0.9614771348946036"><ele>314.0</ele><time>2026-03-29T13:41:10Z</time></trkpt><trkpt lat="43.18576098761243" lon="0.9613818864972615"><ele>314.0</ele><time>2026-03-29T13:41:11Z</time></trkpt><trkpt lat="43.18578706165478" lon="0.9612152052138814"><ele>314.0</ele><time>2026-03-29T13:41:13Z</time></trkpt><trkpt lat="43.18581196577885" lon="0.9611023388711626"><ele>314.0</ele><time>2026-03-29T13:41:14Z</time></trkpt><trkpt lat="43.18582194085119" lon="0.9609948051179442"><ele>314.0</ele><time>2026-03-29T13:41:15Z</time></trkpt><trkpt lat="43.18583420023422" lon="0.9608845074904047"><ele>314.0</ele><time>2026-03-29T13:41:16Z</time></trkpt><trkpt lat="43.185836566550925" lon="0.9607619288787623"><ele>313.8</ele><time>2026-03-29T13:41:17Z</time></trkpt><trkpt lat="43.185838882506715" lon="0.9606182872101234"><ele>313.59999999999997</ele><time>2026-03-29T13:41:18Z</time></trkpt><trkpt lat="43.185823648666926" lon="0.9604933108970581"><ele>313.4</ele><time>2026-03-29T13:41:19Z</time></trkpt><trkpt lat="43.185824665024484" lon="0.9603172875358478"><ele>313.2</ele><time>2026-03-29T13:41:21Z</time></trkpt><trkpt lat="43.18583013881951" lon="0.9601812087489975"><ele>313.0</ele><time>2026-03-29T13:41:22Z</time></trkpt><trkpt lat="43.185841083280295" lon="0.9600378522838348"><ele>313.66666666666663</ele><time>2026-03-29T13:41:23Z</time></trkpt><trkpt lat="43.1858384536175" lon="0.9599140354943135"><ele>314.3333333333333</ele><time>2026-03-29T13:41:24Z</time></trkpt><trkpt lat="43.18584276600034" lon="0.959819961144632"><ele>315.0</ele><time>2026-03-29T13:41:25Z</time></trkpt><trkpt lat="43.18582673854424" lon="0.9597179803298924"><ele>315.6666666666667</ele><time>2026-03-29T13:41:26Z</time></trkpt><trkpt lat="43.1858112012007" lon="0.9596090170143398"><ele>316.33333333333337</ele><time>2026-03-29T13:41:27Z</time></trkpt><trkpt lat="43.18581689939007" lon="0.9595033130982077"><ele>317.0</ele><time>2026-03-29T13:41:29Z</time></trkpt><trkpt lat="43.1857920539817" lon="0.959423621534976"><ele>317.0</ele><time>2026-03-29T13:41:30Z</time></trkpt><trkpt lat="43.18576733025554" lon="0.9593182255803144"><ele>317.0</ele><time>2026-03-29T13:41:31Z</time></trkpt><trkpt lat="43.185761093251664" lon="0.9591881089217777"><ele>317.0</ele><time>2026-03-29T13:41:34Z</time></trkpt><trkpt lat="43.18576530977695" lon="0.9590347645103516"><ele>317.0</ele><time>2026-03-29T13:41:36Z</time></trkpt><trkpt lat="43.18577294752294" lon="0.9589434096202756"><ele>317.0</ele><time>2026-03-29T13:41:37Z</time></trkpt><trkpt lat="43.18577845056793" lon="0.9588453481542786"><ele>317.0</ele><time>2026-03-29T13:41:38Z</time></trkpt><trkpt lat="43.18578889604277" lon="0.9587593302849253"><ele>317.6666666666667</ele><time>2026-03-29T13:41:40Z</time></trkpt><trkpt lat="43.18578590971361" lon="0.9586318558063439"><ele>318.33333333333337</ele><time>2026-03-29T13:41:42Z</time></trkpt><trkpt lat="43.185784421950714" lon="0.9585153735585756"><ele>319.0</ele><time>2026-03-29T13:41:44Z</time></trkpt><trkpt lat="43.18578408827451" lon="0.9583885775481553"><ele>319.6666666666667</ele><time>2026-03-29T13:41:46Z</time></trkpt><trkpt lat="43.18581302187917" lon="0.958268407733965"><ele>320.3333333333333</ele><time>2026-03-29T13:41:48Z</time></trkpt><trkpt lat="43.1858479993515" lon="0.9581948429588156"><ele>321.0</ele><time>2026-03-29T13:41:50Z</time></trkpt><trkpt lat="43.185859031643574" lon="0.9580691636974746"><ele>321.5</ele><time>2026-03-29T13:41:55Z</time></trkpt><trkpt lat="43.18587854675066" lon="0.9579600676212151"><ele>322.0</ele><time>2026-03-29T13:41:58Z</time></trkpt><trkpt lat="43.18591751542966" lon="0.957874059701712"><ele>322.5</ele><time>2026-03-29T13:42:01Z</time></trkpt><trkpt lat="43.185910024230594" lon="0.9577362595493591"><ele>323.0</ele><time>2026-03-29T13:42:04Z</time></trkpt><trkpt lat="43.18595004081669" lon="0.9576393785428196"><ele>323.5</ele><time>2026-03-29T13:42:07Z</time></trkpt><trkpt lat="43.18597051173851" lon="0.9575419697941053"><ele>324.0</ele><time>2026-03-29T13:42:15Z</time></trkpt><trkpt lat="43.185978740428524" lon="0.9574553305985174"><ele>324.5</ele><time>2026-03-29T13:42:19Z</time></trkpt><trkpt lat="43.18601068694936" lon="0.9573427316314365"><ele>325.0</ele><time>2026-03-29T13:42:24Z</time></trkpt><trkpt lat="43.186023915377106" lon="0.9572140901900295"><ele>325.5</ele><time>2026-03-29T13:42:27Z</time></trkpt><trkpt lat="43.186059670918766" lon="0.9571303210417099"><ele>326.0</ele><time>2026-03-29T13:42:29Z</time></trkpt><trkpt lat="43.186079980738384" lon="0.95701926908385"><ele>326.5</ele><time>2026-03-29T13:42:32Z</time></trkpt><trkpt lat="43.186072538202104" lon="0.9569280465548288"><ele>327.0</ele><time>2026-03-29T13:42:34Z</time></trkpt><trkpt lat="43.186135299800554" lon="0.9569498961032036"><ele>327.0</ele><time>2026-03-29T13:42:37Z</time></trkpt><trkpt lat="43.18604442279014" lon="0.9569474570968951"><ele>327.0</ele><time>2026-03-29T13:42:39Z</time></trkpt><trkpt lat="43.18614897679731" lon="0.9569183626134903"><ele>327.0</ele><time>2026-03-29T13:43:25Z</time></trkpt><trkpt lat="43.1860829644476" lon="0.956915159552262"><ele>327.0</ele><time>2026-03-29T13:43:59Z</time></trkpt><trkpt lat="43.18605024852637" lon="0.9569937159930771"><ele>327.0</ele><time>2026-03-29T13:44:51Z</time></trkpt><trkpt lat="43.186054840940066" lon="0.9570822495113014"><ele>327.0</ele><time>2026-03-29T13:44:57Z</time></trkpt><trkpt lat="43.186085392987735" lon="0.9569873620244719"><ele>327.0</ele><time>2026-03-29T13:45:48Z</time></trkpt><trkpt lat="43.18611135535743" lon="0.9568961434333765"><ele>327.0</ele><time>2026-03-29T13:48:50Z</time></trkpt><trkpt lat="43.18613471491865" lon="0.9567892268689364"><ele>327.0</ele><time>2026-03-29T13:48:54Z</time></trkpt><trkpt lat="43.18616644835722" lon="0.9566949079698653"><ele>327.0</ele><time>2026-03-29T13:48:56Z</time></trkpt><trkpt lat="43.18617592791152" lon="0.9566075999258465"><ele>327.0</ele><time>2026-03-29T13:48:58Z</time></trkpt><trkpt lat="43.18620622214841" lon="0.9564857372299466"><ele>327.0</ele><time>2026-03-29T13:49:00Z</time></trkpt><trkpt lat="43.18623134955438" lon="0.9563578069770384"><ele>327.3333333333333</ele><time>2026-03-29T13:49:03Z</time></trkpt><trkpt lat="43.18627255717963" lon="0.9562265584166052"><ele>327.6666666666667</ele><time>2026-03-29T13:49:05Z</time></trkpt><trkpt lat="43.186313379014884" lon="0.9561053050900102"><ele>328.0</ele><time>2026-03-29T13:49:07Z</time></trkpt><trkpt lat="43.186288263124595" lon="0.956022085673608"><ele>328.33333333333337</ele><time>2026-03-29T13:50:54Z</time></trkpt><trkpt lat="43.18622400741425" lon="0.9559458809196278"><ele>328.6666666666667</ele><time>2026-03-29T13:50:57Z</time></trkpt><trkpt lat="43.18616444525014" lon="0.9558637588244817"><ele>329.0</ele><time>2026-03-29T13:50:59Z</time></trkpt><trkpt lat="43.18610013592096" lon="0.9557544561260652"><ele>330.0</ele><time>2026-03-29T13:51:01Z</time></trkpt><trkpt lat="43.18603069317969" lon="0.9556816344868558"><ele>331.0</ele><time>2026-03-29T13:51:02Z</time></trkpt><trkpt lat="43.18598173333679" lon="0.9555423233328252"><ele>332.0</ele><time>2026-03-29T13:51:04Z</time></trkpt><trkpt lat="43.1859707388113" lon="0.9554336403050813"><ele>333.0</ele><time>2026-03-29T13:51:05Z</time></trkpt><trkpt lat="43.185956520674175" lon="0.9552991015238484"><ele>334.0</ele><time>2026-03-29T13:51:06Z</time></trkpt><trkpt lat="43.185933957344474" lon="0.9552004399212517"><ele>334.0</ele><time>2026-03-29T13:51:07Z</time></trkpt><trkpt lat="43.18591394727237" lon="0.95508440323823"><ele>334.0</ele><time>2026-03-29T13:51:08Z</time></trkpt><trkpt lat="43.18584944641065" lon="0.9549074852731203"><ele>334.0</ele><time>2026-03-29T13:51:09Z</time></trkpt><trkpt lat="43.18582847709238" lon="0.9547550490236248"><ele>334.0</ele><time>2026-03-29T13:51:11Z</time></trkpt><trkpt lat="43.18583025803415" lon="0.9546450291643792"><ele>334.0</ele><time>2026-03-29T13:51:16Z</time></trkpt><trkpt lat="43.18583939642563" lon="0.9545421987842567"><ele>336.0</ele><time>2026-03-29T13:51:18Z</time></trkpt><trkpt lat="43.18583766253335" lon="0.9544002800614539"><ele>338.0</ele><time>2026-03-29T13:51:20Z</time></trkpt><trkpt lat="43.18584457995883" lon="0.9542507122852718"><ele>340.0</ele><time>2026-03-29T13:51:21Z</time></trkpt><trkpt lat="43.18596463972943" lon="0.9539016633468945"><ele>340.66666666666663</ele><time>2026-03-29T13:51:22Z</time></trkpt><trkpt lat="43.185999056608225" lon="0.9537483542384324"><ele>341.3333333333333</ele><time>2026-03-29T13:51:23Z</time></trkpt><trkpt lat="43.186061576241514" lon="0.9535659894559882"><ele>342.0</ele><time>2026-03-29T13:51:24Z</time></trkpt><trkpt lat="43.186159004989484" lon="0.9532981619071671"><ele>343.0</ele><time>2026-03-29T13:51:25Z</time></trkpt><trkpt lat="43.18621670810516" lon="0.9531495242202863"><ele>344.0</ele><time>2026-03-29T13:51:26Z</time></trkpt><trkpt lat="43.18630038889219" lon="0.9529149521164076"><ele>345.0</ele><time>2026-03-29T13:51:27Z</time></trkpt><trkpt lat="43.18637330757546" lon="0.9527385662735555"><ele>345.0</ele><time>2026-03-29T13:51:28Z</time></trkpt><trkpt lat="43.18643540990356" lon="0.9525905380199833"><ele>345.0</ele><time>2026-03-29T13:51:29Z</time></trkpt><trkpt lat="43.186499861147894" lon="0.9524444519997403"><ele>345.0</ele><time>2026-03-29T13:51:30Z</time></trkpt><trkpt lat="43.186541130096984" lon="0.952289196898599"><ele>345.0</ele><time>2026-03-29T13:51:31Z</time></trkpt><trkpt lat="43.18660768790357" lon="0.9521652636371324"><ele>344.8</ele><time>2026-03-29T13:51:32Z</time></trkpt><trkpt lat="43.18664795092258" lon="0.9520253012178064"><ele>344.6</ele><time>2026-03-29T13:51:33Z</time></trkpt><trkpt lat="43.186642397070116" lon="0.9518964413634845"><ele>344.4</ele><time>2026-03-29T13:51:34Z</time></trkpt><trkpt lat="43.186689724745875" lon="0.9517925445572791"><ele>344.2</ele><time>2026-03-29T13:51:35Z</time></trkpt><trkpt lat="43.186716025533435" lon="0.9517112904241332"><ele>344.0</ele><time>2026-03-29T13:51:36Z</time></trkpt><trkpt lat="43.18679202353191" lon="0.9515501383678944"><ele>344.0</ele><time>2026-03-29T13:51:38Z</time></trkpt><trkpt lat="43.18674013275626" lon="0.9517067586975857"><ele>344.0</ele><time>2026-03-29T13:54:02Z</time></trkpt><trkpt lat="43.18670208625182" lon="0.9517895544112691"><ele>344.0</ele><time>2026-03-29T13:54:03Z</time></trkpt><trkpt lat="43.186680611205226" lon="0.9519356391654541"><ele>344.0</ele><time>2026-03-29T13:54:04Z</time></trkpt><trkpt lat="43.18661904227795" lon="0.952125302586738"><ele>344.2</ele><time>2026-03-29T13:54:05Z</time></trkpt><trkpt lat="43.18656505451196" lon="0.9522669008492586"><ele>344.4</ele><time>2026-03-29T13:54:06Z</time></trkpt><trkpt lat="43.18650362554297" lon="0.9523762133657089"><ele>344.6</ele><time>2026-03-29T13:54:07Z</time></trkpt><trkpt lat="43.18647393829968" lon="0.9525237029238899"><ele>344.8</ele><time>2026-03-29T13:54:08Z</time></trkpt><trkpt lat="43.18646876293902" lon="0.952686030323251"><ele>345.0</ele><time>2026-03-29T13:54:09Z</time></trkpt><trkpt lat="43.18644447875314" lon="0.9528506273706762"><ele>345.0</ele><time>2026-03-29T13:54:10Z</time></trkpt><trkpt lat="43.1863986800719" lon="0.9530348957187537"><ele>345.0</ele><time>2026-03-29T13:54:11Z</time></trkpt><trkpt lat="43.18632645808889" lon="0.9532544453579394"><ele>345.0</ele><time>2026-03-29T13:54:12Z</time></trkpt><trkpt lat="43.1862853971228" lon="0.9534128038814086"><ele>345.0</ele><time>2026-03-29T13:54:13Z</time></trkpt><trkpt lat="43.186253344710025" lon="0.9535660007687861"><ele>344.25</ele><time>2026-03-29T13:54:14Z</time></trkpt><trkpt lat="43.18619429018272" lon="0.953738956529512"><ele>343.5</ele><time>2026-03-29T13:54:15Z</time></trkpt><trkpt lat="43.18616130677012" lon="0.9539176092708743"><ele>342.75</ele><time>2026-03-29T13:54:16Z</time></trkpt><trkpt lat="43.18611380643222" lon="0.9540804255792695"><ele>342.0</ele><time>2026-03-29T13:54:17Z</time></trkpt><trkpt lat="43.186094531890674" lon="0.9542301466462961"><ele>341.6</ele><time>2026-03-29T13:54:18Z</time></trkpt><trkpt lat="43.186037423497424" lon="0.9543383441531554"><ele>341.20000000000005</ele><time>2026-03-29T13:54:19Z</time></trkpt><trkpt lat="43.18600192170575" lon="0.9544429699320817"><ele>340.8</ele><time>2026-03-29T13:54:20Z</time></trkpt><trkpt lat="43.185948348509484" lon="0.9545365449018759"><ele>340.4</ele><time>2026-03-29T13:54:21Z</time></trkpt><trkpt lat="43.185893475222734" lon="0.9546429654218764"><ele>340.0</ele><time>2026-03-29T13:54:23Z</time></trkpt><trkpt lat="43.185917091396476" lon="0.9544891291687312"><ele>340.0</ele><time>2026-03-29T13:56:04Z</time></trkpt><trkpt lat="43.185947963023025" lon="0.9543449312267798"><ele>340.0</ele><time>2026-03-29T13:56:15Z</time></trkpt><trkpt lat="43.18595197419081" lon="0.954155646716365"><ele>340.0</ele><time>2026-03-29T13:56:17Z</time></trkpt><trkpt lat="43.18608014172707" lon="0.9539252969435654"><ele>340.66666666666663</ele><time>2026-03-29T13:56:18Z</time></trkpt><trkpt lat="43.18614263481728" lon="0.9536986501761268"><ele>341.3333333333333</ele><time>2026-03-29T13:56:19Z</time></trkpt><trkpt lat="43.1862030684612" lon="0.9534354967968874"><ele>342.0</ele><time>2026-03-29T13:56:20Z</time></trkpt><trkpt lat="43.186283274617196" lon="0.9532161898495943"><ele>342.75</ele><time>2026-03-29T13:56:21Z</time></trkpt><trkpt lat="43.18633185286294" lon="0.9530403765709374"><ele>343.5</ele><time>2026-03-29T13:56:22Z</time></trkpt><trkpt lat="43.18637772200459" lon="0.9528581459273354"><ele>344.25</ele><time>2026-03-29T13:56:23Z</time></trkpt><trkpt lat="43.186381002218035" lon="0.9527350324945365"><ele>345.0</ele><time>2026-03-29T13:56:24Z</time></trkpt><trkpt lat="43.18643209965554" lon="0.9525586821595337"><ele>346.25</ele><time>2026-03-29T13:56:25Z</time></trkpt><trkpt lat="43.18650137421666" lon="0.9523452982462317"><ele>347.5</ele><time>2026-03-29T13:56:26Z</time></trkpt><trkpt lat="43.186531588185545" lon="0.9521886470967994"><ele>348.75</ele><time>2026-03-29T13:56:27Z</time></trkpt><trkpt lat="43.18653636447051" lon="0.9520481795466607"><ele>350.0</ele><time>2026-03-29T13:56:28Z</time></trkpt><trkpt lat="43.18659229861542" lon="0.9518805007304131"><ele>348.5</ele><time>2026-03-29T13:56:29Z</time></trkpt><trkpt lat="43.186649168231256" lon="0.951721043229899"><ele>347.0</ele><time>2026-03-29T13:56:30Z</time></trkpt><trkpt lat="43.186705245096775" lon="0.9515765003753155"><ele>345.5</ele><time>2026-03-29T13:56:31Z</time></trkpt><trkpt lat="43.186768316633895" lon="0.9514423268910416"><ele>344.0</ele><time>2026-03-29T13:56:32Z</time></trkpt><trkpt lat="43.18684382738053" lon="0.9513362403376222"><ele>344.0</ele><time>2026-03-29T13:56:33Z</time></trkpt><trkpt lat="43.186912697508546" lon="0.9512020023874252"><ele>344.0</ele><time>2026-03-29T13:56:34Z</time></trkpt><trkpt lat="43.186952868571126" lon="0.9511280345053102"><ele>344.0</ele><time>2026-03-29T13:56:35Z</time></trkpt><trkpt lat="43.18699649995594" lon="0.9510353877239427"><ele>344.0</ele><time>2026-03-29T13:56:38Z</time></trkpt><trkpt lat="43.18704450426914" lon="0.9509646422455826"><ele>344.0</ele><time>2026-03-29T13:56:40Z</time></trkpt><trkpt lat="43.187104614062626" lon="0.95083902983667"><ele>344.0</ele><time>2026-03-29T13:56:42Z</time></trkpt><trkpt lat="43.18714707576811" lon="0.9507091885430268"><ele>344.2</ele><time>2026-03-29T13:56:44Z</time></trkpt><trkpt lat="43.18715104550677" lon="0.9505898274775987"><ele>344.4</ele><time>2026-03-29T13:56:45Z</time></trkpt><trkpt lat="43.18717714823167" lon="0.9504481706316859"><ele>344.6</ele><time>2026-03-29T13:56:46Z</time></trkpt><trkpt lat="43.18720880484867" lon="0.9503147575163845"><ele>344.8</ele><time>2026-03-29T13:56:47Z</time></trkpt><trkpt lat="43.18722835002105" lon="0.9501301725926451"><ele>345.0</ele><time>2026-03-29T13:56:49Z</time></trkpt><trkpt lat="43.18722901734333" lon="0.9500272323997655"><ele>345.0</ele><time>2026-03-29T13:56:50Z</time></trkpt><trkpt lat="43.18727189766372" lon="0.9498770258569423"><ele>345.0</ele><time>2026-03-29T13:56:52Z</time></trkpt><trkpt lat="43.18733192540555" lon="0.949767853107329"><ele>345.0</ele><time>2026-03-29T13:56:54Z</time></trkpt><trkpt lat="43.187410019553255" lon="0.9497687140957258"><ele>345.0</ele><time>2026-03-29T13:56:56Z</time></trkpt><trkpt lat="43.18748176818995" lon="0.9497811009612942"><ele>345.0</ele><time>2026-03-29T13:56:58Z</time></trkpt><trkpt lat="43.187542862567724" lon="0.9497577619330069"><ele>345.0</ele><time>2026-03-29T13:56:59Z</time></trkpt><trkpt lat="43.18769904437249" lon="0.9497264649303109"><ele>344.2</ele><time>2026-03-29T13:57:01Z</time></trkpt><trkpt lat="43.18777846529223" lon="0.9496991250629487"><ele>343.4</ele><time>2026-03-29T13:57:02Z</time></trkpt><trkpt lat="43.18785251019363" lon="0.9495553587254654"><ele>342.6</ele><time>2026-03-29T13:57:04Z</time></trkpt><trkpt lat="43.18788895577671" lon="0.9494498111346477"><ele>341.8</ele><time>2026-03-29T13:57:05Z</time></trkpt><trkpt lat="43.18794219490083" lon="0.9493159069634544"><ele>341.0</ele><time>2026-03-29T13:57:06Z</time></trkpt><trkpt lat="43.18802157126705" lon="0.9491611456424832"><ele>341.0</ele><time>2026-03-29T13:57:07Z</time></trkpt><trkpt lat="43.18809352813523" lon="0.9490576915001118"><ele>341.0</ele><time>2026-03-29T13:57:08Z</time></trkpt><trkpt lat="43.188162198836466" lon="0.9489803655519337"><ele>341.0</ele><time>2026-03-29T13:57:09Z</time></trkpt><trkpt lat="43.18824472202006" lon="0.9489063861114748"><ele>341.0</ele><time>2026-03-29T13:57:10Z</time></trkpt><trkpt lat="43.18831844277061" lon="0.948819380908165"><ele>341.0</ele><time>2026-03-29T13:57:11Z</time></trkpt><trkpt lat="43.18837160135366" lon="0.9487180441998759"><ele>341.20000000000005</ele><time>2026-03-29T13:57:12Z</time></trkpt><trkpt lat="43.18841587108285" lon="0.9486438014988627"><ele>341.40000000000003</ele><time>2026-03-29T13:57:13Z</time></trkpt><trkpt lat="43.188469342801255" lon="0.9485023037914766"><ele>341.6</ele><time>2026-03-29T13:57:15Z</time></trkpt><trkpt lat="43.18851060717043" lon="0.9483856004608113"><ele>341.8</ele><time>2026-03-29T13:57:16Z</time></trkpt><trkpt lat="43.18854999792556" lon="0.9482885365825034"><ele>342.0</ele><time>2026-03-29T13:57:17Z</time></trkpt><trkpt lat="43.18859317735309" lon="0.9481668295105109"><ele>342.20000000000005</ele><time>2026-03-29T13:57:18Z</time></trkpt><trkpt lat="43.18864290106281" lon="0.9480483581497521"><ele>342.4</ele><time>2026-03-29T13:57:19Z</time></trkpt><trkpt lat="43.188679444886404" lon="0.9479341310554681"><ele>342.6</ele><time>2026-03-29T13:57:20Z</time></trkpt><trkpt lat="43.18872735889252" lon="0.9478441038312942"><ele>342.79999999999995</ele><time>2026-03-29T13:57:21Z</time></trkpt><trkpt lat="43.18879550069808" lon="0.947715541453236"><ele>343.0</ele><time>2026-03-29T13:57:22Z</time></trkpt><trkpt lat="43.18882763108495" lon="0.9476353896809049"><ele>343.0</ele><time>2026-03-29T13:57:23Z</time></trkpt><trkpt lat="43.188886463784975" lon="0.9475529308558986"><ele>343.0</ele><time>2026-03-29T13:57:24Z</time></trkpt><trkpt lat="43.18894673897555" lon="0.9474406965367737"><ele>343.0</ele><time>2026-03-29T13:57:25Z</time></trkpt><trkpt lat="43.18899128947361" lon="0.9473537649815306"><ele>343.0</ele><time>2026-03-29T13:57:26Z</time></trkpt><trkpt lat="43.18904779175173" lon="0.9472744777391201"><ele>343.0</ele><time>2026-03-29T13:57:27Z</time></trkpt><trkpt lat="43.18909824561241" lon="0.9472207854297156"><ele>343.0</ele><time>2026-03-29T13:57:28Z</time></trkpt><trkpt lat="43.18913618057331" lon="0.9471298058529739"><ele>344.5</ele><time>2026-03-29T13:57:29Z</time></trkpt><trkpt lat="43.189180086132986" lon="0.9470199502538255"><ele>346.0</ele><time>2026-03-29T13:57:30Z</time></trkpt><trkpt lat="43.18921615787724" lon="0.9469103310759394"><ele>347.5</ele><time>2026-03-29T13:57:31Z</time></trkpt><trkpt lat="43.18925291501705" lon="0.9467908105160827"><ele>349.0</ele><time>2026-03-29T13:57:32Z</time></trkpt><trkpt lat="43.18928647216809" lon="0.9466934380802795"><ele>350.5</ele><time>2026-03-29T13:57:33Z</time></trkpt><trkpt lat="43.189315366146076" lon="0.9465970296945276"><ele>352.0</ele><time>2026-03-29T13:57:34Z</time></trkpt><trkpt lat="43.18933578702976" lon="0.9464935338771177"><ele>352.0</ele><time>2026-03-29T13:57:35Z</time></trkpt><trkpt lat="43.189373298663426" lon="0.9464079639466727"><ele>352.0</ele><time>2026-03-29T13:57:36Z</time></trkpt><trkpt lat="43.189416745434485" lon="0.9463246258259196"><ele>352.0</ele><time>2026-03-29T13:57:37Z</time></trkpt><trkpt lat="43.18946789334128" lon="0.9462436725772366"><ele>352.0</ele><time>2026-03-29T13:57:38Z</time></trkpt><trkpt lat="43.18952556787448" lon="0.9461463267556207"><ele>352.0</ele><time>2026-03-29T13:57:39Z</time></trkpt><trkpt lat="43.18958429009976" lon="0.9460659614397856"><ele>352.0</ele><time>2026-03-29T13:57:40Z</time></trkpt><trkpt lat="43.18966059804544" lon="0.9459859648754897"><ele>352.0</ele><time>2026-03-29T13:57:41Z</time></trkpt><trkpt lat="43.18972355975871" lon="0.9459147652626012"><ele>352.0</ele><time>2026-03-29T13:57:42Z</time></trkpt><trkpt lat="43.18979122602325" lon="0.9458868692995887"><ele>352.0</ele><time>2026-03-29T13:57:43Z</time></trkpt><trkpt lat="43.189858853907815" lon="0.9458740802972582"><ele>352.0</ele><time>2026-03-29T13:57:44Z</time></trkpt><trkpt lat="43.189955832943696" lon="0.9458538671916609"><ele>352.0</ele><time>2026-03-29T13:57:45Z</time></trkpt><trkpt lat="43.19002773470397" lon="0.9458314904124566"><ele>352.0</ele><time>2026-03-29T13:57:46Z</time></trkpt><trkpt lat="43.19011057918284" lon="0.9457690087610644"><ele>354.25</ele><time>2026-03-29T13:57:47Z</time></trkpt><trkpt lat="43.19019618227754" lon="0.9456473573666357"><ele>356.5</ele><time>2026-03-29T13:57:48Z</time></trkpt><trkpt lat="43.190255546500566" lon="0.9455585644919656"><ele>358.75</ele><time>2026-03-29T13:57:49Z</time></trkpt><trkpt lat="43.19037488074561" lon="0.9454440755511938"><ele>361.0</ele><time>2026-03-29T13:57:50Z</time></trkpt><trkpt lat="43.190470575030396" lon="0.9453555360085957"><ele>361.0</ele><time>2026-03-29T13:57:51Z</time></trkpt><trkpt lat="43.190552358875124" lon="0.9452857898299895"><ele>361.0</ele><time>2026-03-29T13:57:52Z</time></trkpt><trkpt lat="43.190645297838984" lon="0.9452097708085467"><ele>361.0</ele><time>2026-03-29T13:57:53Z</time></trkpt><trkpt lat="43.19072808350134" lon="0.9451291604121701"><ele>361.0</ele><time>2026-03-29T13:57:54Z</time></trkpt><trkpt lat="43.190801611799365" lon="0.9450580934635159"><ele>361.0</ele><time>2026-03-29T13:57:55Z</time></trkpt><trkpt lat="43.19086453498808" lon="0.9450138521893531"><ele>362.16666666666663</ele><time>2026-03-29T13:57:56Z</time></trkpt><trkpt lat="43.19093301295741" lon="0.9449534252560056"><ele>363.3333333333333</ele><time>2026-03-29T13:57:57Z</time></trkpt><trkpt lat="43.19099525296693" lon="0.944936588587945"><ele>364.5</ele><time>2026-03-29T13:57:58Z</time></trkpt><trkpt lat="43.190910210292216" lon="0.944918374345532"><ele>365.6666666666667</ele><time>2026-03-29T13:57:59Z</time></trkpt><trkpt lat="43.19097422781815" lon="0.9448406976497102"><ele>366.83333333333337</ele><time>2026-03-29T13:58:18Z</time></trkpt><trkpt lat="43.1909801860602" lon="0.9446602340543695"><ele>368.0</ele><time>2026-03-29T13:58:20Z</time></trkpt><trkpt lat="43.19101995891152" lon="0.944493567667178"><ele>368.0</ele><time>2026-03-29T13:58:21Z</time></trkpt><trkpt lat="43.19107867410595" lon="0.9443578737179279"><ele>368.0</ele><time>2026-03-29T13:58:22Z</time></trkpt><trkpt lat="43.19116198006907" lon="0.9442198333701076"><ele>368.0</ele><time>2026-03-29T13:58:23Z</time></trkpt><trkpt lat="43.19119212694418" lon="0.9441133516689227"><ele>368.0</ele><time>2026-03-29T13:58:24Z</time></trkpt><trkpt lat="43.19117744886149" lon="0.9440147461982666"><ele>368.0</ele><time>2026-03-29T13:58:26Z</time></trkpt><trkpt lat="43.191239437456204" lon="0.9440663650076979"><ele>368.5</ele><time>2026-03-29T13:58:32Z</time></trkpt><trkpt lat="43.19133508634755" lon="0.9441015441252479"><ele>369.0</ele><time>2026-03-29T14:00:43Z</time></trkpt><trkpt lat="43.191400700677995" lon="0.9440678947640297"><ele>369.5</ele><time>2026-03-29T14:00:49Z</time></trkpt><trkpt lat="43.19147041885991" lon="0.9439953375804528"><ele>370.0</ele><time>2026-03-29T14:00:51Z</time></trkpt><trkpt lat="43.19150232224198" lon="0.9439203162545775"><ele>370.5</ele><time>2026-03-29T14:00:53Z</time></trkpt><trkpt lat="43.191579236402205" lon="0.9439261312478695"><ele>371.0</ele><time>2026-03-29T14:00:58Z</time></trkpt><trkpt lat="43.19164140140777" lon="0.9439095753890206"><ele>371.0</ele><time>2026-03-29T14:01:22Z</time></trkpt><trkpt lat="43.19170677699809" lon="0.9438857089973581"><ele>371.0</ele><time>2026-03-29T14:01:33Z</time></trkpt><trkpt lat="43.19163986759373" lon="0.9439585551049353"><ele>371.0</ele><time>2026-03-29T14:02:24Z</time></trkpt><trkpt lat="43.191677348372394" lon="0.943878580790761"><ele>371.0</ele><time>2026-03-29T14:02:32Z</time></trkpt><trkpt lat="43.19165666013936" lon="0.9437523489022422"><ele>371.0</ele><time>2026-03-29T14:03:00Z</time></trkpt><trkpt lat="43.19175838689019" lon="0.9438068350371694"><ele>371.0</ele><time>2026-03-29T14:03:04Z</time></trkpt><trkpt lat="43.191818831017116" lon="0.9438374083093778"><ele>371.0</ele><time>2026-03-29T14:03:07Z</time></trkpt><trkpt lat="43.191946352147966" lon="0.9438706076030857"><ele>371.0</ele><time>2026-03-29T14:14:53Z</time></trkpt><trkpt lat="43.19189470727885" lon="0.9438161431892589"><ele>371.0</ele><time>2026-03-29T14:17:05Z</time></trkpt><trkpt lat="43.19188170510852" lon="0.9439116773588883"><ele>371.0</ele><time>2026-03-29T14:17:10Z</time></trkpt><trkpt lat="43.19195645620128" lon="0.9439779198195093"><ele>371.0</ele><time>2026-03-29T14:17:34Z</time></trkpt><trkpt lat="43.19204515847107" lon="0.9440261482575525"><ele>371.0</ele><time>2026-03-29T14:17:37Z</time></trkpt><trkpt lat="43.19210281235364" lon="0.9440702953623723"><ele>371.0</ele><time>2026-03-29T14:17:39Z</time></trkpt><trkpt lat="43.19215205181288" lon="0.9441480726207306"><ele>371.0</ele><time>2026-03-29T14:17:41Z</time></trkpt><trkpt lat="43.19223349153535" lon="0.9442184193005342"><ele>371.0</ele><time>2026-03-29T14:17:44Z</time></trkpt><trkpt lat="43.192290077506215" lon="0.9442952073021925"><ele>371.0</ele><time>2026-03-29T14:17:46Z</time></trkpt><trkpt lat="43.19233626963414" lon="0.9443973927369305"><ele>371.0</ele><time>2026-03-29T14:17:48Z</time></trkpt><trkpt lat="43.19236391246436" lon="0.9444927323454952"><ele>373.83333333333337</ele><time>2026-03-29T14:17:50Z</time></trkpt><trkpt lat="43.192381540512955" lon="0.9446081380380644"><ele>376.6666666666667</ele><time>2026-03-29T14:17:53Z</time></trkpt><trkpt lat="43.192416535094694" lon="0.9447214303473356"><ele>379.5</ele><time>2026-03-29T14:17:55Z</time></trkpt><trkpt lat="43.19245067793979" lon="0.9448285823512872"><ele>382.33333333333337</ele><time>2026-03-29T14:17:57Z</time></trkpt><trkpt lat="43.19245965222573" lon="0.9449194200240526"><ele>385.1666666666667</ele><time>2026-03-29T14:17:59Z</time></trkpt><trkpt lat="43.192442963622774" lon="0.9450114974863036"><ele>388.0</ele><time>2026-03-29T14:18:01Z</time></trkpt><trkpt lat="43.19242238888816" lon="0.9451275187706822"><ele>387.4</ele><time>2026-03-29T14:18:03Z</time></trkpt><trkpt lat="43.192390100235954" lon="0.9452353707857251"><ele>386.79999999999995</ele><time>2026-03-29T14:18:05Z</time></trkpt><trkpt lat="43.1923878650146" lon="0.9453686338819082"><ele>386.2</ele><time>2026-03-29T14:18:07Z</time></trkpt><trkpt lat="43.19238592064748" lon="0.9455347859704644"><ele>385.6</ele><time>2026-03-29T14:18:09Z</time></trkpt><trkpt lat="43.192373537360744" lon="0.9456346373544094"><ele>385.0</ele><time>2026-03-29T14:18:10Z</time></trkpt><trkpt lat="43.19232102206782" lon="0.9457558180884623"><ele>385.00000000000006</ele><time>2026-03-29T14:18:12Z</time></trkpt><trkpt lat="43.192296290030406" lon="0.9458382467791109"><ele>385.0</ele><time>2026-03-29T14:18:16Z</time></trkpt><trkpt lat="43.19226462122936" lon="0.9459207467874133"><ele>385.0</ele><time>2026-03-29T14:18:19Z</time></trkpt><trkpt lat="43.1922629435835" lon="0.9460452952553727"><ele>385.0</ele><time>2026-03-29T14:18:22Z</time></trkpt><trkpt lat="43.192208226420114" lon="0.9461355065215479"><ele>385.00000000000006</ele><time>2026-03-29T14:18:26Z</time></trkpt><trkpt lat="43.19210758059391" lon="0.9462599406569318"><ele>385.0</ele><time>2026-03-29T14:18:28Z</time></trkpt><trkpt lat="43.192073790676304" lon="0.9463465849360718"><ele>386.6666666666667</ele><time>2026-03-29T14:18:29Z</time></trkpt><trkpt lat="43.19213724884729" lon="0.9466845919653135"><ele>388.33333333333337</ele><time>2026-03-29T14:18:31Z</time></trkpt><trkpt lat="43.192179756560435" lon="0.9467847437281787"><ele>390.0</ele><time>2026-03-29T14:18:33Z</time></trkpt><trkpt lat="43.192299880356636" lon="0.9468453699480383"><ele>392.8</ele><time>2026-03-29T14:18:39Z</time></trkpt><trkpt lat="43.19237198828693" lon="0.9469094036645204"><ele>395.6</ele><time>2026-03-29T14:18:42Z</time></trkpt><trkpt lat="43.19238579208244" lon="0.9470031682698132"><ele>398.4</ele><time>2026-03-29T14:18:43Z</time></trkpt><trkpt lat="43.19241356005905" lon="0.9471591801941761"><ele>401.2</ele><time>2026-03-29T14:18:45Z</time></trkpt><trkpt lat="43.19241989211633" lon="0.9473035991378721"><ele>404.0</ele><time>2026-03-29T14:18:47Z</time></trkpt><trkpt lat="43.19243367358271" lon="0.9474626592244002"><ele>404.57142857142856</ele><time>2026-03-29T14:18:49Z</time></trkpt><trkpt lat="43.19245348307859" lon="0.9475449868076038"><ele>405.1428571428571</ele><time>2026-03-29T14:18:50Z</time></trkpt><trkpt lat="43.19249446029419" lon="0.9476241620325824"><ele>405.7142857142857</ele><time>2026-03-29T14:18:51Z</time></trkpt><trkpt lat="43.192536230520574" lon="0.9476968962070493"><ele>406.2857142857143</ele><time>2026-03-29T14:18:52Z</time></trkpt><trkpt lat="43.19258502268851" lon="0.9477716818078559"><ele>406.8571428571429</ele><time>2026-03-29T14:18:53Z</time></trkpt><trkpt lat="43.19259227251244" lon="0.94790698343741"><ele>407.42857142857144</ele><time>2026-03-29T14:18:55Z</time></trkpt><trkpt lat="43.192600166542874" lon="0.9480092607124139"><ele>408.0</ele><time>2026-03-29T14:18:57Z</time></trkpt><trkpt lat="43.192628281381516" lon="0.9481489366022218"><ele>408.0</ele><time>2026-03-29T14:19:01Z</time></trkpt><trkpt lat="43.19263533833664" lon="0.9482413847708506"><ele>408.0</ele><time>2026-03-29T14:19:04Z</time></trkpt><trkpt lat="43.192700920623984" lon="0.9483371570955084"><ele>408.0</ele><time>2026-03-29T14:19:06Z</time></trkpt><trkpt lat="43.19276565281368" lon="0.9484187555159214"><ele>408.0</ele><time>2026-03-29T14:19:07Z</time></trkpt><trkpt lat="43.19280691021007" lon="0.9485295579444063"><ele>408.0</ele><time>2026-03-29T14:19:08Z</time></trkpt><trkpt lat="43.19282041373446" lon="0.9486459296743724"><ele>408.0</ele><time>2026-03-29T14:19:09Z</time></trkpt><trkpt lat="43.1928247120528" lon="0.9487524249500601"><ele>409.1666666666667</ele><time>2026-03-29T14:19:10Z</time></trkpt><trkpt lat="43.19282709237798" lon="0.948882382096067"><ele>410.33333333333337</ele><time>2026-03-29T14:19:11Z</time></trkpt><trkpt lat="43.19279694463962" lon="0.9490241590552254"><ele>411.5</ele><time>2026-03-29T14:19:12Z</time></trkpt><trkpt lat="43.192788374201506" lon="0.9491618770786809"><ele>412.6666666666667</ele><time>2026-03-29T14:19:13Z</time></trkpt><trkpt lat="43.1927843327665" lon="0.9492612324675594"><ele>413.83333333333337</ele><time>2026-03-29T14:19:14Z</time></trkpt><trkpt lat="43.19278026373801" lon="0.9493612664118928"><ele>415.0</ele><time>2026-03-29T14:19:15Z</time></trkpt><trkpt lat="43.19274205672378" lon="0.9494438097015688"><ele>415.33333333333337</ele><time>2026-03-29T14:19:16Z</time></trkpt><trkpt lat="43.19276125269836" lon="0.949526057888437"><ele>415.6666666666667</ele><time>2026-03-29T14:19:17Z</time></trkpt><trkpt lat="43.192798164983955" lon="0.9496720572285414"><ele>416.0</ele><time>2026-03-29T14:19:19Z</time></trkpt><trkpt lat="43.19283926802982" lon="0.9497412977266851"><ele>416.33333333333337</ele><time>2026-03-29T14:19:20Z</time></trkpt><trkpt lat="43.19288791201894" lon="0.9498177529429362"><ele>416.6666666666667</ele><time>2026-03-29T14:19:21Z</time></trkpt><trkpt lat="43.192937979869086" lon="0.9498834642901666"><ele>417.0</ele><time>2026-03-29T14:19:22Z</time></trkpt><trkpt lat="43.193023534369964" lon="0.9499015936044909"><ele>417.0</ele><time>2026-03-29T14:19:24Z</time></trkpt><trkpt lat="43.193085418444255" lon="0.9499328062637948"><ele>417.0</ele><time>2026-03-29T14:19:28Z</time></trkpt><trkpt lat="43.19314780353957" lon="0.949954203014583"><ele>417.0</ele><time>2026-03-29T14:19:29Z</time></trkpt><trkpt lat="43.193227661574305" lon="0.9500147555279691"><ele>417.0</ele><time>2026-03-29T14:19:30Z</time></trkpt><trkpt lat="43.19330858603787" lon="0.9500417981336529"><ele>417.0</ele><time>2026-03-29T14:19:31Z</time></trkpt><trkpt lat="43.193384097847165" lon="0.9500549063861603"><ele>417.0</ele><time>2026-03-29T14:19:32Z</time></trkpt><trkpt lat="43.19344808618726" lon="0.9500407418093089"><ele>417.0</ele><time>2026-03-29T14:19:35Z</time></trkpt><trkpt lat="43.19354404469292" lon="0.9500365363873732"><ele>417.6666666666667</ele><time>2026-03-29T14:19:38Z</time></trkpt><trkpt lat="43.193644283198594" lon="0.9500435740011365"><ele>418.33333333333337</ele><time>2026-03-29T14:19:41Z</time></trkpt><trkpt lat="43.193731619803884" lon="0.9500203905314828"><ele>419.0</ele><time>2026-03-29T14:19:44Z</time></trkpt><trkpt lat="43.193817011508955" lon="0.949999864946712"><ele>419.6666666666667</ele><time>2026-03-29T14:19:47Z</time></trkpt><trkpt lat="43.19388756192482" lon="0.9499704344695237"><ele>420.33333333333337</ele><time>2026-03-29T14:19:48Z</time></trkpt><trkpt lat="43.19393521103256" lon="0.9498923193826835"><ele>421.0</ele><time>2026-03-29T14:19:50Z</time></trkpt><trkpt lat="43.19398023242866" lon="0.9498206840534249"><ele>421.4</ele><time>2026-03-29T14:19:52Z</time></trkpt><trkpt lat="43.19402446631973" lon="0.9497460933886144"><ele>421.8</ele><time>2026-03-29T14:19:55Z</time></trkpt><trkpt lat="43.19412536229611" lon="0.949669563304795"><ele>422.2</ele><time>2026-03-29T14:19:57Z</time></trkpt><trkpt lat="43.1942263101237" lon="0.9495889531939482"><ele>422.59999999999997</ele><time>2026-03-29T14:19:59Z</time></trkpt><trkpt lat="43.19432509958094" lon="0.9495294835942067"><ele>423.0</ele><time>2026-03-29T14:20:01Z</time></trkpt><trkpt lat="43.194396150864144" lon="0.9494534355228536"><ele>423.0</ele><time>2026-03-29T14:20:02Z</time></trkpt><trkpt lat="43.19445811647647" lon="0.949422664834402"><ele>423.0</ele><time>2026-03-29T14:20:03Z</time></trkpt><trkpt lat="43.19457303600641" lon="0.9493488325136131"><ele>423.0</ele><time>2026-03-29T14:20:05Z</time></trkpt><trkpt lat="43.19464521019017" lon="0.9492583033462105"><ele>423.0</ele><time>2026-03-29T14:20:07Z</time></trkpt><trkpt lat="43.19470808109681" lon="0.9491656082411192"><ele>423.0</ele><time>2026-03-29T14:20:09Z</time></trkpt><trkpt lat="43.19481478062714" lon="0.9490387615987536"><ele>424.3333333333333</ele><time>2026-03-29T14:20:11Z</time></trkpt><trkpt lat="43.194881244809785" lon="0.9490131424600322"><ele>425.66666666666663</ele><time>2026-03-29T14:20:12Z</time></trkpt><trkpt lat="43.19494581821224" lon="0.9490114156814223"><ele>427.0</ele><time>2026-03-29T14:20:13Z</time></trkpt><trkpt lat="43.195054069078935" lon="0.9490642536292353"><ele>428.3333333333333</ele><time>2026-03-29T14:20:15Z</time></trkpt><trkpt lat="43.19512005903406" lon="0.9491405198290989"><ele>429.66666666666663</ele><time>2026-03-29T14:20:16Z</time></trkpt><trkpt lat="43.19518551606071" lon="0.9492013809994742"><ele>431.0</ele><time>2026-03-29T14:20:17Z</time></trkpt><trkpt lat="43.19525381739887" lon="0.9492424418402926"><ele>431.8</ele><time>2026-03-29T14:20:18Z</time></trkpt><trkpt lat="43.19523749043237" lon="0.9493787266241612"><ele>432.6</ele><time>2026-03-29T14:20:20Z</time></trkpt><trkpt lat="43.19518359054177" lon="0.9496094434558675"><ele>433.4</ele><time>2026-03-29T14:20:22Z</time></trkpt><trkpt lat="43.19514691635999" lon="0.9497363505703798"><ele>434.2</ele><time>2026-03-29T14:20:23Z</time></trkpt><trkpt lat="43.19511264097619" lon="0.9498235711894856"><ele>435.0</ele><time>2026-03-29T14:20:24Z</time></trkpt><trkpt lat="43.19505971202253" lon="0.9499588520657422"><ele>434.8333333333333</ele><time>2026-03-29T14:20:26Z</time></trkpt><trkpt lat="43.19500244019549" lon="0.9500911857755275"><ele>434.66666666666663</ele><time>2026-03-29T14:20:28Z</time></trkpt><trkpt lat="43.19498466388749" lon="0.9501971672976016"><ele>434.5</ele><time>2026-03-29T14:20:29Z</time></trkpt><trkpt lat="43.19496179513615" lon="0.9503103525863502"><ele>434.3333333333333</ele><time>2026-03-29T14:20:30Z</time></trkpt><trkpt lat="43.1949561451709" lon="0.9504139066308874"><ele>434.16666666666663</ele><time>2026-03-29T14:20:32Z</time></trkpt><trkpt lat="43.195021082679226" lon="0.9505071056209489"><ele>434.0</ele><time>2026-03-29T14:20:34Z</time></trkpt><trkpt lat="43.195125842712955" lon="0.950618150527193"><ele>433.99999999999994</ele><time>2026-03-29T14:20:36Z</time></trkpt><trkpt lat="43.19519922935238" lon="0.9506322973088298"><ele>434.0</ele><time>2026-03-29T14:20:37Z</time></trkpt><trkpt lat="43.19529103009319" lon="0.9506847134837474"><ele>434.0</ele><time>2026-03-29T14:20:40Z</time></trkpt><trkpt lat="43.19533048596838" lon="0.950791578192118"><ele>434.0</ele><time>2026-03-29T14:20:43Z</time></trkpt><trkpt lat="43.195381686917656" lon="0.9508664824863335"><ele>433.99999999999994</ele><time>2026-03-29T14:20:45Z</time></trkpt><trkpt lat="43.1954123714542" lon="0.9509791393851559"><ele>434.0</ele><time>2026-03-29T14:20:48Z</time></trkpt><trkpt lat="43.19133508634755" lon="0.9441015441252479"><ele>425.0</ele><time>2026-03-29T14:00:43Z</time></trkpt><trkpt lat="43.191400700677995" lon="0.9440678947640297"><ele>416.0</ele><time>2026-03-29T14:00:49Z</time></trkpt><trkpt lat="43.19147041885991" lon="0.9439953375804528"><ele>407.0</ele><time>2026-03-29T14:00:51Z</time></trkpt><trkpt lat="43.19150232224198" lon="0.9439203162545775"><ele>398.0</ele><time>2026-03-29T14:00:53Z</time></trkpt><trkpt lat="43.191579236402205" lon="0.9439261312478695"><ele>389.0</ele><time>2026-03-29T14:00:58Z</time></trkpt><trkpt lat="43.19164140140777" lon="0.9439095753890206"><ele>380.0</ele><time>2026-03-29T14:01:22Z</time></trkpt><trkpt lat="43.19170677699809" lon="0.9438857089973581"><ele>371.0</ele><time>2026-03-29T14:01:33Z</time></trkpt><trkpt lat="43.19163986759373" lon="0.9439585551049353"><ele>371.0</ele><time>2026-03-29T14:02:24Z</time></trkpt><trkpt lat="43.191677348372394" lon="0.943878580790761"><ele>371.0</ele><time>2026-03-29T14:02:32Z</time></trkpt><trkpt lat="43.19165666013936" lon="0.9437523489022422"><ele>371.0</ele><time>2026-03-29T14:03:00Z</time></trkpt><trkpt lat="43.19175838689019" lon="0.9438068350371694"><ele>371.0</ele><time>2026-03-29T14:03:04Z</time></trkpt><trkpt lat="43.191818831017116" lon="0.9438374083093778"><ele>371.0</ele><time>2026-03-29T14:03:07Z</time></trkpt><trkpt lat="43.191946352147966" lon="0.9438706076030857"><ele>371.0</ele><time>2026-03-29T14:14:53Z</time></trkpt><trkpt lat="43.19189470727885" lon="0.9438161431892589"><ele>371.0</ele><time>2026-03-29T14:17:05Z</time></trkpt><trkpt lat="43.19188170510852" lon="0.9439116773588883"><ele>371.0</ele><time>2026-03-29T14:17:10Z</time></trkpt><trkpt lat="43.19195645620128" lon="0.9439779198195093"><ele>371.0</ele><time>2026-03-29T14:17:34Z</time></trkpt><trkpt lat="43.19204515847107" lon="0.9440261482575525"><ele>371.0</ele><time>2026-03-29T14:17:37Z</time></trkpt><trkpt lat="43.19210281235364" lon="0.9440702953623723"><ele>371.0</ele><time>2026-03-29T14:17:39Z</time></trkpt><trkpt lat="43.19215205181288" lon="0.9441480726207306"><ele>372.33333333333337</ele><time>2026-03-29T14:17:41Z</time></trkpt><trkpt lat="43.19223349153535" lon="0.9442184193005342"><ele>373.6666666666667</ele><time>2026-03-29T14:17:44Z</time></trkpt><trkpt lat="43.192290077506215" lon="0.9442952073021925"><ele>375.0</ele><time>2026-03-29T14:17:46Z</time></trkpt><trkpt lat="43.19233626963414" lon="0.9443973927369305"><ele>376.3333333333333</ele><time>2026-03-29T14:17:48Z</time></trkpt><trkpt lat="43.19236391246436" lon="0.9444927323454952"><ele>377.66666666666663</ele><time>2026-03-29T14:17:50Z</time></trkpt><trkpt lat="43.192381540512955" lon="0.9446081380380644"><ele>379.0</ele><time>2026-03-29T14:17:53Z</time></trkpt><trkpt lat="43.192416535094694" lon="0.9447214303473356"><ele>380.5</ele><time>2026-03-29T14:17:55Z</time></trkpt><trkpt lat="43.19245067793979" lon="0.9448285823512872"><ele>382.0</ele><time>2026-03-29T14:17:57Z</time></trkpt><trkpt lat="43.19245965222573" lon="0.9449194200240526"><ele>383.5</ele><time>2026-03-29T14:17:59Z</time></trkpt><trkpt lat="43.192442963622774" lon="0.9450114974863036"><ele>385.0</ele><time>2026-03-29T14:18:01Z</time></trkpt><trkpt lat="43.19242238888816" lon="0.9451275187706822"><ele>386.50000000000006</ele><time>2026-03-29T14:18:03Z</time></trkpt><trkpt lat="43.192390100235954" lon="0.9452353707857251"><ele>388.0</ele><time>2026-03-29T14:18:05Z</time></trkpt><trkpt lat="43.1923878650146" lon="0.9453686338819082"><ele>387.50000000000006</ele><time>2026-03-29T14:18:07Z</time></trkpt><trkpt lat="43.19238592064748" lon="0.9455347859704644"><ele>387.0</ele><time>2026-03-29T14:18:09Z</time></trkpt><trkpt lat="43.192373537360744" lon="0.9456346373544094"><ele>386.5</ele><time>2026-03-29T14:18:10Z</time></trkpt><trkpt lat="43.19232102206782" lon="0.9457558180884623"><ele>386.0</ele><time>2026-03-29T14:18:12Z</time></trkpt><trkpt lat="43.192296290030406" lon="0.9458382467791109"><ele>385.50000000000006</ele><time>2026-03-29T14:18:16Z</time></trkpt><trkpt lat="43.19226462122936" lon="0.9459207467874133"><ele>385.0</ele><time>2026-03-29T14:18:19Z</time></trkpt><trkpt lat="43.1922629435835" lon="0.9460452952553727"><ele>386.5</ele><time>2026-03-29T14:18:22Z</time></trkpt><trkpt lat="43.192208226420114" lon="0.9461355065215479"><ele>388.0</ele><time>2026-03-29T14:18:26Z</time></trkpt><trkpt lat="43.19210758059391" lon="0.9462599406569318"><ele>389.5</ele><time>2026-03-29T14:18:28Z</time></trkpt><trkpt lat="43.192073790676304" lon="0.9463465849360718"><ele>391.0</ele><time>2026-03-29T14:18:29Z</time></trkpt><trkpt lat="43.19213724884729" lon="0.9466845919653135"><ele>390.8</ele><time>2026-03-29T14:18:31Z</time></trkpt><trkpt lat="43.192179756560435" lon="0.9467847437281787"><ele>390.6</ele><time>2026-03-29T14:18:33Z</time></trkpt><trkpt lat="43.192299880356636" lon="0.9468453699480383"><ele>390.4</ele><time>2026-03-29T14:18:39Z</time></trkpt><trkpt lat="43.19237198828693" lon="0.9469094036645204"><ele>390.2</ele><time>2026-03-29T14:18:42Z</time></trkpt><trkpt lat="43.19238579208244" lon="0.9470031682698132"><ele>390.0</ele><time>2026-03-29T14:18:43Z</time></trkpt><trkpt lat="43.19241356005905" lon="0.9471591801941761"><ele>392.3333333333333</ele><time>2026-03-29T14:18:45Z</time></trkpt><trkpt lat="43.19241989211633" lon="0.9473035991378721"><ele>394.66666666666663</ele><time>2026-03-29T14:18:47Z</time></trkpt><trkpt lat="43.19243367358271" lon="0.9474626592244002"><ele>397.0</ele><time>2026-03-29T14:18:49Z</time></trkpt><trkpt lat="43.19245348307859" lon="0.9475449868076038"><ele>399.3333333333333</ele><time>2026-03-29T14:18:50Z</time></trkpt><trkpt lat="43.19249446029419" lon="0.9476241620325824"><ele>401.66666666666663</ele><time>2026-03-29T14:18:51Z</time></trkpt><trkpt lat="43.192536230520574" lon="0.9476968962070493"><ele>404.0</ele><time>2026-03-29T14:18:52Z</time></trkpt><trkpt lat="43.19258502268851" lon="0.9477716818078559"><ele>404.66666666666663</ele><time>2026-03-29T14:18:53Z</time></trkpt><trkpt lat="43.19259227251244" lon="0.94790698343741"><ele>405.3333333333333</ele><time>2026-03-29T14:18:55Z</time></trkpt><trkpt lat="43.192600166542874" lon="0.9480092607124139"><ele>406.0</ele><time>2026-03-29T14:18:57Z</time></trkpt><trkpt lat="43.192628281381516" lon="0.9481489366022218"><ele>406.66666666666663</ele><time>2026-03-29T14:19:01Z</time></trkpt><trkpt lat="43.19263533833664" lon="0.9482413847708506"><ele>407.3333333333333</ele><time>2026-03-29T14:19:04Z</time></trkpt><trkpt lat="43.192700920623984" lon="0.9483371570955084"><ele>408.0</ele><time>2026-03-29T14:19:06Z</time></trkpt><trkpt lat="43.19276565281368" lon="0.9484187555159214"><ele>409.4</ele><time>2026-03-29T14:19:07Z</time></trkpt><trkpt lat="43.19280691021007" lon="0.9485295579444063"><ele>410.79999999999995</ele><time>2026-03-29T14:19:08Z</time></trkpt><trkpt lat="43.19282041373446" lon="0.9486459296743724"><ele>412.2</ele><time>2026-03-29T14:19:09Z</time></trkpt><trkpt lat="43.1928247120528" lon="0.9487524249500601"><ele>413.6</ele><time>2026-03-29T14:19:10Z</time></trkpt><trkpt lat="43.19282709237798" lon="0.948882382096067"><ele>415.0</ele><time>2026-03-29T14:19:11Z</time></trkpt><trkpt lat="43.19279694463962" lon="0.9490241590552254"><ele>415.00000000000006</ele><time>2026-03-29T14:19:12Z</time></trkpt><trkpt lat="43.192788374201506" lon="0.9491618770786809"><ele>415.0</ele><time>2026-03-29T14:19:13Z</time></trkpt><trkpt lat="43.1927843327665" lon="0.9492612324675594"><ele>415.0</ele><time>2026-03-29T14:19:14Z</time></trkpt><trkpt lat="43.19278026373801" lon="0.9493612664118928"><ele>415.0</ele><time>2026-03-29T14:19:15Z</time></trkpt><trkpt lat="43.19274205672378" lon="0.9494438097015688"><ele>415.00000000000006</ele><time>2026-03-29T14:19:16Z</time></trkpt><trkpt lat="43.19276125269836" lon="0.949526057888437"><ele>415.0</ele><time>2026-03-29T14:19:17Z</time></trkpt><trkpt lat="43.192798164983955" lon="0.9496720572285414"><ele>415.2857142857143</ele><time>2026-03-29T14:19:19Z</time></trkpt><trkpt lat="43.19283926802982" lon="0.9497412977266851"><ele>415.57142857142856</ele><time>2026-03-29T14:19:20Z</time></trkpt><trkpt lat="43.19288791201894" lon="0.9498177529429362"><ele>415.8571428571429</ele><time>2026-03-29T14:19:21Z</time></trkpt><trkpt lat="43.192937979869086" lon="0.9498834642901666"><ele>416.1428571428571</ele><time>2026-03-29T14:19:22Z</time></trkpt><trkpt lat="43.193023534369964" lon="0.9499015936044909"><ele>416.4285714285714</ele><time>2026-03-29T14:19:24Z</time></trkpt><trkpt lat="43.193085418444255" lon="0.9499328062637948"><ele>416.7142857142857</ele><time>2026-03-29T14:19:28Z</time></trkpt><trkpt lat="43.19314780353957" lon="0.949954203014583"><ele>417.0</ele><time>2026-03-29T14:19:29Z</time></trkpt><trkpt lat="43.193227661574305" lon="0.9500147555279691"><ele>417.6666666666667</ele><time>2026-03-29T14:19:30Z</time></trkpt><trkpt lat="43.19330858603787" lon="0.9500417981336529"><ele>418.33333333333337</ele><time>2026-03-29T14:19:31Z</time></trkpt><trkpt lat="43.193384097847165" lon="0.9500549063861603"><ele>419.0</ele><time>2026-03-29T14:19:32Z</time></trkpt><trkpt lat="43.19344808618726" lon="0.9500407418093089"><ele>419.6666666666667</ele><time>2026-03-29T14:19:35Z</time></trkpt><trkpt lat="43.19354404469292" lon="0.9500365363873732"><ele>420.33333333333337</ele><time>2026-03-29T14:19:38Z</time></trkpt><trkpt lat="43.193644283198594" lon="0.9500435740011365"><ele>421.0</ele><time>2026-03-29T14:19:41Z</time></trkpt><trkpt lat="43.193731619803884" lon="0.9500203905314828"><ele>421.00000000000006</ele><time>2026-03-29T14:19:44Z</time></trkpt><trkpt lat="43.193817011508955" lon="0.949999864946712"><ele>421.0</ele><time>2026-03-29T14:19:47Z</time></trkpt><trkpt lat="43.19388756192482" lon="0.9499704344695237"><ele>421.0</ele><time>2026-03-29T14:19:48Z</time></trkpt><trkpt lat="43.19393521103256" lon="0.9498923193826835"><ele>421.0</ele><time>2026-03-29T14:19:50Z</time></trkpt><trkpt lat="43.19398023242866" lon="0.9498206840534249"><ele>421.00000000000006</ele><time>2026-03-29T14:19:52Z</time></trkpt><trkpt lat="43.19402446631973" lon="0.9497460933886144"><ele>421.0</ele><time>2026-03-29T14:19:55Z</time></trkpt><trkpt lat="43.19412536229611" lon="0.949669563304795"><ele>421.4</ele><time>2026-03-29T14:19:57Z</time></trkpt><trkpt lat="43.1942263101237" lon="0.9495889531939482"><ele>421.8</ele><time>2026-03-29T14:19:59Z</time></trkpt><trkpt lat="43.19432509958094" lon="0.9495294835942067"><ele>422.2</ele><time>2026-03-29T14:20:01Z</time></trkpt><trkpt lat="43.194396150864144" lon="0.9494534355228536"><ele>422.59999999999997</ele><time>2026-03-29T14:20:02Z</time></trkpt><trkpt lat="43.19445811647647" lon="0.949422664834402"><ele>423.0</ele><time>2026-03-29T14:20:03Z</time></trkpt><trkpt lat="43.19457303600641" lon="0.9493488325136131"><ele>423.0</ele><time>2026-03-29T14:20:05Z</time></trkpt><trkpt lat="43.19464521019017" lon="0.9492583033462105"><ele>423.0</ele><time>2026-03-29T14:20:07Z</time></trkpt><trkpt lat="43.19470808109681" lon="0.9491656082411192"><ele>423.0</ele><time>2026-03-29T14:20:09Z</time></trkpt><trkpt lat="43.19481478062714" lon="0.9490387615987536"><ele>423.0</ele><time>2026-03-29T14:20:11Z</time></trkpt><trkpt lat="43.194881244809785" lon="0.9490131424600322"><ele>423.0</ele><time>2026-03-29T14:20:12Z</time></trkpt><trkpt lat="43.19494581821224" lon="0.9490114156814223"><ele>424.59999999999997</ele><time>2026-03-29T14:20:13Z</time></trkpt><trkpt lat="43.195054069078935" lon="0.9490642536292353"><ele>426.2</ele><time>2026-03-29T14:20:15Z</time></trkpt><trkpt lat="43.19512005903406" lon="0.9491405198290989"><ele>427.8</ele><time>2026-03-29T14:20:16Z</time></trkpt><trkpt lat="43.19518551606071" lon="0.9492013809994742"><ele>429.4</ele><time>2026-03-29T14:20:17Z</time></trkpt><trkpt lat="43.19525381739887" lon="0.9492424418402926"><ele>431.0</ele><time>2026-03-29T14:20:18Z</time></trkpt><trkpt lat="43.19523749043237" lon="0.9493787266241612"><ele>432.0</ele><time>2026-03-29T14:20:20Z</time></trkpt><trkpt lat="43.19518359054177" lon="0.9496094434558675"><ele>433.0</ele><time>2026-03-29T14:20:22Z</time></trkpt><trkpt lat="43.19514691635999" lon="0.9497363505703798"><ele>434.0</ele><time>2026-03-29T14:20:23Z</time></trkpt><trkpt lat="43.19511264097619" lon="0.9498235711894856"><ele>435.0</ele><time>2026-03-29T14:20:24Z</time></trkpt><trkpt lat="43.19505971202253" lon="0.9499588520657422"><ele>434.8333333333333</ele><time>2026-03-29T14:20:26Z</time></trkpt><trkpt lat="43.19500244019549" lon="0.9500911857755275"><ele>434.66666666666663</ele><time>2026-03-29T14:20:28Z</time></trkpt><trkpt lat="43.19498466388749" lon="0.9501971672976016"><ele>434.5</ele><time>2026-03-29T14:20:29Z</time></trkpt><trkpt lat="43.19496179513615" lon="0.9503103525863502"><ele>434.3333333333333</ele><time>2026-03-29T14:20:30Z</time></trkpt><trkpt lat="43.1949561451709" lon="0.9504139066308874"><ele>434.16666666666663</ele><time>2026-03-29T14:20:32Z</time></trkpt><trkpt lat="43.195021082679226" lon="0.9505071056209489"><ele>434.0</ele><time>2026-03-29T14:20:34Z</time></trkpt><trkpt lat="43.195125842712955" lon="0.950618150527193"><ele>433.99999999999994</ele><time>2026-03-29T14:20:36Z</time></trkpt><trkpt lat="43.19519922935238" lon="0.9506322973088298"><ele>434.0</ele><time>2026-03-29T14:20:37Z</time></trkpt><trkpt lat="43.19529103009319" lon="0.9506847134837474"><ele>434.0</ele><time>2026-03-29T14:20:40Z</time></trkpt><trkpt lat="43.19533048596838" lon="0.950791578192118"><ele>434.0</ele><time>2026-03-29T14:20:43Z</time></trkpt><trkpt lat="43.195381686917656" lon="0.9508664824863335"><ele>433.99999999999994</ele><time>2026-03-29T14:20:45Z</time></trkpt><trkpt lat="43.1954123714542" lon="0.9509791393851559"><ele>434.0</ele><time>2026-03-29T14:20:48Z</time></trkpt><trkpt lat="43.195392640287714" lon="0.9510629720776489"><ele>434.2</ele><time>2026-03-29T14:20:49Z</time></trkpt><trkpt lat="43.19545550719019" lon="0.9511599910574107"><ele>434.4</ele><time>2026-03-29T14:20:51Z</time></trkpt><trkpt lat="43.19548923346164" lon="0.9513080845397828"><ele>434.6</ele><time>2026-03-29T14:20:54Z</time></trkpt><trkpt lat="43.19552925881636" lon="0.9514231238491458"><ele>434.8</ele><time>2026-03-29T14:20:58Z</time></trkpt><trkpt lat="43.19555946209803" lon="0.9515318794527747"><ele>435.0</ele><time>2026-03-29T14:21:00Z</time></trkpt><trkpt lat="43.19560820451199" lon="0.9515959173420738"><ele>435.0</ele><time>2026-03-29T14:21:01Z</time></trkpt><trkpt lat="43.195657521865044" lon="0.9516837601862311"><ele>435.0</ele><time>2026-03-29T14:21:03Z</time></trkpt><trkpt lat="43.195763557653656" lon="0.9516824083247669"><ele>435.0</ele><time>2026-03-29T14:21:07Z</time></trkpt><trkpt lat="43.19583607795449" lon="0.9517268217309656"><ele>435.0</ele><time>2026-03-29T14:21:09Z</time></trkpt><trkpt lat="43.19590316052357" lon="0.9518127466670182"><ele>435.0</ele><time>2026-03-29T14:21:11Z</time></trkpt><trkpt lat="43.19594007327235" lon="0.9519111081184712"><ele>435.0</ele><time>2026-03-29T14:21:15Z</time></trkpt><trkpt lat="43.19595654009883" lon="0.9519993459287117"><ele>437.1666666666667</ele><time>2026-03-29T14:21:18Z</time></trkpt><trkpt lat="43.195972433928596" lon="0.9521004088611338"><ele>439.33333333333337</ele><time>2026-03-29T14:21:29Z</time></trkpt><trkpt lat="43.19595442246295" lon="0.9522012426085809"><ele>441.5</ele><time>2026-03-29T14:24:19Z</time></trkpt><trkpt lat="43.19592526844907" lon="0.9522993304146828"><ele>443.6666666666667</ele><time>2026-03-29T14:25:49Z</time></trkpt><trkpt lat="43.19595685624598" lon="0.9523859836883902"><ele>445.83333333333337</ele><time>2026-03-29T14:27:54Z</time></trkpt><trkpt lat="43.19594972549632" lon="0.9525257832056534"><ele>448.0</ele><time>2026-03-29T14:27:56Z</time></trkpt><trkpt lat="43.19595432769007" lon="0.9526293384049168"><ele>448.0</ele><time>2026-03-29T14:27:57Z</time></trkpt><trkpt lat="43.19595974459249" lon="0.9527228615842012"><ele>447.99999999999994</ele><time>2026-03-29T14:27:58Z</time></trkpt><trkpt lat="43.19596114158463" lon="0.9528099290713532"><ele>447.99999999999994</ele><time>2026-03-29T14:27:59Z</time></trkpt><trkpt lat="43.19596454767419" lon="0.9529841160639906"><ele>448.0</ele><time>2026-03-29T14:28:01Z</time></trkpt><trkpt lat="43.19595973894675" lon="0.9531304030326962"><ele>448.0</ele><time>2026-03-29T14:28:03Z</time></trkpt><trkpt lat="43.1959727511501" lon="0.9532650776767447"><ele>447.1666666666667</ele><time>2026-03-29T14:28:05Z</time></trkpt><trkpt lat="43.19599100292666" lon="0.9533751570299622"><ele>446.33333333333337</ele><time>2026-03-29T14:28:07Z</time></trkpt><trkpt lat="43.196013148449566" lon="0.9534789247159988"><ele>445.5</ele><time>2026-03-29T14:28:09Z</time></trkpt><trkpt lat="43.19604012001893" lon="0.9535706528599958"><ele>444.66666666666663</ele><time>2026-03-29T14:28:12Z</time></trkpt><trkpt lat="43.19609586701748" lon="0.9536239115729456"><ele>443.8333333333333</ele><time>2026-03-29T14:28:34Z</time></trkpt><trkpt lat="43.196156388049964" lon="0.9535804979542297"><ele>443.0</ele><time>2026-03-29T14:28:38Z</time></trkpt><trkpt lat="43.19617789155354" lon="0.9534502383387281"><ele>443.8333333333333</ele><time>2026-03-29T14:28:41Z</time></trkpt><trkpt lat="43.196231765504095" lon="0.9533667607751892"><ele>444.66666666666663</ele><time>2026-03-29T14:28:43Z</time></trkpt><trkpt lat="43.196303815463985" lon="0.9533637996761162"><ele>445.5</ele><time>2026-03-29T14:28:47Z</time></trkpt><trkpt lat="43.19632227559581" lon="0.9532609637901729"><ele>446.33333333333337</ele><time>2026-03-29T14:28:49Z</time></trkpt><trkpt lat="43.196408736705884" lon="0.9531861250488151"><ele>447.1666666666667</ele><time>2026-03-29T14:28:50Z</time></trkpt><trkpt lat="43.19637517523852" lon="0.9530927820997172"><ele>448.0</ele><time>2026-03-29T14:28:53Z</time></trkpt><trkpt lat="43.196436527042444" lon="0.9530279194492786"><ele>448.00000000000006</ele><time>2026-03-29T14:28:55Z</time></trkpt><trkpt lat="43.19645721820946" lon="0.9529325178237944"><ele>448.0</ele><time>2026-03-29T14:28:58Z</time></trkpt><trkpt lat="43.19646903810068" lon="0.9528152038120775"><ele>448.0</ele><time>2026-03-29T14:29:00Z</time></trkpt><trkpt lat="43.19657286774127" lon="0.9528064212289499"><ele>448.0</ele><time>2026-03-29T14:29:02Z</time></trkpt><trkpt lat="43.19661961316545" lon="0.9527433096042772"><ele>448.00000000000006</ele><time>2026-03-29T14:29:24Z</time></trkpt><trkpt lat="43.19669423813051" lon="0.9526763613795638"><ele>448.0</ele><time>2026-03-29T14:31:41Z</time></trkpt><trkpt lat="43.19676049140582" lon="0.9526250676761759"><ele>451.50000000000006</ele><time>2026-03-29T14:31:43Z</time></trkpt><trkpt lat="43.196877940978354" lon="0.9525963139228435"><ele>455.0</ele><time>2026-03-29T14:31:47Z</time></trkpt><trkpt lat="43.19697299271764" lon="0.9525961825659485"><ele>458.5</ele><time>2026-03-29T14:31:49Z</time></trkpt><trkpt lat="43.19691099477514" lon="0.9525698411893422"><ele>462.0</ele><time>2026-03-29T14:32:23Z</time></trkpt><trkpt lat="43.196850654699" lon="0.9525393225237087"><ele>465.50000000000006</ele><time>2026-03-29T14:32:28Z</time></trkpt><trkpt lat="43.19678737225621" lon="0.9525336594883282"><ele>469.0</ele><time>2026-03-29T14:32:36Z</time></trkpt><trkpt lat="43.196724850393224" lon="0.9525581818835926"><ele>469.0</ele><time>2026-03-29T14:32:55Z</time></trkpt><trkpt lat="43.196686798509056" lon="0.952641559175743"><ele>469.0</ele><time>2026-03-29T14:33:00Z</time></trkpt><trkpt lat="43.19675115950115" lon="0.9526211453376886"><ele>469.0</ele><time>2026-03-29T14:33:56Z</time></trkpt><trkpt lat="43.19668271434483" lon="0.9526206616708879"><ele>469.0</ele><time>2026-03-29T14:39:16Z</time></trkpt><trkpt lat="43.19665100245372" lon="0.9527035838173881"><ele>469.0</ele><time>2026-03-29T14:39:23Z</time></trkpt><trkpt lat="43.19658070886776" lon="0.9527583079691109"><ele>469.0</ele><time>2026-03-29T14:39:43Z</time></trkpt><trkpt lat="43.19664376395734" lon="0.9527694212913582"><ele>469.0</ele><time>2026-03-29T14:50:40Z</time></trkpt><trkpt lat="43.19668745977218" lon="0.9527053883920054"><ele>469.0</ele><time>2026-03-29T14:50:48Z</time></trkpt><trkpt lat="43.19674241053748" lon="0.9526482557815017"><ele>469.0</ele><time>2026-03-29T14:51:09Z</time></trkpt><trkpt lat="43.196791066057045" lon="0.9525796410324352"><ele>469.0</ele><time>2026-03-29T14:52:00Z</time></trkpt><trkpt lat="43.19684993726339" lon="0.9525419036085635"><ele>469.0</ele><time>2026-03-29T14:52:37Z</time></trkpt><trkpt lat="43.19689451948584" lon="0.952630796554405"><ele>469.0</ele><time>2026-03-29T14:52:53Z</time></trkpt><trkpt lat="43.196959394423146" lon="0.952576250399549"><ele>469.0</ele><time>2026-03-29T14:54:38Z</time></trkpt><trkpt lat="43.19702517117172" lon="0.9525873481873846"><ele>469.0</ele><time>2026-03-29T14:56:09Z</time></trkpt><trkpt lat="43.19704100595942" lon="0.952458934973961"><ele>471.4</ele><time>2026-03-29T14:56:15Z</time></trkpt><trkpt lat="43.19708314670678" lon="0.9523413410840672"><ele>473.79999999999995</ele><time>2026-03-29T14:56:17Z</time></trkpt><trkpt lat="43.19709049465859" lon="0.9522277513371918"><ele>476.20000000000005</ele><time>2026-03-29T14:56:19Z</time></trkpt><trkpt lat="43.1971704468696" lon="0.952166963069113"><ele>478.6</ele><time>2026-03-29T14:56:21Z</time></trkpt><trkpt lat="43.19724189482819" lon="0.952126211366654"><ele>481.0</ele><time>2026-03-29T14:56:23Z</time></trkpt><trkpt lat="43.19733680970027" lon="0.9520051864234669"><ele>483.83333333333337</ele><time>2026-03-29T14:56:25Z</time></trkpt><trkpt lat="43.19741378316" lon="0.9519907255151052"><ele>486.6666666666667</ele><time>2026-03-29T14:56:27Z</time></trkpt><trkpt lat="43.19739900694358" lon="0.9519046132887328"><ele>489.5</ele><time>2026-03-29T14:57:50Z</time></trkpt><trkpt lat="43.1974866894019" lon="0.9517559477660379"><ele>492.33333333333337</ele><time>2026-03-29T14:57:52Z</time></trkpt><trkpt lat="43.197552044201906" lon="0.9516900781414709"><ele>495.1666666666667</ele><time>2026-03-29T14:57:54Z</time></trkpt><trkpt lat="43.197584613225054" lon="0.9515818470637303"><ele>498.0</ele><time>2026-03-29T14:57:56Z</time></trkpt><trkpt lat="43.197636778311626" lon="0.9514439074773079"><ele>499.59999999999997</ele><time>2026-03-29T14:57:58Z</time></trkpt><trkpt lat="43.19771965522336" lon="0.9513579710875274"><ele>501.19999999999993</ele><time>2026-03-29T14:57:59Z</time></trkpt><trkpt lat="43.19776913351274" lon="0.9512689567176069"><ele>502.8</ele><time>2026-03-29T14:58:01Z</time></trkpt><trkpt lat="43.19778194991142" lon="0.9511306801900485"><ele>504.4</ele><time>2026-03-29T14:58:03Z</time></trkpt><trkpt lat="43.19782266445914" lon="0.9510379852546326"><ele>506.0</ele><time>2026-03-29T14:58:05Z</time></trkpt><trkpt lat="43.19785759408786" lon="0.9509167524026786"><ele>505.5</ele><time>2026-03-29T14:58:07Z</time></trkpt><trkpt lat="43.197920299463824" lon="0.9508008752644935"><ele>505.0</ele><time>2026-03-29T14:58:09Z</time></trkpt><trkpt lat="43.1980115613872" lon="0.950733209431687"><ele>504.5</ele><time>2026-03-29T14:58:11Z</time></trkpt><trkpt lat="43.19811536262238" lon="0.9505736735395323"><ele>504.0</ele><time>2026-03-29T14:58:13Z</time></trkpt><trkpt lat="43.198183778849476" lon="0.9504520804298547"><ele>506.2</ele><time>2026-03-29T14:58:15Z</time></trkpt><trkpt lat="43.198223302745674" lon="0.9503662704073658"><ele>508.4</ele><time>2026-03-29T14:58:16Z</time></trkpt><trkpt lat="43.198278820360215" lon="0.950205971834237"><ele>510.6</ele><time>2026-03-29T14:58:17Z</time></trkpt><trkpt lat="43.19829437864741" lon="0.9501035465512047"><ele>512.8</ele><time>2026-03-29T14:58:18Z</time></trkpt><trkpt lat="43.19830911641481" lon="0.9499403116388295"><ele>515.0</ele><time>2026-03-29T14:58:20Z</time></trkpt><trkpt lat="43.19834386828964" lon="0.9497942947644714"><ele>515.1666666666666</ele><time>2026-03-29T14:58:22Z</time></trkpt><trkpt lat="43.198421555482774" lon="0.9497284067536031"><ele>515.3333333333333</ele><time>2026-03-29T14:58:24Z</time></trkpt><trkpt lat="43.1985164697444" lon="0.9497139876558538"><ele>515.5</ele><time>2026-03-29T14:58:26Z</time></trkpt><trkpt lat="43.19859429858519" lon="0.9496341531787196"><ele>515.6666666666666</ele><time>2026-03-29T14:58:32Z</time></trkpt><trkpt lat="43.19858392998764" lon="0.9495421670918124"><ele>515.8333333333334</ele><time>2026-03-29T14:58:35Z</time></trkpt><trkpt lat="43.198624829801474" lon="0.9494276727110564"><ele>516.0</ele><time>2026-03-29T14:58:37Z</time></trkpt><trkpt lat="43.198708551655855" lon="0.9493593151144814"><ele>516.0</ele><time>2026-03-29T14:58:40Z</time></trkpt><trkpt lat="43.19876075130146" lon="0.9492928529462344"><ele>516.0</ele><time>2026-03-29T14:58:42Z</time></trkpt><trkpt lat="43.19878693043977" lon="0.9492129113210656"><ele>516.0</ele><time>2026-03-29T14:58:43Z</time></trkpt><trkpt lat="43.198800416219754" lon="0.9489825033745661"><ele>516.0</ele><time>2026-03-29T14:58:44Z</time></trkpt><trkpt lat="43.19886767443984" lon="0.9488757411809783"><ele>516.0</ele><time>2026-03-29T14:58:45Z</time></trkpt><trkpt lat="43.19896015744577" lon="0.9487634461613771"><ele>515.8333333333334</ele><time>2026-03-29T14:58:46Z</time></trkpt><trkpt lat="43.19903482873183" lon="0.9487204389246969"><ele>515.6666666666666</ele><time>2026-03-29T14:58:47Z</time></trkpt><trkpt lat="43.199084814610345" lon="0.9486535103400057"><ele>515.5</ele><time>2026-03-29T14:58:48Z</time></trkpt><trkpt lat="43.19919078850449" lon="0.948618137589069"><ele>515.3333333333333</ele><time>2026-03-29T14:58:50Z</time></trkpt><trkpt lat="43.19927974284924" lon="0.9486011859977115"><ele>515.1666666666666</ele><time>2026-03-29T14:58:52Z</time></trkpt><trkpt lat="43.199356291768765" lon="0.948644128902379"><ele>515.0</ele><time>2026-03-29T14:58:54Z</time></trkpt><trkpt lat="43.19944089349661" lon="0.9485685979441814"><ele>515.0</ele><time>2026-03-29T14:58:57Z</time></trkpt><trkpt lat="43.19946490556385" lon="0.9484765502991589"><ele>515.0</ele><time>2026-03-29T14:58:59Z</time></trkpt><trkpt lat="43.199465788444954" lon="0.948362169764221"><ele>515.0</ele><time>2026-03-29T14:59:01Z</time></trkpt><trkpt lat="43.19953114415367" lon="0.948317654469456"><ele>515.0</ele><time>2026-03-29T14:59:05Z</time></trkpt><trkpt lat="43.19953175490549" lon="0.9481886802331353"><ele>515.0</ele><time>2026-03-29T14:59:09Z</time></trkpt><trkpt lat="43.19955445162556" lon="0.9480819415956626"><ele>515.0</ele><time>2026-03-29T14:59:11Z</time></trkpt><trkpt lat="43.199625689400406" lon="0.9479536120146581"><ele>515.3333333333333</ele><time>2026-03-29T14:59:14Z</time></trkpt><trkpt lat="43.19964943013581" lon="0.9478672378380916"><ele>515.6666666666666</ele><time>2026-03-29T14:59:16Z</time></trkpt><trkpt lat="43.19964926880629" lon="0.9477600826211414"><ele>516.0</ele><time>2026-03-29T14:59:18Z</time></trkpt><trkpt lat="43.199631897553566" lon="0.9476666757392701"><ele>516.3333333333334</ele><time>2026-03-29T14:59:21Z</time></trkpt><trkpt lat="43.19970980136691" lon="0.9475939536998946"><ele>516.6666666666667</ele><time>2026-03-29T14:59:25Z</time></trkpt><trkpt lat="43.19972419498379" lon="0.9474640836768542"><ele>517.0</ele><time>2026-03-29T14:59:29Z</time></trkpt><trkpt lat="43.19970708789483" lon="0.9473583327519476"><ele>515.2</ele><time>2026-03-29T14:59:32Z</time></trkpt><trkpt lat="43.199683282984424" lon="0.94724488709955"><ele>513.4000000000001</ele><time>2026-03-29T14:59:33Z</time></trkpt><trkpt lat="43.1997193740675" lon="0.9470487200312583"><ele>511.59999999999997</ele><time>2026-03-29T14:59:35Z</time></trkpt><trkpt lat="43.19974093223766" lon="0.9469238313238559"><ele>509.79999999999995</ele><time>2026-03-29T14:59:36Z</time></trkpt><trkpt lat="43.199789673762034" lon="0.9467930558878381"><ele>508.0</ele><time>2026-03-29T14:59:38Z</time></trkpt><trkpt lat="43.19981107119676" lon="0.9466779009586492"><ele>507.0</ele><time>2026-03-29T14:59:40Z</time></trkpt><trkpt lat="43.199762242152254" lon="0.9465349228036268"><ele>505.99999999999994</ele><time>2026-03-29T14:59:42Z</time></trkpt><trkpt lat="43.19976318485991" lon="0.9464340813006895"><ele>504.99999999999994</ele><time>2026-03-29T14:59:43Z</time></trkpt><trkpt lat="43.199844056937415" lon="0.9463682728300395"><ele>504.0</ele><time>2026-03-29T14:59:45Z</time></trkpt><trkpt lat="43.19993723157089" lon="0.9463681132950257"><ele>503.0</ele><time>2026-03-29T14:59:48Z</time></trkpt><trkpt lat="43.200023108237495" lon="0.9463689295968492"><ele>503.0</ele><time>2026-03-29T14:59:50Z</time></trkpt><trkpt lat="43.20010405083547" lon="0.946346195950025"><ele>502.99999999999994</ele><time>2026-03-29T14:59:52Z</time></trkpt><trkpt lat="43.20015876688506" lon="0.9462946319349189"><ele>502.99999999999994</ele><time>2026-03-29T14:59:54Z</time></trkpt><trkpt lat="43.20018265395921" lon="0.9462053208990733"><ele>503.0</ele><time>2026-03-29T14:59:56Z</time></trkpt><trkpt lat="43.20023554584206" lon="0.9460853738654881"><ele>503.0</ele><time>2026-03-29T14:59:58Z</time></trkpt><trkpt lat="43.20025825345814" lon="0.9459023003914584"><ele>501.16666666666663</ele><time>2026-03-29T15:00:00Z</time></trkpt><trkpt lat="43.2002748900666" lon="0.9458101053068108"><ele>499.3333333333333</ele><time>2026-03-29T15:00:01Z</time></trkpt><trkpt lat="43.20029724121939" lon="0.9456601580306899"><ele>497.5</ele><time>2026-03-29T15:00:03Z</time></trkpt><trkpt lat="43.20031193536381" lon="0.9455110954196299"><ele>495.66666666666663</ele><time>2026-03-29T15:00:05Z</time></trkpt><trkpt lat="43.20027961327292" lon="0.9453976190388874"><ele>493.8333333333333</ele><time>2026-03-29T15:00:07Z</time></trkpt><trkpt lat="43.20030631861965" lon="0.945315353708363"><ele>492.0</ele><time>2026-03-29T15:00:08Z</time></trkpt><trkpt lat="43.20035687461554" lon="0.9451604581236567"><ele>489.1666666666667</ele><time>2026-03-29T15:00:10Z</time></trkpt><trkpt lat="43.20038012732167" lon="0.9450297247193052"><ele>486.33333333333337</ele><time>2026-03-29T15:00:12Z</time></trkpt><trkpt lat="43.20038980217235" lon="0.9449426348454917"><ele>483.5</ele><time>2026-03-29T15:00:13Z</time></trkpt><trkpt lat="43.20039727940617" lon="0.944788321759351"><ele>480.6666666666667</ele><time>2026-03-29T15:00:15Z</time></trkpt><trkpt lat="43.20041736929479" lon="0.9446828177706127"><ele>477.83333333333337</ele><time>2026-03-29T15:00:17Z</time></trkpt><trkpt lat="43.20045930790186" lon="0.9445953291584306"><ele>475.0</ele><time>2026-03-29T15:00:19Z</time></trkpt><trkpt lat="43.20050834068395" lon="0.944528489169769"><ele>475.0</ele><time>2026-03-29T15:00:21Z</time></trkpt><trkpt lat="43.20055711230749" lon="0.9444237331777787"><ele>475.0</ele><time>2026-03-29T15:00:26Z</time></trkpt><trkpt lat="43.200615822098634" lon="0.9443609453155818"><ele>475.0</ele><time>2026-03-29T15:00:33Z</time></trkpt><trkpt lat="43.200659117457505" lon="0.9442667533711342"><ele>475.0</ele><time>2026-03-29T15:00:37Z</time></trkpt><trkpt lat="43.20069557533724" lon="0.9441324549753162"><ele>475.0</ele><time>2026-03-29T15:00:39Z</time></trkpt><trkpt lat="43.20070515358331" lon="0.9439843565949599"><ele>471.6</ele><time>2026-03-29T15:00:41Z</time></trkpt><trkpt lat="43.20072921805547" lon="0.9438431929003211"><ele>468.2</ele><time>2026-03-29T15:00:43Z</time></trkpt><trkpt lat="43.2007703822434" lon="0.9437322464955391"><ele>464.79999999999995</ele><time>2026-03-29T15:00:45Z</time></trkpt><trkpt lat="43.20089338688972" lon="0.9436784708289109"><ele>461.4</ele><time>2026-03-29T15:00:47Z</time></trkpt><trkpt lat="43.20099577995079" lon="0.9436143960335948"><ele>458.0</ele><time>2026-03-29T15:00:49Z</time></trkpt><trkpt lat="43.201081453732705" lon="0.9435559831354966"><ele>457.99999999999994</ele><time>2026-03-29T15:00:51Z</time></trkpt><trkpt lat="43.20115778003039" lon="0.9434964045689557"><ele>458.0</ele><time>2026-03-29T15:00:53Z</time></trkpt><trkpt lat="43.20116999113846" lon="0.9433839293735167"><ele>458.0</ele><time>2026-03-29T15:00:56Z</time></trkpt><trkpt lat="43.20109163068507" lon="0.9432686358929089"><ele>458.0</ele><time>2026-03-29T15:00:59Z</time></trkpt><trkpt lat="43.20115762723498" lon="0.9432357948914146"><ele>457.99999999999994</ele><time>2026-03-29T15:01:16Z</time></trkpt><trkpt lat="43.20123439616842" lon="0.9432917393071892"><ele>458.0</ele><time>2026-03-29T15:01:18Z</time></trkpt><trkpt lat="43.20130420494054" lon="0.9433454281734569"><ele>458.0</ele><time>2026-03-29T15:01:19Z</time></trkpt><trkpt lat="43.201348723881125" lon="0.9434760593820394"><ele>458.0</ele><time>2026-03-29T15:01:21Z</time></trkpt><trkpt lat="43.20138973731004" lon="0.9435895917086099"><ele>458.0</ele><time>2026-03-29T15:01:23Z</time></trkpt><trkpt lat="43.20140169049263" lon="0.9437422763344959"><ele>458.0</ele><time>2026-03-29T15:01:26Z</time></trkpt><trkpt lat="43.20142188245485" lon="0.9440477420447995"><ele>460.66666666666663</ele><time>2026-03-29T15:01:28Z</time></trkpt><trkpt lat="43.20141556554856" lon="0.9443032879945733"><ele>463.33333333333337</ele><time>2026-03-29T15:01:29Z</time></trkpt><trkpt lat="43.20144668928344" lon="0.9445622837171234"><ele>466.0</ele><time>2026-03-29T15:01:30Z</time></trkpt><trkpt lat="43.20149044706274" lon="0.9449010644896801"><ele>456.0</ele><time>2026-03-29T15:01:31Z</time></trkpt><trkpt lat="43.20155408201205" lon="0.9453153526927415"><ele>446.0</ele><time>2026-03-29T15:01:32Z</time></trkpt><trkpt lat="43.20161051905584" lon="0.9456218473118668"><ele>447.66666666666663</ele><time>2026-03-29T15:01:33Z</time></trkpt><trkpt lat="43.20164997139968" lon="0.9458858447555104"><ele>449.33333333333337</ele><time>2026-03-29T15:01:34Z</time></trkpt><trkpt lat="43.201708783839564" lon="0.9461120404433159"><ele>451.0</ele><time>2026-03-29T15:01:35Z</time></trkpt><trkpt lat="43.20174467518122" lon="0.9463025242840483"><ele>451.0</ele><time>2026-03-29T15:01:36Z</time></trkpt><trkpt lat="43.2017802754352" lon="0.9464762911860551"><ele>451.0</ele><time>2026-03-29T15:01:37Z</time></trkpt><trkpt lat="43.20180693370084" lon="0.9466137990240382"><ele>451.0</ele><time>2026-03-29T15:01:38Z</time></trkpt><trkpt lat="43.20183371530804" lon="0.9467368712574383"><ele>451.0</ele><time>2026-03-29T15:01:39Z</time></trkpt><trkpt lat="43.20185315823983" lon="0.9468361576368324"><ele>451.0</ele><time>2026-03-29T15:01:40Z</time></trkpt><trkpt lat="43.20186944244718" lon="0.946943894699633"><ele>451.8</ele><time>2026-03-29T15:01:41Z</time></trkpt><trkpt lat="43.20190072117123" lon="0.9470319504417671"><ele>452.6</ele><time>2026-03-29T15:01:42Z</time></trkpt><trkpt lat="43.20192570054421" lon="0.9471375352926295"><ele>453.4</ele><time>2026-03-29T15:01:44Z</time></trkpt><trkpt lat="43.20196342021349" lon="0.9472210163669561"><ele>454.2</ele><time>2026-03-29T15:01:47Z</time></trkpt><trkpt lat="43.20192305569954" lon="0.9470496037699017"><ele>455.0</ele><time>2026-03-29T15:01:55Z</time></trkpt><trkpt lat="43.201887095683325" lon="0.9469107321847363"><ele>455.0</ele><time>2026-03-29T15:01:56Z</time></trkpt><trkpt lat="43.201863841611406" lon="0.9467222060322255"><ele>455.0</ele><time>2026-03-29T15:01:57Z</time></trkpt><trkpt lat="43.20182713937382" lon="0.9465402429373265"><ele>455.0</ele><time>2026-03-29T15:01:58Z</time></trkpt><trkpt lat="43.201784442900205" lon="0.946280135580146"><ele>453.66666666666663</ele><time>2026-03-29T15:01:59Z</time></trkpt><trkpt lat="43.20174924607447" lon="0.9460220261416967"><ele>452.33333333333337</ele><time>2026-03-29T15:02:00Z</time></trkpt><trkpt lat="43.20168859583984" lon="0.9457634820523884"><ele>451.0</ele><time>2026-03-29T15:02:01Z</time></trkpt><trkpt lat="43.201634261146694" lon="0.9455588686393855"><ele>449.33333333333337</ele><time>2026-03-29T15:02:02Z</time></trkpt><trkpt lat="43.20159448382777" lon="0.945313000225517"><ele>447.66666666666663</ele><time>2026-03-29T15:02:03Z</time></trkpt><trkpt lat="43.20154939175695" lon="0.9451157558636007"><ele>446.0</ele><time>2026-03-29T15:02:04Z</time></trkpt><trkpt lat="43.201510043456324" lon="0.9449401325451501"><ele>451.0</ele><time>2026-03-29T15:02:05Z</time></trkpt><trkpt lat="43.20147917076651" lon="0.9447760179885312"><ele>456.0</ele><time>2026-03-29T15:02:06Z</time></trkpt><trkpt lat="43.20144772780443" lon="0.9445969227228986"><ele>461.0</ele><time>2026-03-29T15:02:07Z</time></trkpt><trkpt lat="43.20144149482808" lon="0.944432964198915"><ele>466.0</ele><time>2026-03-29T15:02:08Z</time></trkpt><trkpt lat="43.201437447861196" lon="0.944288907498216"><ele>464.4</ele><time>2026-03-29T15:02:09Z</time></trkpt><trkpt lat="43.20144412813819" lon="0.944136081075652"><ele>462.8</ele><time>2026-03-29T15:02:10Z</time></trkpt><trkpt lat="43.20144092373725" lon="0.94399171850807"><ele>461.19999999999993</ele><time>2026-03-29T15:02:11Z</time></trkpt><trkpt lat="43.201436119241215" lon="0.9438663182876392"><ele>459.59999999999997</ele><time>2026-03-29T15:02:12Z</time></trkpt><trkpt lat="43.20141440581171" lon="0.9437561055953271"><ele>458.0</ele><time>2026-03-29T15:02:13Z</time></trkpt><trkpt lat="43.20141751325683" lon="0.9436307987124426"><ele>458.0</ele><time>2026-03-29T15:02:14Z</time></trkpt><trkpt lat="43.20138677023281" lon="0.9435188934815341"><ele>457.99999999999994</ele><time>2026-03-29T15:02:15Z</time></trkpt><trkpt lat="43.20137387242714" lon="0.9434268627244928"><ele>457.99999999999994</ele><time>2026-03-29T15:02:16Z</time></trkpt><trkpt lat="43.20131552941576" lon="0.9433040078377364"><ele>458.0</ele><time>2026-03-29T15:02:18Z</time></trkpt><trkpt lat="43.20123492109231" lon="0.9432288162895971"><ele>458.0</ele><time>2026-03-29T15:02:20Z</time></trkpt><trkpt lat="43.20113397014423" lon="0.9431937757435761"><ele>448.0</ele><time>2026-03-29T15:02:22Z</time></trkpt><trkpt lat="43.20104363120432" lon="0.9431881990823904"><ele>448.0</ele><time>2026-03-29T15:02:24Z</time></trkpt><trkpt lat="43.200965508427124" lon="0.9431901233271484"><ele>448.0</ele><time>2026-03-29T15:02:27Z</time></trkpt><trkpt lat="43.201057137315736" lon="0.943174538116367"><ele>448.0</ele><time>2026-03-29T15:06:22Z</time></trkpt></trkseg><trkseg><trkpt lat="43.20100308803722" lon="0.9431144851652491"><ele>448.0</ele><time>2026-03-29T15:22:54Z</time></trkpt><trkpt lat="43.2010315613947" lon="0.9432087941586824"><ele>447.99999999999994</ele><time>2026-03-29T15:23:54Z</time></trkpt><trkpt lat="43.201002249980455" lon="0.9431308275368615"><ele>447.99999999999994</ele><time>2026-03-29T15:27:08Z</time></trkpt><trkpt lat="43.20105218855073" lon="0.9432525858490018"><ele>448.0</ele><time>2026-03-29T15:36:53Z</time></trkpt><trkpt lat="43.201151484767216" lon="0.9434134278743358"><ele>448.0</ele><time>2026-03-29T15:36:55Z</time></trkpt><trkpt lat="43.20115863425344" lon="0.9435013153995576"><ele>450.0</ele><time>2026-03-29T15:36:56Z</time></trkpt><trkpt lat="43.201121640788315" lon="0.9435837124799394"><ele>451.99999999999994</ele><time>2026-03-29T15:36:58Z</time></trkpt><trkpt lat="43.20105133031581" lon="0.9436755431774555"><ele>453.99999999999994</ele><time>2026-03-29T15:37:00Z</time></trkpt><trkpt lat="43.20094097658972" lon="0.9437102264341458"><ele>456.0</ele><time>2026-03-29T15:37:01Z</time></trkpt><trkpt lat="43.20084469431823" lon="0.9437465257461618"><ele>458.0</ele><time>2026-03-29T15:37:02Z</time></trkpt><trkpt lat="43.20075899439771" lon="0.9437879490941108"><ele>457.99999999999994</ele><time>2026-03-29T15:37:03Z</time></trkpt><trkpt lat="43.20068783770041" lon="0.9438722257831981"><ele>458.0</ele><time>2026-03-29T15:37:04Z</time></trkpt><trkpt lat="43.20064298012405" lon="0.9439517594066464"><ele>458.0</ele><time>2026-03-29T15:37:05Z</time></trkpt><trkpt lat="43.200668015837934" lon="0.9440569392484298"><ele>458.0</ele><time>2026-03-29T15:37:07Z</time></trkpt><trkpt lat="43.20067047161191" lon="0.9441602679115135"><ele>457.99999999999994</ele><time>2026-03-29T15:37:09Z</time></trkpt><trkpt lat="43.20067768282269" lon="0.944251676893645"><ele>458.0</ele><time>2026-03-29T15:37:10Z</time></trkpt><trkpt lat="43.20063963268992" lon="0.9443870530732051"><ele>460.8333333333333</ele><time>2026-03-29T15:37:12Z</time></trkpt><trkpt lat="43.200579925019" lon="0.9444802525953863"><ele>463.66666666666663</ele><time>2026-03-29T15:37:13Z</time></trkpt><trkpt lat="43.20051453406121" lon="0.9445763275220861"><ele>466.5</ele><time>2026-03-29T15:37:14Z</time></trkpt><trkpt lat="43.200452340634115" lon="0.9446488737170988"><ele>469.33333333333337</ele><time>2026-03-29T15:37:15Z</time></trkpt><trkpt lat="43.20041254506831" lon="0.944722796097504"><ele>472.1666666666667</ele><time>2026-03-29T15:37:16Z</time></trkpt><trkpt lat="43.20038260220647" lon="0.9448173963042418"><ele>475.0</ele><time>2026-03-29T15:37:17Z</time></trkpt><trkpt lat="43.20036774005324" lon="0.9449323081261036"><ele>478.4</ele><time>2026-03-29T15:37:18Z</time></trkpt><trkpt lat="43.20036269303542" lon="0.9450749574685497"><ele>481.8</ele><time>2026-03-29T15:37:19Z</time></trkpt><trkpt lat="43.20033736816609" lon="0.9452160106277335"><ele>485.20000000000005</ele><time>2026-03-29T15:37:20Z</time></trkpt><trkpt lat="43.20029541799741" lon="0.9453468493453341"><ele>488.6</ele><time>2026-03-29T15:37:21Z</time></trkpt><trkpt lat="43.200267349160626" lon="0.9454435531279971"><ele>492.0</ele><time>2026-03-29T15:37:22Z</time></trkpt><trkpt lat="43.20023564015964" lon="0.9455566161008512"><ele>492.0</ele><time>2026-03-29T15:37:23Z</time></trkpt><trkpt lat="43.20021459386032" lon="0.9456596303263988"><ele>492.0</ele><time>2026-03-29T15:37:24Z</time></trkpt><trkpt lat="43.20021338383841" lon="0.9457468947839274"><ele>492.0</ele><time>2026-03-29T15:37:25Z</time></trkpt><trkpt lat="43.20025749737321" lon="0.9458112050755885"><ele>492.0</ele><time>2026-03-29T15:37:26Z</time></trkpt><trkpt lat="43.20026801938326" lon="0.9459624071047109"><ele>492.0</ele><time>2026-03-29T15:37:28Z</time></trkpt><trkpt lat="43.200228515930874" lon="0.9461157017863611"><ele>492.0</ele><time>2026-03-29T15:37:30Z</time></trkpt><trkpt lat="43.20019082508292" lon="0.9461943103186025"><ele>493.0</ele><time>2026-03-29T15:37:31Z</time></trkpt><trkpt lat="43.20012738795264" lon="0.9463167661194317"><ele>494.0</ele><time>2026-03-29T15:37:33Z</time></trkpt><trkpt lat="43.20003393515268" lon="0.9463722971028312"><ele>495.0</ele><time>2026-03-29T15:37:35Z</time></trkpt><trkpt lat="43.19995769970925" lon="0.9463617175467463"><ele>496.0</ele><time>2026-03-29T15:37:36Z</time></trkpt><trkpt lat="43.19982052026214" lon="0.9465151438308987"><ele>496.00000000000006</ele><time>2026-03-29T15:37:42Z</time></trkpt><trkpt lat="43.199777385409625" lon="0.9465899510590584"><ele>496.0</ele><time>2026-03-29T15:37:43Z</time></trkpt><trkpt lat="43.199837803807156" lon="0.9466364889803118"><ele>496.0</ele><time>2026-03-29T15:37:45Z</time></trkpt><trkpt lat="43.19986948003145" lon="0.9467617833072495"><ele>496.0</ele><time>2026-03-29T15:37:48Z</time></trkpt><trkpt lat="43.19983416349916" lon="0.9468509668665154"><ele>496.00000000000006</ele><time>2026-03-29T15:37:51Z</time></trkpt><trkpt lat="43.19983895566062" lon="0.9469478259243566"><ele>496.0</ele><time>2026-03-29T15:37:54Z</time></trkpt><trkpt lat="43.19977735271435" lon="0.9470547024760955"><ele>498.00000000000006</ele><time>2026-03-29T15:37:57Z</time></trkpt><trkpt lat="43.1998032666108" lon="0.9471549650955885"><ele>500.0</ele><time>2026-03-29T15:37:59Z</time></trkpt><trkpt lat="43.199742045880264" lon="0.9471848507442472"><ele>502.0</ele><time>2026-03-29T15:38:01Z</time></trkpt><trkpt lat="43.19976412625143" lon="0.9473327005634814"><ele>504.0</ele><time>2026-03-29T15:38:03Z</time></trkpt><trkpt lat="43.19975697604935" lon="0.9474323542592671"><ele>506.00000000000006</ele><time>2026-03-29T15:38:06Z</time></trkpt><trkpt lat="43.19970552182513" lon="0.947541308201278"><ele>508.0</ele><time>2026-03-29T15:38:09Z</time></trkpt><trkpt lat="43.199749250971976" lon="0.9476277473727264"><ele>510.25</ele><time>2026-03-29T15:38:10Z</time></trkpt><trkpt lat="43.19967251408827" lon="0.9477490080062336"><ele>512.5</ele><time>2026-03-29T15:38:11Z</time></trkpt><trkpt lat="43.19964434478149" lon="0.9479117890521481"><ele>514.75</ele><time>2026-03-29T15:38:12Z</time></trkpt><trkpt lat="43.19957297265866" lon="0.9480460536645337"><ele>517.0</ele><time>2026-03-29T15:38:13Z</time></trkpt><trkpt lat="43.19953415213032" lon="0.9482360886806439"><ele>516.3333333333334</ele><time>2026-03-29T15:38:14Z</time></trkpt><trkpt lat="43.19951602942903" lon="0.9483976086528647"><ele>515.6666666666666</ele><time>2026-03-29T15:38:15Z</time></trkpt><trkpt lat="43.19942169024027" lon="0.9486733009264059"><ele>515.0</ele><time>2026-03-29T15:38:16Z</time></trkpt><trkpt lat="43.19929758614579" lon="0.9487480096270757"><ele>515.0</ele><time>2026-03-29T15:38:18Z</time></trkpt><trkpt lat="43.19924046531456" lon="0.948683276193609"><ele>515.0</ele><time>2026-03-29T15:38:19Z</time></trkpt><trkpt lat="43.19917679027785" lon="0.9486754898091218"><ele>515.0</ele><time>2026-03-29T15:38:20Z</time></trkpt><trkpt lat="43.19910744259121" lon="0.9486895564852804"><ele>515.0</ele><time>2026-03-29T15:38:22Z</time></trkpt><trkpt lat="43.1990071748678" lon="0.948724013736332"><ele>515.0</ele><time>2026-03-29T15:38:25Z</time></trkpt><trkpt lat="43.19893210127018" lon="0.9487622348877224"><ele>515.0</ele><time>2026-03-29T15:38:27Z</time></trkpt><trkpt lat="43.19887558227046" lon="0.9488578842758857"><ele>515.2</ele><time>2026-03-29T15:38:29Z</time></trkpt><trkpt lat="43.19883795035692" lon="0.9489660311635243"><ele>515.4</ele><time>2026-03-29T15:38:31Z</time></trkpt><trkpt lat="43.19881806235342" lon="0.9491016227553862"><ele>515.6</ele><time>2026-03-29T15:38:33Z</time></trkpt><trkpt lat="43.19877145555387" lon="0.9491927796856198"><ele>515.8</ele><time>2026-03-29T15:38:34Z</time></trkpt><trkpt lat="43.19870804848547" lon="0.9493275931296891"><ele>516.0</ele><time>2026-03-29T15:38:36Z</time></trkpt><trkpt lat="43.19870625789416" lon="0.9494547746087396"><ele>516.0</ele><time>2026-03-29T15:38:38Z</time></trkpt><trkpt lat="43.19870682362242" lon="0.9495845445647705"><ele>516.0</ele><time>2026-03-29T15:38:40Z</time></trkpt><trkpt lat="43.198593059779526" lon="0.9496944670961228"><ele>516.0</ele><time>2026-03-29T15:38:45Z</time></trkpt><trkpt lat="43.198405190671366" lon="0.9497154237601665"><ele>516.0</ele><time>2026-03-29T15:38:47Z</time></trkpt><trkpt lat="43.19834796144509" lon="0.9497720452972221"><ele>516.0</ele><time>2026-03-29T15:38:48Z</time></trkpt><trkpt lat="43.198316481712666" lon="0.9498479432295713"><ele>516.0</ele><time>2026-03-29T15:38:49Z</time></trkpt><trkpt lat="43.19830657261573" lon="0.9500370393550285"><ele>516.0</ele><time>2026-03-29T15:38:51Z</time></trkpt><trkpt lat="43.19828788064305" lon="0.9501681748853276"><ele>516.0</ele><time>2026-03-29T15:38:52Z</time></trkpt><trkpt lat="43.198274218528475" lon="0.9502558987085263"><ele>516.0</ele><time>2026-03-29T15:38:53Z</time></trkpt><trkpt lat="43.198230709606655" lon="0.9504062354878453"><ele>515.8333333333334</ele><time>2026-03-29T15:38:55Z</time></trkpt><trkpt lat="43.198192978321984" lon="0.9504816163647986"><ele>515.6666666666666</ele><time>2026-03-29T15:38:56Z</time></trkpt><trkpt lat="43.198107070272066" lon="0.9505785307557386"><ele>515.5</ele><time>2026-03-29T15:38:58Z</time></trkpt><trkpt lat="43.19806393613179" lon="0.9506436958189213"><ele>515.3333333333333</ele><time>2026-03-29T15:39:01Z</time></trkpt><trkpt lat="43.197939001038144" lon="0.950729849099207"><ele>515.1666666666666</ele><time>2026-03-29T15:39:03Z</time></trkpt><trkpt lat="43.197937404024074" lon="0.9508204238891035"><ele>515.0</ele><time>2026-03-29T15:39:05Z</time></trkpt><trkpt lat="43.197944101043994" lon="0.9509328474750547"><ele>513.5</ele><time>2026-03-29T15:39:08Z</time></trkpt><trkpt lat="43.19793046810289" lon="0.9510310546841791"><ele>512.0</ele><time>2026-03-29T15:39:09Z</time></trkpt><trkpt lat="43.19787826683473" lon="0.9511151701086411"><ele>510.5</ele><time>2026-03-29T15:39:13Z</time></trkpt><trkpt lat="43.197835094615314" lon="0.951221150488343"><ele>509.0</ele><time>2026-03-29T15:39:15Z</time></trkpt><trkpt lat="43.19782090290783" lon="0.95131543639835"><ele>507.49999999999994</ele><time>2026-03-29T15:39:17Z</time></trkpt><trkpt lat="43.19775007457043" lon="0.9514074313089533"><ele>506.0</ele><time>2026-03-29T15:39:19Z</time></trkpt><trkpt lat="43.19769994876456" lon="0.951467015103767"><ele>506.0</ele><time>2026-03-29T15:39:23Z</time></trkpt><trkpt lat="43.19765378382308" lon="0.9515766324694381"><ele>506.0</ele><time>2026-03-29T15:39:24Z</time></trkpt><trkpt lat="43.197591630247665" lon="0.9516585530879287"><ele>506.0</ele><time>2026-03-29T15:39:25Z</time></trkpt><trkpt lat="43.197537284728675" lon="0.9517395940739913"><ele>506.0</ele><time>2026-03-29T15:39:26Z</time></trkpt><trkpt lat="43.197379562408884" lon="0.951909617976916"><ele>501.8333333333333</ele><time>2026-03-29T15:39:27Z</time></trkpt><trkpt lat="43.1972961197232" lon="0.9519877945130337"><ele>497.66666666666663</ele><time>2026-03-29T15:39:28Z</time></trkpt><trkpt lat="43.19724417794661" lon="0.9520708078062963"><ele>493.5</ele><time>2026-03-29T15:39:30Z</time></trkpt><trkpt lat="43.19718972612941" lon="0.9521242432235021"><ele>489.33333333333337</ele><time>2026-03-29T15:39:34Z</time></trkpt><trkpt lat="43.1971324864967" lon="0.9521855292466187"><ele>485.1666666666667</ele><time>2026-03-29T15:39:37Z</time></trkpt><trkpt lat="43.19711606599905" lon="0.9522982562512502"><ele>481.0</ele><time>2026-03-29T15:39:41Z</time></trkpt><trkpt lat="43.19708140635626" lon="0.9524078962328448"><ele>481.00000000000006</ele><time>2026-03-29T15:39:45Z</time></trkpt><trkpt lat="43.197006507823055" lon="0.9524559762603134"><ele>481.0</ele><time>2026-03-29T15:39:48Z</time></trkpt><trkpt lat="43.19692839363718" lon="0.9525154705087405"><ele>481.0</ele><time>2026-03-29T15:39:51Z</time></trkpt><trkpt lat="43.19683247447671" lon="0.952558667072437"><ele>481.0</ele><time>2026-03-29T15:39:53Z</time></trkpt><trkpt lat="43.19674387655884" lon="0.9525547161954491"><ele>481.00000000000006</ele><time>2026-03-29T15:39:55Z</time></trkpt><trkpt lat="43.196685817128675" lon="0.9526059461556645"><ele>481.0</ele><time>2026-03-29T15:39:59Z</time></trkpt><trkpt lat="43.19663824841933" lon="0.9526705179494785"><ele>479.00000000000006</ele><time>2026-03-29T15:40:07Z</time></trkpt><trkpt lat="43.19660731112292" lon="0.9527491597209361"><ele>477.0</ele><time>2026-03-29T15:40:14Z</time></trkpt><trkpt lat="43.19659024018319" lon="0.9528506436449315"><ele>475.0</ele><time>2026-03-29T15:40:26Z</time></trkpt><trkpt lat="43.196561934984494" lon="0.9529353444566386"><ele>473.0</ele><time>2026-03-29T15:40:29Z</time></trkpt><trkpt lat="43.19655568479849" lon="0.9530507285779888"><ele>471.00000000000006</ele><time>2026-03-29T15:40:32Z</time></trkpt><trkpt lat="43.1965372979199" lon="0.9531467162924668"><ele>469.0</ele><time>2026-03-29T15:40:34Z</time></trkpt><trkpt lat="43.19646918288816" lon="0.9532162325157413"><ele>465.50000000000006</ele><time>2026-03-29T15:40:36Z</time></trkpt><trkpt lat="43.1964317648379" lon="0.9532893780594345"><ele>462.0</ele><time>2026-03-29T15:40:38Z</time></trkpt><trkpt lat="43.19633728652082" lon="0.9533217197451156"><ele>458.5</ele><time>2026-03-29T15:40:41Z</time></trkpt><trkpt lat="43.19626782216258" lon="0.953356417631463"><ele>455.0</ele><time>2026-03-29T15:40:44Z</time></trkpt><trkpt lat="43.19621090419592" lon="0.9534217936054338"><ele>451.50000000000006</ele><time>2026-03-29T15:40:47Z</time></trkpt><trkpt lat="43.19613780988201" lon="0.9534891071769882"><ele>448.0</ele><time>2026-03-29T15:40:51Z</time></trkpt><trkpt lat="43.1961174147481" lon="0.9535753797474668"><ele>448.00000000000006</ele><time>2026-03-29T15:40:58Z</time></trkpt><trkpt lat="43.1960509656712" lon="0.9536157735410308"><ele>448.0</ele><time>2026-03-29T15:41:01Z</time></trkpt><trkpt lat="43.19604158029424" lon="0.9535168485239509"><ele>448.0</ele><time>2026-03-29T15:41:04Z</time></trkpt><trkpt lat="43.1960051980964" lon="0.9534435055663623"><ele>448.0</ele><time>2026-03-29T15:41:06Z</time></trkpt><trkpt lat="43.19594002647375" lon="0.9533174638984815"><ele>448.00000000000006</ele><time>2026-03-29T15:41:08Z</time></trkpt><trkpt lat="43.19592302720105" lon="0.9531672578629292"><ele>448.0</ele><time>2026-03-29T15:41:09Z</time></trkpt><trkpt lat="43.19591948513241" lon="0.9530660266130455"><ele>448.00000000000006</ele><time>2026-03-29T15:41:10Z</time></trkpt><trkpt lat="43.195951224520975" lon="0.953163984571601"><ele>448.0</ele><time>2026-03-29T15:41:11Z</time></trkpt><trkpt lat="43.195971656540564" lon="0.9530293618784423"><ele>448.0</ele><time>2026-03-29T15:41:13Z</time></trkpt><trkpt lat="43.19598201945615" lon="0.9528648281570993"><ele>448.0</ele><time>2026-03-29T15:41:15Z</time></trkpt><trkpt lat="43.195969533547064" lon="0.9527762128873377"><ele>448.00000000000006</ele><time>2026-03-29T15:41:16Z</time></trkpt><trkpt lat="43.195969586364946" lon="0.9526884947586703"><ele>448.0</ele><time>2026-03-29T15:41:17Z</time></trkpt><trkpt lat="43.19597122216938" lon="0.9525800197164164"><ele>449.0</ele><time>2026-03-29T15:41:19Z</time></trkpt><trkpt lat="43.19600229352266" lon="0.9524838170353858"><ele>449.99999999999994</ele><time>2026-03-29T15:41:24Z</time></trkpt><trkpt lat="43.19600641598252" lon="0.9523836100105555"><ele>450.99999999999994</ele><time>2026-03-29T15:41:26Z</time></trkpt><trkpt lat="43.19602345441386" lon="0.9521735398040316"><ele>452.0</ele><time>2026-03-29T15:41:27Z</time></trkpt><trkpt lat="43.196032925412275" lon="0.9520567701603874"><ele>453.0</ele><time>2026-03-29T15:41:28Z</time></trkpt><trkpt lat="43.196032204009505" lon="0.9518411476446934"><ele>453.0</ele><time>2026-03-29T15:41:29Z</time></trkpt><trkpt lat="43.195985119365936" lon="0.9517714928933106"><ele>452.99999999999994</ele><time>2026-03-29T15:41:41Z</time></trkpt><trkpt lat="43.19596304809874" lon="0.9516900628038402"><ele>452.99999999999994</ele><time>2026-03-29T15:41:45Z</time></trkpt><trkpt lat="43.19591694496758" lon="0.9517545367316558"><ele>453.0</ele><time>2026-03-29T15:41:49Z</time></trkpt><trkpt lat="43.19584790605938" lon="0.9517071899188477"><ele>453.0</ele><time>2026-03-29T15:41:51Z</time></trkpt><trkpt lat="43.19562828267582" lon="0.9517302548542562"><ele>450.0</ele><time>2026-03-29T15:41:53Z</time></trkpt><trkpt lat="43.19558094575577" lon="0.951662750061834"><ele>447.0</ele><time>2026-03-29T15:41:56Z</time></trkpt><trkpt lat="43.195546021632936" lon="0.9515374353856103"><ele>444.0</ele><time>2026-03-29T15:41:59Z</time></trkpt><trkpt lat="43.19551728811296" lon="0.9514415742735244"><ele>441.0</ele><time>2026-03-29T15:42:03Z</time></trkpt><trkpt lat="43.19547561970984" lon="0.9513692001981299"><ele>438.0</ele><time>2026-03-29T15:42:07Z</time></trkpt><trkpt lat="43.195431017041464" lon="0.951278090701844"><ele>435.0</ele><time>2026-03-29T15:42:11Z</time></trkpt><trkpt lat="43.19537404832502" lon="0.9511326118947997"><ele>435.0</ele><time>2026-03-29T15:42:14Z</time></trkpt><trkpt lat="43.19536822575078" lon="0.9510407327913849"><ele>435.0</ele><time>2026-03-29T15:42:18Z</time></trkpt><trkpt lat="43.195328216331355" lon="0.9509396569720565"><ele>435.0</ele><time>2026-03-29T15:42:21Z</time></trkpt><trkpt lat="43.19525584965721" lon="0.950887704949262"><ele>435.0</ele><time>2026-03-29T15:42:26Z</time></trkpt><trkpt lat="43.19515967007421" lon="0.9508467048118944"><ele>435.0</ele><time>2026-03-29T15:42:29Z</time></trkpt><trkpt lat="43.19511252618752" lon="0.9506977512665323"><ele>434.75</ele><time>2026-03-29T15:42:30Z</time></trkpt><trkpt lat="43.1951395421594" lon="0.9505113886215161"><ele>434.5</ele><time>2026-03-29T15:42:33Z</time></trkpt><trkpt lat="43.19517192054554" lon="0.9503749419781703"><ele>434.25</ele><time>2026-03-29T15:42:39Z</time></trkpt><trkpt lat="43.19519026925359" lon="0.9502144612862203"><ele>434.0</ele><time>2026-03-29T15:42:41Z</time></trkpt><trkpt lat="43.19519695662648" lon="0.9500851095886795"><ele>434.2</ele><time>2026-03-29T15:42:42Z</time></trkpt><trkpt lat="43.195149819462635" lon="0.9499477101309126"><ele>434.4</ele><time>2026-03-29T15:42:43Z</time></trkpt><trkpt lat="43.19518167342497" lon="0.9498451020779234"><ele>434.6</ele><time>2026-03-29T15:42:44Z</time></trkpt><trkpt lat="43.19513309428418" lon="0.9497561251039515"><ele>434.8</ele><time>2026-03-29T15:42:45Z</time></trkpt><trkpt lat="43.195056331308585" lon="0.9496541336983128"><ele>435.0</ele><time>2026-03-29T15:42:46Z</time></trkpt><trkpt lat="43.19498317578387" lon="0.9495533407810838"><ele>435.0</ele><time>2026-03-29T15:42:47Z</time></trkpt><trkpt lat="43.19497147621588" lon="0.9494033791640583"><ele>435.0</ele><time>2026-03-29T15:42:48Z</time></trkpt><trkpt lat="43.19487266400074" lon="0.9493683039563998"><ele>435.0</ele><time>2026-03-29T15:42:50Z</time></trkpt><trkpt lat="43.19477569545316" lon="0.9492754186694007"><ele>435.0</ele><time>2026-03-29T15:42:59Z</time></trkpt><trkpt lat="43.19469180297071" lon="0.949189508853273"><ele>435.0</ele><time>2026-03-29T15:43:00Z</time></trkpt><trkpt lat="43.19467623819303" lon="0.9490429604506517"><ele>433.5</ele><time>2026-03-29T15:43:06Z</time></trkpt><trkpt lat="43.19458117573356" lon="0.9489663984752584"><ele>432.0</ele><time>2026-03-29T15:43:08Z</time></trkpt><trkpt lat="43.194493853902515" lon="0.948989852719279"><ele>430.5</ele><time>2026-03-29T15:43:09Z</time></trkpt><trkpt lat="43.19441458428255" lon="0.948995376992659"><ele>429.0</ele><time>2026-03-29T15:43:10Z</time></trkpt><trkpt lat="43.194202973289656" lon="0.9492561737976967"><ele>427.5</ele><time>2026-03-29T15:43:11Z</time></trkpt><trkpt lat="43.19410986870028" lon="0.9494260301003169"><ele>426.0</ele><time>2026-03-29T15:43:12Z</time></trkpt><trkpt lat="43.19398650836225" lon="0.9495243373437724"><ele>424.5</ele><time>2026-03-29T15:43:13Z</time></trkpt><trkpt lat="43.193897899454946" lon="0.9495540506908684"><ele>423.0</ele><time>2026-03-29T15:43:14Z</time></trkpt><trkpt lat="43.19375995923594" lon="0.9497596711480032"><ele>423.33333333333337</ele><time>2026-03-29T15:43:15Z</time></trkpt><trkpt lat="43.19349656940746" lon="0.950044275633216"><ele>423.6666666666667</ele><time>2026-03-29T15:43:16Z</time></trkpt><trkpt lat="43.193431829619705" lon="0.9500583574568322"><ele>424.0</ele><time>2026-03-29T15:43:17Z</time></trkpt><trkpt lat="43.1933668331119" lon="0.9500974428052484"><ele>424.00000000000006</ele><time>2026-03-29T15:43:18Z</time></trkpt><trkpt lat="43.19329189042744" lon="0.9500920311378201"><ele>424.0</ele><time>2026-03-29T15:43:19Z</time></trkpt><trkpt lat="43.193217609342646" lon="0.9500759140411597"><ele>424.0</ele><time>2026-03-29T15:43:20Z</time></trkpt><trkpt lat="43.193135968237705" lon="0.9500297848213127"><ele>424.0</ele><time>2026-03-29T15:43:21Z</time></trkpt><trkpt lat="43.19305734778911" lon="0.94994119361532"><ele>424.00000000000006</ele><time>2026-03-29T15:43:22Z</time></trkpt><trkpt lat="43.192982526761945" lon="0.9498960801349959"><ele>424.0</ele><time>2026-03-29T15:43:23Z</time></trkpt><trkpt lat="43.19288849988331" lon="0.9498629051501646"><ele>422.6</ele><time>2026-03-29T15:43:25Z</time></trkpt><trkpt lat="43.19277570878786" lon="0.9497984181668881"><ele>421.2</ele><time>2026-03-29T15:43:26Z</time></trkpt><trkpt lat="43.19270286876983" lon="0.9497346606934154"><ele>419.8</ele><time>2026-03-29T15:43:27Z</time></trkpt><trkpt lat="43.192628552665" lon="0.9497014275959376"><ele>418.40000000000003</ele><time>2026-03-29T15:43:28Z</time></trkpt><trkpt lat="43.192564725305054" lon="0.9496652883184789"><ele>417.0</ele><time>2026-03-29T15:43:29Z</time></trkpt><trkpt lat="43.192707413279706" lon="0.9494840549100786"><ele>417.0</ele><time>2026-03-29T15:43:30Z</time></trkpt><trkpt lat="43.192665864577435" lon="0.949403761074781"><ele>417.0</ele><time>2026-03-29T15:43:31Z</time></trkpt><trkpt lat="43.192695079674586" lon="0.9492880966302625"><ele>417.0</ele><time>2026-03-29T15:43:32Z</time></trkpt><trkpt lat="43.192703050647246" lon="0.9491754581029743"><ele>417.0</ele><time>2026-03-29T15:43:33Z</time></trkpt><trkpt lat="43.19273389885145" lon="0.9490336541107677"><ele>417.0</ele><time>2026-03-29T15:43:34Z</time></trkpt><trkpt lat="43.19273809129734" lon="0.9489332409864727"><ele>417.0</ele><time>2026-03-29T15:43:35Z</time></trkpt><trkpt lat="43.192754455743696" lon="0.9488280494251581"><ele>416.6</ele><time>2026-03-29T15:43:36Z</time></trkpt><trkpt lat="43.192794815443044" lon="0.9485930187195836"><ele>416.20000000000005</ele><time>2026-03-29T15:43:37Z</time></trkpt><trkpt lat="43.19280683454148" lon="0.9485030690312898"><ele>415.8</ele><time>2026-03-29T15:43:38Z</time></trkpt><trkpt lat="43.19276158013694" lon="0.9484117787251033"><ele>415.4</ele><time>2026-03-29T15:43:39Z</time></trkpt><trkpt lat="43.19269609181856" lon="0.9482826176620514"><ele>415.0</ele><time>2026-03-29T15:43:41Z</time></trkpt><trkpt lat="43.19265401839202" lon="0.948214170702085"><ele>413.25</ele><time>2026-03-29T15:43:42Z</time></trkpt><trkpt lat="43.19259182455034" lon="0.9481735685272671"><ele>411.5</ele><time>2026-03-29T15:43:44Z</time></trkpt><trkpt lat="43.1925396145647" lon="0.9480435169170207"><ele>409.75</ele><time>2026-03-29T15:43:46Z</time></trkpt><trkpt lat="43.1925754687109" lon="0.9481839601665749"><ele>408.0</ele><time>2026-03-29T15:43:47Z</time></trkpt><trkpt lat="43.19258345713994" lon="0.9479485434794461"><ele>408.0</ele><time>2026-03-29T15:43:50Z</time></trkpt><trkpt lat="43.192569446482686" lon="0.9478224251345441"><ele>408.0</ele><time>2026-03-29T15:43:54Z</time></trkpt><trkpt lat="43.192539689189566" lon="0.9477082659236826"><ele>408.0</ele><time>2026-03-29T15:43:55Z</time></trkpt><trkpt lat="43.19252258003434" lon="0.9475466398111212"><ele>408.0</ele><time>2026-03-29T15:43:56Z</time></trkpt><trkpt lat="43.192507646290515" lon="0.9474049560221953"><ele>408.0</ele><time>2026-03-29T15:43:57Z</time></trkpt><trkpt lat="43.192503663150255" lon="0.947303383363304"><ele>407.2</ele><time>2026-03-29T15:43:58Z</time></trkpt><trkpt lat="43.19251250340443" lon="0.9472070769551548"><ele>406.4</ele><time>2026-03-29T15:43:59Z</time></trkpt><trkpt lat="43.19253908528136" lon="0.9470376575780252"><ele>405.59999999999997</ele><time>2026-03-29T15:44:01Z</time></trkpt><trkpt lat="43.192564669675384" lon="0.9469337590787889"><ele>404.79999999999995</ele><time>2026-03-29T15:44:03Z</time></trkpt><trkpt lat="43.19249281275844" lon="0.9468068132907691"><ele>404.0</ele><time>2026-03-29T15:44:05Z</time></trkpt><trkpt lat="43.19242746119866" lon="0.9467535128831985"><ele>401.8333333333333</ele><time>2026-03-29T15:44:07Z</time></trkpt><trkpt lat="43.19233899014182" lon="0.9467002241572466"><ele>399.66666666666663</ele><time>2026-03-29T15:44:09Z</time></trkpt><trkpt lat="43.192223956121786" lon="0.9466699226801872"><ele>397.5</ele><time>2026-03-29T15:44:10Z</time></trkpt><trkpt lat="43.192156310000435" lon="0.9466846156864397"><ele>395.33333333333337</ele><time>2026-03-29T15:44:11Z</time></trkpt><trkpt lat="43.19209534368776" lon="0.9466276063371049"><ele>393.1666666666667</ele><time>2026-03-29T15:44:12Z</time></trkpt><trkpt lat="43.19202382177525" lon="0.9466222614245288"><ele>391.0</ele><time>2026-03-29T15:44:14Z</time></trkpt><trkpt lat="43.19202151725828" lon="0.9465117097539482"><ele>391.0</ele><time>2026-03-29T15:44:16Z</time></trkpt><trkpt lat="43.1920510279787" lon="0.9463970797316916"><ele>391.0</ele><time>2026-03-29T15:44:17Z</time></trkpt><trkpt lat="43.19210400585579" lon="0.9461662071520536"><ele>391.0</ele><time>2026-03-29T15:44:19Z</time></trkpt><trkpt lat="43.19214838484013" lon="0.9460534771049667"><ele>391.0</ele><time>2026-03-29T15:44:20Z</time></trkpt><trkpt lat="43.192197400509286" lon="0.9458973003268719"><ele>391.6666666666667</ele><time>2026-03-29T15:44:22Z</time></trkpt><trkpt lat="43.1922293325682" lon="0.9458075889264332"><ele>392.33333333333337</ele><time>2026-03-29T15:44:24Z</time></trkpt><trkpt lat="43.19230129828132" lon="0.9457946910232308"><ele>393.0</ele><time>2026-03-29T15:44:26Z</time></trkpt><trkpt lat="43.1923487754348" lon="0.9456710704815864"><ele>393.66666666666663</ele><time>2026-03-29T15:44:28Z</time></trkpt><trkpt lat="43.19238263288247" lon="0.9455498154113353"><ele>394.3333333333333</ele><time>2026-03-29T15:44:30Z</time></trkpt><trkpt lat="43.19238393850175" lon="0.945431883104315"><ele>395.0</ele><time>2026-03-29T15:44:31Z</time></trkpt><trkpt lat="43.19237996314191" lon="0.9453317056816145"><ele>394.99999999999994</ele><time>2026-03-29T15:44:32Z</time></trkpt><trkpt lat="43.19239542139002" lon="0.9452103610602393"><ele>395.0</ele><time>2026-03-29T15:44:33Z</time></trkpt><trkpt lat="43.19241338434848" lon="0.9450888158263159"><ele>395.0</ele><time>2026-03-29T15:44:35Z</time></trkpt><trkpt lat="43.19243379901379" lon="0.94500158747805"><ele>395.0</ele><time>2026-03-29T15:44:36Z</time></trkpt><trkpt lat="43.192448243084364" lon="0.9448787730914712"><ele>394.99999999999994</ele><time>2026-03-29T15:44:38Z</time></trkpt><trkpt lat="43.19240245836723" lon="0.9447439154798012"><ele>395.0</ele><time>2026-03-29T15:44:44Z</time></trkpt><trkpt lat="43.19237012282407" lon="0.9445930635754286"><ele>394.0</ele><time>2026-03-29T15:44:45Z</time></trkpt><trkpt lat="43.192354322804306" lon="0.9444991254023712"><ele>393.0</ele><time>2026-03-29T15:44:46Z</time></trkpt><trkpt lat="43.192321160127406" lon="0.9444152156447938"><ele>392.0</ele><time>2026-03-29T15:44:47Z</time></trkpt><trkpt lat="43.19228928623688" lon="0.9443066063091021"><ele>391.0</ele><time>2026-03-29T15:44:48Z</time></trkpt><trkpt lat="43.19226685610232" lon="0.9442245385353619"><ele>390.0</ele><time>2026-03-29T15:44:49Z</time></trkpt><trkpt lat="43.19222345238261" lon="0.9441364386796776"><ele>389.0</ele><time>2026-03-29T15:44:50Z</time></trkpt><trkpt lat="43.19217842197006" lon="0.9440748308198609"><ele>388.0</ele><time>2026-03-29T15:44:51Z</time></trkpt><trkpt lat="43.192123084555064" lon="0.9440178820840387"><ele>385.1666666666667</ele><time>2026-03-29T15:44:52Z</time></trkpt><trkpt lat="43.19206368446096" lon="0.9439366881743535"><ele>382.33333333333337</ele><time>2026-03-29T15:44:53Z</time></trkpt><trkpt lat="43.191996206645456" lon="0.94387165137634"><ele>379.5</ele><time>2026-03-29T15:44:54Z</time></trkpt><trkpt lat="43.191943765026295" lon="0.9438238297796595"><ele>376.6666666666667</ele><time>2026-03-29T15:44:55Z</time></trkpt><trkpt lat="43.19185480148594" lon="0.9437607313224383"><ele>373.83333333333337</ele><time>2026-03-29T15:44:57Z</time></trkpt><trkpt lat="43.191748712829565" lon="0.9437530601715023"><ele>371.0</ele><time>2026-03-29T15:44:59Z</time></trkpt><trkpt lat="43.19167210971958" lon="0.9437685047013609"><ele>371.0</ele><time>2026-03-29T15:45:01Z</time></trkpt><trkpt lat="43.191669659247395" lon="0.9438603791494791"><ele>371.0</ele><time>2026-03-29T15:45:30Z</time></trkpt><trkpt lat="43.19161443003551" lon="0.9439229905507117"><ele>371.0</ele><time>2026-03-29T15:45:33Z</time></trkpt><trkpt lat="43.19153632134645" lon="0.9439110098236164"><ele>371.0</ele><time>2026-03-29T15:45:37Z</time></trkpt><trkpt lat="43.19145571214915" lon="0.9439728505840151"><ele>371.0</ele><time>2026-03-29T15:45:42Z</time></trkpt><trkpt lat="43.19138963762315" lon="0.9440436421751891"><ele>371.0</ele><time>2026-03-29T15:45:44Z</time></trkpt><trkpt lat="43.19132190781883" lon="0.9440807087213794"><ele>370.4</ele><time>2026-03-29T15:45:47Z</time></trkpt><trkpt lat="43.1912848334895" lon="0.9441599969728579"><ele>369.8</ele><time>2026-03-29T15:45:50Z</time></trkpt><trkpt lat="43.191228205688624" lon="0.9442640324695084"><ele>369.2</ele><time>2026-03-29T15:45:53Z</time></trkpt><trkpt lat="43.191164181660056" lon="0.9443906748268214"><ele>368.59999999999997</ele><time>2026-03-29T15:45:54Z</time></trkpt><trkpt lat="43.19109591523001" lon="0.9445724647101118"><ele>368.0</ele><time>2026-03-29T15:45:55Z</time></trkpt><trkpt lat="43.19103310574968" lon="0.9447000296464066"><ele>368.0</ele><time>2026-03-29T15:45:56Z</time></trkpt><trkpt lat="43.19095437723975" lon="0.9449475030960257"><ele>368.0</ele><time>2026-03-29T15:45:57Z</time></trkpt><trkpt lat="43.19086326009012" lon="0.9451182449021536"><ele>368.0</ele><time>2026-03-29T15:45:58Z</time></trkpt><trkpt lat="43.190760575976064" lon="0.9452367491276987"><ele>365.6666666666667</ele><time>2026-03-29T15:45:59Z</time></trkpt><trkpt lat="43.19055484274493" lon="0.9453437159165522"><ele>363.3333333333333</ele><time>2026-03-29T15:46:00Z</time></trkpt><trkpt lat="43.190440958527965" lon="0.9454434610811429"><ele>361.0</ele><time>2026-03-29T15:46:01Z</time></trkpt><trkpt lat="43.1903429576192" lon="0.9455320982854917"><ele>361.0</ele><time>2026-03-29T15:46:02Z</time></trkpt><trkpt lat="43.19023157842328" lon="0.9456233034087277"><ele>361.0</ele><time>2026-03-29T15:46:03Z</time></trkpt><trkpt lat="43.190150918803916" lon="0.9456568041788732"><ele>361.0</ele><time>2026-03-29T15:46:04Z</time></trkpt><trkpt lat="43.190073938474036" lon="0.9457181568660895"><ele>361.0</ele><time>2026-03-29T15:46:05Z</time></trkpt><trkpt lat="43.19000511648684" lon="0.9457801396083011"><ele>361.0</ele><time>2026-03-29T15:46:06Z</time></trkpt><trkpt lat="43.1899376588364" lon="0.9458697044560125"><ele>361.6</ele><time>2026-03-29T15:46:07Z</time></trkpt><trkpt lat="43.189870375766304" lon="0.9459260209709494"><ele>362.20000000000005</ele><time>2026-03-29T15:46:08Z</time></trkpt><trkpt lat="43.18976302260798" lon="0.945985103214137"><ele>362.79999999999995</ele><time>2026-03-29T15:46:10Z</time></trkpt><trkpt lat="43.18963015626493" lon="0.9460153223394681"><ele>363.4</ele><time>2026-03-29T15:46:12Z</time></trkpt><trkpt lat="43.18955637770067" lon="0.9460987546128792"><ele>364.0</ele><time>2026-03-29T15:46:13Z</time></trkpt><trkpt lat="43.18949839776469" lon="0.9462032987432671"><ele>361.6</ele><time>2026-03-29T15:46:14Z</time></trkpt><trkpt lat="43.18942718817705" lon="0.9463258595450954"><ele>359.2</ele><time>2026-03-29T15:46:15Z</time></trkpt><trkpt lat="43.18936888528586" lon="0.9464252891053455"><ele>356.8</ele><time>2026-03-29T15:46:16Z</time></trkpt><trkpt lat="43.18933327836837" lon="0.9465378125649478"><ele>354.40000000000003</ele><time>2026-03-29T15:46:17Z</time></trkpt><trkpt lat="43.18928805954297" lon="0.9466588132124132"><ele>352.0</ele><time>2026-03-29T15:46:18Z</time></trkpt><trkpt lat="43.18925938401343" lon="0.9468038205322886"><ele>352.0</ele><time>2026-03-29T15:46:19Z</time></trkpt><trkpt lat="43.189239858955595" lon="0.9469819685917339"><ele>352.0</ele><time>2026-03-29T15:46:20Z</time></trkpt><trkpt lat="43.18917468253992" lon="0.9471288837053451"><ele>352.0</ele><time>2026-03-29T15:46:21Z</time></trkpt><trkpt lat="43.18912759211814" lon="0.94724800659166"><ele>352.0</ele><time>2026-03-29T15:46:22Z</time></trkpt><trkpt lat="43.18906993246983" lon="0.9473515710487738"><ele>352.0</ele><time>2026-03-29T15:46:23Z</time></trkpt><trkpt lat="43.18901683310244" lon="0.9474537104973353"><ele>352.0</ele><time>2026-03-29T15:46:24Z</time></trkpt><trkpt lat="43.18893889460328" lon="0.9475598411662421"><ele>352.0</ele><time>2026-03-29T15:46:25Z</time></trkpt><trkpt lat="43.18887098064263" lon="0.9476613708531877"><ele>352.0</ele><time>2026-03-29T15:46:26Z</time></trkpt><trkpt lat="43.188791076732585" lon="0.9477613111609297"><ele>352.0</ele><time>2026-03-29T15:46:27Z</time></trkpt><trkpt lat="43.18874173807468" lon="0.947856440369713"><ele>350.20000000000005</ele><time>2026-03-29T15:46:28Z</time></trkpt><trkpt lat="43.188700393021676" lon="0.9479580690288265"><ele>348.4</ele><time>2026-03-29T15:46:29Z</time></trkpt><trkpt lat="43.18865584454831" lon="0.9480733472277715"><ele>346.6</ele><time>2026-03-29T15:46:30Z</time></trkpt><trkpt lat="43.18860465046532" lon="0.9481868662317499"><ele>344.79999999999995</ele><time>2026-03-29T15:46:31Z</time></trkpt><trkpt lat="43.18854905421692" lon="0.9483256623550923"><ele>343.0</ele><time>2026-03-29T15:46:32Z</time></trkpt><trkpt lat="43.188505948576385" lon="0.9484552512825538"><ele>342.79999999999995</ele><time>2026-03-29T15:46:33Z</time></trkpt><trkpt lat="43.18846349756668" lon="0.9485749995905233"><ele>342.6</ele><time>2026-03-29T15:46:34Z</time></trkpt><trkpt lat="43.188432992374175" lon="0.9486835165680882"><ele>342.4</ele><time>2026-03-29T15:46:35Z</time></trkpt><trkpt lat="43.18837975320876" lon="0.9488135585543912"><ele>342.20000000000005</ele><time>2026-03-29T15:46:37Z</time></trkpt><trkpt lat="43.18829572770572" lon="0.9489459857351847"><ele>342.0</ele><time>2026-03-29T15:46:39Z</time></trkpt><trkpt lat="43.18825460875819" lon="0.9490206224850235"><ele>341.8</ele><time>2026-03-29T15:46:40Z</time></trkpt><trkpt lat="43.18813390686226" lon="0.9491243785589548"><ele>341.6</ele><time>2026-03-29T15:46:42Z</time></trkpt><trkpt lat="43.1880375585839" lon="0.9492092258152082"><ele>341.40000000000003</ele><time>2026-03-29T15:46:43Z</time></trkpt><trkpt lat="43.187974747361054" lon="0.9493013211064597"><ele>341.20000000000005</ele><time>2026-03-29T15:46:44Z</time></trkpt><trkpt lat="43.18793233158366" lon="0.9494087767366659"><ele>341.0</ele><time>2026-03-29T15:46:45Z</time></trkpt><trkpt lat="43.18788894791773" lon="0.9495224082121253"><ele>340.8</ele><time>2026-03-29T15:46:46Z</time></trkpt><trkpt lat="43.18784216251685" lon="0.9496280407026954"><ele>340.6</ele><time>2026-03-29T15:46:47Z</time></trkpt><trkpt lat="43.18777482577463" lon="0.9497269299891496"><ele>340.4</ele><time>2026-03-29T15:46:48Z</time></trkpt><trkpt lat="43.18768249573895" lon="0.9498022079638031"><ele>340.2</ele><time>2026-03-29T15:46:50Z</time></trkpt><trkpt lat="43.18758137632208" lon="0.9498197172395632"><ele>340.0</ele><time>2026-03-29T15:46:51Z</time></trkpt><trkpt lat="43.1874940018495" lon="0.9498363997885836"><ele>340.0</ele><time>2026-03-29T15:46:52Z</time></trkpt><trkpt lat="43.18742363882089" lon="0.949843479571924"><ele>340.0</ele><time>2026-03-29T15:46:53Z</time></trkpt><trkpt lat="43.187361856186186" lon="0.9498082723133702"><ele>340.0</ele><time>2026-03-29T15:46:54Z</time></trkpt><trkpt lat="43.18725276560771" lon="0.949801965917283"><ele>340.0</ele><time>2026-03-29T15:46:56Z</time></trkpt><trkpt lat="43.18723761039857" lon="0.9499294671607775"><ele>340.0</ele><time>2026-03-29T15:47:05Z</time></trkpt><trkpt lat="43.187158715957395" lon="0.9500803103962044"><ele>341.0</ele><time>2026-03-29T15:47:06Z</time></trkpt><trkpt lat="43.18712020092316" lon="0.9501530528707142"><ele>342.0</ele><time>2026-03-29T15:47:08Z</time></trkpt><trkpt lat="43.18705453552866" lon="0.9501909576780747"><ele>343.0</ele><time>2026-03-29T15:47:09Z</time></trkpt><trkpt lat="43.18701615364157" lon="0.9503427734149373"><ele>344.0</ele><time>2026-03-29T15:47:11Z</time></trkpt><trkpt lat="43.18701424322322" lon="0.9504780351269028"><ele>345.0</ele><time>2026-03-29T15:47:13Z</time></trkpt><trkpt lat="43.18705129718906" lon="0.9505865053095353"><ele>346.0</ele><time>2026-03-29T15:47:15Z</time></trkpt><trkpt lat="43.18700934630263" lon="0.9507026513232256"><ele>346.0</ele><time>2026-03-29T15:47:17Z</time></trkpt><trkpt lat="43.18701529771031" lon="0.9508260440696011"><ele>346.0</ele><time>2026-03-29T15:47:20Z</time></trkpt><trkpt lat="43.18701723850542" lon="0.9509588507535212"><ele>346.0</ele><time>2026-03-29T15:47:23Z</time></trkpt><trkpt lat="43.187000922986236" lon="0.9510545289914428"><ele>346.0</ele><time>2026-03-29T15:47:25Z</time></trkpt><trkpt lat="43.18689236229793" lon="0.9511328797347697"><ele>346.0</ele><time>2026-03-29T15:47:27Z</time></trkpt><trkpt lat="43.18684700487257" lon="0.9512029939820535"><ele>345.6</ele><time>2026-03-29T15:47:28Z</time></trkpt><trkpt lat="43.186796113371514" lon="0.951275009105166"><ele>345.20000000000005</ele><time>2026-03-29T15:47:30Z</time></trkpt><trkpt lat="43.186748349930276" lon="0.9514187852079169"><ele>344.79999999999995</ele><time>2026-03-29T15:47:32Z</time></trkpt><trkpt lat="43.18669773013886" lon="0.9514747950158559"><ele>344.4</ele><time>2026-03-29T15:47:34Z</time></trkpt><trkpt lat="43.18662842039323" lon="0.9515754758355627"><ele>344.0</ele><time>2026-03-29T15:47:36Z</time></trkpt><trkpt lat="43.18654807868328" lon="0.951653964079839"><ele>342.75</ele><time>2026-03-29T15:47:37Z</time></trkpt><trkpt lat="43.18658282486996" lon="0.9518221751899867"><ele>341.5</ele><time>2026-03-29T15:47:42Z</time></trkpt><trkpt lat="43.18658931524926" lon="0.9519710824564579"><ele>340.25</ele><time>2026-03-29T15:47:44Z</time></trkpt><trkpt lat="43.18651839546212" lon="0.9521449642150404"><ele>339.0</ele><time>2026-03-29T15:47:45Z</time></trkpt><trkpt lat="43.1865079592825" lon="0.9519670080901154"><ele>339.0</ele><time>2026-03-29T15:47:46Z</time></trkpt><trkpt lat="43.186564557301224" lon="0.9520448076539971"><ele>339.0</ele><time>2026-03-29T15:47:48Z</time></trkpt><trkpt lat="43.18665689659864" lon="0.9521414916088742"><ele>339.0</ele><time>2026-03-29T15:47:50Z</time></trkpt><trkpt lat="43.18634183392844" lon="0.953995249804367"><ele>339.3333333333333</ele><time>2026-03-29T15:47:52Z</time></trkpt><trkpt lat="43.18620906766907" lon="0.9542362409908909"><ele>339.66666666666663</ele><time>2026-03-29T15:47:53Z</time></trkpt><trkpt lat="43.18606681664765" lon="0.9544416443261069"><ele>340.0</ele><time>2026-03-29T15:47:54Z</time></trkpt><trkpt lat="43.18595468030432" lon="0.9546588971846481"><ele>340.0</ele><time>2026-03-29T15:47:55Z</time></trkpt><trkpt lat="43.18585180525298" lon="0.9547898527074914"><ele>340.0</ele><time>2026-03-29T15:47:56Z</time></trkpt><trkpt lat="43.18579141193612" lon="0.9548740883745821"><ele>340.0</ele><time>2026-03-29T15:47:59Z</time></trkpt><trkpt lat="43.185609843428765" lon="0.9550859615197633"><ele>346.0</ele><time>2026-03-29T15:48:15Z</time></trkpt><trkpt lat="43.18529311319692" lon="0.9556622397168423"><ele>346.0</ele><time>2026-03-29T15:48:16Z</time></trkpt><trkpt lat="43.18538512093268" lon="0.9551915071320433"><ele>346.0</ele><time>2026-03-29T15:48:17Z</time></trkpt><trkpt lat="43.1851408386729" lon="0.9558093668811989"><ele>345.25</ele><time>2026-03-29T15:48:18Z</time></trkpt><trkpt lat="43.185084930024225" lon="0.9560062634320633"><ele>344.5</ele><time>2026-03-29T15:48:19Z</time></trkpt><trkpt lat="43.185008941951835" lon="0.9561774194566977"><ele>343.75</ele><time>2026-03-29T15:48:20Z</time></trkpt><trkpt lat="43.184951336496646" lon="0.9563191808258372"><ele>343.0</ele><time>2026-03-29T15:48:21Z</time></trkpt><trkpt lat="43.18485959879683" lon="0.9564730553747717"><ele>343.79999999999995</ele><time>2026-03-29T15:48:22Z</time></trkpt><trkpt lat="43.18477940235438" lon="0.9565796174467841"><ele>344.6</ele><time>2026-03-29T15:48:23Z</time></trkpt><trkpt lat="43.18468147980305" lon="0.9567011509708246"><ele>345.4</ele><time>2026-03-29T15:48:24Z</time></trkpt><trkpt lat="43.18461339106895" lon="0.9567525904049557"><ele>346.20000000000005</ele><time>2026-03-29T15:48:25Z</time></trkpt><trkpt lat="43.184554856582686" lon="0.9568254219259248"><ele>347.0</ele><time>2026-03-29T15:48:26Z</time></trkpt><trkpt lat="43.18449257875688" lon="0.9569194575569964"><ele>347.0</ele><time>2026-03-29T15:48:27Z</time></trkpt><trkpt lat="43.18440367749829" lon="0.9570326610016926"><ele>347.0</ele><time>2026-03-29T15:48:28Z</time></trkpt><trkpt lat="43.18432126744872" lon="0.9571324969299247"><ele>347.0</ele><time>2026-03-29T15:48:29Z</time></trkpt><trkpt lat="43.1842368113198" lon="0.9572430134402656"><ele>347.0</ele><time>2026-03-29T15:48:30Z</time></trkpt><trkpt lat="43.184131566503744" lon="0.9573471373196725"><ele>347.0</ele><time>2026-03-29T15:48:31Z</time></trkpt><trkpt lat="43.184048076204476" lon="0.9574203367910353"><ele>347.0</ele><time>2026-03-29T15:48:32Z</time></trkpt><trkpt lat="43.18391538797203" lon="0.9576362175386101"><ele>347.0</ele><time>2026-03-29T15:48:33Z</time></trkpt><trkpt lat="43.18385432635889" lon="0.9577765644005198"><ele>347.0</ele><time>2026-03-29T15:48:34Z</time></trkpt><trkpt lat="43.18374139781026" lon="0.9579243894939324"><ele>345.40000000000003</ele><time>2026-03-29T15:48:35Z</time></trkpt><trkpt lat="43.183645755727156" lon="0.9580507819400101"><ele>343.8</ele><time>2026-03-29T15:48:36Z</time></trkpt><trkpt lat="43.18357614924874" lon="0.95813834575067"><ele>342.2</ele><time>2026-03-29T15:48:37Z</time></trkpt><trkpt lat="43.183511469355274" lon="0.9582362468831733"><ele>340.6</ele><time>2026-03-29T15:48:38Z</time></trkpt><trkpt lat="43.18343675532548" lon="0.9583206806162493"><ele>339.0</ele><time>2026-03-29T15:48:39Z</time></trkpt><trkpt lat="43.18336863610215" lon="0.9584045047329148"><ele>337.2</ele><time>2026-03-29T15:48:40Z</time></trkpt><trkpt lat="43.18328202525408" lon="0.9585260708217131"><ele>335.4</ele><time>2026-03-29T15:48:42Z</time></trkpt><trkpt lat="43.1832193885368" lon="0.9585490778345309"><ele>333.6</ele><time>2026-03-29T15:48:43Z</time></trkpt><trkpt lat="43.1831652086894" lon="0.9586473508696802"><ele>331.8</ele><time>2026-03-29T15:48:45Z</time></trkpt><trkpt lat="43.18310237148303" lon="0.958740255300523"><ele>330.0</ele><time>2026-03-29T15:48:46Z</time></trkpt><trkpt lat="43.18303552375267" lon="0.9588309029340182"><ele>328.4</ele><time>2026-03-29T15:48:47Z</time></trkpt><trkpt lat="43.18293110111961" lon="0.9589491907796548"><ele>326.8</ele><time>2026-03-29T15:48:49Z</time></trkpt><trkpt lat="43.18288687413308" lon="0.959012345653102"><ele>325.20000000000005</ele><time>2026-03-29T15:48:50Z</time></trkpt><trkpt lat="43.18283727344022" lon="0.9590684169948069"><ele>323.6</ele><time>2026-03-29T15:48:51Z</time></trkpt><trkpt lat="43.18275344556145" lon="0.9591719637099575"><ele>322.0</ele><time>2026-03-29T15:48:53Z</time></trkpt><trkpt lat="43.18268608127619" lon="0.9592973484636467"><ele>322.0</ele><time>2026-03-29T15:48:56Z</time></trkpt><trkpt lat="43.18311607667325" lon="0.959059641222106"><ele>323.3333333333333</ele><time>2026-03-29T15:49:06Z</time></trkpt><trkpt lat="43.18318358178717" lon="0.9590651451948878"><ele>324.66666666666663</ele><time>2026-03-29T15:49:08Z</time></trkpt><trkpt lat="43.18326873601112" lon="0.9590000175842368"><ele>326.0</ele><time>2026-03-29T15:49:10Z</time></trkpt><trkpt lat="43.18333799864597" lon="0.9590135599345341"><ele>327.3333333333333</ele><time>2026-03-29T15:49:12Z</time></trkpt><trkpt lat="43.18341618143758" lon="0.9590445096970893"><ele>328.6666666666667</ele><time>2026-03-29T15:49:14Z</time></trkpt><trkpt lat="43.18349230179616" lon="0.9590885148488633"><ele>330.0</ele><time>2026-03-29T15:49:15Z</time></trkpt><trkpt lat="43.18357214560579" lon="0.9591144205703582"><ele>330.0</ele><time>2026-03-29T15:49:17Z</time></trkpt><trkpt lat="43.18364363070463" lon="0.9591936227581137"><ele>330.0</ele><time>2026-03-29T15:49:19Z</time></trkpt><trkpt lat="43.18371196504604" lon="0.9591898751522159"><ele>330.0</ele><time>2026-03-29T15:49:21Z</time></trkpt><trkpt lat="43.183836478603496" lon="0.9592015132485955"><ele>330.0</ele><time>2026-03-29T15:49:23Z</time></trkpt><trkpt lat="43.183973390540025" lon="0.9592917774501993"><ele>330.0</ele><time>2026-03-29T15:49:24Z</time></trkpt><trkpt lat="43.184071905436696" lon="0.9593623272601763"><ele>331.25</ele><time>2026-03-29T15:49:25Z</time></trkpt><trkpt lat="43.184161387463476" lon="0.9594507917477728"><ele>332.5</ele><time>2026-03-29T15:49:26Z</time></trkpt><trkpt lat="43.18424648497178" lon="0.9595566975824495"><ele>333.75</ele><time>2026-03-29T15:49:27Z</time></trkpt><trkpt lat="43.184384398429934" lon="0.9596352776720135"><ele>335.0</ele><time>2026-03-29T15:49:28Z</time></trkpt><trkpt lat="43.18455298510165" lon="0.9597891534934934"><ele>335.0</ele><time>2026-03-29T15:49:29Z</time></trkpt><trkpt lat="43.18467950739414" lon="0.9598769003481655"><ele>335.0</ele><time>2026-03-29T15:49:30Z</time></trkpt><trkpt lat="43.1847552890976" lon="0.9599432889766488"><ele>335.0</ele><time>2026-03-29T15:49:31Z</time></trkpt><trkpt lat="43.18480308710891" lon="0.9600061000069211"><ele>335.0</ele><time>2026-03-29T15:49:32Z</time></trkpt><trkpt lat="43.18487290543566" lon="0.9600722215704084"><ele>335.0</ele><time>2026-03-29T15:49:33Z</time></trkpt><trkpt lat="43.18492510877959" lon="0.9601433507012762"><ele>333.6666666666667</ele><time>2026-03-29T15:49:34Z</time></trkpt><trkpt lat="43.184947689670516" lon="0.960235343536049"><ele>332.33333333333337</ele><time>2026-03-29T15:49:37Z</time></trkpt><trkpt lat="43.18503626388611" lon="0.9602304238356517"><ele>331.0</ele><time>2026-03-29T15:49:39Z</time></trkpt><trkpt lat="43.18506725051178" lon="0.960313349466997"><ele>329.6666666666667</ele><time>2026-03-29T15:49:43Z</time></trkpt><trkpt lat="43.18513663696294" lon="0.9604005291485221"><ele>328.3333333333333</ele><time>2026-03-29T15:49:46Z</time></trkpt><trkpt lat="43.18520560689686" lon="0.9604713879599799"><ele>327.0</ele><time>2026-03-29T15:49:48Z</time></trkpt><trkpt lat="43.18526489868588" lon="0.9605115417642954"><ele>327.0</ele><time>2026-03-29T15:49:50Z</time></trkpt><trkpt lat="43.185306437484634" lon="0.9605870356048984"><ele>327.0</ele><time>2026-03-29T15:49:53Z</time></trkpt><trkpt lat="43.18537594350182" lon="0.960635252682731"><ele>327.0</ele><time>2026-03-29T15:49:56Z</time></trkpt><trkpt lat="43.185480511157415" lon="0.9607394205756916"><ele>327.0</ele><time>2026-03-29T15:49:59Z</time></trkpt><trkpt lat="43.1854514357813" lon="0.9606562366418322"><ele>327.0</ele><time>2026-03-29T15:50:00Z</time></trkpt><trkpt lat="43.185516155538" lon="0.9607188992527499"><ele>327.0</ele><time>2026-03-29T15:50:04Z</time></trkpt><trkpt lat="43.185626536399" lon="0.960821498169788"><ele>325.8</ele><time>2026-03-29T15:50:06Z</time></trkpt><trkpt lat="43.185596582386374" lon="0.9609527774867803"><ele>324.6</ele><time>2026-03-29T15:50:11Z</time></trkpt><trkpt lat="43.185599128339355" lon="0.961146244756357"><ele>323.40000000000003</ele><time>2026-03-29T15:50:12Z</time></trkpt><trkpt lat="43.18565681385893" lon="0.9612283179600345"><ele>322.20000000000005</ele><time>2026-03-29T15:50:15Z</time></trkpt><trkpt lat="43.18563871330003" lon="0.9613285519387571"><ele>321.0</ele><time>2026-03-29T15:50:17Z</time></trkpt><trkpt lat="43.18562691187567" lon="0.9614761300296364"><ele>321.0</ele><time>2026-03-29T15:50:19Z</time></trkpt><trkpt lat="43.1855604789257" lon="0.9614730992499767"><ele>321.0</ele><time>2026-03-29T15:50:22Z</time></trkpt><trkpt lat="43.18558724861" lon="0.9615642176705023"><ele>321.0</ele><time>2026-03-29T15:50:23Z</time></trkpt><trkpt lat="43.185599341794386" lon="0.9617020150724583"><ele>321.0</ele><time>2026-03-29T15:50:24Z</time></trkpt><trkpt lat="43.18561464409769" lon="0.9618041969567998"><ele>321.0</ele><time>2026-03-29T15:50:27Z</time></trkpt><trkpt lat="43.1856784634514" lon="0.9618914116307925"><ele>321.0</ele><time>2026-03-29T15:50:28Z</time></trkpt><trkpt lat="43.185577336666036" lon="0.9620330672837926"><ele>319.0</ele><time>2026-03-29T15:50:38Z</time></trkpt><trkpt lat="43.185389455755214" lon="0.9620483359427343"><ele>317.0</ele><time>2026-03-29T15:50:39Z</time></trkpt><trkpt lat="43.18517695504783" lon="0.9620377591887129"><ele>315.0</ele><time>2026-03-29T15:50:40Z</time></trkpt><trkpt lat="43.185268557206435" lon="0.9620261534432135"><ele>315.0</ele><time>2026-03-29T15:50:43Z</time></trkpt><trkpt lat="43.185222856093006" lon="0.9621099930821781"><ele>315.0</ele><time>2026-03-29T15:51:08Z</time></trkpt><trkpt lat="43.18528002124557" lon="0.9621609360048192"><ele>315.0</ele><time>2026-03-29T15:51:25Z</time></trkpt><trkpt lat="43.18527240693469" lon="0.96225522234026"><ele>315.0</ele><time>2026-03-29T15:51:50Z</time></trkpt><trkpt lat="43.1852472965583" lon="0.9624470511127393"><ele>315.0</ele><time>2026-03-29T15:51:53Z</time></trkpt><trkpt lat="43.18518618110297" lon="0.9625053617909667"><ele>315.0</ele><time>2026-03-29T15:51:54Z</time></trkpt><trkpt lat="43.18518437470153" lon="0.9626145944089877"><ele>315.0</ele><time>2026-03-29T15:51:56Z</time></trkpt><trkpt lat="43.185141201845376" lon="0.9627139669609089"><ele>315.0</ele><time>2026-03-29T15:52:00Z</time></trkpt><trkpt lat="43.185078261580934" lon="0.9626127693546432"><ele>315.0</ele><time>2026-03-29T15:52:04Z</time></trkpt><trkpt lat="43.18504263570456" lon="0.9626913642351279"><ele>315.0</ele><time>2026-03-29T15:52:07Z</time></trkpt><trkpt lat="43.1850716334552" lon="0.9625357726161127"><ele>315.0</ele><time>2026-03-29T15:52:18Z</time></trkpt><trkpt lat="43.18516420700133" lon="0.9625264997246741"><ele>315.0</ele><time>2026-03-29T15:52:19Z</time></trkpt><trkpt lat="43.18524658056225" lon="0.9624466242132552"><ele>315.0</ele><time>2026-03-29T15:52:26Z</time></trkpt><trkpt lat="43.185575083537245" lon="0.9624624546760941"><ele>315.0</ele><time>2026-03-29T15:52:40Z</time></trkpt><trkpt lat="43.18547798311668" lon="0.9624882192752057"><ele>315.0</ele><time>2026-03-29T15:52:42Z</time></trkpt><trkpt lat="43.18541802387762" lon="0.9624328705043144"><ele>315.0</ele><time>2026-03-29T15:52:46Z</time></trkpt><trkpt lat="43.1853628449904" lon="0.9625028492197413"><ele>315.0</ele><time>2026-03-29T15:52:59Z</time></trkpt><trkpt lat="43.18539507733495" lon="0.9625851200341968"><ele>315.0</ele><time>2026-03-29T15:53:24Z</time></trkpt><trkpt lat="43.18533620216712" lon="0.9626773961948043"><ele>315.0</ele><time>2026-03-29T15:53:26Z</time></trkpt><trkpt lat="43.18533594982523" lon="0.9627816429900664"><ele>315.0</ele><time>2026-03-29T15:53:28Z</time></trkpt><trkpt lat="43.18538906205572" lon="0.9628939172742617"><ele>313.2</ele><time>2026-03-29T15:53:30Z</time></trkpt><trkpt lat="43.185399795887044" lon="0.9630104051293584"><ele>311.4</ele><time>2026-03-29T15:53:32Z</time></trkpt><trkpt lat="43.18546312362616" lon="0.9632442455311703"><ele>309.6</ele><time>2026-03-29T15:53:35Z</time></trkpt><trkpt lat="43.18552032061717" lon="0.9632832753093357"><ele>307.8</ele><time>2026-03-29T15:53:37Z</time></trkpt><trkpt lat="43.18546386872518" lon="0.9633893265974075"><ele>306.0</ele><time>2026-03-29T15:53:38Z</time></trkpt><trkpt lat="43.18534849257201" lon="0.9635496622546468"><ele>306.0</ele><time>2026-03-29T15:53:39Z</time></trkpt><trkpt lat="43.185430661194005" lon="0.963726452282191"><ele>306.0</ele><time>2026-03-29T15:53:40Z</time></trkpt><trkpt lat="43.18541618612014" lon="0.9638181018196502"><ele>306.0</ele><time>2026-03-29T15:53:41Z</time></trkpt><trkpt lat="43.18542359211425" lon="0.9639432354174556"><ele>306.0</ele><time>2026-03-29T15:53:42Z</time></trkpt><trkpt lat="43.18541605453684" lon="0.9640387800496458"><ele>306.0</ele><time>2026-03-29T15:53:43Z</time></trkpt><trkpt lat="43.18532636131042" lon="0.9640715304725503"><ele>306.0</ele><time>2026-03-29T15:53:45Z</time></trkpt><trkpt lat="43.18520743629264" lon="0.9639748031413511"><ele>306.0</ele><time>2026-03-29T15:53:47Z</time></trkpt><trkpt lat="43.18510132875316" lon="0.9640387384407284"><ele>306.0</ele><time>2026-03-29T15:53:49Z</time></trkpt><trkpt lat="43.18501187069502" lon="0.9640689049302469"><ele>306.0</ele><time>2026-03-29T15:53:50Z</time></trkpt><trkpt lat="43.18491743703278" lon="0.9641072639295333"><ele>306.0</ele><time>2026-03-29T15:53:52Z</time></trkpt><trkpt lat="43.18486937557779" lon="0.9641779163035195"><ele>306.0</ele><time>2026-03-29T15:53:54Z</time></trkpt><trkpt lat="43.18483074773494" lon="0.9640599199002077"><ele>306.0</ele><time>2026-03-29T15:53:56Z</time></trkpt><trkpt lat="43.18472476052318" lon="0.964304563682116"><ele>306.0</ele><time>2026-03-29T15:54:01Z</time></trkpt><trkpt lat="43.18464998867642" lon="0.964416546530615"><ele>306.0</ele><time>2026-03-29T15:54:03Z</time></trkpt><trkpt lat="43.184590426711814" lon="0.9645278640487444"><ele>305.2</ele><time>2026-03-29T15:54:05Z</time></trkpt><trkpt lat="43.18454063320371" lon="0.964668505608748"><ele>304.40000000000003</ele><time>2026-03-29T15:54:06Z</time></trkpt><trkpt lat="43.1845137465351" lon="0.9647988319822808"><ele>303.6</ele><time>2026-03-29T15:54:07Z</time></trkpt><trkpt lat="43.18446930888341" lon="0.9649205888542548"><ele>302.8</ele><time>2026-03-29T15:54:09Z</time></trkpt><trkpt lat="43.18444153007327" lon="0.9650026386287591"><ele>302.0</ele><time>2026-03-29T15:54:10Z</time></trkpt><trkpt lat="43.184413092651596" lon="0.9651267531867381"><ele>302.0</ele><time>2026-03-29T15:54:11Z</time></trkpt><trkpt lat="43.1843825110938" lon="0.9652648813937961"><ele>302.0</ele><time>2026-03-29T15:54:12Z</time></trkpt><trkpt lat="43.1843384472197" lon="0.9653734346694948"><ele>302.0</ele><time>2026-03-29T15:54:13Z</time></trkpt><trkpt lat="43.1842967886959" lon="0.9655006646973969"><ele>302.0</ele><time>2026-03-29T15:54:14Z</time></trkpt><trkpt lat="43.1842595383265" lon="0.9656595971360465"><ele>302.0</ele><time>2026-03-29T15:54:15Z</time></trkpt><trkpt lat="43.18422263651265" lon="0.9657918755859676"><ele>302.0</ele><time>2026-03-29T15:54:16Z</time></trkpt><trkpt lat="43.18419182760895" lon="0.9659066532001886"><ele>302.0</ele><time>2026-03-29T15:54:17Z</time></trkpt><trkpt lat="43.18413591027529" lon="0.9660923853599044"><ele>302.0</ele><time>2026-03-29T15:54:19Z</time></trkpt><trkpt lat="43.184096198815006" lon="0.9662136288368088"><ele>302.0</ele><time>2026-03-29T15:54:20Z</time></trkpt><trkpt lat="43.184067832005894" lon="0.966364973625895"><ele>302.0</ele><time>2026-03-29T15:54:21Z</time></trkpt><trkpt lat="43.18406791598454" lon="0.9664799742921338"><ele>302.0</ele><time>2026-03-29T15:54:22Z</time></trkpt><trkpt lat="43.18408644734858" lon="0.966605601479339"><ele>302.0</ele><time>2026-03-29T15:54:23Z</time></trkpt><trkpt lat="43.18406485922841" lon="0.9667561476801971"><ele>302.0</ele><time>2026-03-29T15:54:24Z</time></trkpt><trkpt lat="43.18406879836601" lon="0.9669403573434652"><ele>302.0</ele><time>2026-03-29T15:54:25Z</time></trkpt><trkpt lat="43.18406050492259" lon="0.9671980495856118"><ele>302.33333333333337</ele><time>2026-03-29T15:54:26Z</time></trkpt><trkpt lat="43.1840220023707" lon="0.9674525754889666"><ele>302.6666666666667</ele><time>2026-03-29T15:54:27Z</time></trkpt><trkpt lat="43.18399959179296" lon="0.9677075750168336"><ele>303.0</ele><time>2026-03-29T15:54:28Z</time></trkpt><trkpt lat="43.183992460321996" lon="0.9679113677398092"><ele>303.0</ele><time>2026-03-29T15:54:29Z</time></trkpt><trkpt lat="43.18397824902207" lon="0.9680645647384457"><ele>303.0</ele><time>2026-03-29T15:54:30Z</time></trkpt><trkpt lat="43.18396913709212" lon="0.9682069804948064"><ele>303.0</ele><time>2026-03-29T15:54:31Z</time></trkpt><trkpt lat="43.183982033484654" lon="0.9683083373866785"><ele>303.0</ele><time>2026-03-29T15:54:32Z</time></trkpt><trkpt lat="43.184005790334425" lon="0.968405645851955"><ele>303.0</ele><time>2026-03-29T15:54:33Z</time></trkpt><trkpt lat="43.18401774713538" lon="0.9685058615221181"><ele>303.0</ele><time>2026-03-29T15:54:34Z</time></trkpt><trkpt lat="43.18408777707129" lon="0.9685833004333346"><ele>303.0</ele><time>2026-03-29T15:54:35Z</time></trkpt><trkpt lat="43.184146856946214" lon="0.9686767598900711"><ele>303.0</ele><time>2026-03-29T15:54:36Z</time></trkpt><trkpt lat="43.18424042252407" lon="0.9687598662853426"><ele>303.0</ele><time>2026-03-29T15:54:37Z</time></trkpt><trkpt lat="43.184351766383436" lon="0.9688641199975938"><ele>303.0</ele><time>2026-03-29T15:54:38Z</time></trkpt><trkpt lat="43.184475021357365" lon="0.9689506327005423"><ele>303.0</ele><time>2026-03-29T15:54:39Z</time></trkpt><trkpt lat="43.184579725871004" lon="0.9689969411801513"><ele>303.0</ele><time>2026-03-29T15:54:40Z</time></trkpt><trkpt lat="43.18466220476156" lon="0.9690299119354785"><ele>303.0</ele><time>2026-03-29T15:54:41Z</time></trkpt><trkpt lat="43.18476147983863" lon="0.9690241743184916"><ele>303.0</ele><time>2026-03-29T15:54:42Z</time></trkpt><trkpt lat="43.18484634552503" lon="0.9690099385961579"><ele>303.0</ele><time>2026-03-29T15:54:43Z</time></trkpt><trkpt lat="43.18491144506189" lon="0.9689985377954955"><ele>303.0</ele><time>2026-03-29T15:54:44Z</time></trkpt><trkpt lat="43.18499402659723" lon="0.9690017286800007"><ele>304.2</ele><time>2026-03-29T15:54:46Z</time></trkpt><trkpt lat="43.18506218185781" lon="0.9689923348428526"><ele>305.4</ele><time>2026-03-29T15:54:47Z</time></trkpt><trkpt lat="43.18513090870178" lon="0.9689828622458071"><ele>306.59999999999997</ele><time>2026-03-29T15:54:48Z</time></trkpt><trkpt lat="43.18527002670962" lon="0.9689648088482089"><ele>307.8</ele><time>2026-03-29T15:54:50Z</time></trkpt><trkpt lat="43.18536793223089" lon="0.9689531109965994"><ele>309.0</ele><time>2026-03-29T15:54:51Z</time></trkpt><trkpt lat="43.18592332690395" lon="0.9698640380492103"><ele>309.2</ele><time>2026-03-29T15:54:56Z</time></trkpt><trkpt lat="43.18601784372463" lon="0.9699547297394819"><ele>309.4</ele><time>2026-03-29T15:54:57Z</time></trkpt><trkpt lat="43.18612085102214" lon="0.9700359633264519"><ele>309.6</ele><time>2026-03-29T15:54:58Z</time></trkpt><trkpt lat="43.18621441984588" lon="0.9700777182859661"><ele>309.8</ele><time>2026-03-29T15:54:59Z</time></trkpt><trkpt lat="43.18630408184807" lon="0.9701046188964375"><ele>310.0</ele><time>2026-03-29T15:55:00Z</time></trkpt><trkpt lat="43.186388003453565" lon="0.9701979664913363"><ele>309.75</ele><time>2026-03-29T15:55:02Z</time></trkpt><trkpt lat="43.18641334838051" lon="0.970404463724846"><ele>309.5</ele><time>2026-03-29T15:55:04Z</time></trkpt><trkpt lat="43.186399408853646" lon="0.970591157935246"><ele>309.25</ele><time>2026-03-29T15:55:05Z</time></trkpt><trkpt lat="43.18640166992088" lon="0.9707355615880995"><ele>309.0</ele><time>2026-03-29T15:55:06Z</time></trkpt><trkpt lat="43.186438209232" lon="0.9708763705432544"><ele>309.0</ele><time>2026-03-29T15:55:08Z</time></trkpt><trkpt lat="43.18652958806407" lon="0.9708968092092045"><ele>309.0</ele><time>2026-03-29T15:55:10Z</time></trkpt><trkpt lat="43.186605788560705" lon="0.9708603164174212"><ele>309.0</ele><time>2026-03-29T15:55:11Z</time></trkpt><trkpt lat="43.18667634357211" lon="0.9708266693878544"><ele>309.0</ele><time>2026-03-29T15:55:12Z</time></trkpt><trkpt lat="43.1867736922489" lon="0.9707718673585826"><ele>309.0</ele><time>2026-03-29T15:55:13Z</time></trkpt><trkpt lat="43.18684178615702" lon="0.9707577394752112"><ele>309.0</ele><time>2026-03-29T15:55:14Z</time></trkpt><trkpt lat="43.186952347416565" lon="0.9707026966781097"><ele>309.0</ele><time>2026-03-29T15:55:16Z</time></trkpt><trkpt lat="43.18701014990488" lon="0.970648561473433"><ele>309.0</ele><time>2026-03-29T15:55:17Z</time></trkpt><trkpt lat="43.18710489558247" lon="0.9705741767299698"><ele>309.0</ele><time>2026-03-29T15:55:18Z</time></trkpt><trkpt lat="43.18718150653249" lon="0.9705275486863472"><ele>309.0</ele><time>2026-03-29T15:55:19Z</time></trkpt><trkpt lat="43.18724668442617" lon="0.9705041220186136"><ele>309.0</ele><time>2026-03-29T15:55:20Z</time></trkpt><trkpt lat="43.18733318849682" lon="0.9704461294332647"><ele>309.0</ele><time>2026-03-29T15:55:22Z</time></trkpt><trkpt lat="43.18739735309227" lon="0.9703952675330269"><ele>308.59999999999997</ele><time>2026-03-29T15:55:24Z</time></trkpt><trkpt lat="43.18751360803163" lon="0.9703694920535676"><ele>308.2</ele><time>2026-03-29T15:55:26Z</time></trkpt><trkpt lat="43.18758933581927" lon="0.9703318920474415"><ele>307.79999999999995</ele><time>2026-03-29T15:55:27Z</time></trkpt><trkpt lat="43.18770789534251" lon="0.9702921761130158"><ele>307.4</ele><time>2026-03-29T15:55:29Z</time></trkpt><trkpt lat="43.187780429999805" lon="0.9702720527455555"><ele>307.0</ele><time>2026-03-29T15:55:32Z</time></trkpt><trkpt lat="43.187881220136376" lon="0.9702332861917876"><ele>307.0</ele><time>2026-03-29T15:55:34Z</time></trkpt><trkpt lat="43.18798845080442" lon="0.9701875577306378"><ele>307.0</ele><time>2026-03-29T15:55:36Z</time></trkpt><trkpt lat="43.18805912047705" lon="0.9701551049227654"><ele>307.0</ele><time>2026-03-29T15:55:41Z</time></trkpt><trkpt lat="43.188152130514" lon="0.9701185837798848"><ele>307.0</ele><time>2026-03-29T15:55:42Z</time></trkpt><trkpt lat="43.18821470313132" lon="0.9701086329116052"><ele>307.0</ele><time>2026-03-29T15:55:47Z</time></trkpt><trkpt lat="43.188321802426806" lon="0.9700851503427758"><ele>307.2</ele><time>2026-03-29T15:55:48Z</time></trkpt><trkpt lat="43.18842988065956" lon="0.9701797417821076"><ele>307.4</ele><time>2026-03-29T15:55:49Z</time></trkpt><trkpt lat="43.18847795392755" lon="0.9702849531298514"><ele>307.6</ele><time>2026-03-29T15:55:51Z</time></trkpt><trkpt lat="43.18845876895344" lon="0.9701571619728575"><ele>307.8</ele><time>2026-03-29T15:55:56Z</time></trkpt><trkpt lat="43.188524395687196" lon="0.9700811666823496"><ele>308.0</ele><time>2026-03-29T15:55:59Z</time></trkpt><trkpt lat="43.188700428981164" lon="0.9699793929696015"><ele>308.2</ele><time>2026-03-29T15:56:00Z</time></trkpt><trkpt lat="43.18878677669943" lon="0.9698911297156403"><ele>308.4</ele><time>2026-03-29T15:56:02Z</time></trkpt><trkpt lat="43.188878176211354" lon="0.9699035803486258"><ele>308.59999999999997</ele><time>2026-03-29T15:56:03Z</time></trkpt><trkpt lat="43.18897148118041" lon="0.9699157922972466"><ele>308.8</ele><time>2026-03-29T15:56:04Z</time></trkpt><trkpt lat="43.18906323862814" lon="0.97001048974928"><ele>309.0</ele><time>2026-03-29T15:56:05Z</time></trkpt><trkpt lat="43.189157525810565" lon="0.9700632828963953"><ele>309.3333333333333</ele><time>2026-03-29T15:56:08Z</time></trkpt><trkpt lat="43.18920776946093" lon="0.9701500874163145"><ele>309.6666666666667</ele><time>2026-03-29T15:56:10Z</time></trkpt><trkpt lat="43.18926640580606" lon="0.970245388199068"><ele>310.0</ele><time>2026-03-29T15:56:20Z</time></trkpt><trkpt lat="43.18930811857862" lon="0.9703388393062328"><ele>310.33333333333337</ele><time>2026-03-29T15:56:24Z</time></trkpt><trkpt lat="43.18934412411793" lon="0.9704142804259203"><ele>310.6666666666667</ele><time>2026-03-29T15:56:28Z</time></trkpt><trkpt lat="43.18938847353838" lon="0.9705005631554986"><ele>311.0</ele><time>2026-03-29T15:56:31Z</time></trkpt><trkpt lat="43.18943038312638" lon="0.9705783707898379"><ele>311.0</ele><time>2026-03-29T15:56:33Z</time></trkpt><trkpt lat="43.18947154434089" lon="0.9706830068368577"><ele>311.0</ele><time>2026-03-29T15:56:36Z</time></trkpt><trkpt lat="43.18951172783647" lon="0.9707632179771005"><ele>311.0</ele><time>2026-03-29T15:56:38Z</time></trkpt><trkpt lat="43.18957008413108" lon="0.970844918875893"><ele>311.0</ele><time>2026-03-29T15:56:43Z</time></trkpt><trkpt lat="43.18961493603824" lon="0.9709095068619457"><ele>311.0</ele><time>2026-03-29T15:56:48Z</time></trkpt><trkpt lat="43.189671248691866" lon="0.9709913710037485"><ele>311.0</ele><time>2026-03-29T15:56:53Z</time></trkpt><trkpt lat="43.189745901416046" lon="0.9711512712255869"><ele>311.2</ele><time>2026-03-29T15:56:55Z</time></trkpt><trkpt lat="43.189797859103074" lon="0.9712974759918551"><ele>311.40000000000003</ele><time>2026-03-29T15:56:56Z</time></trkpt><trkpt lat="43.1898319789179" lon="0.9714024699041982"><ele>311.6</ele><time>2026-03-29T15:56:57Z</time></trkpt><trkpt lat="43.189864988512745" lon="0.9715245817097306"><ele>311.8</ele><time>2026-03-29T15:56:58Z</time></trkpt><trkpt lat="43.18989718484327" lon="0.9716735918608406"><ele>312.0</ele><time>2026-03-29T15:56:59Z</time></trkpt><trkpt lat="43.189924114924025" lon="0.9717902519803754"><ele>312.6</ele><time>2026-03-29T15:57:00Z</time></trkpt><trkpt lat="43.18995029375969" lon="0.9719106389855792"><ele>313.2</ele><time>2026-03-29T15:57:01Z</time></trkpt><trkpt lat="43.18999918417211" lon="0.9720422652055766"><ele>313.8</ele><time>2026-03-29T15:57:03Z</time></trkpt><trkpt lat="43.19006800169055" lon="0.9721637816614246"><ele>314.4</ele><time>2026-03-29T15:57:09Z</time></trkpt><trkpt lat="43.190112194563625" lon="0.9722776342156966"><ele>315.0</ele><time>2026-03-29T15:57:14Z</time></trkpt><trkpt lat="43.19017483829698" lon="0.9724268728773687"><ele>315.0</ele><time>2026-03-29T15:57:15Z</time></trkpt><trkpt lat="43.19024345274767" lon="0.9724673293408957"><ele>315.0</ele><time>2026-03-29T15:57:16Z</time></trkpt><trkpt lat="43.19036957976854" lon="0.9724659511813892"><ele>315.0</ele><time>2026-03-29T15:57:17Z</time></trkpt><trkpt lat="43.190445853157996" lon="0.9724640193034596"><ele>315.0</ele><time>2026-03-29T15:57:18Z</time></trkpt><trkpt lat="43.190588757551765" lon="0.9724717136934249"><ele>315.0</ele><time>2026-03-29T15:57:19Z</time></trkpt><trkpt lat="43.19066558003131" lon="0.972472177987083"><ele>314.8</ele><time>2026-03-29T15:57:20Z</time></trkpt><trkpt lat="43.19074674249058" lon="0.9724692084040286"><ele>314.6</ele><time>2026-03-29T15:57:22Z</time></trkpt><trkpt lat="43.19084209259841" lon="0.9724896688985205"><ele>314.4</ele><time>2026-03-29T15:57:29Z</time></trkpt><trkpt lat="43.190942289451435" lon="0.9725547628313278"><ele>314.2</ele><time>2026-03-29T15:57:32Z</time></trkpt><trkpt lat="43.19104207530434" lon="0.9725747064554812"><ele>314.0</ele><time>2026-03-29T15:57:36Z</time></trkpt><trkpt lat="43.19111314639359" lon="0.9725209863020836"><ele>313.5</ele><time>2026-03-29T15:57:42Z</time></trkpt><trkpt lat="43.19119332449728" lon="0.9725443942801226"><ele>313.0</ele><time>2026-03-29T15:57:44Z</time></trkpt><trkpt lat="43.19125307349471" lon="0.9725891671308877"><ele>312.5</ele><time>2026-03-29T15:57:47Z</time></trkpt><trkpt lat="43.191369347372984" lon="0.9728021254476389"><ele>312.0</ele><time>2026-03-29T15:57:48Z</time></trkpt><trkpt lat="43.191470529429864" lon="0.9731171898232758"><ele>312.6666666666667</ele><time>2026-03-29T15:57:49Z</time></trkpt><trkpt lat="43.191513320677764" lon="0.9733432694984582"><ele>313.33333333333337</ele><time>2026-03-29T15:57:50Z</time></trkpt><trkpt lat="43.19155677738194" lon="0.9735498898457818"><ele>314.0</ele><time>2026-03-29T15:57:51Z</time></trkpt><trkpt lat="43.191579214414965" lon="0.9737254184164933"><ele>314.0</ele><time>2026-03-29T15:57:52Z</time></trkpt><trkpt lat="43.191606672682546" lon="0.9738568729659429"><ele>314.0</ele><time>2026-03-29T15:57:53Z</time></trkpt><trkpt lat="43.19162635463047" lon="0.9739440254595604"><ele>314.0</ele><time>2026-03-29T15:57:54Z</time></trkpt><trkpt lat="43.19167222275113" lon="0.9740220715568729"><ele>314.0</ele><time>2026-03-29T15:57:55Z</time></trkpt><trkpt lat="43.19175265167303" lon="0.9741197847479903"><ele>314.0</ele><time>2026-03-29T15:57:57Z</time></trkpt><trkpt lat="43.19177828268011" lon="0.9742377124028105"><ele>314.0</ele><time>2026-03-29T15:57:59Z</time></trkpt><trkpt lat="43.19176002308569" lon="0.9741537004286712"><ele>314.0</ele><time>2026-03-29T15:58:04Z</time></trkpt><trkpt lat="43.19185886799651" lon="0.9741190567019202"><ele>314.0</ele><time>2026-03-29T15:58:31Z</time></trkpt></trkseg></trk></gpx>